﻿<?xml version="1.0" encoding="utf-8"?><gpx creator="Garmin Desktop App" version="1.1" xsi:schemaLocation="http://www.topografix.com/GPX/1/1 http://www.topografix.com/GPX/1/1/gpx.xsd http://www.garmin.com/xmlschemas/WaypointExtension/v1 http://www8.garmin.com/xmlschemas/WaypointExtensionv1.xsd http://www.garmin.com/xmlschemas/TrackPointExtension/v1 http://www.garmin.com/xmlschemas/TrackPointExtensionv1.xsd http://www.garmin.com/xmlschemas/GpxExtensions/v3 http://www8.garmin.com/xmlschemas/GpxExtensionsv3.xsd http://www.garmin.com/xmlschemas/ActivityExtension/v1 http://www8.garmin.com/xmlschemas/ActivityExtensionv1.xsd http://www.garmin.com/xmlschemas/AdventuresExtensions/v1 http://www8.garmin.com/xmlschemas/AdventuresExtensionv1.xsd http://www.garmin.com/xmlschemas/PressureExtension/v1 http://www.garmin.com/xmlschemas/PressureExtensionv1.xsd http://www.garmin.com/xmlschemas/TripExtensions/v1 http://www.garmin.com/xmlschemas/TripExtensionsv1.xsd http://www.garmin.com/xmlschemas/TripMetaDataExtensions/v1 http://www.garmin.com/xmlschemas/TripMetaDataExtensionsv1.xsd http://www.garmin.com/xmlschemas/ViaPointTransportationModeExtensions/v1 http://www.garmin.com/xmlschemas/ViaPointTransportationModeExtensionsv1.xsd http://www.garmin.com/xmlschemas/CreationTimeExtension/v1 http://www.garmin.com/xmlschemas/CreationTimeExtensionsv1.xsd http://www.garmin.com/xmlschemas/AccelerationExtension/v1 http://www.garmin.com/xmlschemas/AccelerationExtensionv1.xsd http://www.garmin.com/xmlschemas/PowerExtension/v1 http://www.garmin.com/xmlschemas/PowerExtensionv1.xsd http://www.garmin.com/xmlschemas/VideoExtension/v1 http://www.garmin.com/xmlschemas/VideoExtensionv1.xsd" xmlns="http://www.topografix.com/GPX/1/1" xmlns:xsi="http://www.w3.org/2001/XMLSchema-instance" xmlns:wptx1="http://www.garmin.com/xmlschemas/WaypointExtension/v1" xmlns:gpxtrx="http://www.garmin.com/xmlschemas/GpxExtensions/v3" xmlns:gpxtpx="http://www.garmin.com/xmlschemas/TrackPointExtension/v1" xmlns:gpxx="http://www.garmin.com/xmlschemas/GpxExtensions/v3" xmlns:trp="http://www.garmin.com/xmlschemas/TripExtensions/v1" xmlns:adv="http://www.garmin.com/xmlschemas/AdventuresExtensions/v1" xmlns:prs="http://www.garmin.com/xmlschemas/PressureExtension/v1" xmlns:tmd="http://www.garmin.com/xmlschemas/TripMetaDataExtensions/v1" xmlns:vptm="http://www.garmin.com/xmlschemas/ViaPointTransportationModeExtensions/v1" xmlns:ctx="http://www.garmin.com/xmlschemas/CreationTimeExtension/v1" xmlns:gpxacc="http://www.garmin.com/xmlschemas/AccelerationExtension/v1" xmlns:gpxpx="http://www.garmin.com/xmlschemas/PowerExtension/v1" xmlns:vidx1="http://www.garmin.com/xmlschemas/VideoExtension/v1">

  <metadata>
    <link href="http://www.garmin.com">
      <text>Garmin International</text>
    </link>
    <time>2021-09-13T12:11:51Z</time>
    <bounds maxlat="45.698028551414609" maxlon="6.986180422827601" minlat="45.668180342763662" minlon="6.960137514397502" />
  </metadata>

  <trk>
    <name>cascate del rutor2021-09-12</name>
    <extensions>
      <gpxx:TrackExtension>
        <gpxx:DisplayColor>Yellow</gpxx:DisplayColor>
      </gpxx:TrackExtension>
      <gpxtrkx:TrackStatsExtension xmlns:gpxtrkx="http://www.garmin.com/xmlschemas/TrackStatsExtension/v1">
        <gpxtrkx:Distance>16059</gpxtrkx:Distance>
        <gpxtrkx:TotalElapsedTime>29523</gpxtrkx:TotalElapsedTime>
        <gpxtrkx:MovingTime>20573</gpxtrkx:MovingTime>
        <gpxtrkx:StoppedTime>8937</gpxtrkx:StoppedTime>
        <gpxtrkx:MovingSpeed>0.781</gpxtrkx:MovingSpeed>
        <gpxtrkx:MaxSpeed>5.066</gpxtrkx:MaxSpeed>
        <gpxtrkx:MaxElevation>2501.317</gpxtrkx:MaxElevation>
        <gpxtrkx:MinElevation>1497.293</gpxtrkx:MinElevation>
        <gpxtrkx:Ascent>1165</gpxtrkx:Ascent>
        <gpxtrkx:Descent>1145.118</gpxtrkx:Descent>
        <gpxtrkx:AvgAscentRate>0.08</gpxtrkx:AvgAscentRate>
        <gpxtrkx:MaxAscentRate>1.086</gpxtrkx:MaxAscentRate>
        <gpxtrkx:AvgDescentRate>0.071</gpxtrkx:AvgDescentRate>
        <gpxtrkx:MaxDescentRate>-0.444</gpxtrkx:MaxDescentRate>
      </gpxtrkx:TrackStatsExtension>
    </extensions>
    <trkseg>
      <trkpt lat="45.697882790118456" lon="6.961618009954691">
        <ele>1499.8</ele>
        <time>2021-09-12T07:19:05Z</time>
      </trkpt>
      <trkpt lat="45.697887651622295" lon="6.961620189249516">
        <ele>1499.8</ele>
        <time>2021-09-12T07:19:06Z</time>
      </trkpt>
      <trkpt lat="45.697896955534816" lon="6.961653465405107">
        <ele>1498.3599999999999</ele>
        <time>2021-09-12T07:19:11Z</time>
      </trkpt>
      <trkpt lat="45.697893016040325" lon="6.96159303188324">
        <ele>1499.3199999999999</ele>
        <time>2021-09-12T07:19:31Z</time>
      </trkpt>
      <trkpt lat="45.697899386286736" lon="6.961583895608783">
        <ele>1498.7</ele>
        <time>2021-09-12T07:19:32Z</time>
      </trkpt>
      <trkpt lat="45.697884885594249" lon="6.961559839546681">
        <ele>1498.4200000000001</ele>
        <time>2021-09-12T07:19:44Z</time>
      </trkpt>
      <trkpt lat="45.697863344103098" lon="6.961608370766044">
        <ele>1498.76</ele>
        <time>2021-09-12T07:19:55Z</time>
      </trkpt>
      <trkpt lat="45.69783853366971" lon="6.961620775982738">
        <ele>1498.9000000000001</ele>
        <time>2021-09-12T07:20:09Z</time>
      </trkpt>
      <trkpt lat="45.697818920016289" lon="6.961622787639499">
        <ele>1498.76</ele>
        <time>2021-09-12T07:20:15Z</time>
      </trkpt>
      <trkpt lat="45.697788242250681" lon="6.961640976369381">
        <ele>1498.9300000000001</ele>
        <time>2021-09-12T07:20:18Z</time>
      </trkpt>
      <trkpt lat="45.69775597192347" lon="6.96165313012898">
        <ele>1498.7</ele>
        <time>2021-09-12T07:20:22Z</time>
      </trkpt>
      <trkpt lat="45.697716828435659" lon="6.961699314415455">
        <ele>1499.21</ele>
        <time>2021-09-12T07:20:27Z</time>
      </trkpt>
      <trkpt lat="45.697714732959867" lon="6.961732422932982">
        <ele>1498.99</ele>
        <time>2021-09-12T07:20:37Z</time>
      </trkpt>
      <trkpt lat="45.697738034650683" lon="6.961727729067206">
        <ele>1498.9300000000001</ele>
        <time>2021-09-12T07:20:42Z</time>
      </trkpt>
      <trkpt lat="45.697561427950859" lon="6.961874580010772">
        <ele>1499.5599999999999</ele>
        <time>2021-09-12T07:20:58Z</time>
      </trkpt>
      <trkpt lat="45.697394125163555" lon="6.96184809319675">
        <ele>1499.1300000000001</ele>
        <time>2021-09-12T07:21:12Z</time>
      </trkpt>
      <trkpt lat="45.697396975010633" lon="6.961832502856851">
        <ele>1498.27</ele>
        <time>2021-09-12T07:21:23Z</time>
      </trkpt>
      <trkpt lat="45.69740166887641" lon="6.961816912516952">
        <ele>1498.3299999999999</ele>
        <time>2021-09-12T07:21:42Z</time>
      </trkpt>
      <trkpt lat="45.697396053001285" lon="6.961818085983396">
        <ele>1499.5999999999999</ele>
        <time>2021-09-12T07:22:07Z</time>
      </trkpt>
      <trkpt lat="45.697384234517813" lon="6.96184515953064">
        <ele>1499.6800000000001</ele>
        <time>2021-09-12T07:22:10Z</time>
      </trkpt>
      <trkpt lat="45.697326818481088" lon="6.961888996884227">
        <ele>1499.5799999999999</ele>
        <time>2021-09-12T07:22:21Z</time>
      </trkpt>
      <trkpt lat="45.697316005825996" lon="6.961899977177382">
        <ele>1499.74</ele>
        <time>2021-09-12T07:22:34Z</time>
      </trkpt>
      <trkpt lat="45.697318436577916" lon="6.96191213093698">
        <ele>1499.8699999999999</ele>
        <time>2021-09-12T07:22:58Z</time>
      </trkpt>
      <trkpt lat="45.697314832359552" lon="6.961901737377048">
        <ele>1498.55</ele>
        <time>2021-09-12T07:23:04Z</time>
      </trkpt>
      <trkpt lat="45.697311982512474" lon="6.961905676871538">
        <ele>1500.48</ele>
        <time>2021-09-12T07:23:06Z</time>
      </trkpt>
      <trkpt lat="45.697302594780922" lon="6.961918333545327">
        <ele>1500.28</ele>
        <time>2021-09-12T07:23:23Z</time>
      </trkpt>
      <trkpt lat="45.697322711348534" lon="6.961899306625128">
        <ele>1500.28</ele>
        <time>2021-09-12T07:23:39Z</time>
      </trkpt>
      <trkpt lat="45.697263451293111" lon="6.961848260834813">
        <ele>1500.28</ele>
        <time>2021-09-12T07:23:50Z</time>
      </trkpt>
      <trkpt lat="45.697230510413647" lon="6.961807105690241">
        <ele>1500.3699999999999</ele>
        <time>2021-09-12T07:24:02Z</time>
      </trkpt>
      <trkpt lat="45.697221457958221" lon="6.961802830919623">
        <ele>1500.3800000000001</ele>
        <time>2021-09-12T07:24:03Z</time>
      </trkpt>
      <trkpt lat="45.697110733017325" lon="6.961584817618132">
        <ele>1500.6700000000001</ele>
        <time>2021-09-12T07:24:19Z</time>
      </trkpt>
      <trkpt lat="45.69708114489913" lon="6.961588924750686">
        <ele>1500.8599999999999</ele>
        <time>2021-09-12T07:24:28Z</time>
      </trkpt>
      <trkpt lat="45.697037978097796" lon="6.961582470685244">
        <ele>1501.3399999999999</ele>
        <time>2021-09-12T07:24:44Z</time>
      </trkpt>
      <trkpt lat="45.696993973106146" lon="6.961619015783072">
        <ele>1502.1500000000001</ele>
        <time>2021-09-12T07:24:50Z</time>
      </trkpt>
      <trkpt lat="45.696938317269087" lon="6.961660590022802">
        <ele>1503.27</ele>
        <time>2021-09-12T07:24:57Z</time>
      </trkpt>
      <trkpt lat="45.696892887353897" lon="6.961713312193751">
        <ele>1504.6900000000001</ele>
        <time>2021-09-12T07:25:09Z</time>
      </trkpt>
      <trkpt lat="45.696823820471764" lon="6.961778439581394">
        <ele>1506.01</ele>
        <time>2021-09-12T07:25:21Z</time>
      </trkpt>
      <trkpt lat="45.696809655055404" lon="6.96176796220243">
        <ele>1506.28</ele>
        <time>2021-09-12T07:25:29Z</time>
      </trkpt>
      <trkpt lat="45.696775037795305" lon="6.961671402677894">
        <ele>1507.6300000000001</ele>
        <time>2021-09-12T07:25:39Z</time>
      </trkpt>
      <trkpt lat="45.696710916236043" lon="6.961565874516964">
        <ele>1510.3299999999999</ele>
        <time>2021-09-12T07:25:52Z</time>
      </trkpt>
      <trkpt lat="45.696697505190969" lon="6.961526395753026">
        <ele>1511.3</ele>
        <time>2021-09-12T07:25:56Z</time>
      </trkpt>
      <trkpt lat="45.696678478270769" lon="6.961452970281243">
        <ele>1511.73</ele>
        <time>2021-09-12T07:26:02Z</time>
      </trkpt>
      <trkpt lat="45.696655176579952" lon="6.961314752697945">
        <ele>1513.4000000000001</ele>
        <time>2021-09-12T07:26:16Z</time>
      </trkpt>
      <trkpt lat="45.696629695594311" lon="6.961267394945025">
        <ele>1513.99</ele>
        <time>2021-09-12T07:26:21Z</time>
      </trkpt>
      <trkpt lat="45.696592060849071" lon="6.961211822926998">
        <ele>1513.9400000000001</ele>
        <time>2021-09-12T07:26:25Z</time>
      </trkpt>
      <trkpt lat="45.696575548499823" lon="6.961171003058553">
        <ele>1514.27</ele>
        <time>2021-09-12T07:26:28Z</time>
      </trkpt>
      <trkpt lat="45.69657051935792" lon="6.961138313636184">
        <ele>1514.6199999999999</ele>
        <time>2021-09-12T07:26:30Z</time>
      </trkpt>
      <trkpt lat="45.696548391133547" lon="6.961096068844199">
        <ele>1515.04</ele>
        <time>2021-09-12T07:26:33Z</time>
      </trkpt>
      <trkpt lat="45.696449484676123" lon="6.960948212072253">
        <ele>1516.8800000000001</ele>
        <time>2021-09-12T07:26:47Z</time>
      </trkpt>
      <trkpt lat="45.696433642879128" lon="6.960778729990125">
        <ele>1518.4300000000001</ele>
        <time>2021-09-12T07:27:01Z</time>
      </trkpt>
      <trkpt lat="45.69638486020267" lon="6.960630202665925">
        <ele>1520.52</ele>
        <time>2021-09-12T07:27:16Z</time>
      </trkpt>
      <trkpt lat="45.696311267092824" lon="6.96052392013371">
        <ele>1522.5699999999999</ele>
        <time>2021-09-12T07:27:30Z</time>
      </trkpt>
      <trkpt lat="45.696248654276133" lon="6.96038369089365">
        <ele>1524.4400000000001</ele>
        <time>2021-09-12T07:27:45Z</time>
      </trkpt>
      <trkpt lat="45.696215881034732" lon="6.960372375324369">
        <ele>1525.53</ele>
        <time>2021-09-12T07:27:59Z</time>
      </trkpt>
      <trkpt lat="45.696156704798341" lon="6.960323676466942">
        <ele>1525.8</ele>
        <time>2021-09-12T07:28:18Z</time>
      </trkpt>
      <trkpt lat="45.696104066446424" lon="6.960281850770116">
        <ele>1526.9200000000001</ele>
        <time>2021-09-12T07:28:31Z</time>
      </trkpt>
      <trkpt lat="45.696022259071469" lon="6.960225524380803">
        <ele>1529.9000000000001</ele>
        <time>2021-09-12T07:28:48Z</time>
      </trkpt>
      <trkpt lat="45.695975236594677" lon="6.960165342316032">
        <ele>1531.5699999999999</ele>
        <time>2021-09-12T07:29:03Z</time>
      </trkpt>
      <trkpt lat="45.695878509432077" lon="6.960168108344078">
        <ele>1534.3399999999999</ele>
        <time>2021-09-12T07:29:20Z</time>
      </trkpt>
      <trkpt lat="45.695822602137923" lon="6.960211945697665">
        <ele>1536.26</ele>
        <time>2021-09-12T07:29:33Z</time>
      </trkpt>
      <trkpt lat="45.695737525820732" lon="6.960242204368115">
        <ele>1538.4300000000001</ele>
        <time>2021-09-12T07:29:48Z</time>
      </trkpt>
      <trkpt lat="45.695655550807714" lon="6.960282018408179">
        <ele>1541.23</ele>
        <time>2021-09-12T07:30:02Z</time>
      </trkpt>
      <trkpt lat="45.695561841130257" lon="6.960389893501997">
        <ele>1543.98</ele>
        <time>2021-09-12T07:30:17Z</time>
      </trkpt>
      <trkpt lat="45.695553040131927" lon="6.960414368659258">
        <ele>1544.1300000000001</ele>
        <time>2021-09-12T07:30:19Z</time>
      </trkpt>
      <trkpt lat="45.695548094809055" lon="6.960443034768105">
        <ele>1544.6600000000001</ele>
        <time>2021-09-12T07:30:21Z</time>
      </trkpt>
      <trkpt lat="45.695528816431761" lon="6.960584772750735">
        <ele>1546.0899999999999</ele>
        <time>2021-09-12T07:30:32Z</time>
      </trkpt>
      <trkpt lat="45.695560248568654" lon="6.960743442177773">
        <ele>1547.8499999999999</ele>
        <time>2021-09-12T07:30:45Z</time>
      </trkpt>
      <trkpt lat="45.69556980393827" lon="6.960857603698969">
        <ele>1549.22</ele>
        <time>2021-09-12T07:30:54Z</time>
      </trkpt>
      <trkpt lat="45.695494534447789" lon="6.960901189595461">
        <ele>1550.76</ele>
        <time>2021-09-12T07:31:04Z</time>
      </trkpt>
      <trkpt lat="45.695399483665824" lon="6.960840169340372">
        <ele>1550.96</ele>
        <time>2021-09-12T07:31:14Z</time>
      </trkpt>
      <trkpt lat="45.695253219455481" lon="6.960825836285949">
        <ele>1551.99</ele>
        <time>2021-09-12T07:31:28Z</time>
      </trkpt>
      <trkpt lat="45.695239137858152" lon="6.960826925933361">
        <ele>1552</ele>
        <time>2021-09-12T07:31:30Z</time>
      </trkpt>
      <trkpt lat="45.695181051269174" lon="6.960914097726345">
        <ele>1552.9000000000001</ele>
        <time>2021-09-12T07:31:39Z</time>
      </trkpt>
      <trkpt lat="45.695139225572348" lon="6.960977632552385">
        <ele>1553.48</ele>
        <time>2021-09-12T07:31:45Z</time>
      </trkpt>
      <trkpt lat="45.695028668269515" lon="6.961026750504971">
        <ele>1554.6500000000001</ele>
        <time>2021-09-12T07:31:57Z</time>
      </trkpt>
      <trkpt lat="45.694976113736629" lon="6.960976626724005">
        <ele>1555.6199999999999</ele>
        <time>2021-09-12T07:32:08Z</time>
      </trkpt>
      <trkpt lat="45.69490235298872" lon="6.960961539298296">
        <ele>1556.6099999999999</ele>
        <time>2021-09-12T07:32:20Z</time>
      </trkpt>
      <trkpt lat="45.694826161488891" lon="6.960945194587112">
        <ele>1557.8399999999999</ele>
        <time>2021-09-12T07:32:29Z</time>
      </trkpt>
      <trkpt lat="45.694709485396743" lon="6.960954498499632">
        <ele>1559.25</ele>
        <time>2021-09-12T07:32:42Z</time>
      </trkpt>
      <trkpt lat="45.694608986377716" lon="6.961005460470915">
        <ele>1561.4400000000001</ele>
        <time>2021-09-12T07:32:57Z</time>
      </trkpt>
      <trkpt lat="45.694525251165032" lon="6.960976794362068">
        <ele>1563.8499999999999</ele>
        <time>2021-09-12T07:33:12Z</time>
      </trkpt>
      <trkpt lat="45.694473702460527" lon="6.960941925644875">
        <ele>1565.04</ele>
        <time>2021-09-12T07:33:23Z</time>
      </trkpt>
      <trkpt lat="45.69439516402781" lon="6.960822232067585">
        <ele>1566.97</ele>
        <time>2021-09-12T07:33:37Z</time>
      </trkpt>
      <trkpt lat="45.694283936172724" lon="6.960806054994464">
        <ele>1568.6600000000001</ele>
        <time>2021-09-12T07:33:50Z</time>
      </trkpt>
      <trkpt lat="45.694216713309288" lon="6.960807396098971">
        <ele>1570.26</ele>
        <time>2021-09-12T07:34:01Z</time>
      </trkpt>
      <trkpt lat="45.694134654477239" lon="6.96080437861383">
        <ele>1572.27</ele>
        <time>2021-09-12T07:34:16Z</time>
      </trkpt>
      <trkpt lat="45.694036837667227" lon="6.960835810750723">
        <ele>1574.26</ele>
        <time>2021-09-12T07:34:31Z</time>
      </trkpt>
      <trkpt lat="45.693934159353375" lon="6.960864141583443">
        <ele>1576.77</ele>
        <time>2021-09-12T07:34:47Z</time>
      </trkpt>
      <trkpt lat="45.693869534879923" lon="6.960920384153724">
        <ele>1578.48</ele>
        <time>2021-09-12T07:34:58Z</time>
      </trkpt>
      <trkpt lat="45.693861991167068" lon="6.961022140458226">
        <ele>1579.8</ele>
        <time>2021-09-12T07:35:08Z</time>
      </trkpt>
      <trkpt lat="45.693858219310641" lon="6.961119957268238">
        <ele>1582.01</ele>
        <time>2021-09-12T07:35:23Z</time>
      </trkpt>
      <trkpt lat="45.693801557645202" lon="6.961153903976083">
        <ele>1585.1199999999999</ele>
        <time>2021-09-12T07:35:41Z</time>
      </trkpt>
      <trkpt lat="45.693752020597458" lon="6.961074443534017">
        <ele>1587.3399999999999</ele>
        <time>2021-09-12T07:35:59Z</time>
      </trkpt>
      <trkpt lat="45.693702483549714" lon="6.961087184026837">
        <ele>1588.9000000000001</ele>
        <time>2021-09-12T07:36:11Z</time>
      </trkpt>
      <trkpt lat="45.693661160767078" lon="6.961140241473913">
        <ele>1591.27</ele>
        <time>2021-09-12T07:36:25Z</time>
      </trkpt>
      <trkpt lat="45.693535264581442" lon="6.961119789630175">
        <ele>1592.5899999999999</ele>
        <time>2021-09-12T07:36:38Z</time>
      </trkpt>
      <trkpt lat="45.693411882966757" lon="6.961111491546035">
        <ele>1593.49</ele>
        <time>2021-09-12T07:36:52Z</time>
      </trkpt>
      <trkpt lat="45.693308282643557" lon="6.961101265624166">
        <ele>1594.6600000000001</ele>
        <time>2021-09-12T07:37:04Z</time>
      </trkpt>
      <trkpt lat="45.693290093913674" lon="6.961099170148373">
        <ele>1594.8900000000001</ele>
        <time>2021-09-12T07:37:06Z</time>
      </trkpt>
      <trkpt lat="45.693158498033881" lon="6.961118029430509">
        <ele>1596.53</ele>
        <time>2021-09-12T07:37:18Z</time>
      </trkpt>
      <trkpt lat="45.69308171980083" lon="6.961127500981093">
        <ele>1597.1700000000001</ele>
        <time>2021-09-12T07:37:25Z</time>
      </trkpt>
      <trkpt lat="45.693041738122702" lon="6.961110820993781">
        <ele>1597.5999999999999</ele>
        <time>2021-09-12T07:37:29Z</time>
      </trkpt>
      <trkpt lat="45.692990692332387" lon="6.96110880933702">
        <ele>1598.22</ele>
        <time>2021-09-12T07:37:34Z</time>
      </trkpt>
      <trkpt lat="45.692959930747747" lon="6.9610995054245">
        <ele>1598.52</ele>
        <time>2021-09-12T07:37:37Z</time>
      </trkpt>
      <trkpt lat="45.692928079515696" lon="6.961106127128005">
        <ele>1598.8599999999999</ele>
        <time>2021-09-12T07:37:40Z</time>
      </trkpt>
      <trkpt lat="45.692757926881313" lon="6.96103747934103">
        <ele>1600.3399999999999</ele>
        <time>2021-09-12T07:37:56Z</time>
      </trkpt>
      <trkpt lat="45.692676538601518" lon="6.960996994748712">
        <ele>1595.27</ele>
        <time>2021-09-12T07:38:10Z</time>
      </trkpt>
      <trkpt lat="45.692676287144423" lon="6.960996491834521">
        <ele>1600.1400000000001</ele>
        <time>2021-09-12T07:38:12Z</time>
      </trkpt>
      <trkpt lat="45.692676957696676" lon="6.960995569825172">
        <ele>1600.26</ele>
        <time>2021-09-12T07:38:13Z</time>
      </trkpt>
      <trkpt lat="45.692657846957445" lon="6.960959862917662">
        <ele>1605.99</ele>
        <time>2021-09-12T07:38:18Z</time>
      </trkpt>
      <trkpt lat="45.692651560530066" lon="6.960958102717996">
        <ele>1602.71</ele>
        <time>2021-09-12T07:38:19Z</time>
      </trkpt>
      <trkpt lat="45.692626582458615" lon="6.960941841825843">
        <ele>1602.01</ele>
        <time>2021-09-12T07:38:22Z</time>
      </trkpt>
      <trkpt lat="45.692616356536746" lon="6.960933795198798">
        <ele>1601.8</ele>
        <time>2021-09-12T07:38:23Z</time>
      </trkpt>
      <trkpt lat="45.692606214433908" lon="6.960926502943039">
        <ele>1601.53</ele>
        <time>2021-09-12T07:38:24Z</time>
      </trkpt>
      <trkpt lat="45.69247042760253" lon="6.960863219574094">
        <ele>1602.8299999999999</ele>
        <time>2021-09-12T07:38:37Z</time>
      </trkpt>
      <trkpt lat="45.692437067627907" lon="6.960844611749053">
        <ele>1603.01</ele>
        <time>2021-09-12T07:38:40Z</time>
      </trkpt>
      <trkpt lat="45.692426506429911" lon="6.960833799093962">
        <ele>1603.0799999999999</ele>
        <time>2021-09-12T07:38:41Z</time>
      </trkpt>
      <trkpt lat="45.692415693774819" lon="6.960837403312326">
        <ele>1603.26</ele>
        <time>2021-09-12T07:38:42Z</time>
      </trkpt>
      <trkpt lat="45.692405803129077" lon="6.960841678082943">
        <ele>1603.3699999999999</ele>
        <time>2021-09-12T07:38:43Z</time>
      </trkpt>
      <trkpt lat="45.692309411242604" lon="6.960855508223176">
        <ele>1604.8099999999999</ele>
        <time>2021-09-12T07:38:53Z</time>
      </trkpt>
      <trkpt lat="45.692298011854291" lon="6.960858441889286">
        <ele>1604.6199999999999</ele>
        <time>2021-09-12T07:38:54Z</time>
      </trkpt>
      <trkpt lat="45.692185861989856" lon="6.960883000865579">
        <ele>1604.8800000000001</ele>
        <time>2021-09-12T07:39:06Z</time>
      </trkpt>
      <trkpt lat="45.692144958302379" lon="6.960876630619168">
        <ele>1606.04</ele>
        <time>2021-09-12T07:39:11Z</time>
      </trkpt>
      <trkpt lat="45.692131379619241" lon="6.960869925096631">
        <ele>1607.27</ele>
        <time>2021-09-12T07:39:12Z</time>
      </trkpt>
      <trkpt lat="45.692005986347795" lon="6.960885096341372">
        <ele>1607.8299999999999</ele>
        <time>2021-09-12T07:39:24Z</time>
      </trkpt>
      <trkpt lat="45.691861230880022" lon="6.960809994488955">
        <ele>1605.8499999999999</ele>
        <time>2021-09-12T07:39:38Z</time>
      </trkpt>
      <trkpt lat="45.691661406308413" lon="6.960703963413835">
        <ele>1602.9000000000001</ele>
        <time>2021-09-12T07:39:57Z</time>
      </trkpt>
      <trkpt lat="45.691619329154491" lon="6.960696587339044">
        <ele>1602.54</ele>
        <time>2021-09-12T07:40:00Z</time>
      </trkpt>
      <trkpt lat="45.69160801358521" lon="6.960698096081615">
        <ele>1602.1199999999999</ele>
        <time>2021-09-12T07:40:01Z</time>
      </trkpt>
      <trkpt lat="45.691597033292055" lon="6.960694491863251">
        <ele>1602</ele>
        <time>2021-09-12T07:40:02Z</time>
      </trkpt>
      <trkpt lat="45.691585969179869" lon="6.960692396387458">
        <ele>1601.78</ele>
        <time>2021-09-12T07:40:03Z</time>
      </trkpt>
      <trkpt lat="45.691575072705746" lon="6.960691893473268">
        <ele>1601.52</ele>
        <time>2021-09-12T07:40:04Z</time>
      </trkpt>
      <trkpt lat="45.69144138135016" lon="6.960695078596473">
        <ele>1599.8900000000001</ele>
        <time>2021-09-12T07:40:16Z</time>
      </trkpt>
      <trkpt lat="45.691236443817616" lon="6.960725421085954">
        <ele>1596.8199999999999</ele>
        <time>2021-09-12T07:40:33Z</time>
      </trkpt>
      <trkpt lat="45.691012311726809" lon="6.960807731375098">
        <ele>1595</ele>
        <time>2021-09-12T07:40:52Z</time>
      </trkpt>
      <trkpt lat="45.690857330337167" lon="6.96083664894104">
        <ele>1593.01</ele>
        <time>2021-09-12T07:41:06Z</time>
      </trkpt>
      <trkpt lat="45.690675275400281" lon="6.960804797708988">
        <ele>1590.05</ele>
        <time>2021-09-12T07:41:22Z</time>
      </trkpt>
      <trkpt lat="45.690663876011968" lon="6.960795661434531">
        <ele>1589.95</ele>
        <time>2021-09-12T07:41:23Z</time>
      </trkpt>
      <trkpt lat="45.690652560442686" lon="6.960787950083613">
        <ele>1589.8699999999999</ele>
        <time>2021-09-12T07:41:24Z</time>
      </trkpt>
      <trkpt lat="45.690621295943856" lon="6.960785854607821">
        <ele>1589.4300000000001</ele>
        <time>2021-09-12T07:41:27Z</time>
      </trkpt>
      <trkpt lat="45.690609477460384" lon="6.960791889578104">
        <ele>1589.4000000000001</ele>
        <time>2021-09-12T07:41:28Z</time>
      </trkpt>
      <trkpt lat="45.690597910434008" lon="6.960792560130358">
        <ele>1589.1900000000001</ele>
        <time>2021-09-12T07:41:29Z</time>
      </trkpt>
      <trkpt lat="45.69058533757925" lon="6.960789877921343">
        <ele>1589.0899999999999</ele>
        <time>2021-09-12T07:41:30Z</time>
      </trkpt>
      <trkpt lat="45.690502775833011" lon="6.960788955911994">
        <ele>1587.8299999999999</ele>
        <time>2021-09-12T07:41:38Z</time>
      </trkpt>
      <trkpt lat="45.690488358959556" lon="6.960786860436201">
        <ele>1587.6700000000001</ele>
        <time>2021-09-12T07:41:39Z</time>
      </trkpt>
      <trkpt lat="45.690472265705466" lon="6.960782501846552">
        <ele>1587.46</ele>
        <time>2021-09-12T07:41:40Z</time>
      </trkpt>
      <trkpt lat="45.690461620688438" lon="6.960783591493964">
        <ele>1587.27</ele>
        <time>2021-09-12T07:41:41Z</time>
      </trkpt>
      <trkpt lat="45.690309572964907" lon="6.960783759132028">
        <ele>1585.6700000000001</ele>
        <time>2021-09-12T07:41:55Z</time>
      </trkpt>
      <trkpt lat="45.690298592671752" lon="6.960786441341043">
        <ele>1585.6700000000001</ele>
        <time>2021-09-12T07:41:56Z</time>
      </trkpt>
      <trkpt lat="45.690287360921502" lon="6.960782250389457">
        <ele>1585.5599999999999</ele>
        <time>2021-09-12T07:41:57Z</time>
      </trkpt>
      <trkpt lat="45.690118800848722" lon="6.960705136880279">
        <ele>1583.53</ele>
        <time>2021-09-12T07:42:12Z</time>
      </trkpt>
      <trkpt lat="45.690021403133869" lon="6.960671357810497">
        <ele>1583.2</ele>
        <time>2021-09-12T07:42:22Z</time>
      </trkpt>
      <trkpt lat="45.690000196918845" lon="6.960678482428193">
        <ele>1583.1400000000001</ele>
        <time>2021-09-12T07:42:25Z</time>
      </trkpt>
      <trkpt lat="45.689988881349564" lon="6.96068175137043">
        <ele>1583.01</ele>
        <time>2021-09-12T07:42:26Z</time>
      </trkpt>
      <trkpt lat="45.689965914934874" lon="6.960687367245555">
        <ele>1583.01</ele>
        <time>2021-09-12T07:42:28Z</time>
      </trkpt>
      <trkpt lat="45.689853681251407" lon="6.960713099688292">
        <ele>1582.6600000000001</ele>
        <time>2021-09-12T07:42:38Z</time>
      </trkpt>
      <trkpt lat="45.689837839454412" lon="6.960724582895637">
        <ele>1582.6800000000001</ele>
        <time>2021-09-12T07:42:40Z</time>
      </trkpt>
      <trkpt lat="45.689826942980289" lon="6.960729444399476">
        <ele>1582.6500000000001</ele>
        <time>2021-09-12T07:42:41Z</time>
      </trkpt>
      <trkpt lat="45.689770616590977" lon="6.960750902071595">
        <ele>1582.45</ele>
        <time>2021-09-12T07:42:46Z</time>
      </trkpt>
      <trkpt lat="45.689759384840727" lon="6.96075844578445">
        <ele>1582.3399999999999</ele>
        <time>2021-09-12T07:42:47Z</time>
      </trkpt>
      <trkpt lat="45.689752260223031" lon="6.960771018639207">
        <ele>1582.1199999999999</ele>
        <time>2021-09-12T07:42:48Z</time>
      </trkpt>
      <trkpt lat="45.689741112291813" lon="6.960779149085283">
        <ele>1582.2</ele>
        <time>2021-09-12T07:42:49Z</time>
      </trkpt>
      <trkpt lat="45.689731137827039" lon="6.960788033902645">
        <ele>1582.1800000000001</ele>
        <time>2021-09-12T07:42:50Z</time>
      </trkpt>
      <trkpt lat="45.689722085371614" lon="6.960796751081944">
        <ele>1582.1300000000001</ele>
        <time>2021-09-12T07:42:51Z</time>
      </trkpt>
      <trkpt lat="45.689648073166609" lon="6.960882414132357">
        <ele>1582.26</ele>
        <time>2021-09-12T07:42:59Z</time>
      </trkpt>
      <trkpt lat="45.689641200006008" lon="6.960895825177431">
        <ele>1582.22</ele>
        <time>2021-09-12T07:43:00Z</time>
      </trkpt>
      <trkpt lat="45.689639858901501" lon="6.960913930088282">
        <ele>1582.29</ele>
        <time>2021-09-12T07:43:01Z</time>
      </trkpt>
      <trkpt lat="45.689605912193656" lon="6.960961790755391">
        <ele>1582.51</ele>
        <time>2021-09-12T07:43:05Z</time>
      </trkpt>
      <trkpt lat="45.689595099538565" lon="6.960969837382436">
        <ele>1582.49</ele>
        <time>2021-09-12T07:43:06Z</time>
      </trkpt>
      <trkpt lat="45.689575904980302" lon="6.961010489612818">
        <ele>1582.95</ele>
        <time>2021-09-12T07:43:09Z</time>
      </trkpt>
      <trkpt lat="45.68956995382905" lon="6.961026666685939">
        <ele>1583.1199999999999</ele>
        <time>2021-09-12T07:43:10Z</time>
      </trkpt>
      <trkpt lat="45.689551597461104" lon="6.961061116307974">
        <ele>1583.5899999999999</ele>
        <time>2021-09-12T07:43:13Z</time>
      </trkpt>
      <trkpt lat="45.689546400681138" lon="6.961101768538356">
        <ele>1583.5899999999999</ele>
        <time>2021-09-12T07:43:17Z</time>
      </trkpt>
      <trkpt lat="45.689545813947916" lon="6.961102355271578">
        <ele>1583.8299999999999</ele>
        <time>2021-09-12T07:43:18Z</time>
      </trkpt>
      <trkpt lat="45.68954405374825" lon="6.961111072450876">
        <ele>1584.1300000000001</ele>
        <time>2021-09-12T07:43:23Z</time>
      </trkpt>
      <trkpt lat="45.689544472843409" lon="6.961109396070242">
        <ele>1584.1199999999999</ele>
        <time>2021-09-12T07:43:29Z</time>
      </trkpt>
      <trkpt lat="45.6895293854177" lon="6.961137391626835">
        <ele>1583.8599999999999</ele>
        <time>2021-09-12T07:43:39Z</time>
      </trkpt>
      <trkpt lat="45.689543969929218" lon="6.961142923682928">
        <ele>1583.8499999999999</ele>
        <time>2021-09-12T07:44:02Z</time>
      </trkpt>
      <trkpt lat="45.689563080668449" lon="6.961140409111977">
        <ele>1583.74</ele>
        <time>2021-09-12T07:44:21Z</time>
      </trkpt>
      <trkpt lat="45.689578587189317" lon="6.961215846240521">
        <ele>1583.5</ele>
        <time>2021-09-12T07:44:33Z</time>
      </trkpt>
      <trkpt lat="45.689595434814692" lon="6.961358841508627">
        <ele>1582.75</ele>
        <time>2021-09-12T07:44:46Z</time>
      </trkpt>
      <trkpt lat="45.689597111195326" lon="6.961373258382082">
        <ele>1582.76</ele>
        <time>2021-09-12T07:44:47Z</time>
      </trkpt>
      <trkpt lat="45.689593842253089" lon="6.96138633415103">
        <ele>1582.77</ele>
        <time>2021-09-12T07:44:48Z</time>
      </trkpt>
      <trkpt lat="45.689600547775626" lon="6.961449198424816">
        <ele>1583.72</ele>
        <time>2021-09-12T07:44:53Z</time>
      </trkpt>
      <trkpt lat="45.689657377079129" lon="6.961518684402108">
        <ele>1584.78</ele>
        <time>2021-09-12T07:45:03Z</time>
      </trkpt>
      <trkpt lat="45.689731473103166" lon="6.961612561717629">
        <ele>1585.6500000000001</ele>
        <time>2021-09-12T07:45:15Z</time>
      </trkpt>
      <trkpt lat="45.689807580783963" lon="6.96168783120811">
        <ele>1586.27</ele>
        <time>2021-09-12T07:45:24Z</time>
      </trkpt>
      <trkpt lat="45.689907325431705" lon="6.961784474551678">
        <ele>1588.76</ele>
        <time>2021-09-12T07:45:38Z</time>
      </trkpt>
      <trkpt lat="45.689955269917846" lon="6.961841052398086">
        <ele>1589.45</ele>
        <time>2021-09-12T07:45:44Z</time>
      </trkpt>
      <trkpt lat="45.689981421455741" lon="6.961898887529969">
        <ele>1589.9200000000001</ele>
        <time>2021-09-12T07:45:49Z</time>
      </trkpt>
      <trkpt lat="45.690020564943552" lon="6.962018329650164">
        <ele>1590.25</ele>
        <time>2021-09-12T07:45:59Z</time>
      </trkpt>
      <trkpt lat="45.690051075071096" lon="6.962151266634464">
        <ele>1591.1099999999999</ele>
        <time>2021-09-12T07:46:13Z</time>
      </trkpt>
      <trkpt lat="45.690061803907156" lon="6.962335417047143">
        <ele>1593.47</ele>
        <time>2021-09-12T07:46:29Z</time>
      </trkpt>
      <trkpt lat="45.69007077254355" lon="6.96245058439672">
        <ele>1593.97</ele>
        <time>2021-09-12T07:46:38Z</time>
      </trkpt>
      <trkpt lat="45.690064067021012" lon="6.962637919932604">
        <ele>1594.7</ele>
        <time>2021-09-12T07:46:51Z</time>
      </trkpt>
      <trkpt lat="45.690026264637709" lon="6.962773790583015">
        <ele>1595.8699999999999</ele>
        <time>2021-09-12T07:47:03Z</time>
      </trkpt>
      <trkpt lat="45.68992174230516" lon="6.962804719805718">
        <ele>1597.8900000000001</ele>
        <time>2021-09-12T07:47:17Z</time>
      </trkpt>
      <trkpt lat="45.689866505563259" lon="6.962826177477837">
        <ele>1598.75</ele>
        <time>2021-09-12T07:47:24Z</time>
      </trkpt>
      <trkpt lat="45.689785117283463" lon="6.96284931153059">
        <ele>1599.6900000000001</ele>
        <time>2021-09-12T07:47:34Z</time>
      </trkpt>
      <trkpt lat="45.689745554700494" lon="6.962867835536599">
        <ele>1599.99</ele>
        <time>2021-09-12T07:47:39Z</time>
      </trkpt>
      <trkpt lat="45.689655533060431" lon="6.962895411998034">
        <ele>1600.22</ele>
        <time>2021-09-12T07:47:50Z</time>
      </trkpt>
      <trkpt lat="45.68963591940701" lon="6.96288887411356">
        <ele>1600.1400000000001</ele>
        <time>2021-09-12T07:47:52Z</time>
      </trkpt>
      <trkpt lat="45.689533157274127" lon="6.962825758382678">
        <ele>1600.2</ele>
        <time>2021-09-12T07:48:04Z</time>
      </trkpt>
      <trkpt lat="45.689433412626386" lon="6.962870182469487">
        <ele>1600.3800000000001</ele>
        <time>2021-09-12T07:48:16Z</time>
      </trkpt>
      <trkpt lat="45.689424863085151" lon="6.962879486382008">
        <ele>1600.3299999999999</ele>
        <time>2021-09-12T07:48:17Z</time>
      </trkpt>
      <trkpt lat="45.689327381551266" lon="6.962937405332923">
        <ele>1599.5799999999999</ele>
        <time>2021-09-12T07:48:28Z</time>
      </trkpt>
      <trkpt lat="45.689235599711537" lon="6.962928352877498">
        <ele>1598.52</ele>
        <time>2021-09-12T07:48:38Z</time>
      </trkpt>
      <trkpt lat="45.689185811206698" lon="6.962928185239434">
        <ele>1597.9200000000001</ele>
        <time>2021-09-12T07:48:43Z</time>
      </trkpt>
      <trkpt lat="45.689144236966968" lon="6.962925083935261">
        <ele>1597.8099999999999</ele>
        <time>2021-09-12T07:48:47Z</time>
      </trkpt>
      <trkpt lat="45.688998559489846" lon="6.962896250188351">
        <ele>1597.5799999999999</ele>
        <time>2021-09-12T07:49:00Z</time>
      </trkpt>
      <trkpt lat="45.688877943903208" lon="6.962912091985345">
        <ele>1595.5899999999999</ele>
        <time>2021-09-12T07:49:12Z</time>
      </trkpt>
      <trkpt lat="45.688805021345615" lon="6.962914690375328">
        <ele>1594.52</ele>
        <time>2021-09-12T07:49:19Z</time>
      </trkpt>
      <trkpt lat="45.688685411587358" lon="6.962891723960638">
        <ele>1593.6600000000001</ele>
        <time>2021-09-12T07:49:31Z</time>
      </trkpt>
      <trkpt lat="45.688589438796043" lon="6.962887113913894">
        <ele>1592.3099999999999</ele>
        <time>2021-09-12T07:49:40Z</time>
      </trkpt>
      <trkpt lat="45.688494555652142" lon="6.962855262681842">
        <ele>1591.96</ele>
        <time>2021-09-12T07:49:48Z</time>
      </trkpt>
      <trkpt lat="45.688408305868506" lon="6.962842186912894">
        <ele>1591.52</ele>
        <time>2021-09-12T07:49:56Z</time>
      </trkpt>
      <trkpt lat="45.688395481556654" lon="6.96283514611423">
        <ele>1591.4200000000001</ele>
        <time>2021-09-12T07:49:57Z</time>
      </trkpt>
      <trkpt lat="45.688384836539626" lon="6.962826261296868">
        <ele>1591.3499999999999</ele>
        <time>2021-09-12T07:49:58Z</time>
      </trkpt>
      <trkpt lat="45.688304118812084" lon="6.962762055918574">
        <ele>1590.6400000000001</ele>
        <time>2021-09-12T07:50:09Z</time>
      </trkpt>
      <trkpt lat="45.688266651704907" lon="6.962693659588695">
        <ele>1590.4100000000001</ele>
        <time>2021-09-12T07:50:15Z</time>
      </trkpt>
      <trkpt lat="45.688251983374357" lon="6.962669352069497">
        <ele>1590.5899999999999</ele>
        <time>2021-09-12T07:50:17Z</time>
      </trkpt>
      <trkpt lat="45.688241925090551" lon="6.962658204138279">
        <ele>1590.48</ele>
        <time>2021-09-12T07:50:18Z</time>
      </trkpt>
      <trkpt lat="45.688147461041808" lon="6.962488386780024">
        <ele>1591</ele>
        <time>2021-09-12T07:50:32Z</time>
      </trkpt>
      <trkpt lat="45.688054757192731" lon="6.962313707917929">
        <ele>1591.8699999999999</ele>
        <time>2021-09-12T07:50:46Z</time>
      </trkpt>
      <trkpt lat="45.688036568462849" lon="6.962301218882203">
        <ele>1592.23</ele>
        <time>2021-09-12T07:50:48Z</time>
      </trkpt>
      <trkpt lat="45.688015781342983" lon="6.962299374863505">
        <ele>1592.75</ele>
        <time>2021-09-12T07:50:50Z</time>
      </trkpt>
      <trkpt lat="45.687952330335975" lon="6.962346564978361">
        <ele>1593.6900000000001</ele>
        <time>2021-09-12T07:50:58Z</time>
      </trkpt>
      <trkpt lat="45.687913186848164" lon="6.962391827255487">
        <ele>1593.5999999999999</ele>
        <time>2021-09-12T07:51:03Z</time>
      </trkpt>
      <trkpt lat="45.687907990068197" lon="6.962407417595387">
        <ele>1593.47</ele>
        <time>2021-09-12T07:51:04Z</time>
      </trkpt>
      <trkpt lat="45.687904637306929" lon="6.962424265220761">
        <ele>1593.4000000000001</ele>
        <time>2021-09-12T07:51:05Z</time>
      </trkpt>
      <trkpt lat="45.687903799116611" lon="6.962440358474851">
        <ele>1593.26</ele>
        <time>2021-09-12T07:51:06Z</time>
      </trkpt>
      <trkpt lat="45.687906229868531" lon="6.962456032633781">
        <ele>1593.28</ele>
        <time>2021-09-12T07:51:07Z</time>
      </trkpt>
      <trkpt lat="45.687908157706261" lon="6.962471539154649">
        <ele>1593.3699999999999</ele>
        <time>2021-09-12T07:51:08Z</time>
      </trkpt>
      <trkpt lat="45.687911175191402" lon="6.962485034018755">
        <ele>1593.3399999999999</ele>
        <time>2021-09-12T07:51:09Z</time>
      </trkpt>
      <trkpt lat="45.687917126342654" lon="6.962497858330607">
        <ele>1593.3399999999999</ele>
        <time>2021-09-12T07:51:10Z</time>
      </trkpt>
      <trkpt lat="45.68793254904449" lon="6.962520908564329">
        <ele>1593.4100000000001</ele>
        <time>2021-09-12T07:51:12Z</time>
      </trkpt>
      <trkpt lat="45.687940344214439" lon="6.962544461712241">
        <ele>1593.5999999999999</ele>
        <time>2021-09-12T07:51:14Z</time>
      </trkpt>
      <trkpt lat="45.687942020595074" lon="6.96255711838603">
        <ele>1593.73</ele>
        <time>2021-09-12T07:51:15Z</time>
      </trkpt>
      <trkpt lat="45.68795358762145" lon="6.962628364562988">
        <ele>1594.55</ele>
        <time>2021-09-12T07:51:22Z</time>
      </trkpt>
      <trkpt lat="45.687986277043819" lon="6.962681002914906">
        <ele>1595.5799999999999</ele>
        <time>2021-09-12T07:51:29Z</time>
      </trkpt>
      <trkpt lat="45.68799264729023" lon="6.962810503318906">
        <ele>1597.3800000000001</ele>
        <time>2021-09-12T07:51:43Z</time>
      </trkpt>
      <trkpt lat="45.687916874885559" lon="6.962819304317236">
        <ele>1599.0999999999999</ele>
        <time>2021-09-12T07:51:55Z</time>
      </trkpt>
      <trkpt lat="45.687830038368702" lon="6.962835565209389">
        <ele>1601.2</ele>
        <time>2021-09-12T07:52:08Z</time>
      </trkpt>
      <trkpt lat="45.687725348398089" lon="6.962907314300537">
        <ele>1602.53</ele>
        <time>2021-09-12T07:52:21Z</time>
      </trkpt>
      <trkpt lat="45.687670363113284" lon="6.962946625426412">
        <ele>1603.3299999999999</ele>
        <time>2021-09-12T07:52:28Z</time>
      </trkpt>
      <trkpt lat="45.687620071694255" lon="6.962938914075494">
        <ele>1603.95</ele>
        <time>2021-09-12T07:52:33Z</time>
      </trkpt>
      <trkpt lat="45.687609845772386" lon="6.962937070056796">
        <ele>1603.95</ele>
        <time>2021-09-12T07:52:34Z</time>
      </trkpt>
      <trkpt lat="45.687568606808782" lon="6.962919216603041">
        <ele>1604.5599999999999</ele>
        <time>2021-09-12T07:52:38Z</time>
      </trkpt>
      <trkpt lat="45.68752652965486" lon="6.962920390069485">
        <ele>1604.8</ele>
        <time>2021-09-12T07:52:43Z</time>
      </trkpt>
      <trkpt lat="45.687496606260538" lon="6.962912008166313">
        <ele>1604.8299999999999</ele>
        <time>2021-09-12T07:52:47Z</time>
      </trkpt>
      <trkpt lat="45.687443213537335" lon="6.962907649576664">
        <ele>1605.48</ele>
        <time>2021-09-12T07:52:52Z</time>
      </trkpt>
      <trkpt lat="45.68741069175303" lon="6.962916115298867">
        <ele>1605.95</ele>
        <time>2021-09-12T07:52:56Z</time>
      </trkpt>
      <trkpt lat="45.687370542436838" lon="6.96291770786047">
        <ele>1606.79</ele>
        <time>2021-09-12T07:53:02Z</time>
      </trkpt>
      <trkpt lat="45.687361657619476" lon="6.962911924347282">
        <ele>1606.8599999999999</ele>
        <time>2021-09-12T07:53:03Z</time>
      </trkpt>
      <trkpt lat="45.687337936833501" lon="6.962866829708219">
        <ele>1608.1500000000001</ele>
        <time>2021-09-12T07:53:11Z</time>
      </trkpt>
      <trkpt lat="45.687291501089931" lon="6.962780077010393">
        <ele>1609.6099999999999</ele>
        <time>2021-09-12T07:53:23Z</time>
      </trkpt>
      <trkpt lat="45.687235845252872" lon="6.962765827775002">
        <ele>1610.27</ele>
        <time>2021-09-12T07:53:29Z</time>
      </trkpt>
      <trkpt lat="45.687207849696279" lon="6.962745878845453">
        <ele>1610.5</ele>
        <time>2021-09-12T07:53:31Z</time>
      </trkpt>
      <trkpt lat="45.687171639874578" lon="6.962725427001715">
        <ele>1611.0699999999999</ele>
        <time>2021-09-12T07:53:37Z</time>
      </trkpt>
      <trkpt lat="45.687160659581423" lon="6.962721655145288">
        <ele>1611.26</ele>
        <time>2021-09-12T07:53:38Z</time>
      </trkpt>
      <trkpt lat="45.687124114483595" lon="6.962724253535271">
        <ele>1611.6900000000001</ele>
        <time>2021-09-12T07:53:43Z</time>
      </trkpt>
      <trkpt lat="45.687111793085933" lon="6.962716206908226">
        <ele>1611.8699999999999</ele>
        <time>2021-09-12T07:53:44Z</time>
      </trkpt>
      <trkpt lat="45.687081199139357" lon="6.962681170552969">
        <ele>1611.8900000000001</ele>
        <time>2021-09-12T07:53:50Z</time>
      </trkpt>
      <trkpt lat="45.687043815851212" lon="6.962662311270833">
        <ele>1612.21</ele>
        <time>2021-09-12T07:54:02Z</time>
      </trkpt>
      <trkpt lat="45.687004085630178" lon="6.962639428675175">
        <ele>1612.53</ele>
        <time>2021-09-12T07:54:07Z</time>
      </trkpt>
      <trkpt lat="45.686973910778761" lon="6.962603302672505">
        <ele>1612.6300000000001</ele>
        <time>2021-09-12T07:54:12Z</time>
      </trkpt>
      <trkpt lat="45.686912136152387" lon="6.962527362629771">
        <ele>1613.79</ele>
        <time>2021-09-12T07:54:23Z</time>
      </trkpt>
      <trkpt lat="45.68686586804688" lon="6.962411105632782">
        <ele>1615.71</ele>
        <time>2021-09-12T07:54:37Z</time>
      </trkpt>
      <trkpt lat="45.686836028471589" lon="6.962294010445476">
        <ele>1616.8900000000001</ele>
        <time>2021-09-12T07:54:47Z</time>
      </trkpt>
      <trkpt lat="45.686827395111322" lon="6.962269116193056">
        <ele>1616.98</ele>
        <time>2021-09-12T07:54:49Z</time>
      </trkpt>
      <trkpt lat="45.686805434525013" lon="6.962152104824781">
        <ele>1618.0899999999999</ele>
        <time>2021-09-12T07:54:59Z</time>
      </trkpt>
      <trkpt lat="45.686781881377101" lon="6.962077170610428">
        <ele>1619.1600000000001</ele>
        <time>2021-09-12T07:55:06Z</time>
      </trkpt>
      <trkpt lat="45.686746761202812" lon="6.962053701281548">
        <ele>1620.2</ele>
        <time>2021-09-12T07:55:14Z</time>
      </trkpt>
      <trkpt lat="45.686672413721681" lon="6.96196686476469">
        <ele>1621.8800000000001</ele>
        <time>2021-09-12T07:55:28Z</time>
      </trkpt>
      <trkpt lat="45.686597647145391" lon="6.961908945813775">
        <ele>1623.8599999999999</ele>
        <time>2021-09-12T07:55:42Z</time>
      </trkpt>
      <trkpt lat="45.686488011851907" lon="6.961871394887567">
        <ele>1626.8800000000001</ele>
        <time>2021-09-12T07:55:59Z</time>
      </trkpt>
      <trkpt lat="45.686368569731712" lon="6.961820852011442">
        <ele>1629</ele>
        <time>2021-09-12T07:56:16Z</time>
      </trkpt>
      <trkpt lat="45.686286510899663" lon="6.961777769029141">
        <ele>1630.6700000000001</ele>
        <time>2021-09-12T07:56:31Z</time>
      </trkpt>
      <trkpt lat="45.686236890032887" lon="6.961763268336654">
        <ele>1632.3</ele>
        <time>2021-09-12T07:56:45Z</time>
      </trkpt>
      <trkpt lat="45.686179473996162" lon="6.961720688268542">
        <ele>1633.96</ele>
        <time>2021-09-12T07:57:01Z</time>
      </trkpt>
      <trkpt lat="45.686122979968786" lon="6.961666960269213">
        <ele>1634.9400000000001</ele>
        <time>2021-09-12T07:57:21Z</time>
      </trkpt>
      <trkpt lat="45.686059528961778" lon="6.961588254198432">
        <ele>1636.9200000000001</ele>
        <time>2021-09-12T07:57:35Z</time>
      </trkpt>
      <trkpt lat="45.685970848426223" lon="6.961537040770054">
        <ele>1637.9300000000001</ele>
        <time>2021-09-12T07:57:48Z</time>
      </trkpt>
      <trkpt lat="45.685868002474308" lon="6.961530754342675">
        <ele>1638.8</ele>
        <time>2021-09-12T07:58:01Z</time>
      </trkpt>
      <trkpt lat="45.685739507898688" lon="6.961484402418137">
        <ele>1639.02</ele>
        <time>2021-09-12T07:58:15Z</time>
      </trkpt>
      <trkpt lat="45.685588717460632" lon="6.96136630140245">
        <ele>1640.96</ele>
        <time>2021-09-12T07:58:32Z</time>
      </trkpt>
      <trkpt lat="45.685466341674328" lon="6.961279548704624">
        <ele>1641.1700000000001</ele>
        <time>2021-09-12T07:58:47Z</time>
      </trkpt>
      <trkpt lat="45.685365758836269" lon="6.961105540394783">
        <ele>1642.3299999999999</ele>
        <time>2021-09-12T07:59:02Z</time>
      </trkpt>
      <trkpt lat="45.685331895947456" lon="6.961040161550045">
        <ele>1643.05</ele>
        <time>2021-09-12T07:59:08Z</time>
      </trkpt>
      <trkpt lat="45.685293339192867" lon="6.960966316983104">
        <ele>1643.9200000000001</ele>
        <time>2021-09-12T07:59:14Z</time>
      </trkpt>
      <trkpt lat="45.685268780216575" lon="6.960906554013491">
        <ele>1644.8800000000001</ele>
        <time>2021-09-12T07:59:22Z</time>
      </trkpt>
      <trkpt lat="45.685196947306395" lon="6.960822902619839">
        <ele>1646.54</ele>
        <time>2021-09-12T07:59:37Z</time>
      </trkpt>
      <trkpt lat="45.685186134651303" lon="6.96076137945056">
        <ele>1647.01</ele>
        <time>2021-09-12T07:59:48Z</time>
      </trkpt>
      <trkpt lat="45.685184793546796" lon="6.960746627300978">
        <ele>1646.8</ele>
        <time>2021-09-12T08:00:03Z</time>
      </trkpt>
      <trkpt lat="45.685155037790537" lon="6.960719302296639">
        <ele>1647.71</ele>
        <time>2021-09-12T08:00:14Z</time>
      </trkpt>
      <trkpt lat="45.685180686414242" lon="6.960760373622179">
        <ele>1647.1300000000001</ele>
        <time>2021-09-12T08:00:27Z</time>
      </trkpt>
      <trkpt lat="45.685176663100719" lon="6.960754590108991">
        <ele>1645.53</ele>
        <time>2021-09-12T08:00:43Z</time>
      </trkpt>
      <trkpt lat="45.685154534876347" lon="6.960736736655235">
        <ele>1645.75</ele>
        <time>2021-09-12T08:01:21Z</time>
      </trkpt>
      <trkpt lat="45.685157552361488" lon="6.960744196549058">
        <ele>1646.8900000000001</ele>
        <time>2021-09-12T08:01:38Z</time>
      </trkpt>
      <trkpt lat="45.685165179893374" lon="6.960772443562746">
        <ele>1646.8</ele>
        <time>2021-09-12T08:01:53Z</time>
      </trkpt>
      <trkpt lat="45.685162078589201" lon="6.96086305193603">
        <ele>1645.8599999999999</ele>
        <time>2021-09-12T08:02:06Z</time>
      </trkpt>
      <trkpt lat="45.685126036405563" lon="6.960948714986444">
        <ele>1647.1099999999999</ele>
        <time>2021-09-12T08:02:19Z</time>
      </trkpt>
      <trkpt lat="45.685081360861659" lon="6.961090620607138">
        <ele>1649.8</ele>
        <time>2021-09-12T08:02:35Z</time>
      </trkpt>
      <trkpt lat="45.685039618983865" lon="6.961216265335679">
        <ele>1652.8099999999999</ele>
        <time>2021-09-12T08:02:49Z</time>
      </trkpt>
      <trkpt lat="45.68501103669405" lon="6.961328415200114">
        <ele>1653.6900000000001</ele>
        <time>2021-09-12T08:03:03Z</time>
      </trkpt>
      <trkpt lat="45.684971055015922" lon="6.961442911997438">
        <ele>1654.71</ele>
        <time>2021-09-12T08:03:16Z</time>
      </trkpt>
      <trkpt lat="45.684984382241964" lon="6.961517175659537">
        <ele>1656.3</ele>
        <time>2021-09-12T08:03:30Z</time>
      </trkpt>
      <trkpt lat="45.684934677556157" lon="6.961581883952022">
        <ele>1657.77</ele>
        <time>2021-09-12T08:03:44Z</time>
      </trkpt>
      <trkpt lat="45.68489327095449" lon="6.961621530354023">
        <ele>1657.8900000000001</ele>
        <time>2021-09-12T08:04:00Z</time>
      </trkpt>
      <trkpt lat="45.684861252084374" lon="6.961579034104943">
        <ele>1659.6500000000001</ele>
        <time>2021-09-12T08:04:17Z</time>
      </trkpt>
      <trkpt lat="45.684814648702741" lon="6.961605688557029">
        <ele>1661.45</ele>
        <time>2021-09-12T08:04:30Z</time>
      </trkpt>
      <trkpt lat="45.684736864641309" lon="6.961666289716959">
        <ele>1664.3900000000001</ele>
        <time>2021-09-12T08:04:46Z</time>
      </trkpt>
      <trkpt lat="45.684678023681045" lon="6.961683891713619">
        <ele>1667.25</ele>
        <time>2021-09-12T08:05:01Z</time>
      </trkpt>
      <trkpt lat="45.684700487181544" lon="6.961749019101262">
        <ele>1669.1500000000001</ele>
        <time>2021-09-12T08:05:13Z</time>
      </trkpt>
      <trkpt lat="45.684722112491727" lon="6.961825378239155">
        <ele>1670.8</ele>
        <time>2021-09-12T08:05:26Z</time>
      </trkpt>
      <trkpt lat="45.684764524921775" lon="6.961922692134976">
        <ele>1671.8599999999999</ele>
        <time>2021-09-12T08:05:37Z</time>
      </trkpt>
      <trkpt lat="45.684798387810588" lon="6.962037021294236">
        <ele>1672.8900000000001</ele>
        <time>2021-09-12T08:05:47Z</time>
      </trkpt>
      <trkpt lat="45.684797968715429" lon="6.962107513099909">
        <ele>1673.8900000000001</ele>
        <time>2021-09-12T08:05:55Z</time>
      </trkpt>
      <trkpt lat="45.684838956221938" lon="6.962188733741641">
        <ele>1674.99</ele>
        <time>2021-09-12T08:06:03Z</time>
      </trkpt>
      <trkpt lat="45.684867789968848" lon="6.962272049859166">
        <ele>1675.99</ele>
        <time>2021-09-12T08:06:11Z</time>
      </trkpt>
      <trkpt lat="45.684879021719098" lon="6.9623445533216">
        <ele>1678.3800000000001</ele>
        <time>2021-09-12T08:06:26Z</time>
      </trkpt>
      <trkpt lat="45.684954291209579" lon="6.962423594668508">
        <ele>1680.0599999999999</ele>
        <time>2021-09-12T08:06:38Z</time>
      </trkpt>
      <trkpt lat="45.684932833537459" lon="6.962466510012746">
        <ele>1681.77</ele>
        <time>2021-09-12T08:06:51Z</time>
      </trkpt>
      <trkpt lat="45.684854295104742" lon="6.962448740378022">
        <ele>1683.28</ele>
        <time>2021-09-12T08:07:04Z</time>
      </trkpt>
      <trkpt lat="45.684784641489387" lon="6.962437508627772">
        <ele>1684.9400000000001</ele>
        <time>2021-09-12T08:07:18Z</time>
      </trkpt>
      <trkpt lat="45.684741726145148" lon="6.962401466444135">
        <ele>1686.6500000000001</ele>
        <time>2021-09-12T08:07:32Z</time>
      </trkpt>
      <trkpt lat="45.684668384492397" lon="6.962314881384373">
        <ele>1688.49</ele>
        <time>2021-09-12T08:07:46Z</time>
      </trkpt>
      <trkpt lat="45.68459328263998" lon="6.962235253304243">
        <ele>1690.74</ele>
        <time>2021-09-12T08:08:01Z</time>
      </trkpt>
      <trkpt lat="45.684568388387561" lon="6.962205665186048">
        <ele>1692.0799999999999</ele>
        <time>2021-09-12T08:08:09Z</time>
      </trkpt>
      <trkpt lat="45.684549864381552" lon="6.96215788833797">
        <ele>1693.96</ele>
        <time>2021-09-12T08:08:23Z</time>
      </trkpt>
      <trkpt lat="45.684541314840317" lon="6.962259141728282">
        <ele>1696.0899999999999</ele>
        <time>2021-09-12T08:08:38Z</time>
      </trkpt>
      <trkpt lat="45.684560760855675" lon="6.962383696809411">
        <ele>1697.3299999999999</ele>
        <time>2021-09-12T08:08:51Z</time>
      </trkpt>
      <trkpt lat="45.684528658166528" lon="6.962441196665168">
        <ele>1698.1099999999999</ele>
        <time>2021-09-12T08:09:03Z</time>
      </trkpt>
      <trkpt lat="45.684509295970201" lon="6.962418649345636">
        <ele>1698.3499999999999</ele>
        <time>2021-09-12T08:09:04Z</time>
      </trkpt>
      <trkpt lat="45.68448138423264" lon="6.962380427867174">
        <ele>1699.3699999999999</ele>
        <time>2021-09-12T08:09:13Z</time>
      </trkpt>
      <trkpt lat="45.684425141662359" lon="6.96229568682611">
        <ele>1701.75</ele>
        <time>2021-09-12T08:09:30Z</time>
      </trkpt>
      <trkpt lat="45.684441486373544" lon="6.962241707369685">
        <ele>1703.24</ele>
        <time>2021-09-12T08:09:41Z</time>
      </trkpt>
      <trkpt lat="45.684397732838988" lon="6.962137771770358">
        <ele>1704.77</ele>
        <time>2021-09-12T08:09:54Z</time>
      </trkpt>
      <trkpt lat="45.684353979304433" lon="6.962013551965356">
        <ele>1704.99</ele>
        <time>2021-09-12T08:10:07Z</time>
      </trkpt>
      <trkpt lat="45.684298239648342" lon="6.961907353252173">
        <ele>1705.02</ele>
        <time>2021-09-12T08:10:19Z</time>
      </trkpt>
      <trkpt lat="45.684239314869046" lon="6.96185396052897">
        <ele>1704.6400000000001</ele>
        <time>2021-09-12T08:10:30Z</time>
      </trkpt>
      <trkpt lat="45.684138396754861" lon="6.961794281378388">
        <ele>1703.5</ele>
        <time>2021-09-12T08:10:44Z</time>
      </trkpt>
      <trkpt lat="45.68402742035687" lon="6.961699901148677">
        <ele>1702.6400000000001</ele>
        <time>2021-09-12T08:10:57Z</time>
      </trkpt>
      <trkpt lat="45.683989953249693" lon="6.961685316637158">
        <ele>1702.4000000000001</ele>
        <time>2021-09-12T08:11:00Z</time>
      </trkpt>
      <trkpt lat="45.683978218585253" lon="6.961684226989746">
        <ele>1702.45</ele>
        <time>2021-09-12T08:11:01Z</time>
      </trkpt>
      <trkpt lat="45.683880401775241" lon="6.961653968319297">
        <ele>1702.7</ele>
        <time>2021-09-12T08:11:11Z</time>
      </trkpt>
      <trkpt lat="45.683871349319816" lon="6.961646424606443">
        <ele>1702.7</ele>
        <time>2021-09-12T08:11:12Z</time>
      </trkpt>
      <trkpt lat="45.683777639642358" lon="6.961643490940332">
        <ele>1703.47</ele>
        <time>2021-09-12T08:11:25Z</time>
      </trkpt>
      <trkpt lat="45.683685019612312" lon="6.961653465405107">
        <ele>1704.04</ele>
        <time>2021-09-12T08:11:34Z</time>
      </trkpt>
      <trkpt lat="45.683673284947872" lon="6.961651286110282">
        <ele>1703.98</ele>
        <time>2021-09-12T08:11:35Z</time>
      </trkpt>
      <trkpt lat="45.683536073192954" lon="6.961654638871551">
        <ele>1705.3699999999999</ele>
        <time>2021-09-12T08:11:50Z</time>
      </trkpt>
      <trkpt lat="45.683420654386282" lon="6.96168439462781">
        <ele>1707.6700000000001</ele>
        <time>2021-09-12T08:12:04Z</time>
      </trkpt>
      <trkpt lat="45.6833091750741" lon="6.961757149547339">
        <ele>1710.27</ele>
        <time>2021-09-12T08:12:21Z</time>
      </trkpt>
      <trkpt lat="45.683316299691796" lon="6.961900647729635">
        <ele>1712.9200000000001</ele>
        <time>2021-09-12T08:12:37Z</time>
      </trkpt>
      <trkpt lat="45.683388719335198" lon="6.961960578337312">
        <ele>1714.8399999999999</ele>
        <time>2021-09-12T08:12:51Z</time>
      </trkpt>
      <trkpt lat="45.683389054611325" lon="6.962035596370697">
        <ele>1717.0899999999999</ele>
        <time>2021-09-12T08:13:06Z</time>
      </trkpt>
      <trkpt lat="45.683348989114165" lon="6.962070045992732">
        <ele>1718.78</ele>
        <time>2021-09-12T08:13:19Z</time>
      </trkpt>
      <trkpt lat="45.683306576684117" lon="6.962037775665522">
        <ele>1721.01</ele>
        <time>2021-09-12T08:13:32Z</time>
      </trkpt>
      <trkpt lat="45.683271288871765" lon="6.962121175602078">
        <ele>1722.77</ele>
        <time>2021-09-12T08:13:47Z</time>
      </trkpt>
      <trkpt lat="45.683255530893803" lon="6.962193427607417">
        <ele>1724.04</ele>
        <time>2021-09-12T08:14:00Z</time>
      </trkpt>
      <trkpt lat="45.683221751824021" lon="6.962242042645812">
        <ele>1725.73</ele>
        <time>2021-09-12T08:14:11Z</time>
      </trkpt>
      <trkpt lat="45.683192247524858" lon="6.962369112297893">
        <ele>1727.3599999999999</ele>
        <time>2021-09-12T08:14:24Z</time>
      </trkpt>
      <trkpt lat="45.683188810944557" lon="6.962405489757657">
        <ele>1727.95</ele>
        <time>2021-09-12T08:14:39Z</time>
      </trkpt>
      <trkpt lat="45.683215465396643" lon="6.962498864158988">
        <ele>1728.3399999999999</ele>
        <time>2021-09-12T08:14:51Z</time>
      </trkpt>
      <trkpt lat="45.683223428204656" lon="6.962538845837116">
        <ele>1728.4000000000001</ele>
        <time>2021-09-12T08:15:02Z</time>
      </trkpt>
      <trkpt lat="45.68322753533721" lon="6.96255418471992">
        <ele>1728.1300000000001</ele>
        <time>2021-09-12T08:15:03Z</time>
      </trkpt>
      <trkpt lat="45.683241952210665" lon="6.96259181946516">
        <ele>1727.9200000000001</ele>
        <time>2021-09-12T08:15:06Z</time>
      </trkpt>
      <trkpt lat="45.683268858119845" lon="6.962645715102553">
        <ele>1727.8599999999999</ele>
        <time>2021-09-12T08:15:15Z</time>
      </trkpt>
      <trkpt lat="45.683292075991631" lon="6.962751829996705">
        <ele>1728.9200000000001</ele>
        <time>2021-09-12T08:15:28Z</time>
      </trkpt>
      <trkpt lat="45.68328570574522" lon="6.962829111143947">
        <ele>1731.23</ele>
        <time>2021-09-12T08:15:41Z</time>
      </trkpt>
      <trkpt lat="45.683225188404322" lon="6.962947966530919">
        <ele>1733.79</ele>
        <time>2021-09-12T08:15:57Z</time>
      </trkpt>
      <trkpt lat="45.683207334950566" lon="6.962990211322904">
        <ele>1734.1099999999999</ele>
        <time>2021-09-12T08:16:02Z</time>
      </trkpt>
      <trkpt lat="45.683120330795646" lon="6.96306187659502">
        <ele>1735.5899999999999</ele>
        <time>2021-09-12T08:16:15Z</time>
      </trkpt>
      <trkpt lat="45.683026872575283" lon="6.963128261268139">
        <ele>1737.4000000000001</ele>
        <time>2021-09-12T08:16:29Z</time>
      </trkpt>
      <trkpt lat="45.683020753785968" lon="6.96314787492156">
        <ele>1735.8900000000001</ele>
        <time>2021-09-12T08:16:44Z</time>
      </trkpt>
      <trkpt lat="45.682939030230045" lon="6.963073443621397">
        <ele>1736.4000000000001</ele>
        <time>2021-09-12T08:17:07Z</time>
      </trkpt>
      <trkpt lat="45.682970965281129" lon="6.963097667321563">
        <ele>1737.1400000000001</ele>
        <time>2021-09-12T08:17:21Z</time>
      </trkpt>
      <trkpt lat="45.682973312214017" lon="6.963183246552944">
        <ele>1737.6900000000001</ele>
        <time>2021-09-12T08:17:35Z</time>
      </trkpt>
      <trkpt lat="45.682983370497823" lon="6.96328517049551">
        <ele>1740.0899999999999</ele>
        <time>2021-09-12T08:17:49Z</time>
      </trkpt>
      <trkpt lat="45.683004995808005" lon="6.963422801345587">
        <ele>1743.3399999999999</ele>
        <time>2021-09-12T08:18:06Z</time>
      </trkpt>
      <trkpt lat="45.682997200638056" lon="6.963521707803011">
        <ele>1745.3099999999999</ele>
        <time>2021-09-12T08:18:20Z</time>
      </trkpt>
      <trkpt lat="45.682939700782299" lon="6.96356219239533">
        <ele>1746.8699999999999</ele>
        <time>2021-09-12T08:18:32Z</time>
      </trkpt>
      <trkpt lat="45.682880943641067" lon="6.963725220412016">
        <ele>1748.0699999999999</ele>
        <time>2021-09-12T08:18:46Z</time>
      </trkpt>
      <trkpt lat="45.682843225076795" lon="6.963836364448071">
        <ele>1748.45</ele>
        <time>2021-09-12T08:18:56Z</time>
      </trkpt>
      <trkpt lat="45.682839369401336" lon="6.963967038318515">
        <ele>1749.6099999999999</ele>
        <time>2021-09-12T08:19:08Z</time>
      </trkpt>
      <trkpt lat="45.682827048003674" lon="6.964098047465086">
        <ele>1750.8399999999999</ele>
        <time>2021-09-12T08:19:20Z</time>
      </trkpt>
      <trkpt lat="45.682814391329885" lon="6.964176166802645">
        <ele>1750.4000000000001</ele>
        <time>2021-09-12T08:19:32Z</time>
      </trkpt>
      <trkpt lat="45.682806093245745" lon="6.964227296411991">
        <ele>1751.75</ele>
        <time>2021-09-12T08:19:51Z</time>
      </trkpt>
      <trkpt lat="45.682811625301838" lon="6.96424481458962">
        <ele>1752.1500000000001</ele>
        <time>2021-09-12T08:20:06Z</time>
      </trkpt>
      <trkpt lat="45.682821432128549" lon="6.964248921722174">
        <ele>1752.49</ele>
        <time>2021-09-12T08:20:31Z</time>
      </trkpt>
      <trkpt lat="45.682789329439402" lon="6.964339362457395">
        <ele>1753</ele>
        <time>2021-09-12T08:20:51Z</time>
      </trkpt>
      <trkpt lat="45.682784300297499" lon="6.964370040223002">
        <ele>1753.6199999999999</ele>
        <time>2021-09-12T08:20:54Z</time>
      </trkpt>
      <trkpt lat="45.68272965028882" lon="6.964513622224331">
        <ele>1755.28</ele>
        <time>2021-09-12T08:21:09Z</time>
      </trkpt>
      <trkpt lat="45.682647088542581" lon="6.964611187577248">
        <ele>1757.04</ele>
        <time>2021-09-12T08:21:23Z</time>
      </trkpt>
      <trkpt lat="45.682585733011365" lon="6.964683439582586">
        <ele>1757.76</ele>
        <time>2021-09-12T08:21:33Z</time>
      </trkpt>
      <trkpt lat="45.682566789910197" lon="6.964715123176575">
        <ele>1757.78</ele>
        <time>2021-09-12T08:21:36Z</time>
      </trkpt>
      <trkpt lat="45.682466039434075" lon="6.964813861995935">
        <ele>1758.77</ele>
        <time>2021-09-12T08:21:51Z</time>
      </trkpt>
      <trkpt lat="45.682407449930906" lon="6.964908828958869">
        <ele>1760.55</ele>
        <time>2021-09-12T08:22:05Z</time>
      </trkpt>
      <trkpt lat="45.682352967560291" lon="6.965024080127478">
        <ele>1762.3900000000001</ele>
        <time>2021-09-12T08:22:20Z</time>
      </trkpt>
      <trkpt lat="45.682309214025736" lon="6.965141007676721">
        <ele>1765.02</ele>
        <time>2021-09-12T08:22:35Z</time>
      </trkpt>
      <trkpt lat="45.682293372228742" lon="6.965209152549505">
        <ele>1766.3800000000001</ele>
        <time>2021-09-12T08:22:48Z</time>
      </trkpt>
      <trkpt lat="45.682246182113886" lon="6.965282913297415">
        <ele>1766.8199999999999</ele>
        <time>2021-09-12T08:23:00Z</time>
      </trkpt>
      <trkpt lat="45.682219862937927" lon="6.965316021814942">
        <ele>1767.1500000000001</ele>
        <time>2021-09-12T08:23:05Z</time>
      </trkpt>
      <trkpt lat="45.682211816310883" lon="6.965326583012939">
        <ele>1767.1600000000001</ele>
        <time>2021-09-12T08:23:06Z</time>
      </trkpt>
      <trkpt lat="45.682158758863807" lon="6.965445186942816">
        <ele>1768.8699999999999</ele>
        <time>2021-09-12T08:23:18Z</time>
      </trkpt>
      <trkpt lat="45.682149706408381" lon="6.965453401207924">
        <ele>1768.95</ele>
        <time>2021-09-12T08:23:19Z</time>
      </trkpt>
      <trkpt lat="45.682137804105878" lon="6.965457508340478">
        <ele>1768.98</ele>
        <time>2021-09-12T08:23:20Z</time>
      </trkpt>
      <trkpt lat="45.682127997279167" lon="6.965464213863015">
        <ele>1769.21</ele>
        <time>2021-09-12T08:23:21Z</time>
      </trkpt>
      <trkpt lat="45.682110898196697" lon="6.965471841394901">
        <ele>1769.76</ele>
        <time>2021-09-12T08:23:23Z</time>
      </trkpt>
      <trkpt lat="45.682064797729254" lon="6.965519785881043">
        <ele>1770.25</ele>
        <time>2021-09-12T08:23:29Z</time>
      </trkpt>
      <trkpt lat="45.682033617049456" lon="6.965597067028284">
        <ele>1771.4400000000001</ele>
        <time>2021-09-12T08:23:39Z</time>
      </trkpt>
      <trkpt lat="45.681994389742613" lon="6.965649873018265">
        <ele>1772.8399999999999</ele>
        <time>2021-09-12T08:23:49Z</time>
      </trkpt>
      <trkpt lat="45.681939320638776" lon="6.965733608230948">
        <ele>1774.77</ele>
        <time>2021-09-12T08:24:02Z</time>
      </trkpt>
      <trkpt lat="45.681913336738944" lon="6.965742325410247">
        <ele>1775.1600000000001</ele>
        <time>2021-09-12T08:24:05Z</time>
      </trkpt>
      <trkpt lat="45.681867403909564" lon="6.965748947113752">
        <ele>1775.5999999999999</ele>
        <time>2021-09-12T08:24:10Z</time>
      </trkpt>
      <trkpt lat="45.681789452210069" lon="6.965802339836955">
        <ele>1777.0999999999999</ele>
        <time>2021-09-12T08:24:21Z</time>
      </trkpt>
      <trkpt lat="45.681749805808067" lon="6.965864785015583">
        <ele>1778.23</ele>
        <time>2021-09-12T08:24:30Z</time>
      </trkpt>
      <trkpt lat="45.681751230731606" lon="6.965898899361491">
        <ele>1779.0599999999999</ele>
        <time>2021-09-12T08:24:43Z</time>
      </trkpt>
      <trkpt lat="45.681731617078185" lon="6.965981377288699">
        <ele>1780.75</ele>
        <time>2021-09-12T08:24:57Z</time>
      </trkpt>
      <trkpt lat="45.681731952354312" lon="6.965995458886027">
        <ele>1781.01</ele>
        <time>2021-09-12T08:24:58Z</time>
      </trkpt>
      <trkpt lat="45.681698676198721" lon="6.966045079752803">
        <ele>1782.6800000000001</ele>
        <time>2021-09-12T08:25:08Z</time>
      </trkpt>
      <trkpt lat="45.681683588773012" lon="6.966121438890696">
        <ele>1784.47</ele>
        <time>2021-09-12T08:25:22Z</time>
      </trkpt>
      <trkpt lat="45.681628603488207" lon="6.966160833835602">
        <ele>1785.4400000000001</ele>
        <time>2021-09-12T08:25:41Z</time>
      </trkpt>
      <trkpt lat="45.681584514677525" lon="6.966189248487353">
        <ele>1787.1099999999999</ele>
        <time>2021-09-12T08:25:51Z</time>
      </trkpt>
      <trkpt lat="45.681502288207412" lon="6.966222943738103">
        <ele>1788.47</ele>
        <time>2021-09-12T08:26:03Z</time>
      </trkpt>
      <trkpt lat="45.681461049243808" lon="6.966210957616568">
        <ele>1789.1900000000001</ele>
        <time>2021-09-12T08:26:08Z</time>
      </trkpt>
      <trkpt lat="45.681448141112924" lon="6.966210789978504">
        <ele>1789.25</ele>
        <time>2021-09-12T08:26:09Z</time>
      </trkpt>
      <trkpt lat="45.681436574086547" lon="6.966211460530758">
        <ele>1789.24</ele>
        <time>2021-09-12T08:26:10Z</time>
      </trkpt>
      <trkpt lat="45.681317383423448" lon="6.966218166053295">
        <ele>1790.8399999999999</ele>
        <time>2021-09-12T08:26:22Z</time>
      </trkpt>
      <trkpt lat="45.681213028728962" lon="6.96622277610004">
        <ele>1793.0799999999999</ele>
        <time>2021-09-12T08:26:36Z</time>
      </trkpt>
      <trkpt lat="45.681138429790735" lon="6.966248927637935">
        <ele>1794.9300000000001</ele>
        <time>2021-09-12T08:26:48Z</time>
      </trkpt>
      <trkpt lat="45.681112194433808" lon="6.966259488835931">
        <ele>1795.8099999999999</ele>
        <time>2021-09-12T08:27:05Z</time>
      </trkpt>
      <trkpt lat="45.681112864986062" lon="6.966260746121407">
        <ele>1796.01</ele>
        <time>2021-09-12T08:27:17Z</time>
      </trkpt>
      <trkpt lat="45.681109763681889" lon="6.966256387531757">
        <ele>1795.45</ele>
        <time>2021-09-12T08:27:41Z</time>
      </trkpt>
      <trkpt lat="45.681106243282557" lon="6.966257812455297">
        <ele>1795.77</ele>
        <time>2021-09-12T08:28:00Z</time>
      </trkpt>
      <trkpt lat="45.681109679862857" lon="6.966254292055965">
        <ele>1796.1099999999999</ele>
        <time>2021-09-12T08:28:15Z</time>
      </trkpt>
      <trkpt lat="45.681110182777047" lon="6.966252364218235">
        <ele>1796.5</ele>
        <time>2021-09-12T08:28:38Z</time>
      </trkpt>
      <trkpt lat="45.681080175563693" lon="6.966258147731423">
        <ele>1797.01</ele>
        <time>2021-09-12T08:28:56Z</time>
      </trkpt>
      <trkpt lat="45.681046983227134" lon="6.966326041147113">
        <ele>1798.8900000000001</ele>
        <time>2021-09-12T08:29:08Z</time>
      </trkpt>
      <trkpt lat="45.681113367900252" lon="6.966383038088679">
        <ele>1801.4100000000001</ele>
        <time>2021-09-12T08:29:21Z</time>
      </trkpt>
      <trkpt lat="45.681170616298914" lon="6.966402735561132">
        <ele>1803.53</ele>
        <time>2021-09-12T08:29:33Z</time>
      </trkpt>
      <trkpt lat="45.681237252429128" lon="6.96642947383225">
        <ele>1806.26</ele>
        <time>2021-09-12T08:29:47Z</time>
      </trkpt>
      <trkpt lat="45.681195259094238" lon="6.966483620926738">
        <ele>1807.8</ele>
        <time>2021-09-12T08:29:57Z</time>
      </trkpt>
      <trkpt lat="45.681148236617446" lon="6.966504659503698">
        <ele>1809.1700000000001</ele>
        <time>2021-09-12T08:30:09Z</time>
      </trkpt>
      <trkpt lat="45.681109009310603" lon="6.966569954529405">
        <ele>1811.54</ele>
        <time>2021-09-12T08:30:21Z</time>
      </trkpt>
      <trkpt lat="45.68107757717371" lon="6.96662787348032">
        <ele>1813.46</ele>
        <time>2021-09-12T08:30:32Z</time>
      </trkpt>
      <trkpt lat="45.681037846952677" lon="6.966738933697343">
        <ele>1815.5799999999999</ele>
        <time>2021-09-12T08:30:47Z</time>
      </trkpt>
      <trkpt lat="45.680959308519959" lon="6.966785034164786">
        <ele>1817.3299999999999</ele>
        <time>2021-09-12T08:31:01Z</time>
      </trkpt>
      <trkpt lat="45.680951597169042" lon="6.966777741909027">
        <ele>1817.28</ele>
        <time>2021-09-12T08:31:02Z</time>
      </trkpt>
      <trkpt lat="45.680941119790077" lon="6.96676516905427">
        <ele>1817.1900000000001</ele>
        <time>2021-09-12T08:31:03Z</time>
      </trkpt>
      <trkpt lat="45.680930474773049" lon="6.966751087456942">
        <ele>1817.01</ele>
        <time>2021-09-12T08:31:04Z</time>
      </trkpt>
      <trkpt lat="45.680921422317624" lon="6.966739520430565">
        <ele>1816.8800000000001</ele>
        <time>2021-09-12T08:31:05Z</time>
      </trkpt>
      <trkpt lat="45.680847326293588" lon="6.96667430922389">
        <ele>1818.1600000000001</ele>
        <time>2021-09-12T08:31:17Z</time>
      </trkpt>
      <trkpt lat="45.680760322138667" lon="6.966655114665628">
        <ele>1820.98</ele>
        <time>2021-09-12T08:31:31Z</time>
      </trkpt>
      <trkpt lat="45.680670468136668" lon="6.966662909835577">
        <ele>1822.45</ele>
        <time>2021-09-12T08:31:43Z</time>
      </trkpt>
      <trkpt lat="45.680600479245186" lon="6.966651845723391">
        <ele>1823.5599999999999</ele>
        <time>2021-09-12T08:31:54Z</time>
      </trkpt>
      <trkpt lat="45.680576674640179" lon="6.966676907613874">
        <ele>1823.8900000000001</ele>
        <time>2021-09-12T08:32:06Z</time>
      </trkpt>
      <trkpt lat="45.680566281080246" lon="6.966673387214541">
        <ele>1823.99</ele>
        <time>2021-09-12T08:32:07Z</time>
      </trkpt>
      <trkpt lat="45.680555133149028" lon="6.966669699177146">
        <ele>1823.8299999999999</ele>
        <time>2021-09-12T08:32:08Z</time>
      </trkpt>
      <trkpt lat="45.680545074865222" lon="6.966667519882321">
        <ele>1823.6400000000001</ele>
        <time>2021-09-12T08:32:09Z</time>
      </trkpt>
      <trkpt lat="45.680534765124321" lon="6.966662909835577">
        <ele>1823.5999999999999</ele>
        <time>2021-09-12T08:32:10Z</time>
      </trkpt>
      <trkpt lat="45.680523030459881" lon="6.966654863208532">
        <ele>1823.5899999999999</ele>
        <time>2021-09-12T08:32:11Z</time>
      </trkpt>
      <trkpt lat="45.680468296632171" lon="6.96665913797915">
        <ele>1825.1600000000001</ele>
        <time>2021-09-12T08:32:21Z</time>
      </trkpt>
      <trkpt lat="45.68042328581214" lon="6.966619156301022">
        <ele>1827.8299999999999</ele>
        <time>2021-09-12T08:32:31Z</time>
      </trkpt>
      <trkpt lat="45.680381208658218" lon="6.966567188501358">
        <ele>1828.3399999999999</ele>
        <time>2021-09-12T08:32:37Z</time>
      </trkpt>
      <trkpt lat="45.680269729346037" lon="6.966555286198854">
        <ele>1828.75</ele>
        <time>2021-09-12T08:32:50Z</time>
      </trkpt>
      <trkpt lat="45.680258413776755" lon="6.966561153531075">
        <ele>1828.6700000000001</ele>
        <time>2021-09-12T08:32:51Z</time>
      </trkpt>
      <trkpt lat="45.680141402408481" lon="6.966596189886332">
        <ele>1829.3099999999999</ele>
        <time>2021-09-12T08:33:05Z</time>
      </trkpt>
      <trkpt lat="45.680106114596128" lon="6.966581521555781">
        <ele>1829.8299999999999</ele>
        <time>2021-09-12T08:33:18Z</time>
      </trkpt>
      <trkpt lat="45.680049452930689" lon="6.966514047235251">
        <ele>1829.5</ele>
        <time>2021-09-12T08:33:31Z</time>
      </trkpt>
      <trkpt lat="45.680053140968084" lon="6.966506838798523">
        <ele>1829.77</ele>
        <time>2021-09-12T08:33:47Z</time>
      </trkpt>
      <trkpt lat="45.680067893117666" lon="6.966511616483331">
        <ele>1829.5699999999999</ele>
        <time>2021-09-12T08:34:01Z</time>
      </trkpt>
      <trkpt lat="45.680082645267248" lon="6.96652234531939">
        <ele>1829.9300000000001</ele>
        <time>2021-09-12T08:34:16Z</time>
      </trkpt>
      <trkpt lat="45.680089937523007" lon="6.966535085812211">
        <ele>1830.0899999999999</ele>
        <time>2021-09-12T08:34:17Z</time>
      </trkpt>
      <trkpt lat="45.680097229778767" lon="6.966593256220222">
        <ele>1830.1800000000001</ele>
        <time>2021-09-12T08:34:25Z</time>
      </trkpt>
      <trkpt lat="45.680082812905312" lon="6.966649414971471">
        <ele>1829.78</ele>
        <time>2021-09-12T08:34:39Z</time>
      </trkpt>
      <trkpt lat="45.680068312212825" lon="6.966652851551771">
        <ele>1830.0899999999999</ele>
        <time>2021-09-12T08:34:55Z</time>
      </trkpt>
      <trkpt lat="45.680037382990122" lon="6.966692497953773">
        <ele>1829.6400000000001</ele>
        <time>2021-09-12T08:35:00Z</time>
      </trkpt>
      <trkpt lat="45.680028581991792" lon="6.966695850715041">
        <ele>1829.5</ele>
        <time>2021-09-12T08:35:01Z</time>
      </trkpt>
      <trkpt lat="45.679943589493632" lon="6.96672610938549">
        <ele>1828.1300000000001</ele>
        <time>2021-09-12T08:35:11Z</time>
      </trkpt>
      <trkpt lat="45.679845940321684" lon="6.966744717210531">
        <ele>1827.28</ele>
        <time>2021-09-12T08:35:22Z</time>
      </trkpt>
      <trkpt lat="45.679749464616179" lon="6.966793583706021">
        <ele>1827.45</ele>
        <time>2021-09-12T08:35:34Z</time>
      </trkpt>
      <trkpt lat="45.679685845971107" lon="6.9667480699718">
        <ele>1826.8099999999999</ele>
        <time>2021-09-12T08:35:46Z</time>
      </trkpt>
      <trkpt lat="45.679626250639558" lon="6.966726193204522">
        <ele>1825.9400000000001</ele>
        <time>2021-09-12T08:35:57Z</time>
      </trkpt>
      <trkpt lat="45.679576629772782" lon="6.966709261760116">
        <ele>1825.45</ele>
        <time>2021-09-12T08:36:08Z</time>
      </trkpt>
      <trkpt lat="45.679593645036221" lon="6.966672800481319">
        <ele>1825.4400000000001</ele>
        <time>2021-09-12T08:36:29Z</time>
      </trkpt>
      <trkpt lat="45.679567325860262" lon="6.966677997261286">
        <ele>1825.4400000000001</ele>
        <time>2021-09-12T08:36:51Z</time>
      </trkpt>
      <trkpt lat="45.679556429386139" lon="6.966716218739748">
        <ele>1826.0999999999999</ele>
        <time>2021-09-12T08:37:13Z</time>
      </trkpt>
      <trkpt lat="45.679524829611182" lon="6.966745303943753">
        <ele>1826.51</ele>
        <time>2021-09-12T08:37:31Z</time>
      </trkpt>
      <trkpt lat="45.679427180439234" lon="6.966802887618542">
        <ele>1827.53</ele>
        <time>2021-09-12T08:37:42Z</time>
      </trkpt>
      <trkpt lat="45.679373871535063" lon="6.966855861246586">
        <ele>1830.73</ele>
        <time>2021-09-12T08:37:56Z</time>
      </trkpt>
      <trkpt lat="45.679310085251927" lon="6.966906907036901">
        <ele>1832.78</ele>
        <time>2021-09-12T08:38:11Z</time>
      </trkpt>
      <trkpt lat="45.679221153259277" lon="6.96702559478581">
        <ele>1834.46</ele>
        <time>2021-09-12T08:38:27Z</time>
      </trkpt>
      <trkpt lat="45.679181506857276" lon="6.967140845954418">
        <ele>1835.28</ele>
        <time>2021-09-12T08:38:38Z</time>
      </trkpt>
      <trkpt lat="45.679145297035575" lon="6.967224748805165">
        <ele>1836.1500000000001</ele>
        <time>2021-09-12T08:38:48Z</time>
      </trkpt>
      <trkpt lat="45.679086875170469" lon="6.967266071587801">
        <ele>1836.4100000000001</ele>
        <time>2021-09-12T08:38:57Z</time>
      </trkpt>
      <trkpt lat="45.67906147800386" lon="6.967235142365098">
        <ele>1836.28</ele>
        <time>2021-09-12T08:39:00Z</time>
      </trkpt>
      <trkpt lat="45.678970953449607" lon="6.967111341655254">
        <ele>1836.55</ele>
        <time>2021-09-12T08:39:14Z</time>
      </trkpt>
      <trkpt lat="45.678901299834251" lon="6.967093320563436">
        <ele>1836.74</ele>
        <time>2021-09-12T08:39:24Z</time>
      </trkpt>
      <trkpt lat="45.678815636783838" lon="6.967076389119029">
        <ele>1835.4300000000001</ele>
        <time>2021-09-12T08:39:39Z</time>
      </trkpt>
      <trkpt lat="45.678761405870318" lon="6.967054596170783">
        <ele>1834.96</ele>
        <time>2021-09-12T08:39:45Z</time>
      </trkpt>
      <trkpt lat="45.678679598495364" lon="6.967004556208849">
        <ele>1834.3599999999999</ele>
        <time>2021-09-12T08:39:54Z</time>
      </trkpt>
      <trkpt lat="45.678592259064317" lon="6.966873463243246">
        <ele>1833.5</ele>
        <time>2021-09-12T08:40:07Z</time>
      </trkpt>
      <trkpt lat="45.678513385355473" lon="6.966786626726389">
        <ele>1833.3699999999999</ele>
        <time>2021-09-12T08:40:20Z</time>
      </trkpt>
      <trkpt lat="45.678459573537111" lon="6.966749662533402">
        <ele>1833.98</ele>
        <time>2021-09-12T08:40:34Z</time>
      </trkpt>
      <trkpt lat="45.678435433655977" lon="6.966712446883321">
        <ele>1833.96</ele>
        <time>2021-09-12T08:40:39Z</time>
      </trkpt>
      <trkpt lat="45.67841213196516" lon="6.966667184606195">
        <ele>1834.3399999999999</ele>
        <time>2021-09-12T08:40:55Z</time>
      </trkpt>
      <trkpt lat="45.678333761170506" lon="6.966573391109705">
        <ele>1835.25</ele>
        <time>2021-09-12T08:41:08Z</time>
      </trkpt>
      <trkpt lat="45.678309705108404" lon="6.966517986729741">
        <ele>1835.71</ele>
        <time>2021-09-12T08:41:13Z</time>
      </trkpt>
      <trkpt lat="45.678304843604565" lon="6.966504575684667">
        <ele>1835.77</ele>
        <time>2021-09-12T08:41:14Z</time>
      </trkpt>
      <trkpt lat="45.678297467529774" lon="6.96649351157248">
        <ele>1835.7</ele>
        <time>2021-09-12T08:41:15Z</time>
      </trkpt>
      <trkpt lat="45.678201746195555" lon="6.966279437765479">
        <ele>1837.1900000000001</ele>
        <time>2021-09-12T08:41:30Z</time>
      </trkpt>
      <trkpt lat="45.678142318502069" lon="6.966186314821243">
        <ele>1837.7</ele>
        <time>2021-09-12T08:41:43Z</time>
      </trkpt>
      <trkpt lat="45.678106695413589" lon="6.966161085292697">
        <ele>1839.3900000000001</ele>
        <time>2021-09-12T08:41:57Z</time>
      </trkpt>
      <trkpt lat="45.678097559139132" lon="6.96617977693677">
        <ele>1840.1700000000001</ele>
        <time>2021-09-12T08:42:01Z</time>
      </trkpt>
      <trkpt lat="45.678096134215593" lon="6.966208191588521">
        <ele>1840.5799999999999</ele>
        <time>2021-09-12T08:42:06Z</time>
      </trkpt>
      <trkpt lat="45.678104013204575" lon="6.966280695050955">
        <ele>1841.76</ele>
        <time>2021-09-12T08:42:14Z</time>
      </trkpt>
      <trkpt lat="45.678101079538465" lon="6.966365771368146">
        <ele>1843.05</ele>
        <time>2021-09-12T08:42:25Z</time>
      </trkpt>
      <trkpt lat="45.678094206377864" lon="6.966395443305373">
        <ele>1844.0699999999999</ele>
        <time>2021-09-12T08:42:35Z</time>
      </trkpt>
      <trkpt lat="45.678066378459334" lon="6.96634984575212">
        <ele>1845.23</ele>
        <time>2021-09-12T08:42:51Z</time>
      </trkpt>
      <trkpt lat="45.678033856675029" lon="6.966296369209886">
        <ele>1846.48</ele>
        <time>2021-09-12T08:43:01Z</time>
      </trkpt>
      <trkpt lat="45.678002089262009" lon="6.966223362833262">
        <ele>1848.4400000000001</ele>
        <time>2021-09-12T08:43:16Z</time>
      </trkpt>
      <trkpt lat="45.677950540557504" lon="6.966150356456637">
        <ele>1851.05</ele>
        <time>2021-09-12T08:43:29Z</time>
      </trkpt>
      <trkpt lat="45.677924389019608" lon="6.966033261269331">
        <ele>1852.6400000000001</ele>
        <time>2021-09-12T08:43:40Z</time>
      </trkpt>
      <trkpt lat="45.677890945225954" lon="6.965961344540119">
        <ele>1853.96</ele>
        <time>2021-09-12T08:43:49Z</time>
      </trkpt>
      <trkpt lat="45.677848448976874" lon="6.965884398669004">
        <ele>1855.22</ele>
        <time>2021-09-12T08:43:59Z</time>
      </trkpt>
      <trkpt lat="45.677842497825623" lon="6.965875094756484">
        <ele>1855.26</ele>
        <time>2021-09-12T08:44:00Z</time>
      </trkpt>
      <trkpt lat="45.677783405408263" lon="6.965824719518423">
        <ele>1855.99</ele>
        <time>2021-09-12T08:44:10Z</time>
      </trkpt>
      <trkpt lat="45.677769323810935" lon="6.965800747275353">
        <ele>1855.5699999999999</ele>
        <time>2021-09-12T08:44:13Z</time>
      </trkpt>
      <trkpt lat="45.677755661308765" lon="6.965776523575187">
        <ele>1855.28</ele>
        <time>2021-09-12T08:44:16Z</time>
      </trkpt>
      <trkpt lat="45.677751051262021" lon="6.965761603787541">
        <ele>1855.0699999999999</ele>
        <time>2021-09-12T08:44:17Z</time>
      </trkpt>
      <trkpt lat="45.677671674638987" lon="6.965663535520434">
        <ele>1855.52</ele>
        <time>2021-09-12T08:44:28Z</time>
      </trkpt>
      <trkpt lat="45.677599925547838" lon="6.965634115040302">
        <ele>1857.6900000000001</ele>
        <time>2021-09-12T08:44:40Z</time>
      </trkpt>
      <trkpt lat="45.677526919171214" lon="6.965536046773195">
        <ele>1859.02</ele>
        <time>2021-09-12T08:44:53Z</time>
      </trkpt>
      <trkpt lat="45.677498923614621" lon="6.965507213026285">
        <ele>1860.4100000000001</ele>
        <time>2021-09-12T08:45:04Z</time>
      </trkpt>
      <trkpt lat="45.677458941936493" lon="6.9655133318156">
        <ele>1862.25</ele>
        <time>2021-09-12T08:45:15Z</time>
      </trkpt>
      <trkpt lat="45.677397418767214" lon="6.965466309338808">
        <ele>1864.4100000000001</ele>
        <time>2021-09-12T08:45:28Z</time>
      </trkpt>
      <trkpt lat="45.677319802343845" lon="6.965383496135473">
        <ele>1866.25</ele>
        <time>2021-09-12T08:45:42Z</time>
      </trkpt>
      <trkpt lat="45.677293986082077" lon="6.96533203125">
        <ele>1866.9200000000001</ele>
        <time>2021-09-12T08:45:54Z</time>
      </trkpt>
      <trkpt lat="45.677273869514465" lon="6.965277632698417">
        <ele>1868.52</ele>
        <time>2021-09-12T08:46:04Z</time>
      </trkpt>
      <trkpt lat="45.677217040210962" lon="6.965171936899424">
        <ele>1870.97</ele>
        <time>2021-09-12T08:46:18Z</time>
      </trkpt>
      <trkpt lat="45.677168425172567" lon="6.9650540035218">
        <ele>1872.8900000000001</ele>
        <time>2021-09-12T08:46:32Z</time>
      </trkpt>
      <trkpt lat="45.67713825032115" lon="6.965018045157194">
        <ele>1873.8699999999999</ele>
        <time>2021-09-12T08:46:37Z</time>
      </trkpt>
      <trkpt lat="45.677115032449365" lon="6.965004382655025">
        <ele>1874.53</ele>
        <time>2021-09-12T08:46:44Z</time>
      </trkpt>
      <trkpt lat="45.677099525928497" lon="6.965063558891416">
        <ele>1876.76</ele>
        <time>2021-09-12T08:46:56Z</time>
      </trkpt>
      <trkpt lat="45.677099861204624" lon="6.965181911364198">
        <ele>1878.1800000000001</ele>
        <time>2021-09-12T08:47:09Z</time>
      </trkpt>
      <trkpt lat="45.677101369947195" lon="6.96524553000927">
        <ele>1879.9200000000001</ele>
        <time>2021-09-12T08:47:20Z</time>
      </trkpt>
      <trkpt lat="45.677068009972572" lon="6.96523136459291">
        <ele>1881.0899999999999</ele>
        <time>2021-09-12T08:47:31Z</time>
      </trkpt>
      <trkpt lat="45.677039008587599" lon="6.965252570807934">
        <ele>1882.6600000000001</ele>
        <time>2021-09-12T08:47:42Z</time>
      </trkpt>
      <trkpt lat="45.677031548693776" lon="6.965305125340819">
        <ele>1884.3499999999999</ele>
        <time>2021-09-12T08:47:54Z</time>
      </trkpt>
      <trkpt lat="45.677054431289434" lon="6.965399254113436">
        <ele>1886.0999999999999</ele>
        <time>2021-09-12T08:48:07Z</time>
      </trkpt>
      <trkpt lat="45.677065579220653" lon="6.96544342674315">
        <ele>1887.6300000000001</ele>
        <time>2021-09-12T08:48:18Z</time>
      </trkpt>
      <trkpt lat="45.677049653604627" lon="6.965489024296403">
        <ele>1888.6800000000001</ele>
        <time>2021-09-12T08:48:31Z</time>
      </trkpt>
      <trkpt lat="45.677079576998949" lon="6.96556068956852">
        <ele>1890.3499999999999</ele>
        <time>2021-09-12T08:48:43Z</time>
      </trkpt>
      <trkpt lat="45.677094245329499" lon="6.965586757287383">
        <ele>1891.23</ele>
        <time>2021-09-12T08:48:50Z</time>
      </trkpt>
      <trkpt lat="45.677116038277745" lon="6.965617267414928">
        <ele>1892.5699999999999</ele>
        <time>2021-09-12T08:48:57Z</time>
      </trkpt>
      <trkpt lat="45.677128275856376" lon="6.965697566047311">
        <ele>1893.8</ele>
        <time>2021-09-12T08:49:10Z</time>
      </trkpt>
      <trkpt lat="45.677173035219312" lon="6.965793957933784">
        <ele>1895.23</ele>
        <time>2021-09-12T08:49:23Z</time>
      </trkpt>
      <trkpt lat="45.677198180928826" lon="6.965884063392878">
        <ele>1897.79</ele>
        <time>2021-09-12T08:49:41Z</time>
      </trkpt>
      <trkpt lat="45.67721251398325" lon="6.965939132496715">
        <ele>1900.3099999999999</ele>
        <time>2021-09-12T08:49:57Z</time>
      </trkpt>
      <trkpt lat="45.677203377708793" lon="6.965984562411904">
        <ele>1901.74</ele>
        <time>2021-09-12T08:50:09Z</time>
      </trkpt>
      <trkpt lat="45.677181668579578" lon="6.965985652059317">
        <ele>1902.95</ele>
        <time>2021-09-12T08:50:24Z</time>
      </trkpt>
      <trkpt lat="45.677205640822649" lon="6.966058323159814">
        <ele>1904.5999999999999</ele>
        <time>2021-09-12T08:50:37Z</time>
      </trkpt>
      <trkpt lat="45.677227098494768" lon="6.966104004532099">
        <ele>1905.3599999999999</ele>
        <time>2021-09-12T08:50:41Z</time>
      </trkpt>
      <trkpt lat="45.677287196740508" lon="6.966196959838271">
        <ele>1906.74</ele>
        <time>2021-09-12T08:50:51Z</time>
      </trkpt>
      <trkpt lat="45.677306223660707" lon="6.966265272349119">
        <ele>1907.95</ele>
        <time>2021-09-12T08:51:00Z</time>
      </trkpt>
      <trkpt lat="45.677321897819638" lon="6.966366777196527">
        <ele>1909.95</ele>
        <time>2021-09-12T08:51:13Z</time>
      </trkpt>
      <trkpt lat="45.677377721294761" lon="6.966507509350777">
        <ele>1911.9300000000001</ele>
        <time>2021-09-12T08:51:30Z</time>
      </trkpt>
      <trkpt lat="45.677409907802939" lon="6.966539863497019">
        <ele>1911.1700000000001</ele>
        <time>2021-09-12T08:51:34Z</time>
      </trkpt>
      <trkpt lat="45.67741870880127" lon="6.966549921780825">
        <ele>1911.01</ele>
        <time>2021-09-12T08:51:35Z</time>
      </trkpt>
      <trkpt lat="45.67743974737823" lon="6.966584455221891">
        <ele>1910.6199999999999</ele>
        <time>2021-09-12T08:51:38Z</time>
      </trkpt>
      <trkpt lat="45.677442261949182" lon="6.96669677272439">
        <ele>1911.3099999999999</ele>
        <time>2021-09-12T08:51:49Z</time>
      </trkpt>
      <trkpt lat="45.677424492314458" lon="6.966769695281982">
        <ele>1913.3699999999999</ele>
        <time>2021-09-12T08:52:01Z</time>
      </trkpt>
      <trkpt lat="45.677418541163206" lon="6.966806827113032">
        <ele>1914.29</ele>
        <time>2021-09-12T08:52:09Z</time>
      </trkpt>
      <trkpt lat="45.677373614162207" lon="6.966852759942412">
        <ele>1917.0899999999999</ele>
        <time>2021-09-12T08:52:23Z</time>
      </trkpt>
      <trkpt lat="45.677312342450023" lon="6.966844126582146">
        <ele>1918.77</ele>
        <time>2021-09-12T08:52:38Z</time>
      </trkpt>
      <trkpt lat="45.677320640534163" lon="6.966889388859272">
        <ele>1920.3800000000001</ele>
        <time>2021-09-12T08:52:50Z</time>
      </trkpt>
      <trkpt lat="45.677303122356534" lon="6.966920318081975">
        <ele>1921.9300000000001</ele>
        <time>2021-09-12T08:53:01Z</time>
      </trkpt>
      <trkpt lat="45.677262302488089" lon="6.966915708035231">
        <ele>1923.3699999999999</ele>
        <time>2021-09-12T08:53:13Z</time>
      </trkpt>
      <trkpt lat="45.677213855087757" lon="6.966879582032561">
        <ele>1924.96</ele>
        <time>2021-09-12T08:53:26Z</time>
      </trkpt>
      <trkpt lat="45.67718954756856" lon="6.966832978650928">
        <ele>1926.55</ele>
        <time>2021-09-12T08:53:39Z</time>
      </trkpt>
      <trkpt lat="45.677158534526825" lon="6.96678914129734">
        <ele>1928.24</ele>
        <time>2021-09-12T08:53:52Z</time>
      </trkpt>
      <trkpt lat="45.67712752148509" lon="6.966750081628561">
        <ele>1929.8900000000001</ele>
        <time>2021-09-12T08:54:05Z</time>
      </trkpt>
      <trkpt lat="45.677105309441686" lon="6.966650756075978">
        <ele>1931.55</ele>
        <time>2021-09-12T08:54:18Z</time>
      </trkpt>
      <trkpt lat="45.677116457372904" lon="6.966643631458283">
        <ele>1931.9000000000001</ele>
        <time>2021-09-12T08:54:32Z</time>
      </trkpt>
      <trkpt lat="45.677098101004958" lon="6.966519663110375">
        <ele>1934.46</ele>
        <time>2021-09-12T08:54:46Z</time>
      </trkpt>
      <trkpt lat="45.677057029679418" lon="6.966439615935087">
        <ele>1936.46</ele>
        <time>2021-09-12T08:54:57Z</time>
      </trkpt>
      <trkpt lat="45.676998272538185" lon="6.966378260403872">
        <ele>1937.3499999999999</ele>
        <time>2021-09-12T08:55:08Z</time>
      </trkpt>
      <trkpt lat="45.676932726055384" lon="6.966308606788516">
        <ele>1938.77</ele>
        <time>2021-09-12T08:55:21Z</time>
      </trkpt>
      <trkpt lat="45.676870113238692" lon="6.966261332854629">
        <ele>1940.6199999999999</ele>
        <time>2021-09-12T08:55:36Z</time>
      </trkpt>
      <trkpt lat="45.676847565919161" lon="6.966225458309054">
        <ele>1941.1900000000001</ele>
        <time>2021-09-12T08:55:44Z</time>
      </trkpt>
      <trkpt lat="45.676803393289447" lon="6.966133760288358">
        <ele>1941.0999999999999</ele>
        <time>2021-09-12T08:55:52Z</time>
      </trkpt>
      <trkpt lat="45.676750000566244" lon="6.966035524383187">
        <ele>1941.48</ele>
        <time>2021-09-12T08:56:05Z</time>
      </trkpt>
      <trkpt lat="45.676721083000302" lon="6.96595748886466">
        <ele>1939.9100000000001</ele>
        <time>2021-09-12T08:56:17Z</time>
      </trkpt>
      <trkpt lat="45.676657296717167" lon="6.965880542993546">
        <ele>1939.3099999999999</ele>
        <time>2021-09-12T08:56:29Z</time>
      </trkpt>
      <trkpt lat="45.676596025004983" lon="6.965825809165835">
        <ele>1940.73</ele>
        <time>2021-09-12T08:56:39Z</time>
      </trkpt>
      <trkpt lat="45.676583787426353" lon="6.965806866064668">
        <ele>1940.9300000000001</ele>
        <time>2021-09-12T08:56:41Z</time>
      </trkpt>
      <trkpt lat="45.676575573161244" lon="6.965779457241297">
        <ele>1940.77</ele>
        <time>2021-09-12T08:56:43Z</time>
      </trkpt>
      <trkpt lat="45.676545733585954" lon="6.965639563277364">
        <ele>1941.3299999999999</ele>
        <time>2021-09-12T08:56:54Z</time>
      </trkpt>
      <trkpt lat="45.676515474915504" lon="6.965551218017936">
        <ele>1941.72</ele>
        <time>2021-09-12T08:57:08Z</time>
      </trkpt>
      <trkpt lat="45.67644540220499" lon="6.965535460039973">
        <ele>1942.8800000000001</ele>
        <time>2021-09-12T08:57:23Z</time>
      </trkpt>
      <trkpt lat="45.676370467990637" lon="6.965484078973532">
        <ele>1945.01</ele>
        <time>2021-09-12T08:57:39Z</time>
      </trkpt>
      <trkpt lat="45.67636962980032" lon="6.965519785881043">
        <ele>1947.0999999999999</ele>
        <time>2021-09-12T08:57:53Z</time>
      </trkpt>
      <trkpt lat="45.676339622586966" lon="6.965527245774865">
        <ele>1948.8599999999999</ele>
        <time>2021-09-12T08:58:05Z</time>
      </trkpt>
      <trkpt lat="45.676298886537552" lon="6.965442756190896">
        <ele>1951.25</ele>
        <time>2021-09-12T08:58:18Z</time>
      </trkpt>
      <trkpt lat="45.676234681159258" lon="6.965340748429298">
        <ele>1952.6900000000001</ele>
        <time>2021-09-12T08:58:30Z</time>
      </trkpt>
      <trkpt lat="45.676165027543902" lon="6.965300012379885">
        <ele>1954.47</ele>
        <time>2021-09-12T08:58:44Z</time>
      </trkpt>
      <trkpt lat="45.676123453304172" lon="6.965272352099419">
        <ele>1954.8099999999999</ele>
        <time>2021-09-12T08:58:58Z</time>
      </trkpt>
      <trkpt lat="45.676121525466442" lon="6.965274447575212">
        <ele>1954.5899999999999</ele>
        <time>2021-09-12T08:59:11Z</time>
      </trkpt>
      <trkpt lat="45.676100738346577" lon="6.965274615213275">
        <ele>1954.8900000000001</ele>
        <time>2021-09-12T08:59:22Z</time>
      </trkpt>
      <trkpt lat="45.676058325916529" lon="6.965254247188568">
        <ele>1955.1400000000001</ele>
        <time>2021-09-12T08:59:28Z</time>
      </trkpt>
      <trkpt lat="45.676007950678468" lon="6.965190880000591">
        <ele>1955.3599999999999</ele>
        <time>2021-09-12T08:59:35Z</time>
      </trkpt>
      <trkpt lat="45.675961179658771" lon="6.965132625773549">
        <ele>1955.9200000000001</ele>
        <time>2021-09-12T08:59:41Z</time>
      </trkpt>
      <trkpt lat="45.675911726430058" lon="6.965043023228645">
        <ele>1956.1400000000001</ele>
        <time>2021-09-12T08:59:49Z</time>
      </trkpt>
      <trkpt lat="45.675885155797005" lon="6.965013770386577">
        <ele>1955.8399999999999</ele>
        <time>2021-09-12T08:59:52Z</time>
      </trkpt>
      <trkpt lat="45.675795469433069" lon="6.964888125658035">
        <ele>1956.54</ele>
        <time>2021-09-12T09:00:04Z</time>
      </trkpt>
      <trkpt lat="45.675742579624057" lon="6.96486490778625">
        <ele>1958.05</ele>
        <time>2021-09-12T09:00:20Z</time>
      </trkpt>
      <trkpt lat="45.675715757533908" lon="6.964877899736166">
        <ele>1959.1099999999999</ele>
        <time>2021-09-12T09:00:33Z</time>
      </trkpt>
      <trkpt lat="45.675707878544927" lon="6.964874379336834">
        <ele>1959.1700000000001</ele>
        <time>2021-09-12T09:00:50Z</time>
      </trkpt>
      <trkpt lat="45.675719445571303" lon="6.964829787611961">
        <ele>1959.1600000000001</ele>
        <time>2021-09-12T09:01:00Z</time>
      </trkpt>
      <trkpt lat="45.675747441127896" lon="6.964823333546519">
        <ele>1957.9000000000001</ele>
        <time>2021-09-12T09:01:11Z</time>
      </trkpt>
      <trkpt lat="45.675784489139915" lon="6.964839342981577">
        <ele>1957.1400000000001</ele>
        <time>2021-09-12T09:01:20Z</time>
      </trkpt>
      <trkpt lat="45.675746100023389" lon="6.964826099574566">
        <ele>1957.95</ele>
        <time>2021-09-12T09:01:33Z</time>
      </trkpt>
      <trkpt lat="45.675754649564624" lon="6.96483020670712">
        <ele>1957.96</ele>
        <time>2021-09-12T09:01:53Z</time>
      </trkpt>
      <trkpt lat="45.675771161913872" lon="6.964813945814967">
        <ele>1958.02</ele>
        <time>2021-09-12T09:02:06Z</time>
      </trkpt>
      <trkpt lat="45.675780130550265" lon="6.964803216978908">
        <ele>1957.9000000000001</ele>
        <time>2021-09-12T09:02:22Z</time>
      </trkpt>
      <trkpt lat="45.675803180783987" lon="6.964830793440342">
        <ele>1957.5899999999999</ele>
        <time>2021-09-12T09:02:37Z</time>
      </trkpt>
      <trkpt lat="45.675797313451767" lon="6.964800534769893">
        <ele>1957.46</ele>
        <time>2021-09-12T09:02:55Z</time>
      </trkpt>
      <trkpt lat="45.675796391442418" lon="6.964818555861712">
        <ele>1957.4200000000001</ele>
        <time>2021-09-12T09:03:10Z</time>
      </trkpt>
      <trkpt lat="45.675806282088161" lon="6.964840684086084">
        <ele>1957.3800000000001</ele>
        <time>2021-09-12T09:03:28Z</time>
      </trkpt>
      <trkpt lat="45.675895297899842" lon="6.964976135641336">
        <ele>1956.48</ele>
        <time>2021-09-12T09:03:39Z</time>
      </trkpt>
      <trkpt lat="45.675929831340909" lon="6.965016620233655">
        <ele>1956.3800000000001</ele>
        <time>2021-09-12T09:03:43Z</time>
      </trkpt>
      <trkpt lat="45.676008956506848" lon="6.965134553611279">
        <ele>1956.28</ele>
        <time>2021-09-12T09:03:55Z</time>
      </trkpt>
      <trkpt lat="45.676078945398331" lon="6.965199010446668">
        <ele>1955.99</ele>
        <time>2021-09-12T09:04:07Z</time>
      </trkpt>
      <trkpt lat="45.676081292331219" lon="6.96521183475852">
        <ele>1956.02</ele>
        <time>2021-09-12T09:04:16Z</time>
      </trkpt>
      <trkpt lat="45.676123118028045" lon="6.965266820043325">
        <ele>1956.0799999999999</ele>
        <time>2021-09-12T09:04:31Z</time>
      </trkpt>
      <trkpt lat="45.676143653690815" lon="6.965325577184558">
        <ele>1957.8199999999999</ele>
        <time>2021-09-12T09:04:42Z</time>
      </trkpt>
      <trkpt lat="45.676186066120863" lon="6.965393302962184">
        <ele>1959.29</ele>
        <time>2021-09-12T09:04:53Z</time>
      </trkpt>
      <trkpt lat="45.676189167425036" lon="6.965450718998909">
        <ele>1961.3</ele>
        <time>2021-09-12T09:05:03Z</time>
      </trkpt>
      <trkpt lat="45.67618447355926" lon="6.965458849444985">
        <ele>1962.54</ele>
        <time>2021-09-12T09:05:18Z</time>
      </trkpt>
      <trkpt lat="45.67619327455759" lon="6.965549038723111">
        <ele>1964.9200000000001</ele>
        <time>2021-09-12T09:05:33Z</time>
      </trkpt>
      <trkpt lat="45.676246248185635" lon="6.965616177767515">
        <ele>1966.1800000000001</ele>
        <time>2021-09-12T09:05:45Z</time>
      </trkpt>
      <trkpt lat="45.676271393895149" lon="6.965692872181535">
        <ele>1968</ele>
        <time>2021-09-12T09:05:57Z</time>
      </trkpt>
      <trkpt lat="45.676270555704832" lon="6.965759675949812">
        <ele>1969.05</ele>
        <time>2021-09-12T09:06:10Z</time>
      </trkpt>
      <trkpt lat="45.676266783848405" lon="6.965830000117421">
        <ele>1971.1300000000001</ele>
        <time>2021-09-12T09:06:24Z</time>
      </trkpt>
      <trkpt lat="45.67619813606143" lon="6.965807704254985">
        <ele>1973</ele>
        <time>2021-09-12T09:06:39Z</time>
      </trkpt>
      <trkpt lat="45.676182461902499" lon="6.965830670669675">
        <ele>1973.9200000000001</ele>
        <time>2021-09-12T09:06:49Z</time>
      </trkpt>
      <trkpt lat="45.67619863897562" lon="6.965846931561828">
        <ele>1974.8399999999999</ele>
        <time>2021-09-12T09:07:00Z</time>
      </trkpt>
      <trkpt lat="45.676202913746238" lon="6.965853972360492">
        <ele>1974.98</ele>
        <time>2021-09-12T09:07:21Z</time>
      </trkpt>
      <trkpt lat="45.676214229315519" lon="6.965853637084365">
        <ele>1975.21</ele>
        <time>2021-09-12T09:07:45Z</time>
      </trkpt>
      <trkpt lat="45.676218336448073" lon="6.965853301808238">
        <ele>1975.27</ele>
        <time>2021-09-12T09:08:03Z</time>
      </trkpt>
      <trkpt lat="45.676216324791312" lon="6.965843327343464">
        <ele>1975.4200000000001</ele>
        <time>2021-09-12T09:08:11Z</time>
      </trkpt>
      <trkpt lat="45.676220934838057" lon="6.965853050351143">
        <ele>1975.6400000000001</ele>
        <time>2021-09-12T09:08:30Z</time>
      </trkpt>
      <trkpt lat="45.676214313134551" lon="6.965837879106402">
        <ele>1975.78</ele>
        <time>2021-09-12T09:08:50Z</time>
      </trkpt>
      <trkpt lat="45.676203919574618" lon="6.965836705639958">
        <ele>1975.6400000000001</ele>
        <time>2021-09-12T09:09:10Z</time>
      </trkpt>
      <trkpt lat="45.676200734451413" lon="6.965823043137789">
        <ele>1976.1300000000001</ele>
        <time>2021-09-12T09:09:24Z</time>
      </trkpt>
      <trkpt lat="45.676209451630712" lon="6.965846596285701">
        <ele>1976.1099999999999</ele>
        <time>2021-09-12T09:09:45Z</time>
      </trkpt>
      <trkpt lat="45.676195621490479" lon="6.965852044522762">
        <ele>1976.3399999999999</ele>
        <time>2021-09-12T09:10:14Z</time>
      </trkpt>
      <trkpt lat="45.676196459680796" lon="6.9658587500453">
        <ele>1976.25</ele>
        <time>2021-09-12T09:10:46Z</time>
      </trkpt>
      <trkpt lat="45.676196794956923" lon="6.965849781408906">
        <ele>1976.73</ele>
        <time>2021-09-12T09:10:58Z</time>
      </trkpt>
      <trkpt lat="45.676199560984969" lon="6.965849362313747">
        <ele>1976.9400000000001</ele>
        <time>2021-09-12T09:11:28Z</time>
      </trkpt>
      <trkpt lat="45.676200818270445" lon="6.965846093371511">
        <ele>1977.3900000000001</ele>
        <time>2021-09-12T09:11:50Z</time>
      </trkpt>
      <trkpt lat="45.676201907917857" lon="6.965841734781861">
        <ele>1978.04</ele>
        <time>2021-09-12T09:12:07Z</time>
      </trkpt>
      <trkpt lat="45.676200147718191" lon="6.965843997895718">
        <ele>1978.29</ele>
        <time>2021-09-12T09:12:32Z</time>
      </trkpt>
      <trkpt lat="45.676182964816689" lon="6.965827401727438">
        <ele>1978.46</ele>
        <time>2021-09-12T09:13:01Z</time>
      </trkpt>
      <trkpt lat="45.676185730844736" lon="6.965812146663666">
        <ele>1978.6900000000001</ele>
        <time>2021-09-12T09:13:23Z</time>
      </trkpt>
      <trkpt lat="45.676187658682466" lon="6.965813487768173">
        <ele>1978.9100000000001</ele>
        <time>2021-09-12T09:13:44Z</time>
      </trkpt>
      <trkpt lat="45.676186652854085" lon="6.965810721740127">
        <ele>1980.25</ele>
        <time>2021-09-12T09:14:06Z</time>
      </trkpt>
      <trkpt lat="45.676185814663768" lon="6.96581139229238">
        <ele>1979.05</ele>
        <time>2021-09-12T09:14:08Z</time>
      </trkpt>
      <trkpt lat="45.676183635368943" lon="6.965803345665336">
        <ele>1979.72</ele>
        <time>2021-09-12T09:14:28Z</time>
      </trkpt>
      <trkpt lat="45.676178522408009" lon="6.965809799730778">
        <ele>1980.3</ele>
        <time>2021-09-12T09:14:56Z</time>
      </trkpt>
      <trkpt lat="45.676178019493818" lon="6.965811895206571">
        <ele>1978.6300000000001</ele>
        <time>2021-09-12T09:15:04Z</time>
      </trkpt>
      <trkpt lat="45.676186485216022" lon="6.965805944055319">
        <ele>1982.95</ele>
        <time>2021-09-12T09:15:12Z</time>
      </trkpt>
      <trkpt lat="45.676188580691814" lon="6.96580552496016">
        <ele>1979.3</ele>
        <time>2021-09-12T09:15:14Z</time>
      </trkpt>
      <trkpt lat="45.6761893350631" lon="6.965805357322097">
        <ele>1979.6199999999999</ele>
        <time>2021-09-12T09:15:15Z</time>
      </trkpt>
      <trkpt lat="45.676193777471781" lon="6.965806195512414">
        <ele>1981.4000000000001</ele>
        <time>2021-09-12T09:15:23Z</time>
      </trkpt>
      <trkpt lat="45.67619863897562" lon="6.965804770588875">
        <ele>1980.22</ele>
        <time>2021-09-12T09:15:40Z</time>
      </trkpt>
      <trkpt lat="45.676212972030044" lon="6.965810218825936">
        <ele>1980.3599999999999</ele>
        <time>2021-09-12T09:16:02Z</time>
      </trkpt>
      <trkpt lat="45.676216995343566" lon="6.965813655406237">
        <ele>1980.6099999999999</ele>
        <time>2021-09-12T09:16:16Z</time>
      </trkpt>
      <trkpt lat="45.676221940666437" lon="6.965824803337455">
        <ele>1980.78</ele>
        <time>2021-09-12T09:16:32Z</time>
      </trkpt>
      <trkpt lat="45.676221186295152" lon="6.965816589072347">
        <ele>1980.8499999999999</ele>
        <time>2021-09-12T09:16:43Z</time>
      </trkpt>
      <trkpt lat="45.676226047798991" lon="6.965830251574516">
        <ele>1981.4200000000001</ele>
        <time>2021-09-12T09:17:03Z</time>
      </trkpt>
      <trkpt lat="45.676225963979959" lon="6.965815583243966">
        <ele>1981.0899999999999</ele>
        <time>2021-09-12T09:17:16Z</time>
      </trkpt>
      <trkpt lat="45.676233256235719" lon="6.96583435870707">
        <ele>1981.4300000000001</ele>
        <time>2021-09-12T09:17:29Z</time>
      </trkpt>
      <trkpt lat="45.676246667280793" lon="6.965843662619591">
        <ele>1981.8399999999999</ele>
        <time>2021-09-12T09:17:54Z</time>
      </trkpt>
      <trkpt lat="45.676227724179626" lon="6.965823713690043">
        <ele>1982.3099999999999</ele>
        <time>2021-09-12T09:18:12Z</time>
      </trkpt>
      <trkpt lat="45.676223030313849" lon="6.965825892984867">
        <ele>1982.5899999999999</ele>
        <time>2021-09-12T09:18:30Z</time>
      </trkpt>
      <trkpt lat="45.676212217658758" lon="6.965827904641628">
        <ele>1982.4300000000001</ele>
        <time>2021-09-12T09:18:59Z</time>
      </trkpt>
      <trkpt lat="45.676204254850745" lon="6.965805944055319">
        <ele>1983.1800000000001</ele>
        <time>2021-09-12T09:19:21Z</time>
      </trkpt>
      <trkpt lat="45.676233004778624" lon="6.965892864391208">
        <ele>1984.3599999999999</ele>
        <time>2021-09-12T09:19:36Z</time>
      </trkpt>
      <trkpt lat="45.676290672272444" lon="6.965992022305727">
        <ele>1985.04</ele>
        <time>2021-09-12T09:19:47Z</time>
      </trkpt>
      <trkpt lat="45.676316739991307" lon="6.966056143864989">
        <ele>1985.3900000000001</ele>
        <time>2021-09-12T09:19:53Z</time>
      </trkpt>
      <trkpt lat="45.676335850730538" lon="6.96612018160522">
        <ele>1985.27</ele>
        <time>2021-09-12T09:19:57Z</time>
      </trkpt>
      <trkpt lat="45.67638723179698" lon="6.966201988980174">
        <ele>1986.3199999999999</ele>
        <time>2021-09-12T09:20:06Z</time>
      </trkpt>
      <trkpt lat="45.676417406648397" lon="6.966285556554794">
        <ele>1988.78</ele>
        <time>2021-09-12T09:20:17Z</time>
      </trkpt>
      <trkpt lat="45.676443139091134" lon="6.966370549052954">
        <ele>1990.8</ele>
        <time>2021-09-12T09:20:28Z</time>
      </trkpt>
      <trkpt lat="45.676456969231367" lon="6.966457050293684">
        <ele>1993.99</ele>
        <time>2021-09-12T09:20:42Z</time>
      </trkpt>
      <trkpt lat="45.676499549299479" lon="6.96648471057415">
        <ele>1996.6400000000001</ele>
        <time>2021-09-12T09:20:55Z</time>
      </trkpt>
      <trkpt lat="45.676549924537539" lon="6.966522596776485">
        <ele>1998.79</ele>
        <time>2021-09-12T09:21:07Z</time>
      </trkpt>
      <trkpt lat="45.676602898165584" lon="6.966570373624563">
        <ele>2000.28</ele>
        <time>2021-09-12T09:21:19Z</time>
      </trkpt>
      <trkpt lat="45.676586637273431" lon="6.966656288132072">
        <ele>2001.6900000000001</ele>
        <time>2021-09-12T09:21:31Z</time>
      </trkpt>
      <trkpt lat="45.676556127145886" lon="6.966658048331738">
        <ele>2003.73</ele>
        <time>2021-09-12T09:21:42Z</time>
      </trkpt>
      <trkpt lat="45.676559060811996" lon="6.966745890676975">
        <ele>2005.6700000000001</ele>
        <time>2021-09-12T09:21:57Z</time>
      </trkpt>
      <trkpt lat="45.676575656980276" lon="6.966819651424885">
        <ele>2007.5899999999999</ele>
        <time>2021-09-12T09:22:08Z</time>
      </trkpt>
      <trkpt lat="45.676621841266751" lon="6.966896764934063">
        <ele>2008.8499999999999</ele>
        <time>2021-09-12T09:22:19Z</time>
      </trkpt>
      <trkpt lat="45.676636593416333" lon="6.966993575915694">
        <ele>2010.8800000000001</ele>
        <time>2021-09-12T09:22:34Z</time>
      </trkpt>
      <trkpt lat="45.676648830994964" lon="6.967071359977126">
        <ele>2012.8399999999999</ele>
        <time>2021-09-12T09:22:46Z</time>
      </trkpt>
      <trkpt lat="45.676678922027349" lon="6.967140594497323">
        <ele>2014.52</ele>
        <time>2021-09-12T09:22:58Z</time>
      </trkpt>
      <trkpt lat="45.676638269796968" lon="6.967147886753082">
        <ele>2016.48</ele>
        <time>2021-09-12T09:23:11Z</time>
      </trkpt>
      <trkpt lat="45.676575573161244" lon="6.967063648626208">
        <ele>2019.3599999999999</ele>
        <time>2021-09-12T09:23:26Z</time>
      </trkpt>
      <trkpt lat="45.676524862647057" lon="6.9670260977">
        <ele>2021.47</ele>
        <time>2021-09-12T09:23:38Z</time>
      </trkpt>
      <trkpt lat="45.676495609804988" lon="6.967076389119029">
        <ele>2024.5</ele>
        <time>2021-09-12T09:23:51Z</time>
      </trkpt>
      <trkpt lat="45.676481444388628" lon="6.967068426311016">
        <ele>2025.53</ele>
        <time>2021-09-12T09:23:56Z</time>
      </trkpt>
      <trkpt lat="45.67643316462636" lon="6.967056859284639">
        <ele>2027.27</ele>
        <time>2021-09-12T09:24:08Z</time>
      </trkpt>
      <trkpt lat="45.676389830186963" lon="6.966998353600502">
        <ele>2028.95</ele>
        <time>2021-09-12T09:24:20Z</time>
      </trkpt>
      <trkpt lat="45.676365606486797" lon="6.966968597844243">
        <ele>2028.71</ele>
        <time>2021-09-12T09:24:33Z</time>
      </trkpt>
      <trkpt lat="45.676314644515514" lon="6.966831050813198">
        <ele>2028.2</ele>
        <time>2021-09-12T09:24:45Z</time>
      </trkpt>
      <trkpt lat="45.676274662837386" lon="6.966752763837576">
        <ele>2028.6600000000001</ele>
        <time>2021-09-12T09:24:53Z</time>
      </trkpt>
      <trkpt lat="45.676233759149909" lon="6.966719822958112">
        <ele>2029.01</ele>
        <time>2021-09-12T09:24:58Z</time>
      </trkpt>
      <trkpt lat="45.676178187131882" lon="6.966672465205193">
        <ele>2029.6700000000001</ele>
        <time>2021-09-12T09:25:05Z</time>
      </trkpt>
      <trkpt lat="45.676086656749249" lon="6.966600045561791">
        <ele>2030.52</ele>
        <time>2021-09-12T09:25:19Z</time>
      </trkpt>
      <trkpt lat="45.676085064187646" lon="6.966638099402189">
        <ele>2031.6199999999999</ele>
        <time>2021-09-12T09:25:31Z</time>
      </trkpt>
      <trkpt lat="45.676099648699164" lon="6.966661987826228">
        <ele>2032.23</ele>
        <time>2021-09-12T09:25:47Z</time>
      </trkpt>
      <trkpt lat="45.676138373091817" lon="6.966718230396509">
        <ele>2034.4400000000001</ele>
        <time>2021-09-12T09:25:59Z</time>
      </trkpt>
      <trkpt lat="45.676150191575289" lon="6.966827278956771">
        <ele>2035.71</ele>
        <time>2021-09-12T09:26:10Z</time>
      </trkpt>
      <trkpt lat="45.676130158826709" lon="6.966883772984147">
        <ele>2038.76</ele>
        <time>2021-09-12T09:26:19Z</time>
      </trkpt>
      <trkpt lat="45.676103169098496" lon="6.966931968927383">
        <ele>2040.73</ele>
        <time>2021-09-12T09:26:33Z</time>
      </trkpt>
      <trkpt lat="45.676074754446745" lon="6.966954683884978">
        <ele>2041.6500000000001</ele>
        <time>2021-09-12T09:26:47Z</time>
      </trkpt>
      <trkpt lat="45.676069473847747" lon="6.967015704140067">
        <ele>2042.8199999999999</ele>
        <time>2021-09-12T09:26:59Z</time>
      </trkpt>
      <trkpt lat="45.676080035045743" lon="6.96709256619215">
        <ele>2045.0999999999999</ele>
        <time>2021-09-12T09:27:12Z</time>
      </trkpt>
      <trkpt lat="45.676057320088148" lon="6.967119388282299">
        <ele>2047.03</ele>
        <time>2021-09-12T09:27:22Z</time>
      </trkpt>
      <trkpt lat="45.676042484119534" lon="6.96713162586093">
        <ele>2047.24</ele>
        <time>2021-09-12T09:27:36Z</time>
      </trkpt>
      <trkpt lat="45.676025049760938" lon="6.967215863987804">
        <ele>2049.5999999999999</ele>
        <time>2021-09-12T09:27:47Z</time>
      </trkpt>
      <trkpt lat="45.676090428605676" lon="6.967269005253911">
        <ele>2051.3499999999999</ele>
        <time>2021-09-12T09:28:00Z</time>
      </trkpt>
      <trkpt lat="45.676116915419698" lon="6.96728752925992">
        <ele>2051.7600000000002</ele>
        <time>2021-09-12T09:28:11Z</time>
      </trkpt>
      <trkpt lat="45.676161171868443" lon="6.967317871749401">
        <ele>2052.98</ele>
        <time>2021-09-12T09:28:22Z</time>
      </trkpt>
      <trkpt lat="45.676175924018025" lon="6.967396410182118">
        <ele>2055.02</ele>
        <time>2021-09-12T09:28:35Z</time>
      </trkpt>
      <trkpt lat="45.676213055849075" lon="6.967464135959745">
        <ele>2056.54</ele>
        <time>2021-09-12T09:28:46Z</time>
      </trkpt>
      <trkpt lat="45.676256055012345" lon="6.967488443478942">
        <ele>2057.0300000000002</ele>
        <time>2021-09-12T09:28:56Z</time>
      </trkpt>
      <trkpt lat="45.676278686150908" lon="6.967545272782445">
        <ele>2058.6900000000001</ele>
        <time>2021-09-12T09:29:08Z</time>
      </trkpt>
      <trkpt lat="45.676309783011675" lon="6.967617608606815">
        <ele>2060.1799999999998</ele>
        <time>2021-09-12T09:29:19Z</time>
      </trkpt>
      <trkpt lat="45.676315650343895" lon="6.967663625255227">
        <ele>2060.8499999999999</ele>
        <time>2021-09-12T09:29:24Z</time>
      </trkpt>
      <trkpt lat="45.676295533776283" lon="6.967703606933355">
        <ele>2061.8699999999999</ele>
        <time>2021-09-12T09:29:30Z</time>
      </trkpt>
      <trkpt lat="45.676253624260426" lon="6.967683993279934">
        <ele>2063.3499999999999</ele>
        <time>2021-09-12T09:29:41Z</time>
      </trkpt>
      <trkpt lat="45.676224874332547" lon="6.967638731002808">
        <ele>2064.6599999999999</ele>
        <time>2021-09-12T09:29:52Z</time>
      </trkpt>
      <trkpt lat="45.676200482994318" lon="6.967665636911988">
        <ele>2066.8099999999999</ele>
        <time>2021-09-12T09:30:04Z</time>
      </trkpt>
      <trkpt lat="45.676199141889811" lon="6.967699499800801">
        <ele>2068.0100000000002</ele>
        <time>2021-09-12T09:30:15Z</time>
      </trkpt>
      <trkpt lat="45.676195453852415" lon="6.967770075425506">
        <ele>2069.1100000000001</ele>
        <time>2021-09-12T09:30:32Z</time>
      </trkpt>
      <trkpt lat="45.676220683380961" lon="6.967808967456222">
        <ele>2070.5999999999999</ele>
        <time>2021-09-12T09:30:42Z</time>
      </trkpt>
      <trkpt lat="45.676216408610344" lon="6.967861941084266">
        <ele>2072</ele>
        <time>2021-09-12T09:30:55Z</time>
      </trkpt>
      <trkpt lat="45.676201824098825" lon="6.967899659648538">
        <ele>2073.3099999999999</ele>
        <time>2021-09-12T09:31:06Z</time>
      </trkpt>
      <trkpt lat="45.676229987293482" lon="6.967957494780421">
        <ele>2074.8499999999999</ele>
        <time>2021-09-12T09:31:18Z</time>
      </trkpt>
      <trkpt lat="45.676257312297821" lon="6.967996973544359">
        <ele>2076.1799999999998</ele>
        <time>2021-09-12T09:31:30Z</time>
      </trkpt>
      <trkpt lat="45.676250606775284" lon="6.968058412894607">
        <ele>2077.5500000000002</ele>
        <time>2021-09-12T09:31:43Z</time>
      </trkpt>
      <trkpt lat="45.676284302026033" lon="6.968103004619479">
        <ele>2079.0999999999999</ele>
        <time>2021-09-12T09:31:57Z</time>
      </trkpt>
      <trkpt lat="45.676302742213011" lon="6.968150110915303">
        <ele>2080.48</ele>
        <time>2021-09-12T09:32:09Z</time>
      </trkpt>
      <trkpt lat="45.676324283704162" lon="6.968176010996103">
        <ele>2082.98</ele>
        <time>2021-09-12T09:32:20Z</time>
      </trkpt>
      <trkpt lat="45.676342807710171" lon="6.968182884156704">
        <ele>2083.4000000000001</ele>
        <time>2021-09-12T09:32:30Z</time>
      </trkpt>
      <trkpt lat="45.676357978954911" lon="6.968231750652194">
        <ele>2084.1300000000001</ele>
        <time>2021-09-12T09:32:44Z</time>
      </trkpt>
      <trkpt lat="45.67636770196259" lon="6.968326633796096">
        <ele>2087.0599999999999</ele>
        <time>2021-09-12T09:32:57Z</time>
      </trkpt>
      <trkpt lat="45.676375748589635" lon="6.968372818082571">
        <ele>2088.3200000000002</ele>
        <time>2021-09-12T09:33:08Z</time>
      </trkpt>
      <trkpt lat="45.676384968683124" lon="6.968390922993422">
        <ele>2088.1900000000001</ele>
        <time>2021-09-12T09:33:25Z</time>
      </trkpt>
      <trkpt lat="45.676407599821687" lon="6.968480525538325">
        <ele>2089.8899999999999</ele>
        <time>2021-09-12T09:33:37Z</time>
      </trkpt>
      <trkpt lat="45.676411539316177" lon="6.968547832220793">
        <ele>2091.8499999999999</ele>
        <time>2021-09-12T09:33:50Z</time>
      </trkpt>
      <trkpt lat="45.676418161019683" lon="6.96861170232296">
        <ele>2093.3600000000001</ele>
        <time>2021-09-12T09:34:01Z</time>
      </trkpt>
      <trkpt lat="45.676430147141218" lon="6.968659814447165">
        <ele>2095.0599999999999</ele>
        <time>2021-09-12T09:34:14Z</time>
      </trkpt>
      <trkpt lat="45.676444815471768" lon="6.968653108924627">
        <ele>2096.5700000000002</ele>
        <time>2021-09-12T09:34:24Z</time>
      </trkpt>
      <trkpt lat="45.676452443003654" lon="6.968657970428467">
        <ele>2096.8299999999999</ele>
        <time>2021-09-12T09:34:37Z</time>
      </trkpt>
      <trkpt lat="45.676478175446391" lon="6.968703735619783">
        <ele>2097.7600000000002</ele>
        <time>2021-09-12T09:34:53Z</time>
      </trkpt>
      <trkpt lat="45.676484210416675" lon="6.968733239918947">
        <ele>2098.0999999999999</ele>
        <time>2021-09-12T09:35:14Z</time>
      </trkpt>
      <trkpt lat="45.676520420238376" lon="6.96883600205183">
        <ele>2099.4400000000001</ele>
        <time>2021-09-12T09:35:25Z</time>
      </trkpt>
      <trkpt lat="45.676514636725187" lon="6.968939602375031">
        <ele>2102.2600000000002</ele>
        <time>2021-09-12T09:35:38Z</time>
      </trkpt>
      <trkpt lat="45.676498124375939" lon="6.969011938199401">
        <ele>2104.4000000000001</ele>
        <time>2021-09-12T09:35:51Z</time>
      </trkpt>
      <trkpt lat="45.676507344469428" lon="6.96903976611793">
        <ele>2105.5300000000002</ele>
        <time>2021-09-12T09:36:02Z</time>
      </trkpt>
      <trkpt lat="45.676503153517842" lon="6.969040604308248">
        <ele>2106.0500000000002</ele>
        <time>2021-09-12T09:36:17Z</time>
      </trkpt>
      <trkpt lat="45.676500052213669" lon="6.969035994261503">
        <ele>2106.02</ele>
        <time>2021-09-12T09:36:33Z</time>
      </trkpt>
      <trkpt lat="45.6764966994524" lon="6.96903926320374">
        <ele>2105.9899999999998</ele>
        <time>2021-09-12T09:36:56Z</time>
      </trkpt>
      <trkpt lat="45.67649426870048" lon="6.969043789431453">
        <ele>2105.3400000000001</ele>
        <time>2021-09-12T09:37:06Z</time>
      </trkpt>
      <trkpt lat="45.6764966994524" lon="6.969045884907246">
        <ele>2105.3600000000001</ele>
        <time>2021-09-12T09:37:28Z</time>
      </trkpt>
      <trkpt lat="45.676493514329195" lon="6.969026103615761">
        <ele>2105.5999999999999</ele>
        <time>2021-09-12T09:37:57Z</time>
      </trkpt>
      <trkpt lat="45.676495861262083" lon="6.969035658985376">
        <ele>2106.0700000000002</ele>
        <time>2021-09-12T09:38:11Z</time>
      </trkpt>
      <trkpt lat="45.676495945081115" lon="6.969044879078865">
        <ele>2106.3400000000001</ele>
        <time>2021-09-12T09:38:28Z</time>
      </trkpt>
      <trkpt lat="45.676495777443051" lon="6.969048399478197">
        <ele>2106.21</ele>
        <time>2021-09-12T09:38:46Z</time>
      </trkpt>
      <trkpt lat="45.676498208194971" lon="6.969035994261503">
        <ele>2106.1500000000001</ele>
        <time>2021-09-12T09:39:11Z</time>
      </trkpt>
      <trkpt lat="45.676475577056408" lon="6.969100451096892">
        <ele>2106.6199999999999</ele>
        <time>2021-09-12T09:39:27Z</time>
      </trkpt>
      <trkpt lat="45.676503824070096" lon="6.969153927639127">
        <ele>2108.9299999999998</ele>
        <time>2021-09-12T09:39:39Z</time>
      </trkpt>
      <trkpt lat="45.676522850990295" lon="6.969252498820424">
        <ele>2111.7199999999998</ele>
        <time>2021-09-12T09:39:53Z</time>
      </trkpt>
      <trkpt lat="45.676563000306487" lon="6.969366073608398">
        <ele>2114.23</ele>
        <time>2021-09-12T09:40:07Z</time>
      </trkpt>
      <trkpt lat="45.676602562889457" lon="6.969450563192368">
        <ele>2116.3000000000002</ele>
        <time>2021-09-12T09:40:19Z</time>
      </trkpt>
      <trkpt lat="45.676624272018671" lon="6.969509487971664">
        <ele>2117.8899999999999</ele>
        <time>2021-09-12T09:40:28Z</time>
      </trkpt>
      <trkpt lat="45.676654111593962" lon="6.969593642279506">
        <ele>2120.0799999999999</ele>
        <time>2021-09-12T09:40:43Z</time>
      </trkpt>
      <trkpt lat="45.676671294495463" lon="6.969659607857466">
        <ele>2121.9000000000001</ele>
        <time>2021-09-12T09:40:55Z</time>
      </trkpt>
      <trkpt lat="45.676705241203308" lon="6.969703529030085">
        <ele>2123.8699999999999</ele>
        <time>2021-09-12T09:41:07Z</time>
      </trkpt>
      <trkpt lat="45.676743965595961" lon="6.969748875126243">
        <ele>2125.7399999999998</ele>
        <time>2021-09-12T09:41:19Z</time>
      </trkpt>
      <trkpt lat="45.676776068285108" lon="6.969800088554621">
        <ele>2127.5500000000002</ele>
        <time>2021-09-12T09:41:30Z</time>
      </trkpt>
      <trkpt lat="45.67678939551115" lon="6.969876363873482">
        <ele>2128.9699999999998</ele>
        <time>2021-09-12T09:41:41Z</time>
      </trkpt>
      <trkpt lat="45.67684119567275" lon="6.969953142106533">
        <ele>2130.54</ele>
        <time>2021-09-12T09:41:53Z</time>
      </trkpt>
      <trkpt lat="45.676865084096789" lon="6.969976276159287">
        <ele>2130.96</ele>
        <time>2021-09-12T09:41:57Z</time>
      </trkpt>
      <trkpt lat="45.676910262554884" lon="6.970062274485827">
        <ele>2132.3499999999999</ele>
        <time>2021-09-12T09:42:08Z</time>
      </trkpt>
      <trkpt lat="45.676947142928839" lon="6.970181800425053">
        <ele>2133.73</ele>
        <time>2021-09-12T09:42:23Z</time>
      </trkpt>
      <trkpt lat="45.676984610036016" lon="6.970244077965617">
        <ele>2135.5900000000001</ele>
        <time>2021-09-12T09:42:35Z</time>
      </trkpt>
      <trkpt lat="45.67703322507441" lon="6.970308534801006">
        <ele>2138.0900000000001</ele>
        <time>2021-09-12T09:42:49Z</time>
      </trkpt>
      <trkpt lat="45.677065914496779" lon="6.970407692715526">
        <ele>2139.77</ele>
        <time>2021-09-12T09:43:03Z</time>
      </trkpt>
      <trkpt lat="45.677133472636342" lon="6.970471981912851">
        <ele>2140.8800000000001</ele>
        <time>2021-09-12T09:43:19Z</time>
      </trkpt>
      <trkpt lat="45.677205724641681" lon="6.970553286373615">
        <ele>2143.98</ele>
        <time>2021-09-12T09:43:34Z</time>
      </trkpt>
      <trkpt lat="45.677272779867053" lon="6.970545072108507">
        <ele>2146.1399999999999</ele>
        <time>2021-09-12T09:43:47Z</time>
      </trkpt>
      <trkpt lat="45.677285855636001" lon="6.970627382397652">
        <ele>2148.3600000000001</ele>
        <time>2021-09-12T09:43:59Z</time>
      </trkpt>
      <trkpt lat="45.677338493987918" lon="6.970717068761587">
        <ele>2150.5500000000002</ele>
        <time>2021-09-12T09:44:13Z</time>
      </trkpt>
      <trkpt lat="45.677343858405948" lon="6.970793092623353">
        <ele>2152.8400000000001</ele>
        <time>2021-09-12T09:44:25Z</time>
      </trkpt>
      <trkpt lat="45.677349306643009" lon="6.97085059247911">
        <ele>2153.6700000000001</ele>
        <time>2021-09-12T09:44:35Z</time>
      </trkpt>
      <trkpt lat="45.677380822598934" lon="6.970929382368922">
        <ele>2155.5300000000002</ele>
        <time>2021-09-12T09:44:48Z</time>
      </trkpt>
      <trkpt lat="45.677416529506445" lon="6.971001131460071">
        <ele>2153.77</ele>
        <time>2021-09-12T09:45:02Z</time>
      </trkpt>
      <trkpt lat="45.677434802055359" lon="6.971028037369251">
        <ele>2152.8299999999999</ele>
        <time>2021-09-12T09:45:14Z</time>
      </trkpt>
      <trkpt lat="45.677437735721469" lon="6.971121830865741">
        <ele>2150.3400000000001</ele>
        <time>2021-09-12T09:45:26Z</time>
      </trkpt>
      <trkpt lat="45.67746221087873" lon="6.971178324893117">
        <ele>2148.8800000000001</ele>
        <time>2021-09-12T09:45:37Z</time>
      </trkpt>
      <trkpt lat="45.677469670772552" lon="6.971213528886437">
        <ele>2148.4499999999998</ele>
        <time>2021-09-12T09:45:52Z</time>
      </trkpt>
      <trkpt lat="45.677493391558528" lon="6.971259880810976">
        <ele>2147.8699999999999</ele>
        <time>2021-09-12T09:46:03Z</time>
      </trkpt>
      <trkpt lat="45.677492637187243" lon="6.971274046227336">
        <ele>2146.6199999999999</ele>
        <time>2021-09-12T09:46:12Z</time>
      </trkpt>
      <trkpt lat="45.677505880594254" lon="6.971276057884097">
        <ele>2146.4000000000001</ele>
        <time>2021-09-12T09:46:30Z</time>
      </trkpt>
      <trkpt lat="45.677499929443002" lon="6.971275303512812">
        <ele>2146.0700000000002</ele>
        <time>2021-09-12T09:47:11Z</time>
      </trkpt>
      <trkpt lat="45.677497917786241" lon="6.971256360411644">
        <ele>2146.2800000000002</ele>
        <time>2021-09-12T09:47:59Z</time>
      </trkpt>
      <trkpt lat="45.677512837573886" lon="6.971270693466067">
        <ele>2145.8600000000001</ele>
        <time>2021-09-12T09:48:43Z</time>
      </trkpt>
      <trkpt lat="45.677511161193252" lon="6.971262646839023">
        <ele>2146.4400000000001</ele>
        <time>2021-09-12T09:49:13Z</time>
      </trkpt>
      <trkpt lat="45.677505964413285" lon="6.971266334876418">
        <ele>2146.4899999999998</ele>
        <time>2021-09-12T09:49:40Z</time>
      </trkpt>
      <trkpt lat="45.677508395165205" lon="6.971270693466067">
        <ele>2146.7199999999998</ele>
        <time>2021-09-12T09:50:13Z</time>
      </trkpt>
      <trkpt lat="45.677500432357192" lon="6.971277985721827">
        <ele>2146.4499999999998</ele>
        <time>2021-09-12T09:50:49Z</time>
      </trkpt>
      <trkpt lat="45.677489703521132" lon="6.971270693466067">
        <ele>2147.1700000000001</ele>
        <time>2021-09-12T09:50:56Z</time>
      </trkpt>
      <trkpt lat="45.67747981287539" lon="6.971266753971577">
        <ele>2148.4000000000001</ele>
        <time>2021-09-12T09:51:10Z</time>
      </trkpt>
      <trkpt lat="45.677476795390248" lon="6.971256025135517">
        <ele>2148.25</ele>
        <time>2021-09-12T09:51:27Z</time>
      </trkpt>
      <trkpt lat="45.677477130666375" lon="6.971256695687771">
        <ele>2148.8400000000001</ele>
        <time>2021-09-12T09:51:39Z</time>
      </trkpt>
      <trkpt lat="45.67747637629509" lon="6.971271364018321">
        <ele>2148.3699999999999</ele>
        <time>2021-09-12T09:51:59Z</time>
      </trkpt>
      <trkpt lat="45.677480064332485" lon="6.97128058411181">
        <ele>2148.3400000000001</ele>
        <time>2021-09-12T09:52:25Z</time>
      </trkpt>
      <trkpt lat="45.677487105131149" lon="6.971322912722826">
        <ele>2148.23</ele>
        <time>2021-09-12T09:52:39Z</time>
      </trkpt>
      <trkpt lat="45.677488781511784" lon="6.971325930207968">
        <ele>2148.2399999999998</ele>
        <time>2021-09-12T09:52:55Z</time>
      </trkpt>
      <trkpt lat="45.677494229748845" lon="6.971333054825664">
        <ele>2148.1100000000001</ele>
        <time>2021-09-12T09:53:14Z</time>
      </trkpt>
      <trkpt lat="45.677487021312118" lon="6.971368761733174">
        <ele>2147.6700000000001</ele>
        <time>2021-09-12T09:53:26Z</time>
      </trkpt>
      <trkpt lat="45.677503366023302" lon="6.971442438662052">
        <ele>2147.6300000000001</ele>
        <time>2021-09-12T09:53:34Z</time>
      </trkpt>
      <trkpt lat="45.677556004375219" lon="6.97157671675086">
        <ele>2146.6199999999999</ele>
        <time>2021-09-12T09:53:46Z</time>
      </trkpt>
      <trkpt lat="45.677571007981896" lon="6.971635306254029">
        <ele>2146.4699999999998</ele>
        <time>2021-09-12T09:53:55Z</time>
      </trkpt>
      <trkpt lat="45.677599422633648" lon="6.971845189109445">
        <ele>2144.48</ele>
        <time>2021-09-12T09:54:09Z</time>
      </trkpt>
      <trkpt lat="45.677599422633648" lon="6.971868993714452">
        <ele>2144.3499999999999</ele>
        <time>2021-09-12T09:54:17Z</time>
      </trkpt>
      <trkpt lat="45.677624987438321" lon="6.971972426399589">
        <ele>2144.75</ele>
        <time>2021-09-12T09:54:27Z</time>
      </trkpt>
      <trkpt lat="45.677704866975546" lon="6.972096562385559">
        <ele>2143.9000000000001</ele>
        <time>2021-09-12T09:54:39Z</time>
      </trkpt>
      <trkpt lat="45.67771777510643" lon="6.972303930670023">
        <ele>2142.5999999999999</ele>
        <time>2021-09-12T09:54:53Z</time>
      </trkpt>
      <trkpt lat="45.677712159231305" lon="6.972384313121438">
        <ele>2142.1300000000001</ele>
        <time>2021-09-12T09:54:59Z</time>
      </trkpt>
      <trkpt lat="45.677714087069035" lon="6.972448183223605">
        <ele>2141.5</ele>
        <time>2021-09-12T09:55:03Z</time>
      </trkpt>
      <trkpt lat="45.677688857540488" lon="6.972549101337791">
        <ele>2141.6399999999999</ele>
        <time>2021-09-12T09:55:10Z</time>
      </trkpt>
      <trkpt lat="45.677715511992574" lon="6.972645744681358">
        <ele>2140.27</ele>
        <time>2021-09-12T09:55:17Z</time>
      </trkpt>
      <trkpt lat="45.677741412073374" lon="6.972731156274676">
        <ele>2139.3400000000001</ele>
        <time>2021-09-12T09:55:24Z</time>
      </trkpt>
      <trkpt lat="45.677786758169532" lon="6.972864679992199">
        <ele>2139.0900000000001</ele>
        <time>2021-09-12T09:55:34Z</time>
      </trkpt>
      <trkpt lat="45.677884910255671" lon="6.972992168739438">
        <ele>2137.8099999999999</ele>
        <time>2021-09-12T09:55:47Z</time>
      </trkpt>
      <trkpt lat="45.677915504202247" lon="6.97313348762691">
        <ele>2138.8099999999999</ele>
        <time>2021-09-12T09:55:59Z</time>
      </trkpt>
      <trkpt lat="45.677991947159171" lon="6.973264999687672">
        <ele>2139.25</ele>
        <time>2021-09-12T09:56:12Z</time>
      </trkpt>
      <trkpt lat="45.678045675158501" lon="6.973367929458618">
        <ele>2140.52</ele>
        <time>2021-09-12T09:56:24Z</time>
      </trkpt>
      <trkpt lat="45.678104516118765" lon="6.973443198949099">
        <ele>2141.5799999999999</ele>
        <time>2021-09-12T09:56:34Z</time>
      </trkpt>
      <trkpt lat="45.678161093965173" lon="6.973587619140744">
        <ele>2142.23</ele>
        <time>2021-09-12T09:56:47Z</time>
      </trkpt>
      <trkpt lat="45.67817953415215" lon="6.973738912492991">
        <ele>2143.0999999999999</ele>
        <time>2021-09-12T09:57:02Z</time>
      </trkpt>
      <trkpt lat="45.678161345422268" lon="6.973786940798163">
        <ele>2143.5599999999999</ele>
        <time>2021-09-12T09:57:13Z</time>
      </trkpt>
      <trkpt lat="45.678126057609916" lon="6.973795322701335">
        <ele>2145.5300000000002</ele>
        <time>2021-09-12T09:57:24Z</time>
      </trkpt>
      <trkpt lat="45.678138379007578" lon="6.973869167268276">
        <ele>2147.4299999999998</ele>
        <time>2021-09-12T09:57:37Z</time>
      </trkpt>
      <trkpt lat="45.678127063438296" lon="6.973916189745069">
        <ele>2147.9000000000001</ele>
        <time>2021-09-12T09:57:46Z</time>
      </trkpt>
      <trkpt lat="45.678075682371855" lon="6.973925326019526">
        <ele>2149.3699999999999</ele>
        <time>2021-09-12T09:57:58Z</time>
      </trkpt>
      <trkpt lat="45.678049111738801" lon="6.973953153938055">
        <ele>2150.4200000000001</ele>
        <time>2021-09-12T09:58:12Z</time>
      </trkpt>
      <trkpt lat="45.678058499470353" lon="6.974007552489638">
        <ele>2151.5999999999999</ele>
        <time>2021-09-12T09:58:25Z</time>
      </trkpt>
      <trkpt lat="45.678021619096398" lon="6.974051641300321">
        <ele>2152.3400000000001</ele>
        <time>2021-09-12T09:58:34Z</time>
      </trkpt>
      <trkpt lat="45.677928496152163" lon="6.974093718454242">
        <ele>2153.4899999999998</ele>
        <time>2021-09-12T09:58:47Z</time>
      </trkpt>
      <trkpt lat="45.677963281050324" lon="6.974220955744386">
        <ele>2154.4499999999998</ele>
        <time>2021-09-12T09:59:00Z</time>
      </trkpt>
      <trkpt lat="45.67804953083396" lon="6.97433209978044">
        <ele>2155.75</ele>
        <time>2021-09-12T09:59:14Z</time>
      </trkpt>
      <trkpt lat="45.678114490583539" lon="6.974468724802136">
        <ele>2157.48</ele>
        <time>2021-09-12T09:59:28Z</time>
      </trkpt>
      <trkpt lat="45.67813997156918" lon="6.97454709559679">
        <ele>2157.9699999999998</ele>
        <time>2021-09-12T09:59:35Z</time>
      </trkpt>
      <trkpt lat="45.678181378170848" lon="6.97475572116673">
        <ele>2156.7800000000002</ele>
        <time>2021-09-12T09:59:51Z</time>
      </trkpt>
      <trkpt lat="45.678173247724771" lon="6.974846245720983">
        <ele>2155.6599999999999</ele>
        <time>2021-09-12T09:59:58Z</time>
      </trkpt>
      <trkpt lat="45.678163357079029" lon="6.975017907097936">
        <ele>2153.4000000000001</ele>
        <time>2021-09-12T10:00:11Z</time>
      </trkpt>
      <trkpt lat="45.678134355694056" lon="6.975175319239497">
        <ele>2152.54</ele>
        <time>2021-09-12T10:00:24Z</time>
      </trkpt>
      <trkpt lat="45.678138630464673" lon="6.975210774689913">
        <ele>2152.8099999999999</ele>
        <time>2021-09-12T10:00:31Z</time>
      </trkpt>
      <trkpt lat="45.678079454228282" lon="6.975194262340665">
        <ele>2152.6999999999998</ele>
        <time>2021-09-12T10:00:44Z</time>
      </trkpt>
      <trkpt lat="45.678090266883373" lon="6.975254528224468">
        <ele>2152.5</ele>
        <time>2021-09-12T10:00:54Z</time>
      </trkpt>
      <trkpt lat="45.678091188892722" lon="6.975310184061527">
        <ele>2152.1500000000001</ele>
        <time>2021-09-12T10:01:06Z</time>
      </trkpt>
      <trkpt lat="45.678097559139132" lon="6.975319152697921">
        <ele>2152.0599999999999</ele>
        <time>2021-09-12T10:01:24Z</time>
      </trkpt>
      <trkpt lat="45.678102169185877" lon="6.975334994494915">
        <ele>2152.0599999999999</ele>
        <time>2021-09-12T10:01:39Z</time>
      </trkpt>
      <trkpt lat="45.678209792822599" lon="6.975502045825124">
        <ele>2149.8400000000001</ele>
        <time>2021-09-12T10:01:54Z</time>
      </trkpt>
      <trkpt lat="45.678213648498058" lon="6.975513193756342">
        <ele>2149.9699999999998</ele>
        <time>2021-09-12T10:02:00Z</time>
      </trkpt>
      <trkpt lat="45.678264861926436" lon="6.975548230111599">
        <ele>2149.48</ele>
        <time>2021-09-12T10:02:06Z</time>
      </trkpt>
      <trkpt lat="45.678284643217921" lon="6.975574633106589">
        <ele>2149.3299999999999</ele>
        <time>2021-09-12T10:02:09Z</time>
      </trkpt>
      <trkpt lat="45.678281541913748" lon="6.97574470192194">
        <ele>2149.6900000000001</ele>
        <time>2021-09-12T10:02:21Z</time>
      </trkpt>
      <trkpt lat="45.678239464759827" lon="6.975928684696555">
        <ele>2151.8600000000001</ele>
        <time>2021-09-12T10:02:36Z</time>
      </trkpt>
      <trkpt lat="45.67826310172677" lon="6.976040164008737">
        <ele>2154.1199999999999</ele>
        <time>2021-09-12T10:02:48Z</time>
      </trkpt>
      <trkpt lat="45.678329989314079" lon="6.976043181493878">
        <ele>2156.1199999999999</ele>
        <time>2021-09-12T10:03:01Z</time>
      </trkpt>
      <trkpt lat="45.678412551060319" lon="6.976022059097886">
        <ele>2158.3800000000001</ele>
        <time>2021-09-12T10:03:16Z</time>
      </trkpt>
      <trkpt lat="45.678492179140449" lon="6.975953998044133">
        <ele>2159.8200000000002</ele>
        <time>2021-09-12T10:03:30Z</time>
      </trkpt>
      <trkpt lat="45.678563844412565" lon="6.975892307236791">
        <ele>2161.21</ele>
        <time>2021-09-12T10:03:44Z</time>
      </trkpt>
      <trkpt lat="45.678613046184182" lon="6.975831119343638">
        <ele>2162.4499999999998</ele>
        <time>2021-09-12T10:03:56Z</time>
      </trkpt>
      <trkpt lat="45.678657051175833" lon="6.975852912291884">
        <ele>2162.79</ele>
        <time>2021-09-12T10:04:13Z</time>
      </trkpt>
      <trkpt lat="45.678728464990854" lon="6.975831873714924">
        <ele>2164.5300000000002</ele>
        <time>2021-09-12T10:04:24Z</time>
      </trkpt>
      <trkpt lat="45.678800968453288" lon="6.975791975855827">
        <ele>2166.1399999999999</ele>
        <time>2021-09-12T10:04:36Z</time>
      </trkpt>
      <trkpt lat="45.678873723372817" lon="6.975779570639134">
        <ele>2168.0999999999999</ele>
        <time>2021-09-12T10:04:48Z</time>
      </trkpt>
      <trkpt lat="45.678927451372147" lon="6.975828018039465">
        <ele>2169.77</ele>
        <time>2021-09-12T10:04:59Z</time>
      </trkpt>
      <trkpt lat="45.678987046703696" lon="6.975881243124604">
        <ele>2171.5</ele>
        <time>2021-09-12T10:05:11Z</time>
      </trkpt>
      <trkpt lat="45.679029207676649" lon="6.975913010537624">
        <ele>2173.0700000000002</ele>
        <time>2021-09-12T10:05:25Z</time>
      </trkpt>
      <trkpt lat="45.679086539894342" lon="6.975950477644801">
        <ele>2174.6199999999999</ele>
        <time>2021-09-12T10:05:38Z</time>
      </trkpt>
      <trkpt lat="45.679144542664289" lon="6.975973360240459">
        <ele>2176.2600000000002</ele>
        <time>2021-09-12T10:05:52Z</time>
      </trkpt>
      <trkpt lat="45.679199360311031" lon="6.975970091298223">
        <ele>2178.1100000000001</ele>
        <time>2021-09-12T10:06:04Z</time>
      </trkpt>
      <trkpt lat="45.679230457171798" lon="6.975990291684866">
        <ele>2179.1700000000001</ele>
        <time>2021-09-12T10:06:15Z</time>
      </trkpt>
      <trkpt lat="45.679227272048593" lon="6.975998925045133">
        <ele>2178.8899999999999</ele>
        <time>2021-09-12T10:06:35Z</time>
      </trkpt>
      <trkpt lat="45.679244706407189" lon="6.976067740470171">
        <ele>2179.7800000000002</ele>
        <time>2021-09-12T10:06:45Z</time>
      </trkpt>
      <trkpt lat="45.67924621514976" lon="6.97607796639204">
        <ele>2179.8099999999999</ele>
        <time>2021-09-12T10:06:46Z</time>
      </trkpt>
      <trkpt lat="45.679263062775135" lon="6.976203359663487">
        <ele>2181.8899999999999</ele>
        <time>2021-09-12T10:06:59Z</time>
      </trkpt>
      <trkpt lat="45.679254177957773" lon="6.976283825933933">
        <ele>2183.48</ele>
        <time>2021-09-12T10:07:11Z</time>
      </trkpt>
      <trkpt lat="45.679289549589157" lon="6.976361190900207">
        <ele>2185.3099999999999</ele>
        <time>2021-09-12T10:07:24Z</time>
      </trkpt>
      <trkpt lat="45.679308157414198" lon="6.97647568769753">
        <ele>2187.9400000000001</ele>
        <time>2021-09-12T10:07:38Z</time>
      </trkpt>
      <trkpt lat="45.679307822138071" lon="6.976526146754623">
        <ele>2188.7600000000002</ele>
        <time>2021-09-12T10:07:48Z</time>
      </trkpt>
      <trkpt lat="45.679345037788153" lon="6.976548442617059">
        <ele>2189.3899999999999</ele>
        <time>2021-09-12T10:08:10Z</time>
      </trkpt>
      <trkpt lat="45.679382337257266" lon="6.976651372388005">
        <ele>2191.79</ele>
        <time>2021-09-12T10:08:22Z</time>
      </trkpt>
      <trkpt lat="45.679425001144409" lon="6.976772909983993">
        <ele>2194.02</ele>
        <time>2021-09-12T10:08:36Z</time>
      </trkpt>
      <trkpt lat="45.67944897338748" lon="6.976852789521217">
        <ele>2195.7600000000002</ele>
        <time>2021-09-12T10:08:46Z</time>
      </trkpt>
      <trkpt lat="45.679492391645908" lon="6.976930825039744">
        <ele>2197.46</ele>
        <time>2021-09-12T10:08:58Z</time>
      </trkpt>
      <trkpt lat="45.679554417729378" lon="6.976988660171628">
        <ele>2198.75</ele>
        <time>2021-09-12T10:09:11Z</time>
      </trkpt>
      <trkpt lat="45.679642427712679" lon="6.977068036794663">
        <ele>2200.3800000000001</ele>
        <time>2021-09-12T10:09:25Z</time>
      </trkpt>
      <trkpt lat="45.679728677496314" lon="6.977132745087147">
        <ele>2201.4899999999998</ele>
        <time>2021-09-12T10:09:38Z</time>
      </trkpt>
      <trkpt lat="45.679827248677611" lon="6.977125369012356">
        <ele>2203.5</ele>
        <time>2021-09-12T10:09:53Z</time>
      </trkpt>
      <trkpt lat="45.679870499297976" lon="6.977099385112524">
        <ele>2204.7399999999998</ele>
        <time>2021-09-12T10:10:06Z</time>
      </trkpt>
      <trkpt lat="45.679937051609159" lon="6.977139702066779">
        <ele>2206.75</ele>
        <time>2021-09-12T10:10:20Z</time>
      </trkpt>
      <trkpt lat="45.679942416027188" lon="6.977225784212351">
        <ele>2208.3099999999999</ele>
        <time>2021-09-12T10:10:31Z</time>
      </trkpt>
      <trkpt lat="45.679941494017839" lon="6.977316560223699">
        <ele>2209.8499999999999</ele>
        <time>2021-09-12T10:10:43Z</time>
      </trkpt>
      <trkpt lat="45.679943589493632" lon="6.977394428104162">
        <ele>2211.5300000000002</ele>
        <time>2021-09-12T10:10:54Z</time>
      </trkpt>
      <trkpt lat="45.679935626685619" lon="6.977493586018682">
        <ele>2212.9899999999998</ele>
        <time>2021-09-12T10:11:07Z</time>
      </trkpt>
      <trkpt lat="45.679937722161412" lon="6.977554354816675">
        <ele>2214.2399999999998</ele>
        <time>2021-09-12T10:11:17Z</time>
      </trkpt>
      <trkpt lat="45.679926993325353" lon="6.977627025917172">
        <ele>2215.6199999999999</ele>
        <time>2021-09-12T10:11:29Z</time>
      </trkpt>
      <trkpt lat="45.679940907284617" lon="6.977707324549556">
        <ele>2217.2199999999998</ele>
        <time>2021-09-12T10:11:41Z</time>
      </trkpt>
      <trkpt lat="45.67993906326592" lon="6.977787790820003">
        <ele>2218.3600000000001</ele>
        <time>2021-09-12T10:11:52Z</time>
      </trkpt>
      <trkpt lat="45.679939398542047" lon="6.977896420285106">
        <ele>2219.9499999999998</ele>
        <time>2021-09-12T10:12:04Z</time>
      </trkpt>
      <trkpt lat="45.679939985275269" lon="6.978001361712813">
        <ele>2221.6900000000001</ele>
        <time>2021-09-12T10:12:15Z</time>
      </trkpt>
      <trkpt lat="45.679929843172431" lon="6.978138154372573">
        <ele>2222.5999999999999</ele>
        <time>2021-09-12T10:12:29Z</time>
      </trkpt>
      <trkpt lat="45.679928585886955" lon="6.978223146870732">
        <ele>2224.6300000000001</ele>
        <time>2021-09-12T10:12:44Z</time>
      </trkpt>
      <trkpt lat="45.67997720092535" lon="6.978123737499118">
        <ele>2225.9099999999999</ele>
        <time>2021-09-12T10:12:57Z</time>
      </trkpt>
      <trkpt lat="45.680029168725014" lon="6.977985519915819">
        <ele>2228.0300000000002</ele>
        <time>2021-09-12T10:13:13Z</time>
      </trkpt>
      <trkpt lat="45.680074095726013" lon="6.97783850133419">
        <ele>2230.2399999999998</ele>
        <time>2021-09-12T10:13:30Z</time>
      </trkpt>
      <trkpt lat="45.68011743016541" lon="6.977754347026348">
        <ele>2231.9899999999998</ele>
        <time>2021-09-12T10:13:42Z</time>
      </trkpt>
      <trkpt lat="45.680163279175758" lon="6.977657955139875">
        <ele>2233.5599999999999</ele>
        <time>2021-09-12T10:13:55Z</time>
      </trkpt>
      <trkpt lat="45.680214911699295" lon="6.977623756974936">
        <ele>2235.4000000000001</ele>
        <time>2021-09-12T10:14:07Z</time>
      </trkpt>
      <trkpt lat="45.680244248360395" lon="6.977682011201978">
        <ele>2236.8800000000001</ele>
        <time>2021-09-12T10:14:18Z</time>
      </trkpt>
      <trkpt lat="45.680255899205804" lon="6.97774370200932">
        <ele>2237.77</ele>
        <time>2021-09-12T10:14:33Z</time>
      </trkpt>
      <trkpt lat="45.68025715649128" lon="6.977845206856728">
        <ele>2239.7399999999998</ele>
        <time>2021-09-12T10:14:45Z</time>
      </trkpt>
      <trkpt lat="45.68025279790163" lon="6.977945622056723">
        <ele>2241.3699999999999</ele>
        <time>2021-09-12T10:14:57Z</time>
      </trkpt>
      <trkpt lat="45.680280961096287" lon="6.978075206279755">
        <ele>2243.7199999999998</ele>
        <time>2021-09-12T10:15:12Z</time>
      </trkpt>
      <trkpt lat="45.680278362706304" lon="6.978086773306131">
        <ele>2244.2800000000002</ele>
        <time>2021-09-12T10:15:24Z</time>
      </trkpt>
      <trkpt lat="45.680290013551712" lon="6.978177465498447">
        <ele>2245.1700000000001</ele>
        <time>2021-09-12T10:15:37Z</time>
      </trkpt>
      <trkpt lat="45.680266292765737" lon="6.978319706395268">
        <ele>2246.8899999999999</ele>
        <time>2021-09-12T10:15:51Z</time>
      </trkpt>
      <trkpt lat="45.680252378806472" lon="6.978440657258034">
        <ele>2249.3000000000002</ele>
        <time>2021-09-12T10:16:04Z</time>
      </trkpt>
      <trkpt lat="45.680240308865905" lon="6.978546604514122">
        <ele>2251.6599999999999</ele>
        <time>2021-09-12T10:16:16Z</time>
      </trkpt>
      <trkpt lat="45.680230334401131" lon="6.978640062734485">
        <ele>2253.4899999999998</ele>
        <time>2021-09-12T10:16:28Z</time>
      </trkpt>
      <trkpt lat="45.680191777646542" lon="6.978729330003262">
        <ele>2255.2800000000002</ele>
        <time>2021-09-12T10:16:42Z</time>
      </trkpt>
      <trkpt lat="45.680146934464574" lon="6.978782387450337">
        <ele>2257.2800000000002</ele>
        <time>2021-09-12T10:16:53Z</time>
      </trkpt>
      <trkpt lat="45.680101504549384" lon="6.978873331099749">
        <ele>2258.9899999999998</ele>
        <time>2021-09-12T10:17:07Z</time>
      </trkpt>
      <trkpt lat="45.680048195645213" lon="6.978965783491731">
        <ele>2260.5999999999999</ele>
        <time>2021-09-12T10:17:20Z</time>
      </trkpt>
      <trkpt lat="45.680020283907652" lon="6.979021104052663">
        <ele>2260.9200000000001</ele>
        <time>2021-09-12T10:17:33Z</time>
      </trkpt>
      <trkpt lat="45.679983235895634" lon="6.979084387421608">
        <ele>2261.48</ele>
        <time>2021-09-12T10:17:40Z</time>
      </trkpt>
      <trkpt lat="45.679870750755072" lon="6.979236016049981">
        <ele>2261.0999999999999</ele>
        <time>2021-09-12T10:17:55Z</time>
      </trkpt>
      <trkpt lat="45.679805874824524" lon="6.979311956092715">
        <ele>2262.4099999999999</ele>
        <time>2021-09-12T10:18:07Z</time>
      </trkpt>
      <trkpt lat="45.679706465452909" lon="6.97937423363328">
        <ele>2263.75</ele>
        <time>2021-09-12T10:18:20Z</time>
      </trkpt>
      <trkpt lat="45.679642176255584" lon="6.979465177282691">
        <ele>2266.4499999999998</ele>
        <time>2021-09-12T10:18:36Z</time>
      </trkpt>
      <trkpt lat="45.679587861523032" lon="6.979527454823256">
        <ele>2268.5599999999999</ele>
        <time>2021-09-12T10:18:49Z</time>
      </trkpt>
      <trkpt lat="45.679505383595824" lon="6.979614207521081">
        <ele>2270.4299999999998</ele>
        <time>2021-09-12T10:19:05Z</time>
      </trkpt>
      <trkpt lat="45.67947437055409" lon="6.979683190584183">
        <ele>2272.1900000000001</ele>
        <time>2021-09-12T10:19:18Z</time>
      </trkpt>
      <trkpt lat="45.679462216794491" lon="6.979738846421242">
        <ele>2273.3200000000002</ele>
        <time>2021-09-12T10:19:36Z</time>
      </trkpt>
      <trkpt lat="45.679422402754426" lon="6.979800621047616">
        <ele>2274.48</ele>
        <time>2021-09-12T10:19:52Z</time>
      </trkpt>
      <trkpt lat="45.679361885413527" lon="6.979863485321403">
        <ele>2277.1700000000001</ele>
        <time>2021-09-12T10:20:06Z</time>
      </trkpt>
      <trkpt lat="45.679316958412528" lon="6.979918973520398">
        <ele>2278.3400000000001</ele>
        <time>2021-09-12T10:20:21Z</time>
      </trkpt>
      <trkpt lat="45.679297847673297" lon="6.979979323223233">
        <ele>2280.04</ele>
        <time>2021-09-12T10:20:34Z</time>
      </trkpt>
      <trkpt lat="45.679244454950094" lon="6.980079067870975">
        <ele>2282.6999999999998</ele>
        <time>2021-09-12T10:20:49Z</time>
      </trkpt>
      <trkpt lat="45.679180584847927" lon="6.980121815577149">
        <ele>2284.9099999999999</ele>
        <time>2021-09-12T10:21:03Z</time>
      </trkpt>
      <trkpt lat="45.679144207388163" lon="6.980166742578149">
        <ele>2286.5700000000002</ele>
        <time>2021-09-12T10:21:17Z</time>
      </trkpt>
      <trkpt lat="45.679141692817211" lon="6.980221560224891">
        <ele>2288.1399999999999</ele>
        <time>2021-09-12T10:21:30Z</time>
      </trkpt>
      <trkpt lat="45.679165497422218" lon="6.980244694277644">
        <ele>2289.8000000000002</ele>
        <time>2021-09-12T10:21:42Z</time>
      </trkpt>
      <trkpt lat="45.67921637557447" lon="6.980268750339747">
        <ele>2291.3899999999999</ele>
        <time>2021-09-12T10:21:55Z</time>
      </trkpt>
      <trkpt lat="45.679268511012197" lon="6.980275958776474">
        <ele>2292.9699999999998</ele>
        <time>2021-09-12T10:22:07Z</time>
      </trkpt>
      <trkpt lat="45.679333051666617" lon="6.980253411456943">
        <ele>2294.5999999999999</ele>
        <time>2021-09-12T10:22:21Z</time>
      </trkpt>
      <trkpt lat="45.679328776896" lon="6.980302194133401">
        <ele>2295.98</ele>
        <time>2021-09-12T10:22:34Z</time>
      </trkpt>
      <trkpt lat="45.679274462163448" lon="6.980369165539742">
        <ele>2297.6100000000001</ele>
        <time>2021-09-12T10:22:49Z</time>
      </trkpt>
      <trkpt lat="45.679223500192165" lon="6.980414260178804">
        <ele>2299.1799999999998</ele>
        <time>2021-09-12T10:23:02Z</time>
      </trkpt>
      <trkpt lat="45.67919198423624" lon="6.980440160259605">
        <ele>2300.4099999999999</ele>
        <time>2021-09-12T10:23:14Z</time>
      </trkpt>
      <trkpt lat="45.679134987294674" lon="6.980444267392159">
        <ele>2301.9499999999998</ele>
        <time>2021-09-12T10:23:29Z</time>
      </trkpt>
      <trkpt lat="45.679061226546764" lon="6.980423983186483">
        <ele>2304.3400000000001</ele>
        <time>2021-09-12T10:23:47Z</time>
      </trkpt>
      <trkpt lat="45.679096095263958" lon="6.980519453063607">
        <ele>2305.96</ele>
        <time>2021-09-12T10:24:03Z</time>
      </trkpt>
      <trkpt lat="45.679118139669299" lon="6.980554070323706">
        <ele>2307</ele>
        <time>2021-09-12T10:24:16Z</time>
      </trkpt>
      <trkpt lat="45.679152589291334" lon="6.980621460825205">
        <ele>2307.8000000000002</ele>
        <time>2021-09-12T10:24:27Z</time>
      </trkpt>
      <trkpt lat="45.679177567362785" lon="6.980685582384467">
        <ele>2309.8000000000002</ele>
        <time>2021-09-12T10:24:43Z</time>
      </trkpt>
      <trkpt lat="45.679199025034904" lon="6.980729838833213">
        <ele>2311.21</ele>
        <time>2021-09-12T10:24:54Z</time>
      </trkpt>
      <trkpt lat="45.679225092753768" lon="6.980756660923362">
        <ele>2311.8600000000001</ele>
        <time>2021-09-12T10:25:06Z</time>
      </trkpt>
      <trkpt lat="45.679260464385152" lon="6.980764959007502">
        <ele>2313.21</ele>
        <time>2021-09-12T10:25:17Z</time>
      </trkpt>
      <trkpt lat="45.679319892078638" lon="6.980744758620858">
        <ele>2314.54</ele>
        <time>2021-09-12T10:25:30Z</time>
      </trkpt>
      <trkpt lat="45.679369932040572" lon="6.98071600869298">
        <ele>2316.29</ele>
        <time>2021-09-12T10:25:43Z</time>
      </trkpt>
      <trkpt lat="45.679428186267614" lon="6.980663370341063">
        <ele>2317.6700000000001</ele>
        <time>2021-09-12T10:25:56Z</time>
      </trkpt>
      <trkpt lat="45.679474538192153" lon="6.980609809979796">
        <ele>2318.8699999999999</ele>
        <time>2021-09-12T10:26:07Z</time>
      </trkpt>
      <trkpt lat="45.679513681679964" lon="6.980550298467279">
        <ele>2319.9699999999998</ele>
        <time>2021-09-12T10:26:18Z</time>
      </trkpt>
      <trkpt lat="45.679538995027542" lon="6.980524817481637">
        <ele>2321.5900000000001</ele>
        <time>2021-09-12T10:26:32Z</time>
      </trkpt>
      <trkpt lat="45.679558608680964" lon="6.980547616258264">
        <ele>2322.6500000000001</ele>
        <time>2021-09-12T10:26:43Z</time>
      </trkpt>
      <trkpt lat="45.679557686671615" lon="6.980655072256923">
        <ele>2324.77</ele>
        <time>2021-09-12T10:26:58Z</time>
      </trkpt>
      <trkpt lat="45.679526505991817" lon="6.980772083625197">
        <ele>2327.0599999999999</ele>
        <time>2021-09-12T10:27:14Z</time>
      </trkpt>
      <trkpt lat="45.679506473243237" lon="6.980882473289967">
        <ele>2329.2600000000002</ele>
        <time>2021-09-12T10:27:29Z</time>
      </trkpt>
      <trkpt lat="45.679493816569448" lon="6.980970399454236">
        <ele>2331.5500000000002</ele>
        <time>2021-09-12T10:27:43Z</time>
      </trkpt>
      <trkpt lat="45.679468587040901" lon="6.981048099696636">
        <ele>2333.5300000000002</ele>
        <time>2021-09-12T10:27:59Z</time>
      </trkpt>
      <trkpt lat="45.679456768557429" lon="6.981125380843878">
        <ele>2335.1599999999999</ele>
        <time>2021-09-12T10:28:13Z</time>
      </trkpt>
      <trkpt lat="45.679430952295661" lon="6.981180114671588">
        <ele>2336.8200000000002</ele>
        <time>2021-09-12T10:28:27Z</time>
      </trkpt>
      <trkpt lat="45.679387785494328" lon="6.981255635619164">
        <ele>2338.5100000000002</ele>
        <time>2021-09-12T10:28:41Z</time>
      </trkpt>
      <trkpt lat="45.679355766624212" lon="6.981335515156388">
        <ele>2340.5700000000002</ele>
        <time>2021-09-12T10:28:55Z</time>
      </trkpt>
      <trkpt lat="45.679323328658938" lon="6.981393434107304">
        <ele>2342.0100000000002</ele>
        <time>2021-09-12T10:29:06Z</time>
      </trkpt>
      <trkpt lat="45.679253339767456" lon="6.981417071074247">
        <ele>2344.2399999999998</ele>
        <time>2021-09-12T10:29:22Z</time>
      </trkpt>
      <trkpt lat="45.679225428029895" lon="6.981419082731009">
        <ele>2345</ele>
        <time>2021-09-12T10:29:37Z</time>
      </trkpt>
      <trkpt lat="45.679161641746759" lon="6.981382705271244">
        <ele>2346.8800000000001</ele>
        <time>2021-09-12T10:29:51Z</time>
      </trkpt>
      <trkpt lat="45.679116882383823" lon="6.98135512880981">
        <ele>2348.1300000000001</ele>
        <time>2021-09-12T10:30:02Z</time>
      </trkpt>
      <trkpt lat="45.679073547944427" lon="6.981306178495288">
        <ele>2349.6700000000001</ele>
        <time>2021-09-12T10:30:13Z</time>
      </trkpt>
      <trkpt lat="45.679061645641923" lon="6.981286816298962">
        <ele>2349.8800000000001</ele>
        <time>2021-09-12T10:30:16Z</time>
      </trkpt>
      <trkpt lat="45.67900431342423" lon="6.981209702789784">
        <ele>2351</ele>
        <time>2021-09-12T10:30:27Z</time>
      </trkpt>
      <trkpt lat="45.678941030055285" lon="6.981163350865245">
        <ele>2352.2399999999998</ele>
        <time>2021-09-12T10:30:38Z</time>
      </trkpt>
      <trkpt lat="45.678895600140095" lon="6.981145078316331">
        <ele>2353.5900000000001</ele>
        <time>2021-09-12T10:30:50Z</time>
      </trkpt>
      <trkpt lat="45.678862323984504" lon="6.981153627857566">
        <ele>2354.9499999999998</ele>
        <time>2021-09-12T10:31:03Z</time>
      </trkpt>
      <trkpt lat="45.67886802367866" lon="6.98114993982017">
        <ele>2354.2600000000002</ele>
        <time>2021-09-12T10:31:21Z</time>
      </trkpt>
      <trkpt lat="45.67882938310504" lon="6.981162009760737">
        <ele>2355.8400000000001</ele>
        <time>2021-09-12T10:31:39Z</time>
      </trkpt>
      <trkpt lat="45.678773308172822" lon="6.981225879862905">
        <ele>2358.75</ele>
        <time>2021-09-12T10:31:52Z</time>
      </trkpt>
      <trkpt lat="45.678736595436931" lon="6.98128329589963">
        <ele>2360.3099999999999</ele>
        <time>2021-09-12T10:32:07Z</time>
      </trkpt>
      <trkpt lat="45.678692758083344" lon="6.981344064697623">
        <ele>2362.8499999999999</ele>
        <time>2021-09-12T10:32:21Z</time>
      </trkpt>
      <trkpt lat="45.678648585453629" lon="6.98136979714036">
        <ele>2364.8299999999999</ele>
        <time>2021-09-12T10:32:36Z</time>
      </trkpt>
      <trkpt lat="45.678606340661645" lon="6.981385052204132">
        <ele>2366.8099999999999</ele>
        <time>2021-09-12T10:32:50Z</time>
      </trkpt>
      <trkpt lat="45.67858412861824" lon="6.981463339179754">
        <ele>2368.4200000000001</ele>
        <time>2021-09-12T10:33:04Z</time>
      </trkpt>
      <trkpt lat="45.678665181621909" lon="6.981475576758385">
        <ele>2370.3000000000002</ele>
        <time>2021-09-12T10:33:20Z</time>
      </trkpt>
      <trkpt lat="45.678716395050287" lon="6.981495022773743">
        <ele>2371.8499999999999</ele>
        <time>2021-09-12T10:33:31Z</time>
      </trkpt>
      <trkpt lat="45.678783534094691" lon="6.9815075956285">
        <ele>2374.0300000000002</ele>
        <time>2021-09-12T10:33:45Z</time>
      </trkpt>
      <trkpt lat="45.678833406418562" lon="6.981552857905626">
        <ele>2376.0300000000002</ele>
        <time>2021-09-12T10:33:59Z</time>
      </trkpt>
      <trkpt lat="45.678857043385506" lon="6.98164195753634">
        <ele>2378.3499999999999</ele>
        <time>2021-09-12T10:34:13Z</time>
      </trkpt>
      <trkpt lat="45.678861066699028" lon="6.981714041903615">
        <ele>2379.7399999999998</ele>
        <time>2021-09-12T10:34:26Z</time>
      </trkpt>
      <trkpt lat="45.678887972608209" lon="6.981801716610789">
        <ele>2381.9400000000001</ele>
        <time>2021-09-12T10:34:41Z</time>
      </trkpt>
      <trkpt lat="45.678879423066974" lon="6.981888553127646">
        <ele>2383.8699999999999</ele>
        <time>2021-09-12T10:34:58Z</time>
      </trkpt>
      <trkpt lat="45.678901048377156" lon="6.981972372159362">
        <ele>2386.3499999999999</ele>
        <time>2021-09-12T10:35:13Z</time>
      </trkpt>
      <trkpt lat="45.678859306499362" lon="6.981970947235823">
        <ele>2388.02</ele>
        <time>2021-09-12T10:35:26Z</time>
      </trkpt>
      <trkpt lat="45.678808260709047" lon="6.981915794312954">
        <ele>2389.04</ele>
        <time>2021-09-12T10:35:36Z</time>
      </trkpt>
      <trkpt lat="45.678752101957798" lon="6.981900287792087">
        <ele>2390.3000000000002</ele>
        <time>2021-09-12T10:35:50Z</time>
      </trkpt>
      <trkpt lat="45.678686639294028" lon="6.981891738250852">
        <ele>2391.5700000000002</ele>
        <time>2021-09-12T10:36:04Z</time>
      </trkpt>
      <trkpt lat="45.678621176630259" lon="6.981928367167711">
        <ele>2393.1700000000001</ele>
        <time>2021-09-12T10:36:18Z</time>
      </trkpt>
      <trkpt lat="45.678555965423584" lon="6.981986537575722">
        <ele>2394.9400000000001</ele>
        <time>2021-09-12T10:36:33Z</time>
      </trkpt>
      <trkpt lat="45.678608603775501" lon="6.982001373544335">
        <ele>2396.5100000000002</ele>
        <time>2021-09-12T10:36:47Z</time>
      </trkpt>
      <trkpt lat="45.678656715899706" lon="6.98201428167522">
        <ele>2398.6199999999999</ele>
        <time>2021-09-12T10:37:00Z</time>
      </trkpt>
      <trkpt lat="45.678698541596532" lon="6.982053676620126">
        <ele>2400.4200000000001</ele>
        <time>2021-09-12T10:37:13Z</time>
      </trkpt>
      <trkpt lat="45.678735254332423" lon="6.982121570035815">
        <ele>2402.5100000000002</ele>
        <time>2021-09-12T10:37:28Z</time>
      </trkpt>
      <trkpt lat="45.678708348423243" lon="6.982168508693576">
        <ele>2404.2199999999998</ele>
        <time>2021-09-12T10:37:42Z</time>
      </trkpt>
      <trkpt lat="45.678637772798538" lon="6.9821413513273">
        <ele>2405.48</ele>
        <time>2021-09-12T10:37:55Z</time>
      </trkpt>
      <trkpt lat="45.67856015637517" lon="6.982171609997749">
        <ele>2406.8699999999999</ele>
        <time>2021-09-12T10:38:09Z</time>
      </trkpt>
      <trkpt lat="45.67848346196115" lon="6.982223074883223">
        <ele>2408.5</ele>
        <time>2021-09-12T10:38:26Z</time>
      </trkpt>
      <trkpt lat="45.678537944331765" lon="6.982244616374373">
        <ele>2410.1599999999999</ele>
        <time>2021-09-12T10:38:40Z</time>
      </trkpt>
      <trkpt lat="45.678582703694701" lon="6.982274036854506">
        <ele>2411.9699999999998</ele>
        <time>2021-09-12T10:38:54Z</time>
      </trkpt>
      <trkpt lat="45.678607849404216" lon="6.982306391000748">
        <ele>2414.1900000000001</ele>
        <time>2021-09-12T10:39:10Z</time>
      </trkpt>
      <trkpt lat="45.678612291812897" lon="6.982319382950664">
        <ele>2413.4099999999999</ele>
        <time>2021-09-12T10:39:30Z</time>
      </trkpt>
      <trkpt lat="45.678615979850292" lon="6.982324747368693">
        <ele>2414.8099999999999</ele>
        <time>2021-09-12T10:39:32Z</time>
      </trkpt>
      <trkpt lat="45.678623355925083" lon="6.982341762632132">
        <ele>2413.8600000000001</ele>
        <time>2021-09-12T10:39:34Z</time>
      </trkpt>
      <trkpt lat="45.678680939599872" lon="6.982394065707922">
        <ele>2416.5300000000002</ele>
        <time>2021-09-12T10:39:46Z</time>
      </trkpt>
      <trkpt lat="45.678724525496364" lon="6.982451565563679">
        <ele>2418.4200000000001</ele>
        <time>2021-09-12T10:39:57Z</time>
      </trkpt>
      <trkpt lat="45.678655877709389" lon="6.982464138418436">
        <ele>2419.8000000000002</ele>
        <time>2021-09-12T10:40:09Z</time>
      </trkpt>
      <trkpt lat="45.678600389510393" lon="6.982449302449822">
        <ele>2421.3299999999999</ele>
        <time>2021-09-12T10:40:21Z</time>
      </trkpt>
      <trkpt lat="45.678522437810898" lon="6.982489619404078">
        <ele>2422.6500000000001</ele>
        <time>2021-09-12T10:40:35Z</time>
      </trkpt>
      <trkpt lat="45.678454041481018" lon="6.98252247646451">
        <ele>2424.2800000000002</ele>
        <time>2021-09-12T10:40:48Z</time>
      </trkpt>
      <trkpt lat="45.67843115888536" lon="6.982528427615762">
        <ele>2425.2800000000002</ele>
        <time>2021-09-12T10:41:01Z</time>
      </trkpt>
      <trkpt lat="45.678372569382191" lon="6.982557931914926">
        <ele>2426.3099999999999</ele>
        <time>2021-09-12T10:41:17Z</time>
      </trkpt>
      <trkpt lat="45.678317081183195" lon="6.982608558610082">
        <ele>2428.4499999999998</ele>
        <time>2021-09-12T10:41:30Z</time>
      </trkpt>
      <trkpt lat="45.678274584934115" lon="6.982683409005404">
        <ele>2431.2600000000002</ele>
        <time>2021-09-12T10:41:44Z</time>
      </trkpt>
      <trkpt lat="45.678357984870672" lon="6.982679469510913">
        <ele>2433.0300000000002</ele>
        <time>2021-09-12T10:41:57Z</time>
      </trkpt>
      <trkpt lat="45.678363852202892" lon="6.982674272730947">
        <ele>2433.0700000000002</ele>
        <time>2021-09-12T10:41:58Z</time>
      </trkpt>
      <trkpt lat="45.678474493324757" lon="6.982696484774351">
        <ele>2434.5</ele>
        <time>2021-09-12T10:42:13Z</time>
      </trkpt>
      <trkpt lat="45.678564431145787" lon="6.982726156711578">
        <ele>2436.7199999999998</ele>
        <time>2021-09-12T10:42:28Z</time>
      </trkpt>
      <trkpt lat="45.678651267662644" lon="6.982782650738955">
        <ele>2438.9200000000001</ele>
        <time>2021-09-12T10:42:44Z</time>
      </trkpt>
      <trkpt lat="45.678709270432591" lon="6.982834869995713">
        <ele>2440.29</ele>
        <time>2021-09-12T10:42:56Z</time>
      </trkpt>
      <trkpt lat="45.67878152243793" lon="6.982903182506561">
        <ele>2442.5500000000002</ele>
        <time>2021-09-12T10:43:12Z</time>
      </trkpt>
      <trkpt lat="45.678827790543437" lon="6.982967890799046">
        <ele>2444.9400000000001</ele>
        <time>2021-09-12T10:43:26Z</time>
      </trkpt>
      <trkpt lat="45.678768279030919" lon="6.982991695404053">
        <ele>2446.4099999999999</ele>
        <time>2021-09-12T10:43:38Z</time>
      </trkpt>
      <trkpt lat="45.678723268210888" lon="6.983027821406722">
        <ele>2447.8899999999999</ele>
        <time>2021-09-12T10:43:54Z</time>
      </trkpt>
      <trkpt lat="45.678709605708718" lon="6.983022037893534">
        <ele>2447.7600000000002</ele>
        <time>2021-09-12T10:44:10Z</time>
      </trkpt>
      <trkpt lat="45.678697787225246" lon="6.983020361512899">
        <ele>2448.0500000000002</ele>
        <time>2021-09-12T10:44:30Z</time>
      </trkpt>
      <trkpt lat="45.678592594340444" lon="6.983013572171331">
        <ele>2450.0300000000002</ele>
        <time>2021-09-12T10:44:46Z</time>
      </trkpt>
      <trkpt lat="45.678484551608562" lon="6.983060007914901">
        <ele>2452.3200000000002</ele>
        <time>2021-09-12T10:45:01Z</time>
      </trkpt>
      <trkpt lat="45.678466698154807" lon="6.983124800026417">
        <ele>2455.0799999999999</ele>
        <time>2021-09-12T10:45:15Z</time>
      </trkpt>
      <trkpt lat="45.67854942753911" lon="6.983171990141273">
        <ele>2457.4899999999998</ele>
        <time>2021-09-12T10:45:30Z</time>
      </trkpt>
      <trkpt lat="45.678570047020912" lon="6.983231334015727">
        <ele>2459.5</ele>
        <time>2021-09-12T10:45:43Z</time>
      </trkpt>
      <trkpt lat="45.678468123078346" lon="6.983284978196025">
        <ele>2461.5</ele>
        <time>2021-09-12T10:45:59Z</time>
      </trkpt>
      <trkpt lat="45.678395871073008" lon="6.983376843854785">
        <ele>2463.1999999999998</ele>
        <time>2021-09-12T10:46:12Z</time>
      </trkpt>
      <trkpt lat="45.678304759785533" lon="6.983441384509206">
        <ele>2465.29</ele>
        <time>2021-09-12T10:46:27Z</time>
      </trkpt>
      <trkpt lat="45.678203171119094" lon="6.983526209369302">
        <ele>2467.5900000000001</ele>
        <time>2021-09-12T10:46:43Z</time>
      </trkpt>
      <trkpt lat="45.678104348480701" lon="6.98352956213057">
        <ele>2469.6700000000001</ele>
        <time>2021-09-12T10:46:57Z</time>
      </trkpt>
      <trkpt lat="45.67803637124598" lon="6.98356912471354">
        <ele>2470.9000000000001</ele>
        <time>2021-09-12T10:47:09Z</time>
      </trkpt>
      <trkpt lat="45.678028324618936" lon="6.983637185767293">
        <ele>2473.5300000000002</ele>
        <time>2021-09-12T10:47:22Z</time>
      </trkpt>
      <trkpt lat="45.678119771182537" lon="6.983679430559278">
        <ele>2476.02</ele>
        <time>2021-09-12T10:47:36Z</time>
      </trkpt>
      <trkpt lat="45.678182132542133" lon="6.983728129416704">
        <ele>2477.6500000000001</ele>
        <time>2021-09-12T10:47:49Z</time>
      </trkpt>
      <trkpt lat="45.678100408986211" lon="6.9837645906955">
        <ele>2479.3099999999999</ele>
        <time>2021-09-12T10:48:02Z</time>
      </trkpt>
      <trkpt lat="45.67801927216351" lon="6.983836926519871">
        <ele>2481.21</ele>
        <time>2021-09-12T10:48:17Z</time>
      </trkpt>
      <trkpt lat="45.677954312413931" lon="6.983926361426711">
        <ele>2484.0100000000002</ele>
        <time>2021-09-12T10:48:33Z</time>
      </trkpt>
      <trkpt lat="45.67790687084198" lon="6.983994757756591">
        <ele>2486.27</ele>
        <time>2021-09-12T10:48:46Z</time>
      </trkpt>
      <trkpt lat="45.677852388471365" lon="6.984051754698157">
        <ele>2488.5799999999999</ele>
        <time>2021-09-12T10:49:00Z</time>
      </trkpt>
      <trkpt lat="45.677790613844991" lon="6.984091987833381">
        <ele>2491.3099999999999</ele>
        <time>2021-09-12T10:49:14Z</time>
      </trkpt>
      <trkpt lat="45.677740154787898" lon="6.984127359464765">
        <ele>2493.9499999999998</ele>
        <time>2021-09-12T10:49:28Z</time>
      </trkpt>
      <trkpt lat="45.677694221958518" lon="6.984135070815682">
        <ele>2496.1900000000001</ele>
        <time>2021-09-12T10:49:42Z</time>
      </trkpt>
      <trkpt lat="45.677654659375548" lon="6.984144039452076">
        <ele>2497.5999999999999</ele>
        <time>2021-09-12T10:49:53Z</time>
      </trkpt>
      <trkpt lat="45.677621718496084" lon="6.984177231788635">
        <ele>2497.2600000000002</ele>
        <time>2021-09-12T10:50:07Z</time>
      </trkpt>
      <trkpt lat="45.677627837285399" lon="6.984246550127864">
        <ele>2497.0500000000002</ele>
        <time>2021-09-12T10:50:21Z</time>
      </trkpt>
      <trkpt lat="45.677671926096082" lon="6.984297428280115">
        <ele>2498.0999999999999</ele>
        <time>2021-09-12T10:50:33Z</time>
      </trkpt>
      <trkpt lat="45.677672261372209" lon="6.984298517927527">
        <ele>2497.3400000000001</ele>
        <time>2021-09-12T10:50:54Z</time>
      </trkpt>
      <trkpt lat="45.677687851712108" lon="6.984315449371934">
        <ele>2498.04</ele>
        <time>2021-09-12T10:51:18Z</time>
      </trkpt>
      <trkpt lat="45.677683660760522" lon="6.984307235106826">
        <ele>2497.3800000000001</ele>
        <time>2021-09-12T10:51:29Z</time>
      </trkpt>
      <trkpt lat="45.677692713215947" lon="6.984305139631033">
        <ele>2497.3400000000001</ele>
        <time>2021-09-12T10:51:56Z</time>
      </trkpt>
      <trkpt lat="45.677693383768201" lon="6.984322741627693">
        <ele>2497.3400000000001</ele>
        <time>2021-09-12T10:52:37Z</time>
      </trkpt>
      <trkpt lat="45.677702100947499" lon="6.984327016398311">
        <ele>2497.5100000000002</ele>
        <time>2021-09-12T10:53:24Z</time>
      </trkpt>
      <trkpt lat="45.677703274413943" lon="6.984331123530865">
        <ele>2497.8099999999999</ele>
        <time>2021-09-12T10:54:05Z</time>
      </trkpt>
      <trkpt lat="45.677698999643326" lon="6.984326262027025">
        <ele>2498.21</ele>
        <time>2021-09-12T10:54:51Z</time>
      </trkpt>
      <trkpt lat="45.677699921652675" lon="6.984322322532535">
        <ele>2498.1199999999999</ele>
        <time>2021-09-12T10:55:38Z</time>
      </trkpt>
      <trkpt lat="45.677701011300087" lon="6.984317880123854">
        <ele>2498.2199999999998</ele>
        <time>2021-09-12T10:56:29Z</time>
      </trkpt>
      <trkpt lat="45.67770067602396" lon="6.98432307690382">
        <ele>2497.8600000000001</ele>
        <time>2021-09-12T10:57:20Z</time>
      </trkpt>
      <trkpt lat="45.677702268585563" lon="6.984321903437376">
        <ele>2498.1700000000001</ele>
        <time>2021-09-12T10:58:05Z</time>
      </trkpt>
      <trkpt lat="45.677700508385897" lon="6.984314527362585">
        <ele>2498.3299999999999</ele>
        <time>2021-09-12T10:58:52Z</time>
      </trkpt>
      <trkpt lat="45.67770067602396" lon="6.984319807961583">
        <ele>2498.6199999999999</ele>
        <time>2021-09-12T10:59:40Z</time>
      </trkpt>
      <trkpt lat="45.677699837833643" lon="6.984321735799313">
        <ele>2499.23</ele>
        <time>2021-09-12T11:00:21Z</time>
      </trkpt>
      <trkpt lat="45.677702436223626" lon="6.984316874295473">
        <ele>2499.1900000000001</ele>
        <time>2021-09-12T11:00:58Z</time>
      </trkpt>
      <trkpt lat="45.67770067602396" lon="6.984311761334539">
        <ele>2499.3299999999999</ele>
        <time>2021-09-12T11:01:40Z</time>
      </trkpt>
      <trkpt lat="45.677699334919453" lon="6.98431134223938">
        <ele>2499.3499999999999</ele>
        <time>2021-09-12T11:02:22Z</time>
      </trkpt>
      <trkpt lat="45.677695982158184" lon="6.984301535412669">
        <ele>2499.6300000000001</ele>
        <time>2021-09-12T11:02:53Z</time>
      </trkpt>
      <trkpt lat="45.677695143967867" lon="6.984308576211333">
        <ele>2499.4000000000001</ele>
        <time>2021-09-12T11:03:43Z</time>
      </trkpt>
      <trkpt lat="45.677692210301757" lon="6.984310671687126">
        <ele>2499.3000000000002</ele>
        <time>2021-09-12T11:04:13Z</time>
      </trkpt>
      <trkpt lat="45.677688270807266" lon="6.984312599524856">
        <ele>2499.9299999999998</ele>
        <time>2021-09-12T11:04:20Z</time>
      </trkpt>
      <trkpt lat="45.677685253322124" lon="6.984311006963253">
        <ele>2500.4499999999998</ele>
        <time>2021-09-12T11:04:33Z</time>
      </trkpt>
      <trkpt lat="45.677685672417283" lon="6.984308073297143">
        <ele>2499.8600000000001</ele>
        <time>2021-09-12T11:04:45Z</time>
      </trkpt>
      <trkpt lat="45.677686678245664" lon="6.984312096610665">
        <ele>2499.9299999999998</ele>
        <time>2021-09-12T11:05:02Z</time>
      </trkpt>
      <trkpt lat="45.677687264978886" lon="6.984308827668428">
        <ele>2500.1999999999998</ele>
        <time>2021-09-12T11:05:19Z</time>
      </trkpt>
      <trkpt lat="45.677686342969537" lon="6.984323915094137">
        <ele>2500.1500000000001</ele>
        <time>2021-09-12T11:05:36Z</time>
      </trkpt>
      <trkpt lat="45.677667818963528" lon="6.984331710264087">
        <ele>2500.3800000000001</ele>
        <time>2021-09-12T11:05:49Z</time>
      </trkpt>
      <trkpt lat="45.677666226401925" lon="6.984349144622684">
        <ele>2500.4099999999999</ele>
        <time>2021-09-12T11:06:06Z</time>
      </trkpt>
      <trkpt lat="45.677610654383898" lon="6.984383342787623">
        <ele>2499.9699999999998</ele>
        <time>2021-09-12T11:06:20Z</time>
      </trkpt>
      <trkpt lat="45.677554998546839" lon="6.984410751610994">
        <ele>2499.3299999999999</ele>
        <time>2021-09-12T11:06:32Z</time>
      </trkpt>
      <trkpt lat="45.677520297467709" lon="6.984388371929526">
        <ele>2499.1900000000001</ele>
        <time>2021-09-12T11:06:38Z</time>
      </trkpt>
      <trkpt lat="45.67749984562397" lon="6.984265157952905">
        <ele>2496.98</ele>
        <time>2021-09-12T11:06:50Z</time>
      </trkpt>
      <trkpt lat="45.677447291091084" lon="6.984179746359587">
        <ele>2495.2199999999998</ele>
        <time>2021-09-12T11:07:02Z</time>
      </trkpt>
      <trkpt lat="45.677384175360203" lon="6.984197348356247">
        <ele>2494.0599999999999</ele>
        <time>2021-09-12T11:07:10Z</time>
      </trkpt>
      <trkpt lat="45.677323238924146" lon="6.984102129936218">
        <ele>2491.5999999999999</ele>
        <time>2021-09-12T11:07:22Z</time>
      </trkpt>
      <trkpt lat="45.677309408783913" lon="6.984102297574282">
        <ele>2491.5</ele>
        <time>2021-09-12T11:07:24Z</time>
      </trkpt>
      <trkpt lat="45.677239503711462" lon="6.984104895964265">
        <ele>2490.5500000000002</ele>
        <time>2021-09-12T11:07:32Z</time>
      </trkpt>
      <trkpt lat="45.677159791812301" lon="6.984167844057083">
        <ele>2489.8699999999999</ele>
        <time>2021-09-12T11:07:41Z</time>
      </trkpt>
      <trkpt lat="45.6771011184901" lon="6.984332716092467">
        <ele>2489.3899999999999</ele>
        <time>2021-09-12T11:07:54Z</time>
      </trkpt>
      <trkpt lat="45.677066249772906" lon="6.984443608671427">
        <ele>2489.3499999999999</ele>
        <time>2021-09-12T11:08:02Z</time>
      </trkpt>
      <trkpt lat="45.677034733816981" lon="6.984615689143539">
        <ele>2489.8400000000001</ele>
        <time>2021-09-12T11:08:15Z</time>
      </trkpt>
      <trkpt lat="45.677028866484761" lon="6.984623735770583">
        <ele>2489.8800000000001</ele>
        <time>2021-09-12T11:08:16Z</time>
      </trkpt>
      <trkpt lat="45.676894839853048" lon="6.984736304730177">
        <ele>2491.0799999999999</ele>
        <time>2021-09-12T11:08:33Z</time>
      </trkpt>
      <trkpt lat="45.676888888701797" lon="6.984742172062397">
        <ele>2491.1399999999999</ele>
        <time>2021-09-12T11:08:34Z</time>
      </trkpt>
      <trkpt lat="45.676786294206977" lon="6.984824733808637">
        <ele>2492.3600000000001</ele>
        <time>2021-09-12T11:08:48Z</time>
      </trkpt>
      <trkpt lat="45.676745641976595" lon="6.984926490113139">
        <ele>2493.6999999999998</ele>
        <time>2021-09-12T11:08:59Z</time>
      </trkpt>
      <trkpt lat="45.676664169877768" lon="6.984947780147195">
        <ele>2494.6100000000001</ele>
        <time>2021-09-12T11:09:12Z</time>
      </trkpt>
      <trkpt lat="45.676535256206989" lon="6.984970830380917">
        <ele>2496.0500000000002</ele>
        <time>2021-09-12T11:09:27Z</time>
      </trkpt>
      <trkpt lat="45.676517318934202" lon="6.984994802623987">
        <ele>2496.3299999999999</ele>
        <time>2021-09-12T11:09:30Z</time>
      </trkpt>
      <trkpt lat="45.676465770229697" lon="6.985076190903783">
        <ele>2496.3800000000001</ele>
        <time>2021-09-12T11:09:38Z</time>
      </trkpt>
      <trkpt lat="45.676449341699481" lon="6.98522949591279">
        <ele>2496.3400000000001</ele>
        <time>2021-09-12T11:09:49Z</time>
      </trkpt>
      <trkpt lat="45.676430650055408" lon="6.985427644103766">
        <ele>2496.1399999999999</ele>
        <time>2021-09-12T11:10:02Z</time>
      </trkpt>
      <trkpt lat="45.676394775509834" lon="6.985658733174205">
        <ele>2494.6300000000001</ele>
        <time>2021-09-12T11:10:16Z</time>
      </trkpt>
      <trkpt lat="45.676355715841055" lon="6.985689243301749">
        <ele>2494.6100000000001</ele>
        <time>2021-09-12T11:10:24Z</time>
      </trkpt>
      <trkpt lat="45.676299137994647" lon="6.985713634639978">
        <ele>2493.6500000000001</ele>
        <time>2021-09-12T11:10:29Z</time>
      </trkpt>
      <trkpt lat="45.676270304247737" lon="6.985711958259344">
        <ele>2493.3499999999999</ele>
        <time>2021-09-12T11:10:31Z</time>
      </trkpt>
      <trkpt lat="45.676228562369943" lon="6.98568974621594">
        <ele>2492.7399999999998</ele>
        <time>2021-09-12T11:10:39Z</time>
      </trkpt>
      <trkpt lat="45.67615756765008" lon="6.98566434904933">
        <ele>2492.0700000000002</ele>
        <time>2021-09-12T11:10:45Z</time>
      </trkpt>
      <trkpt lat="45.676047597080469" lon="6.985625037923455">
        <ele>2491.6199999999999</ele>
        <time>2021-09-12T11:10:54Z</time>
      </trkpt>
      <trkpt lat="45.675976937636733" lon="6.985627468675375">
        <ele>2490.8899999999999</ele>
        <time>2021-09-12T11:11:00Z</time>
      </trkpt>
      <trkpt lat="45.675881635397673" lon="6.985717574134469">
        <ele>2491.1999999999998</ele>
        <time>2021-09-12T11:11:11Z</time>
      </trkpt>
      <trkpt lat="45.675863195210695" lon="6.985736349597573">
        <ele>2491.3400000000001</ele>
        <time>2021-09-12T11:11:13Z</time>
      </trkpt>
      <trkpt lat="45.67571391351521" lon="6.985854031518102">
        <ele>2492.3400000000001</ele>
        <time>2021-09-12T11:11:30Z</time>
      </trkpt>
      <trkpt lat="45.675644427537918" lon="6.985912956297398">
        <ele>2491.9499999999998</ele>
        <time>2021-09-12T11:11:40Z</time>
      </trkpt>
      <trkpt lat="45.675631519407034" lon="6.985934665426612">
        <ele>2491.8800000000001</ele>
        <time>2021-09-12T11:11:42Z</time>
      </trkpt>
      <trkpt lat="45.675542084500194" lon="6.986009012907744">
        <ele>2492.0900000000001</ele>
        <time>2021-09-12T11:11:54Z</time>
      </trkpt>
      <trkpt lat="45.675506545230746" lon="6.986089227721095">
        <ele>2491.6799999999998</ele>
        <time>2021-09-12T11:12:08Z</time>
      </trkpt>
      <trkpt lat="45.675460109487176" lon="6.98616030625999">
        <ele>2491.5</ele>
        <time>2021-09-12T11:12:24Z</time>
      </trkpt>
      <trkpt lat="45.675419541075826" lon="6.986173633486033">
        <ele>2491.9299999999998</ele>
        <time>2021-09-12T11:12:33Z</time>
      </trkpt>
      <trkpt lat="45.675405962392688" lon="6.986148990690708">
        <ele>2491.98</ele>
        <time>2021-09-12T11:12:46Z</time>
      </trkpt>
      <trkpt lat="45.675375368446112" lon="6.986126359552145">
        <ele>2491.7399999999998</ele>
        <time>2021-09-12T11:13:06Z</time>
      </trkpt>
      <trkpt lat="45.675405627116561" lon="6.986173968762159">
        <ele>2491.6700000000001</ele>
        <time>2021-09-12T11:13:17Z</time>
      </trkpt>
      <trkpt lat="45.675436556339264" lon="6.986177656799555">
        <ele>2491.5100000000002</ele>
        <time>2021-09-12T11:13:29Z</time>
      </trkpt>
      <trkpt lat="45.675440998747945" lon="6.986180255189538">
        <ele>2491.3499999999999</ele>
        <time>2021-09-12T11:13:45Z</time>
      </trkpt>
      <trkpt lat="45.675440328195691" lon="6.986171789467335">
        <ele>2490.7199999999998</ele>
        <time>2021-09-12T11:14:06Z</time>
      </trkpt>
      <trkpt lat="45.675442339852452" lon="6.986170783638954">
        <ele>2491.1900000000001</ele>
        <time>2021-09-12T11:14:30Z</time>
      </trkpt>
      <trkpt lat="45.675447452813387" lon="6.986144464462996">
        <ele>2492.0700000000002</ele>
        <time>2021-09-12T11:14:43Z</time>
      </trkpt>
      <trkpt lat="45.675446698442101" lon="6.986140608787537">
        <ele>2491.3899999999999</ele>
        <time>2021-09-12T11:15:01Z</time>
      </trkpt>
      <trkpt lat="45.67544661462307" lon="6.986133316531777">
        <ele>2491.73</ele>
        <time>2021-09-12T11:15:21Z</time>
      </trkpt>
      <trkpt lat="45.675446530804038" lon="6.986125772818923">
        <ele>2491.73</ele>
        <time>2021-09-12T11:15:40Z</time>
      </trkpt>
      <trkpt lat="45.675440998747945" lon="6.986138094216585">
        <ele>2491.6599999999999</ele>
        <time>2021-09-12T11:16:05Z</time>
      </trkpt>
      <trkpt lat="45.675438651815057" lon="6.986139435321093">
        <ele>2491.46</ele>
        <time>2021-09-12T11:16:32Z</time>
      </trkpt>
      <trkpt lat="45.675442172214389" lon="6.986136166378856">
        <ele>2491.4099999999999</ele>
        <time>2021-09-12T11:16:49Z</time>
      </trkpt>
      <trkpt lat="45.675440579652786" lon="6.986127700656653">
        <ele>2491.6399999999999</ele>
        <time>2021-09-12T11:17:06Z</time>
      </trkpt>
      <trkpt lat="45.675441585481167" lon="6.986130634322763">
        <ele>2491.5599999999999</ele>
        <time>2021-09-12T11:17:19Z</time>
      </trkpt>
      <trkpt lat="45.675440244376659" lon="6.986140357330442">
        <ele>2491.4899999999998</ele>
        <time>2021-09-12T11:17:30Z</time>
      </trkpt>
      <trkpt lat="45.67544125020504" lon="6.986137088388205">
        <ele>2491.54</ele>
        <time>2021-09-12T11:17:44Z</time>
      </trkpt>
      <trkpt lat="45.675442423671484" lon="6.986125018447638">
        <ele>2491.48</ele>
        <time>2021-09-12T11:18:09Z</time>
      </trkpt>
      <trkpt lat="45.675459606572986" lon="6.986122252419591">
        <ele>2491.27</ele>
        <time>2021-09-12T11:18:15Z</time>
      </trkpt>
      <trkpt lat="45.675502857193351" lon="6.986138513311744">
        <ele>2490.3499999999999</ele>
        <time>2021-09-12T11:18:26Z</time>
      </trkpt>
      <trkpt lat="45.675511825829744" lon="6.986146559938788">
        <ele>2489.4299999999998</ele>
        <time>2021-09-12T11:18:34Z</time>
      </trkpt>
      <trkpt lat="45.675512077286839" lon="6.986157121136785">
        <ele>2489.0300000000002</ele>
        <time>2021-09-12T11:19:00Z</time>
      </trkpt>
      <trkpt lat="45.675515346229076" lon="6.986171286553145">
        <ele>2488.9299999999998</ele>
        <time>2021-09-12T11:19:30Z</time>
      </trkpt>
      <trkpt lat="45.675519285723567" lon="6.98617254383862">
        <ele>2488.6700000000001</ele>
        <time>2021-09-12T11:20:18Z</time>
      </trkpt>
      <trkpt lat="45.675512747839093" lon="6.986169777810574">
        <ele>2489.3000000000002</ele>
        <time>2021-09-12T11:21:07Z</time>
      </trkpt>
      <trkpt lat="45.675509730353951" lon="6.986169191077352">
        <ele>2489.27</ele>
        <time>2021-09-12T11:21:51Z</time>
      </trkpt>
      <trkpt lat="45.675511993467808" lon="6.986168352887034">
        <ele>2489.4400000000001</ele>
        <time>2021-09-12T11:22:38Z</time>
      </trkpt>
      <trkpt lat="45.675513669848442" lon="6.986176483333111">
        <ele>2489.3400000000001</ele>
        <time>2021-09-12T11:23:29Z</time>
      </trkpt>
      <trkpt lat="45.67551014944911" lon="6.986163910478354">
        <ele>2489.6199999999999</ele>
        <time>2021-09-12T11:24:12Z</time>
      </trkpt>
      <trkpt lat="45.675511993467808" lon="6.986156115308404">
        <ele>2489.7600000000002</ele>
        <time>2021-09-12T11:25:00Z</time>
      </trkpt>
      <trkpt lat="45.675513502210379" lon="6.986175812780857">
        <ele>2489.48</ele>
        <time>2021-09-12T11:25:46Z</time>
      </trkpt>
      <trkpt lat="45.675513334572315" lon="6.986177489161491">
        <ele>2489.2600000000002</ele>
        <time>2021-09-12T11:26:29Z</time>
      </trkpt>
      <trkpt lat="45.675509143620729" lon="6.986155863851309">
        <ele>2488.8000000000002</ele>
        <time>2021-09-12T11:27:19Z</time>
      </trkpt>
      <trkpt lat="45.675512915477157" lon="6.986163575202227">
        <ele>2489.29</ele>
        <time>2021-09-12T11:28:04Z</time>
      </trkpt>
      <trkpt lat="45.6755106523633" lon="6.986171705648303">
        <ele>2489.0799999999999</ele>
        <time>2021-09-12T11:29:04Z</time>
      </trkpt>
      <trkpt lat="45.675507131963968" lon="6.986180422827601">
        <ele>2488.8000000000002</ele>
        <time>2021-09-12T11:29:54Z</time>
      </trkpt>
      <trkpt lat="45.675501096993685" lon="6.986173884943128">
        <ele>2488.9299999999998</ele>
        <time>2021-09-12T11:30:51Z</time>
      </trkpt>
      <trkpt lat="45.675494223833084" lon="6.986155193299055">
        <ele>2488.6599999999999</ele>
        <time>2021-09-12T11:31:48Z</time>
      </trkpt>
      <trkpt lat="45.675487518310547" lon="6.986141195520759">
        <ele>2489.0799999999999</ele>
        <time>2021-09-12T11:32:44Z</time>
      </trkpt>
      <trkpt lat="45.6754847522825" lon="6.986136920750141">
        <ele>2488.9699999999998</ele>
        <time>2021-09-12T11:33:39Z</time>
      </trkpt>
      <trkpt lat="45.67547494545579" lon="6.986124850809574">
        <ele>2488.8499999999999</ele>
        <time>2021-09-12T11:34:16Z</time>
      </trkpt>
      <trkpt lat="45.675480393692851" lon="6.986141866073012">
        <ele>2488.73</ele>
        <time>2021-09-12T11:34:54Z</time>
      </trkpt>
      <trkpt lat="45.675483411177993" lon="6.986141614615917">
        <ele>2489.27</ele>
        <time>2021-09-12T11:35:48Z</time>
      </trkpt>
      <trkpt lat="45.67549254745245" lon="6.986169693991542">
        <ele>2489.1300000000001</ele>
        <time>2021-09-12T11:36:54Z</time>
      </trkpt>
      <trkpt lat="45.675495816394687" lon="6.98617204092443">
        <ele>2488.9699999999998</ele>
        <time>2021-09-12T11:37:49Z</time>
      </trkpt>
      <trkpt lat="45.675499169155955" lon="6.986168185248971">
        <ele>2489.02</ele>
        <time>2021-09-12T11:38:44Z</time>
      </trkpt>
      <trkpt lat="45.6755037792027" lon="6.986166927963495">
        <ele>2488.6399999999999</ele>
        <time>2021-09-12T11:39:36Z</time>
      </trkpt>
      <trkpt lat="45.675504952669144" lon="6.986157707870007">
        <ele>2488.9400000000001</ele>
        <time>2021-09-12T11:40:38Z</time>
      </trkpt>
      <trkpt lat="45.675507299602032" lon="6.986147901043296">
        <ele>2489.48</ele>
        <time>2021-09-12T11:41:18Z</time>
      </trkpt>
      <trkpt lat="45.675502521917224" lon="6.986154774203897">
        <ele>2489.1199999999999</ele>
        <time>2021-09-12T11:41:36Z</time>
      </trkpt>
      <trkpt lat="45.675497325137258" lon="6.986159384250641">
        <ele>2490.1500000000001</ele>
        <time>2021-09-12T11:41:42Z</time>
      </trkpt>
      <trkpt lat="45.675496822223067" lon="6.986160390079022">
        <ele>2489.1799999999998</ele>
        <time>2021-09-12T11:41:44Z</time>
      </trkpt>
      <trkpt lat="45.675494894385338" lon="6.986159048974514">
        <ele>2489.7600000000002</ele>
        <time>2021-09-12T11:42:12Z</time>
      </trkpt>
      <trkpt lat="45.675505707040429" lon="6.986152427271009">
        <ele>2489.6500000000001</ele>
        <time>2021-09-12T11:42:56Z</time>
      </trkpt>
      <trkpt lat="45.675522219389677" lon="6.986145386472344">
        <ele>2489.6500000000001</ele>
        <time>2021-09-12T11:43:53Z</time>
      </trkpt>
      <trkpt lat="45.67552138119936" lon="6.986160473898053">
        <ele>2489.7199999999998</ele>
        <time>2021-09-12T11:44:52Z</time>
      </trkpt>
      <trkpt lat="45.675524063408375" lon="6.986157791689038">
        <ele>2489.8099999999999</ele>
        <time>2021-09-12T11:45:51Z</time>
      </trkpt>
      <trkpt lat="45.675525069236755" lon="6.986144464462996">
        <ele>2489.75</ele>
        <time>2021-09-12T11:46:46Z</time>
      </trkpt>
      <trkpt lat="45.675516435876489" lon="6.986143458634615">
        <ele>2490.1700000000001</ele>
        <time>2021-09-12T11:47:39Z</time>
      </trkpt>
      <trkpt lat="45.675513753667474" lon="6.986140692606568">
        <ele>2489.8600000000001</ele>
        <time>2021-09-12T11:48:25Z</time>
      </trkpt>
      <trkpt lat="45.675521465018392" lon="6.986146057024598">
        <ele>2490.25</ele>
        <time>2021-09-12T11:49:14Z</time>
      </trkpt>
      <trkpt lat="45.675517693161964" lon="6.986143961548805">
        <ele>2490.3499999999999</ele>
        <time>2021-09-12T11:50:06Z</time>
      </trkpt>
      <trkpt lat="45.675527416169643" lon="6.986146727576852">
        <ele>2490.1100000000001</ele>
        <time>2021-09-12T11:51:04Z</time>
      </trkpt>
      <trkpt lat="45.675525991246104" lon="6.986143290996552">
        <ele>2489.4699999999998</ele>
        <time>2021-09-12T11:51:56Z</time>
      </trkpt>
      <trkpt lat="45.675515346229076" lon="6.986142788082361">
        <ele>2489.6100000000001</ele>
        <time>2021-09-12T11:52:50Z</time>
      </trkpt>
      <trkpt lat="45.675506461411715" lon="6.986139435321093">
        <ele>2489.6999999999998</ele>
        <time>2021-09-12T11:53:47Z</time>
      </trkpt>
      <trkpt lat="45.675505874678493" lon="6.986136166378856">
        <ele>2490.0100000000002</ele>
        <time>2021-09-12T11:54:08Z</time>
      </trkpt>
      <trkpt lat="45.675508808344603" lon="6.986133232712746">
        <ele>2490.9000000000001</ele>
        <time>2021-09-12T11:54:16Z</time>
      </trkpt>
      <trkpt lat="45.675501264631748" lon="6.986127952113748">
        <ele>2491.2399999999998</ele>
        <time>2021-09-12T11:54:31Z</time>
      </trkpt>
      <trkpt lat="45.675494475290179" lon="6.986122084781528">
        <ele>2486.98</ele>
        <time>2021-09-12T11:54:46Z</time>
      </trkpt>
      <trkpt lat="45.675494810566306" lon="6.98612317442894">
        <ele>2488.3400000000001</ele>
        <time>2021-09-12T11:54:47Z</time>
      </trkpt>
      <trkpt lat="45.675495145842433" lon="6.986124012619257">
        <ele>2494.2600000000002</ele>
        <time>2021-09-12T11:54:48Z</time>
      </trkpt>
      <trkpt lat="45.675495062023401" lon="6.986123593524098">
        <ele>2493.1399999999999</ele>
        <time>2021-09-12T11:54:49Z</time>
      </trkpt>
      <trkpt lat="45.675484165549278" lon="6.986122420057654">
        <ele>2491.0300000000002</ele>
        <time>2021-09-12T11:55:10Z</time>
      </trkpt>
      <trkpt lat="45.675433287397027" lon="6.986106829717755">
        <ele>2491.46</ele>
        <time>2021-09-12T11:55:29Z</time>
      </trkpt>
      <trkpt lat="45.675364304333925" lon="6.986082019284368">
        <ele>2492.8600000000001</ele>
        <time>2021-09-12T11:55:44Z</time>
      </trkpt>
      <trkpt lat="45.67534351721406" lon="6.98605377227068">
        <ele>2492.9200000000001</ele>
        <time>2021-09-12T11:56:03Z</time>
      </trkpt>
      <trkpt lat="45.675347540527582" lon="6.986039187759161">
        <ele>2492.96</ele>
        <time>2021-09-12T11:56:19Z</time>
      </trkpt>
      <trkpt lat="45.675346115604043" lon="6.986046312376857">
        <ele>2492.7600000000002</ele>
        <time>2021-09-12T11:56:36Z</time>
      </trkpt>
      <trkpt lat="45.675360867753625" lon="6.98604941368103">
        <ele>2488.6300000000001</ele>
        <time>2021-09-12T11:56:48Z</time>
      </trkpt>
      <trkpt lat="45.675358520820737" lon="6.986049832776189">
        <ele>2493.4699999999998</ele>
        <time>2021-09-12T11:56:50Z</time>
      </trkpt>
      <trkpt lat="45.675358269363642" lon="6.98604941368103">
        <ele>2492.8800000000001</ele>
        <time>2021-09-12T11:56:51Z</time>
      </trkpt>
      <trkpt lat="45.6753811519593" lon="6.98609727434814">
        <ele>2492.9000000000001</ele>
        <time>2021-09-12T11:57:04Z</time>
      </trkpt>
      <trkpt lat="45.675379727035761" lon="6.98609677143395">
        <ele>2492.5900000000001</ele>
        <time>2021-09-12T11:57:17Z</time>
      </trkpt>
      <trkpt lat="45.675379643216729" lon="6.986094089224935">
        <ele>2492.3099999999999</ele>
        <time>2021-09-12T11:57:36Z</time>
      </trkpt>
      <trkpt lat="45.675381487235427" lon="6.986092580482364">
        <ele>2492.3800000000001</ele>
        <time>2021-09-12T11:57:55Z</time>
      </trkpt>
      <trkpt lat="45.675376961007714" lon="6.986088138073683">
        <ele>2493.1199999999999</ele>
        <time>2021-09-12T11:58:24Z</time>
      </trkpt>
      <trkpt lat="45.67536992020905" lon="6.986081684008241">
        <ele>2493.1599999999999</ele>
        <time>2021-09-12T11:58:45Z</time>
      </trkpt>
      <trkpt lat="45.675312671810389" lon="6.986018819734454">
        <ele>2492.4099999999999</ele>
        <time>2021-09-12T11:58:57Z</time>
      </trkpt>
      <trkpt lat="45.675252322107553" lon="6.985950507223606">
        <ele>2489.54</ele>
        <time>2021-09-12T11:59:11Z</time>
      </trkpt>
      <trkpt lat="45.67524335347116" lon="6.985930390655994">
        <ele>2488.8099999999999</ele>
        <time>2021-09-12T11:59:21Z</time>
      </trkpt>
      <trkpt lat="45.675227092579007" lon="6.985935671254993">
        <ele>2488.21</ele>
        <time>2021-09-12T11:59:38Z</time>
      </trkpt>
      <trkpt lat="45.675149224698544" lon="6.985928965732455">
        <ele>2486.5700000000002</ele>
        <time>2021-09-12T11:59:50Z</time>
      </trkpt>
      <trkpt lat="45.675123911350965" lon="6.985984621569514">
        <ele>2485.29</ele>
        <time>2021-09-12T12:00:01Z</time>
      </trkpt>
      <trkpt lat="45.675123911350965" lon="6.985983867198229">
        <ele>2485.1900000000001</ele>
        <time>2021-09-12T12:00:23Z</time>
      </trkpt>
      <trkpt lat="45.675122402608395" lon="6.985975401476026">
        <ele>2485.23</ele>
        <time>2021-09-12T12:00:54Z</time>
      </trkpt>
      <trkpt lat="45.675140172243118" lon="6.985861491411924">
        <ele>2486.4400000000001</ele>
        <time>2021-09-12T12:01:08Z</time>
      </trkpt>
      <trkpt lat="45.675120977684855" lon="6.985832154750824">
        <ele>2486.3499999999999</ele>
        <time>2021-09-12T12:01:11Z</time>
      </trkpt>
      <trkpt lat="45.675032883882523" lon="6.985651776194572">
        <ele>2486.9400000000001</ele>
        <time>2021-09-12T12:01:26Z</time>
      </trkpt>
      <trkpt lat="45.674982592463493" lon="6.985468463972211">
        <ele>2487.4899999999998</ele>
        <time>2021-09-12T12:01:42Z</time>
      </trkpt>
      <trkpt lat="45.674983430653811" lon="6.985457902774215">
        <ele>2487.6999999999998</ele>
        <time>2021-09-12T12:01:57Z</time>
      </trkpt>
      <trkpt lat="45.67498586140573" lon="6.985459746792913">
        <ele>2487.9299999999998</ele>
        <time>2021-09-12T12:02:17Z</time>
      </trkpt>
      <trkpt lat="45.674984436482191" lon="6.985460082069039">
        <ele>2487.3600000000001</ele>
        <time>2021-09-12T12:02:40Z</time>
      </trkpt>
      <trkpt lat="45.674994327127934" lon="6.985466368496418">
        <ele>2487.6900000000001</ele>
        <time>2021-09-12T12:02:58Z</time>
      </trkpt>
      <trkpt lat="45.674983682110906" lon="6.985430745407939">
        <ele>2487.3800000000001</ele>
        <time>2021-09-12T12:03:17Z</time>
      </trkpt>
      <trkpt lat="45.674975132569671" lon="6.985377771779895">
        <ele>2487.4899999999998</ele>
        <time>2021-09-12T12:03:21Z</time>
      </trkpt>
      <trkpt lat="45.674975216388702" lon="6.98523486033082">
        <ele>2487.5799999999999</ele>
        <time>2021-09-12T12:03:34Z</time>
      </trkpt>
      <trkpt lat="45.674966666847467" lon="6.985211223363876">
        <ele>2487.4299999999998</ele>
        <time>2021-09-12T12:03:41Z</time>
      </trkpt>
      <trkpt lat="45.674938000738621" lon="6.985125811770558">
        <ele>2487.75</ele>
        <time>2021-09-12T12:03:48Z</time>
      </trkpt>
      <trkpt lat="45.67484563216567" lon="6.985012153163552">
        <ele>2486.6300000000001</ele>
        <time>2021-09-12T12:04:00Z</time>
      </trkpt>
      <trkpt lat="45.674774050712585" lon="6.984874606132507">
        <ele>2485.5100000000002</ele>
        <time>2021-09-12T12:04:11Z</time>
      </trkpt>
      <trkpt lat="45.674691740423441" lon="6.984760360792279">
        <ele>2484.4000000000001</ele>
        <time>2021-09-12T12:04:23Z</time>
      </trkpt>
      <trkpt lat="45.674662068486214" lon="6.984697664156556">
        <ele>2483.3400000000001</ele>
        <time>2021-09-12T12:04:28Z</time>
      </trkpt>
      <trkpt lat="45.674611190333962" lon="6.984532624483109">
        <ele>2483.52</ele>
        <time>2021-09-12T12:04:40Z</time>
      </trkpt>
      <trkpt lat="45.674541788175702" lon="6.984363310039043">
        <ele>2483.5999999999999</ele>
        <time>2021-09-12T12:04:54Z</time>
      </trkpt>
      <trkpt lat="45.674499711021781" lon="6.984277311712503">
        <ele>2482.9200000000001</ele>
        <time>2021-09-12T12:05:01Z</time>
      </trkpt>
      <trkpt lat="45.674338610842824" lon="6.98415988124907">
        <ele>2481.3899999999999</ele>
        <time>2021-09-12T12:05:18Z</time>
      </trkpt>
      <trkpt lat="45.674297204241157" lon="6.984158707782626">
        <ele>2480.71</ele>
        <time>2021-09-12T12:05:26Z</time>
      </trkpt>
      <trkpt lat="45.674275578930974" lon="6.984127527102828">
        <ele>2479.6500000000001</ele>
        <time>2021-09-12T12:05:40Z</time>
      </trkpt>
      <trkpt lat="45.674250684678555" lon="6.984109086915851">
        <ele>2479.1100000000001</ele>
        <time>2021-09-12T12:05:51Z</time>
      </trkpt>
      <trkpt lat="45.674213469028473" lon="6.984068183228374">
        <ele>2478.1500000000001</ele>
        <time>2021-09-12T12:05:55Z</time>
      </trkpt>
      <trkpt lat="45.674185724928975" lon="6.984028033912182">
        <ele>2477.4499999999998</ele>
        <time>2021-09-12T12:05:59Z</time>
      </trkpt>
      <trkpt lat="45.674110371619463" lon="6.983951758593321">
        <ele>2476.4699999999998</ele>
        <time>2021-09-12T12:06:07Z</time>
      </trkpt>
      <trkpt lat="45.674005514010787" lon="6.983922170475125">
        <ele>2476.8499999999999</ele>
        <time>2021-09-12T12:06:17Z</time>
      </trkpt>
      <trkpt lat="45.67383510991931" lon="6.983860312029719">
        <ele>2475.9400000000001</ele>
        <time>2021-09-12T12:06:33Z</time>
      </trkpt>
      <trkpt lat="45.67382681183517" lon="6.9838613178581">
        <ele>2475.8400000000001</ele>
        <time>2021-09-12T12:06:34Z</time>
      </trkpt>
      <trkpt lat="45.673747435212135" lon="6.983804740011692">
        <ele>2475.5999999999999</ele>
        <time>2021-09-12T12:06:43Z</time>
      </trkpt>
      <trkpt lat="45.673705860972404" lon="6.983820246532559">
        <ele>2475.8600000000001</ele>
        <time>2021-09-12T12:06:55Z</time>
      </trkpt>
      <trkpt lat="45.673628160730004" lon="6.983809433877468">
        <ele>2477.3200000000002</ele>
        <time>2021-09-12T12:07:06Z</time>
      </trkpt>
      <trkpt lat="45.673536881804466" lon="6.983731733635068">
        <ele>2478.9899999999998</ele>
        <time>2021-09-12T12:07:21Z</time>
      </trkpt>
      <trkpt lat="45.67347745411098" lon="6.983692841604352">
        <ele>2478.8299999999999</ele>
        <time>2021-09-12T12:07:36Z</time>
      </trkpt>
      <trkpt lat="45.673470245674253" lon="6.983651351183653">
        <ele>2478.3699999999999</ele>
        <time>2021-09-12T12:07:47Z</time>
      </trkpt>
      <trkpt lat="45.673473346978426" lon="6.983652357012034">
        <ele>2478.1900000000001</ele>
        <time>2021-09-12T12:08:00Z</time>
      </trkpt>
      <trkpt lat="45.673517938703299" lon="6.983672892674804">
        <ele>2478.5700000000002</ele>
        <time>2021-09-12T12:08:15Z</time>
      </trkpt>
      <trkpt lat="45.673554819077253" lon="6.98369175195694">
        <ele>2479.7399999999998</ele>
        <time>2021-09-12T12:08:26Z</time>
      </trkpt>
      <trkpt lat="45.673556914553046" lon="6.983700804412365">
        <ele>2479.3000000000002</ele>
        <time>2021-09-12T12:08:43Z</time>
      </trkpt>
      <trkpt lat="45.67355708219111" lon="6.983705330640078">
        <ele>2479.48</ele>
        <time>2021-09-12T12:08:44Z</time>
      </trkpt>
      <trkpt lat="45.673554316163063" lon="6.983743719756603">
        <ele>2479.9699999999998</ele>
        <time>2021-09-12T12:08:45Z</time>
      </trkpt>
      <trkpt lat="45.673545515164733" lon="6.983732488006353">
        <ele>2479.5599999999999</ele>
        <time>2021-09-12T12:08:54Z</time>
      </trkpt>
      <trkpt lat="45.673548616468906" lon="6.983722681179643">
        <ele>2479.6599999999999</ele>
        <time>2021-09-12T12:09:09Z</time>
      </trkpt>
      <trkpt lat="45.673553058877587" lon="6.983711281791329">
        <ele>2478.4099999999999</ele>
        <time>2021-09-12T12:09:32Z</time>
      </trkpt>
      <trkpt lat="45.673552975058556" lon="6.983713041990995">
        <ele>2478.52</ele>
        <time>2021-09-12T12:09:40Z</time>
      </trkpt>
      <trkpt lat="45.673554399982095" lon="6.983705833554268">
        <ele>2479.29</ele>
        <time>2021-09-12T12:10:12Z</time>
      </trkpt>
      <trkpt lat="45.673541659489274" lon="6.98370985686779">
        <ele>2479.3299999999999</ele>
        <time>2021-09-12T12:10:19Z</time>
      </trkpt>
      <trkpt lat="45.673528080806136" lon="6.983716227114201">
        <ele>2479.4899999999998</ele>
        <time>2021-09-12T12:10:20Z</time>
      </trkpt>
      <trkpt lat="45.673511987552047" lon="6.983725447207689">
        <ele>2479.1399999999999</ele>
        <time>2021-09-12T12:10:21Z</time>
      </trkpt>
      <trkpt lat="45.673495475202799" lon="6.983731901273131">
        <ele>2478.8000000000002</ele>
        <time>2021-09-12T12:10:22Z</time>
      </trkpt>
      <trkpt lat="45.673485416918993" lon="6.983715891838074">
        <ele>2478.8499999999999</ele>
        <time>2021-09-12T12:10:30Z</time>
      </trkpt>
      <trkpt lat="45.673516849055886" lon="6.983695104718208">
        <ele>2478.25</ele>
        <time>2021-09-12T12:10:36Z</time>
      </trkpt>
      <trkpt lat="45.673528164625168" lon="6.983690494671464">
        <ele>2478.23</ele>
        <time>2021-09-12T12:10:37Z</time>
      </trkpt>
      <trkpt lat="45.673542581498623" lon="6.983663253486157">
        <ele>2479.0799999999999</ele>
        <time>2021-09-12T12:10:48Z</time>
      </trkpt>
      <trkpt lat="45.673533612862229" lon="6.983670042827725">
        <ele>2478.8299999999999</ele>
        <time>2021-09-12T12:10:49Z</time>
      </trkpt>
      <trkpt lat="45.673521962016821" lon="6.983682112768292">
        <ele>2478.73</ele>
        <time>2021-09-12T12:10:50Z</time>
      </trkpt>
      <trkpt lat="45.673507712781429" lon="6.983690327033401">
        <ele>2478.73</ele>
        <time>2021-09-12T12:10:51Z</time>
      </trkpt>
      <trkpt lat="45.673490446060896" lon="6.983692506328225">
        <ele>2478.5900000000001</ele>
        <time>2021-09-12T12:10:52Z</time>
      </trkpt>
      <trkpt lat="45.673475526273251" lon="6.98369468562305">
        <ele>2478.7600000000002</ele>
        <time>2021-09-12T12:11:00Z</time>
      </trkpt>
      <trkpt lat="45.67349455319345" lon="6.983673647046089">
        <ele>2478.5300000000002</ele>
        <time>2021-09-12T12:11:10Z</time>
      </trkpt>
      <trkpt lat="45.673505365848541" lon="6.983664343133569">
        <ele>2478.27</ele>
        <time>2021-09-12T12:11:11Z</time>
      </trkpt>
      <trkpt lat="45.673515340313315" lon="6.983656715601683">
        <ele>2478.3400000000001</ele>
        <time>2021-09-12T12:11:12Z</time>
      </trkpt>
      <trkpt lat="45.673542749136686" lon="6.983653614297509">
        <ele>2479.0900000000001</ele>
        <time>2021-09-12T12:11:20Z</time>
      </trkpt>
      <trkpt lat="45.673537887632847" lon="6.983656799420714">
        <ele>2478.9699999999998</ele>
        <time>2021-09-12T12:11:30Z</time>
      </trkpt>
      <trkpt lat="45.673507293686271" lon="6.983670964837074">
        <ele>2478.29</ele>
        <time>2021-09-12T12:11:34Z</time>
      </trkpt>
      <trkpt lat="45.67348231561482" lon="6.983645232394338">
        <ele>2477.9000000000001</ele>
        <time>2021-09-12T12:11:38Z</time>
      </trkpt>
      <trkpt lat="45.673459013924003" lon="6.983610279858112">
        <ele>2477.5900000000001</ele>
        <time>2021-09-12T12:11:47Z</time>
      </trkpt>
      <trkpt lat="45.673446357250214" lon="6.98361111804843">
        <ele>2477.77</ele>
        <time>2021-09-12T12:12:04Z</time>
      </trkpt>
      <trkpt lat="45.673415428027511" lon="6.983588738366962">
        <ele>2476.9200000000001</ele>
        <time>2021-09-12T12:12:17Z</time>
      </trkpt>
      <trkpt lat="45.67340805195272" lon="6.983530567958951">
        <ele>2476.0300000000002</ele>
        <time>2021-09-12T12:12:33Z</time>
      </trkpt>
      <trkpt lat="45.673404615372419" lon="6.983514726161957">
        <ele>2475.9099999999999</ele>
        <time>2021-09-12T12:12:34Z</time>
      </trkpt>
      <trkpt lat="45.673397406935692" lon="6.983502907678485">
        <ele>2475.6500000000001</ele>
        <time>2021-09-12T12:12:35Z</time>
      </trkpt>
      <trkpt lat="45.673385420814157" lon="6.983497543260455">
        <ele>2475.1999999999998</ele>
        <time>2021-09-12T12:12:36Z</time>
      </trkpt>
      <trkpt lat="45.673346864059567" lon="6.983482372015715">
        <ele>2473.54</ele>
        <time>2021-09-12T12:12:46Z</time>
      </trkpt>
      <trkpt lat="45.673345858231187" lon="6.98345772922039">
        <ele>2473.0799999999999</ele>
        <time>2021-09-12T12:12:57Z</time>
      </trkpt>
      <trkpt lat="45.673316773027182" lon="6.983427973464131">
        <ele>2471.54</ele>
        <time>2021-09-12T12:13:08Z</time>
      </trkpt>
      <trkpt lat="45.673305792734027" lon="6.983435517176986">
        <ele>2469.9499999999998</ele>
        <time>2021-09-12T12:13:19Z</time>
      </trkpt>
      <trkpt lat="45.673283664509654" lon="6.983430068939924">
        <ele>2468.9899999999998</ele>
        <time>2021-09-12T12:13:24Z</time>
      </trkpt>
      <trkpt lat="45.673271426931024" lon="6.9834088627249">
        <ele>2468.4400000000001</ele>
        <time>2021-09-12T12:13:31Z</time>
      </trkpt>
      <trkpt lat="45.673247370868921" lon="6.983381453901529">
        <ele>2467.98</ele>
        <time>2021-09-12T12:13:36Z</time>
      </trkpt>
      <trkpt lat="45.673245023936033" lon="6.983382124453783">
        <ele>2467.98</ele>
        <time>2021-09-12T12:13:47Z</time>
      </trkpt>
      <trkpt lat="45.673251478001475" lon="6.983385477215052">
        <ele>2468.04</ele>
        <time>2021-09-12T12:13:48Z</time>
      </trkpt>
      <trkpt lat="45.673251310363412" lon="6.983389751985669">
        <ele>2468.21</ele>
        <time>2021-09-12T12:13:57Z</time>
      </trkpt>
      <trkpt lat="45.673257261514664" lon="6.983388243243098">
        <ele>2468.04</ele>
        <time>2021-09-12T12:14:00Z</time>
      </trkpt>
      <trkpt lat="45.673259859904647" lon="6.983384806662798">
        <ele>2468.1199999999999</ele>
        <time>2021-09-12T12:14:07Z</time>
      </trkpt>
      <trkpt lat="45.673248544335365" lon="6.983381453901529">
        <ele>2468.1799999999998</ele>
        <time>2021-09-12T12:14:12Z</time>
      </trkpt>
      <trkpt lat="45.673239324241877" lon="6.983407186344266">
        <ele>2467.6700000000001</ele>
        <time>2021-09-12T12:14:20Z</time>
      </trkpt>
      <trkpt lat="45.673246784135699" lon="6.983407521620393">
        <ele>2467.5100000000002</ele>
        <time>2021-09-12T12:14:33Z</time>
      </trkpt>
      <trkpt lat="45.673235384747386" lon="6.983400480821729">
        <ele>2467.1900000000001</ele>
        <time>2021-09-12T12:14:39Z</time>
      </trkpt>
      <trkpt lat="45.673224655911326" lon="6.983391176909208">
        <ele>2466.6799999999998</ele>
        <time>2021-09-12T12:14:48Z</time>
      </trkpt>
      <trkpt lat="45.673216944560409" lon="6.983389919623733">
        <ele>2466.4400000000001</ele>
        <time>2021-09-12T12:14:57Z</time>
      </trkpt>
      <trkpt lat="45.673214681446552" lon="6.98339905589819">
        <ele>2466.3899999999999</ele>
        <time>2021-09-12T12:15:10Z</time>
      </trkpt>
      <trkpt lat="45.67321945913136" lon="6.983402157202363">
        <ele>2466.2600000000002</ele>
        <time>2021-09-12T12:15:11Z</time>
      </trkpt>
      <trkpt lat="45.673231026157737" lon="6.983435349538922">
        <ele>2465.96</ele>
        <time>2021-09-12T12:15:20Z</time>
      </trkpt>
      <trkpt lat="45.673217698931694" lon="6.983435433357954">
        <ele>2465.6700000000001</ele>
        <time>2021-09-12T12:15:23Z</time>
      </trkpt>
      <trkpt lat="45.673212585970759" lon="6.983441803604364">
        <ele>2464.6900000000001</ele>
        <time>2021-09-12T12:15:31Z</time>
      </trkpt>
      <trkpt lat="45.673210239037871" lon="6.983411964029074">
        <ele>2464.21</ele>
        <time>2021-09-12T12:15:39Z</time>
      </trkpt>
      <trkpt lat="45.673211244866252" lon="6.983395200222731">
        <ele>2463.9899999999998</ele>
        <time>2021-09-12T12:15:46Z</time>
      </trkpt>
      <trkpt lat="45.67321116104722" lon="6.983387572690845">
        <ele>2463.9499999999998</ele>
        <time>2021-09-12T12:15:51Z</time>
      </trkpt>
      <trkpt lat="45.673218872398138" lon="6.983394613489509">
        <ele>2464.0799999999999</ele>
        <time>2021-09-12T12:15:55Z</time>
      </trkpt>
      <trkpt lat="45.67321065813303" lon="6.983392015099526">
        <ele>2464.21</ele>
        <time>2021-09-12T12:16:04Z</time>
      </trkpt>
      <trkpt lat="45.673190038651228" lon="6.983383968472481">
        <ele>2463.5700000000002</ele>
        <time>2021-09-12T12:16:15Z</time>
      </trkpt>
      <trkpt lat="45.673167910426855" lon="6.983371479436755">
        <ele>2462.8800000000001</ele>
        <time>2021-09-12T12:16:22Z</time>
      </trkpt>
      <trkpt lat="45.67316422238946" lon="6.983366450294852">
        <ele>2463</ele>
        <time>2021-09-12T12:16:31Z</time>
      </trkpt>
      <trkpt lat="45.673170927911997" lon="6.983363600447774">
        <ele>2462.5</ele>
        <time>2021-09-12T12:16:40Z</time>
      </trkpt>
      <trkpt lat="45.67316573113203" lon="6.983363181352615">
        <ele>2462.1700000000001</ele>
        <time>2021-09-12T12:16:57Z</time>
      </trkpt>
      <trkpt lat="45.673146452754736" lon="6.983365025371313">
        <ele>2460.8600000000001</ele>
        <time>2021-09-12T12:17:06Z</time>
      </trkpt>
      <trkpt lat="45.673144357278943" lon="6.983406180515885">
        <ele>2460.0100000000002</ele>
        <time>2021-09-12T12:17:16Z</time>
      </trkpt>
      <trkpt lat="45.67317645996809" lon="6.983500644564629">
        <ele>2458.6700000000001</ele>
        <time>2021-09-12T12:17:30Z</time>
      </trkpt>
      <trkpt lat="45.673180986195803" lon="6.983546493574977">
        <ele>2457.8400000000001</ele>
        <time>2021-09-12T12:17:45Z</time>
      </trkpt>
      <trkpt lat="45.673186099156737" lon="6.983596701174974">
        <ele>2457.0500000000002</ele>
        <time>2021-09-12T12:17:58Z</time>
      </trkpt>
      <trkpt lat="45.673166820779443" lon="6.983616650104523">
        <ele>2454.9299999999998</ele>
        <time>2021-09-12T12:18:05Z</time>
      </trkpt>
      <trkpt lat="45.673131113871932" lon="6.983564598485827">
        <ele>2453.25</ele>
        <time>2021-09-12T12:18:17Z</time>
      </trkpt>
      <trkpt lat="45.673117032274604" lon="6.983540039509535">
        <ele>2452.7600000000002</ele>
        <time>2021-09-12T12:18:20Z</time>
      </trkpt>
      <trkpt lat="45.673110410571098" lon="6.983527550473809">
        <ele>2452.6599999999999</ele>
        <time>2021-09-12T12:18:21Z</time>
      </trkpt>
      <trkpt lat="45.67310756072402" lon="6.983512211591005">
        <ele>2452.4499999999998</ele>
        <time>2021-09-12T12:18:22Z</time>
      </trkpt>
      <trkpt lat="45.673088282346725" lon="6.983382795006037">
        <ele>2451.1100000000001</ele>
        <time>2021-09-12T12:18:34Z</time>
      </trkpt>
      <trkpt lat="45.673054838553071" lon="6.983336443081498">
        <ele>2448.8099999999999</ele>
        <time>2021-09-12T12:18:45Z</time>
      </trkpt>
      <trkpt lat="45.6730498932302" lon="6.983325127512217">
        <ele>2448.4499999999998</ele>
        <time>2021-09-12T12:18:46Z</time>
      </trkpt>
      <trkpt lat="45.673036985099316" lon="6.983292773365974">
        <ele>2447.1799999999998</ele>
        <time>2021-09-12T12:18:49Z</time>
      </trkpt>
      <trkpt lat="45.672986777499318" lon="6.98325396515429">
        <ele>2445.04</ele>
        <time>2021-09-12T12:19:01Z</time>
      </trkpt>
      <trkpt lat="45.672943443059921" lon="6.983183724805713">
        <ele>2443.3299999999999</ele>
        <time>2021-09-12T12:19:11Z</time>
      </trkpt>
      <trkpt lat="45.672911005094647" lon="6.983136450871825">
        <ele>2442.3699999999999</ele>
        <time>2021-09-12T12:19:17Z</time>
      </trkpt>
      <trkpt lat="45.672869430854917" lon="6.983046680688858">
        <ele>2440.8699999999999</ele>
        <time>2021-09-12T12:19:29Z</time>
      </trkpt>
      <trkpt lat="45.672861132770777" lon="6.983029497787356">
        <ele>2439.8800000000001</ele>
        <time>2021-09-12T12:19:39Z</time>
      </trkpt>
      <trkpt lat="45.672874376177788" lon="6.983003094792366">
        <ele>2439.7600000000002</ele>
        <time>2021-09-12T12:20:00Z</time>
      </trkpt>
      <trkpt lat="45.672875130549073" lon="6.983015751466155">
        <ele>2439.6900000000001</ele>
        <time>2021-09-12T12:20:21Z</time>
      </trkpt>
      <trkpt lat="45.672872615978122" lon="6.983021702617407">
        <ele>2440</ele>
        <time>2021-09-12T12:20:42Z</time>
      </trkpt>
      <trkpt lat="45.67286029458046" lon="6.983032012358308">
        <ele>2439.5500000000002</ele>
        <time>2021-09-12T12:21:02Z</time>
      </trkpt>
      <trkpt lat="45.672827605158091" lon="6.983042908832431">
        <ele>2438.1700000000001</ele>
        <time>2021-09-12T12:21:14Z</time>
      </trkpt>
      <trkpt lat="45.672807572409511" lon="6.982999909669161">
        <ele>2436.5599999999999</ele>
        <time>2021-09-12T12:21:29Z</time>
      </trkpt>
      <trkpt lat="45.672754095867276" lon="6.983008962124586">
        <ele>2434.2199999999998</ele>
        <time>2021-09-12T12:21:41Z</time>
      </trkpt>
      <trkpt lat="45.672735907137394" lon="6.982943248003721">
        <ele>2432.2399999999998</ele>
        <time>2021-09-12T12:21:54Z</time>
      </trkpt>
      <trkpt lat="45.672710845246911" lon="6.982898488640785">
        <ele>2430.5100000000002</ele>
        <time>2021-09-12T12:22:00Z</time>
      </trkpt>
      <trkpt lat="45.672691063955426" lon="6.982849789783359">
        <ele>2429.1799999999998</ele>
        <time>2021-09-12T12:22:05Z</time>
      </trkpt>
      <trkpt lat="45.672650160267949" lon="6.982774687930942">
        <ele>2428.2199999999998</ele>
        <time>2021-09-12T12:22:15Z</time>
      </trkpt>
      <trkpt lat="45.672632055357099" lon="6.982757840305567">
        <ele>2428.0300000000002</ele>
        <time>2021-09-12T12:22:17Z</time>
      </trkpt>
      <trkpt lat="45.672544632107019" lon="6.982623226940632">
        <ele>2427.6999999999998</ele>
        <time>2021-09-12T12:22:29Z</time>
      </trkpt>
      <trkpt lat="45.672484869137406" lon="6.982492888346314">
        <ele>2427.6799999999998</ele>
        <time>2021-09-12T12:22:40Z</time>
      </trkpt>
      <trkpt lat="45.672412868589163" lon="6.982361292466521">
        <ele>2427.8299999999999</ele>
        <time>2021-09-12T12:22:52Z</time>
      </trkpt>
      <trkpt lat="45.672378754243255" lon="6.982275797054172">
        <ele>2428.3899999999999</ele>
        <time>2021-09-12T12:23:00Z</time>
      </trkpt>
      <trkpt lat="45.672371378168464" lon="6.982263056561351">
        <ele>2428.3600000000001</ele>
        <time>2021-09-12T12:23:01Z</time>
      </trkpt>
      <trkpt lat="45.672363331541419" lon="6.982249729335308">
        <ele>2428.0300000000002</ele>
        <time>2021-09-12T12:23:02Z</time>
      </trkpt>
      <trkpt lat="45.672355117276311" lon="6.982239168137312">
        <ele>2428.0900000000001</ele>
        <time>2021-09-12T12:23:03Z</time>
      </trkpt>
      <trkpt lat="45.672346651554108" lon="6.982230702415109">
        <ele>2428.4000000000001</ele>
        <time>2021-09-12T12:23:04Z</time>
      </trkpt>
      <trkpt lat="45.672298790886998" lon="6.982080414891243">
        <ele>2427.2199999999998</ele>
        <time>2021-09-12T12:23:14Z</time>
      </trkpt>
      <trkpt lat="45.672217654064298" lon="6.981930043548346">
        <ele>2427.6999999999998</ele>
        <time>2021-09-12T12:23:27Z</time>
      </trkpt>
      <trkpt lat="45.672177672386169" lon="6.981865670531988">
        <ele>2427.4200000000001</ele>
        <time>2021-09-12T12:23:38Z</time>
      </trkpt>
      <trkpt lat="45.6721708830446" lon="6.981844548135996">
        <ele>2427.4899999999998</ele>
        <time>2021-09-12T12:23:40Z</time>
      </trkpt>
      <trkpt lat="45.67216644063592" lon="6.981829963624477">
        <ele>2427.5500000000002</ele>
        <time>2021-09-12T12:23:41Z</time>
      </trkpt>
      <trkpt lat="45.672162836417556" lon="6.981815965846181">
        <ele>2427.5</ele>
        <time>2021-09-12T12:23:42Z</time>
      </trkpt>
      <trkpt lat="45.672158310189843" lon="6.98180079460144">
        <ele>2427.4699999999998</ele>
        <time>2021-09-12T12:23:43Z</time>
      </trkpt>
      <trkpt lat="45.672153364866972" lon="6.981785371899605">
        <ele>2427.3200000000002</ele>
        <time>2021-09-12T12:23:44Z</time>
      </trkpt>
      <trkpt lat="45.672141211107373" lon="6.981613375246525">
        <ele>2428.9000000000001</ele>
        <time>2021-09-12T12:23:58Z</time>
      </trkpt>
      <trkpt lat="45.672077843919396" lon="6.981388237327337">
        <ele>2428.71</ele>
        <time>2021-09-12T12:24:14Z</time>
      </trkpt>
      <trkpt lat="45.672052949666977" lon="6.981159830465913">
        <ele>2427.1799999999998</ele>
        <time>2021-09-12T12:24:28Z</time>
      </trkpt>
      <trkpt lat="45.672047082334757" lon="6.981061929836869">
        <ele>2426.7399999999998</ele>
        <time>2021-09-12T12:24:34Z</time>
      </trkpt>
      <trkpt lat="45.672042388468981" lon="6.981044411659241">
        <ele>2426.5700000000002</ele>
        <time>2021-09-12T12:24:35Z</time>
      </trkpt>
      <trkpt lat="45.672038868069649" lon="6.981026809662581">
        <ele>2426.4000000000001</ele>
        <time>2021-09-12T12:24:36Z</time>
      </trkpt>
      <trkpt lat="45.672022355720401" lon="6.980808712542057">
        <ele>2426.21</ele>
        <time>2021-09-12T12:24:50Z</time>
      </trkpt>
      <trkpt lat="45.672046495601535" lon="6.98065247386694">
        <ele>2425.1399999999999</ele>
        <time>2021-09-12T12:25:01Z</time>
      </trkpt>
      <trkpt lat="45.672041131183505" lon="6.980639901012182">
        <ele>2424.8600000000001</ele>
        <time>2021-09-12T12:25:02Z</time>
      </trkpt>
      <trkpt lat="45.672033922746778" lon="6.980628417804837">
        <ele>2424.6500000000001</ele>
        <time>2021-09-12T12:25:03Z</time>
      </trkpt>
      <trkpt lat="45.672026546671987" lon="6.980617018416524">
        <ele>2424.6700000000001</ele>
        <time>2021-09-12T12:25:04Z</time>
      </trkpt>
      <trkpt lat="45.672020427882671" lon="6.980604780837894">
        <ele>2424.5900000000001</ele>
        <time>2021-09-12T12:25:05Z</time>
      </trkpt>
      <trkpt lat="45.672016320750117" lon="6.980592291802168">
        <ele>2424.1900000000001</ele>
        <time>2021-09-12T12:25:06Z</time>
      </trkpt>
      <trkpt lat="45.672011794522405" lon="6.98057821020484">
        <ele>2423.9299999999998</ele>
        <time>2021-09-12T12:25:07Z</time>
      </trkpt>
      <trkpt lat="45.671982793137431" lon="6.980516854673624">
        <ele>2422.6799999999998</ele>
        <time>2021-09-12T12:25:20Z</time>
      </trkpt>
      <trkpt lat="45.671969717368484" lon="6.980497743934393">
        <ele>2422.5900000000001</ele>
        <time>2021-09-12T12:25:29Z</time>
      </trkpt>
      <trkpt lat="45.671963263303041" lon="6.980485003441572">
        <ele>2422.5</ele>
        <time>2021-09-12T12:25:30Z</time>
      </trkpt>
      <trkpt lat="45.671956557780504" lon="6.980473436415196">
        <ele>2422.3099999999999</ele>
        <time>2021-09-12T12:25:31Z</time>
      </trkpt>
      <trkpt lat="45.671844827011228" lon="6.98032951913774">
        <ele>2421.9200000000001</ele>
        <time>2021-09-12T12:25:45Z</time>
      </trkpt>
      <trkpt lat="45.67172035574913" lon="6.980212423950434">
        <ele>2422</ele>
        <time>2021-09-12T12:25:59Z</time>
      </trkpt>
      <trkpt lat="45.671665789559484" lon="6.980138998478651">
        <ele>2421.1100000000001</ele>
        <time>2021-09-12T12:26:06Z</time>
      </trkpt>
      <trkpt lat="45.671574342995882" lon="6.980045791715384">
        <ele>2418.3800000000001</ele>
        <time>2021-09-12T12:26:21Z</time>
      </trkpt>
      <trkpt lat="45.671540983021259" lon="6.979994662106037">
        <ele>2417.27</ele>
        <time>2021-09-12T12:26:27Z</time>
      </trkpt>
      <trkpt lat="45.671511394903064" lon="6.979947220534086">
        <ele>2416.4499999999998</ele>
        <time>2021-09-12T12:26:32Z</time>
      </trkpt>
      <trkpt lat="45.67142229527235" lon="6.979828700423241">
        <ele>2417.0900000000001</ele>
        <time>2021-09-12T12:26:46Z</time>
      </trkpt>
      <trkpt lat="45.671355659142137" lon="6.979691321030259">
        <ele>2417.5</ele>
        <time>2021-09-12T12:27:00Z</time>
      </trkpt>
      <trkpt lat="45.671242419630289" lon="6.979581518098712">
        <ele>2415.8899999999999</ele>
        <time>2021-09-12T12:27:17Z</time>
      </trkpt>
      <trkpt lat="45.671134544536471" lon="6.979475989937782">
        <ele>2413.4699999999998</ele>
        <time>2021-09-12T12:27:34Z</time>
      </trkpt>
      <trkpt lat="45.67110076546669" lon="6.979393092915416">
        <ele>2411.8800000000001</ele>
        <time>2021-09-12T12:27:43Z</time>
      </trkpt>
      <trkpt lat="45.671093557029963" lon="6.979379765689373">
        <ele>2411.6799999999998</ele>
        <time>2021-09-12T12:27:44Z</time>
      </trkpt>
      <trkpt lat="45.671045780181885" lon="6.979289911687374">
        <ele>2410.0999999999999</ele>
        <time>2021-09-12T12:27:55Z</time>
      </trkpt>
      <trkpt lat="45.671044606715441" lon="6.979245822876692">
        <ele>2409.6999999999998</ele>
        <time>2021-09-12T12:28:05Z</time>
      </trkpt>
      <trkpt lat="45.671048378571868" lon="6.979247163981199">
        <ele>2408.3099999999999</ele>
        <time>2021-09-12T12:28:29Z</time>
      </trkpt>
      <trkpt lat="45.671047456562519" lon="6.979246325790882">
        <ele>2407.8400000000001</ele>
        <time>2021-09-12T12:29:04Z</time>
      </trkpt>
      <trkpt lat="45.67100839689374" lon="6.979252025485039">
        <ele>2408.1999999999998</ele>
        <time>2021-09-12T12:29:16Z</time>
      </trkpt>
      <trkpt lat="45.670998841524124" lon="6.979242553934455">
        <ele>2408.02</ele>
        <time>2021-09-12T12:29:17Z</time>
      </trkpt>
      <trkpt lat="45.670883255079389" lon="6.979146748781204">
        <ele>2405.3000000000002</ele>
        <time>2021-09-12T12:29:29Z</time>
      </trkpt>
      <trkpt lat="45.670742020010948" lon="6.979035688564181">
        <ele>2402.52</ele>
        <time>2021-09-12T12:29:44Z</time>
      </trkpt>
      <trkpt lat="45.670674880966544" lon="6.97896377183497">
        <ele>2402.5700000000002</ele>
        <time>2021-09-12T12:29:55Z</time>
      </trkpt>
      <trkpt lat="45.670583266764879" lon="6.978811472654343">
        <ele>2401.3200000000002</ele>
        <time>2021-09-12T12:30:08Z</time>
      </trkpt>
      <trkpt lat="45.670550828799605" lon="6.978753134608269">
        <ele>2401.6399999999999</ele>
        <time>2021-09-12T12:30:18Z</time>
      </trkpt>
      <trkpt lat="45.670542698353529" lon="6.978737125173211">
        <ele>2401.8899999999999</ele>
        <time>2021-09-12T12:30:20Z</time>
      </trkpt>
      <trkpt lat="45.670537082478404" lon="6.978723211213946">
        <ele>2401.8299999999999</ele>
        <time>2021-09-12T12:30:21Z</time>
      </trkpt>
      <trkpt lat="45.67053641192615" lon="6.978705441579223">
        <ele>2401.3400000000001</ele>
        <time>2021-09-12T12:30:22Z</time>
      </trkpt>
      <trkpt lat="45.670539597049356" lon="6.97868574410677">
        <ele>2401.4699999999998</ele>
        <time>2021-09-12T12:30:23Z</time>
      </trkpt>
      <trkpt lat="45.670543285086751" lon="6.978667806833983">
        <ele>2401.3600000000001</ele>
        <time>2021-09-12T12:30:24Z</time>
      </trkpt>
      <trkpt lat="45.670540602877736" lon="6.978492960333824">
        <ele>2400.6700000000001</ele>
        <time>2021-09-12T12:30:37Z</time>
      </trkpt>
      <trkpt lat="45.670513026416302" lon="6.978378798812628">
        <ele>2401.0999999999999</ele>
        <time>2021-09-12T12:30:48Z</time>
      </trkpt>
      <trkpt lat="45.670504476875067" lon="6.978345271199942">
        <ele>2401.4000000000001</ele>
        <time>2021-09-12T12:30:51Z</time>
      </trkpt>
      <trkpt lat="45.67050120793283" lon="6.978330267593265">
        <ele>2401.3499999999999</ele>
        <time>2021-09-12T12:30:52Z</time>
      </trkpt>
      <trkpt lat="45.670496681705117" lon="6.978313587605953">
        <ele>2401.3299999999999</ele>
        <time>2021-09-12T12:30:53Z</time>
      </trkpt>
      <trkpt lat="45.670444630086422" lon="6.978100351989269">
        <ele>2399.0999999999999</ele>
        <time>2021-09-12T12:31:07Z</time>
      </trkpt>
      <trkpt lat="45.670445635914803" lon="6.97779105976224">
        <ele>2397.8899999999999</ele>
        <time>2021-09-12T12:31:25Z</time>
      </trkpt>
      <trkpt lat="45.670412695035338" lon="6.977585116401315">
        <ele>2397.1500000000001</ele>
        <time>2021-09-12T12:31:39Z</time>
      </trkpt>
      <trkpt lat="45.670382687821984" lon="6.977489395067096">
        <ele>2398.0500000000002</ele>
        <time>2021-09-12T12:31:51Z</time>
      </trkpt>
      <trkpt lat="45.670381933450699" lon="6.977368528023362">
        <ele>2397.6100000000001</ele>
        <time>2021-09-12T12:32:01Z</time>
      </trkpt>
      <trkpt lat="45.67039274610579" lon="6.977170882746577">
        <ele>2397.0500000000002</ele>
        <time>2021-09-12T12:32:17Z</time>
      </trkpt>
      <trkpt lat="45.670395595952868" lon="6.977057056501508">
        <ele>2396.9499999999998</ele>
        <time>2021-09-12T12:32:31Z</time>
      </trkpt>
      <trkpt lat="45.670395595952868" lon="6.977053703740239">
        <ele>2396.9499999999998</ele>
        <time>2021-09-12T12:32:55Z</time>
      </trkpt>
      <trkpt lat="45.67039861343801" lon="6.977050183340907">
        <ele>2396.6500000000001</ele>
        <time>2021-09-12T12:33:16Z</time>
      </trkpt>
      <trkpt lat="45.67039274610579" lon="6.977048506960273">
        <ele>2396.7800000000002</ele>
        <time>2021-09-12T12:33:29Z</time>
      </trkpt>
      <trkpt lat="45.670392410829663" lon="6.977004250511527">
        <ele>2396.8600000000001</ele>
        <time>2021-09-12T12:33:54Z</time>
      </trkpt>
      <trkpt lat="45.670401463285089" lon="6.977007016539574">
        <ele>2396.73</ele>
        <time>2021-09-12T12:34:06Z</time>
      </trkpt>
      <trkpt lat="45.670385956764221" lon="6.977070048451424">
        <ele>2397.25</ele>
        <time>2021-09-12T12:34:19Z</time>
      </trkpt>
      <trkpt lat="45.670389896258712" lon="6.977021265774965">
        <ele>2397.2600000000002</ele>
        <time>2021-09-12T12:34:36Z</time>
      </trkpt>
      <trkpt lat="45.670411856845021" lon="6.976903164759278">
        <ele>2397.1399999999999</ele>
        <time>2021-09-12T12:34:50Z</time>
      </trkpt>
      <trkpt lat="45.670434655621648" lon="6.976764611899853">
        <ele>2397.0700000000002</ele>
        <time>2021-09-12T12:35:05Z</time>
      </trkpt>
      <trkpt lat="45.670505985617638" lon="6.97664525359869">
        <ele>2397.0500000000002</ele>
        <time>2021-09-12T12:35:20Z</time>
      </trkpt>
      <trkpt lat="45.670538675040007" lon="6.976594794541597">
        <ele>2396.9499999999998</ele>
        <time>2021-09-12T12:35:32Z</time>
      </trkpt>
      <trkpt lat="45.670555606484413" lon="6.976542994379997">
        <ele>2396.79</ele>
        <time>2021-09-12T12:35:44Z</time>
      </trkpt>
      <trkpt lat="45.670554265379906" lon="6.976488092914224">
        <ele>2397.2399999999998</ele>
        <time>2021-09-12T12:35:56Z</time>
      </trkpt>
      <trkpt lat="45.670587457716465" lon="6.976408632472158">
        <ele>2396.3400000000001</ele>
        <time>2021-09-12T12:36:07Z</time>
      </trkpt>
      <trkpt lat="45.670634647831321" lon="6.976265050470829">
        <ele>2395.9400000000001</ele>
        <time>2021-09-12T12:36:21Z</time>
      </trkpt>
      <trkpt lat="45.670617045834661" lon="6.976082408800721">
        <ele>2395.9099999999999</ele>
        <time>2021-09-12T12:36:36Z</time>
      </trkpt>
      <trkpt lat="45.670592151582241" lon="6.975909238681197">
        <ele>2396.1500000000001</ele>
        <time>2021-09-12T12:36:50Z</time>
      </trkpt>
      <trkpt lat="45.670588128268719" lon="6.975893396884203">
        <ele>2396.2199999999998</ele>
        <time>2021-09-12T12:36:51Z</time>
      </trkpt>
      <trkpt lat="45.670572035014629" lon="6.975731793791056">
        <ele>2395.8299999999999</ele>
        <time>2021-09-12T12:37:04Z</time>
      </trkpt>
      <trkpt lat="45.670572202652693" lon="6.975549906492233">
        <ele>2395.6900000000001</ele>
        <time>2021-09-12T12:37:19Z</time>
      </trkpt>
      <trkpt lat="45.670563485473394" lon="6.975490394979715">
        <ele>2395.3099999999999</ele>
        <time>2021-09-12T12:37:24Z</time>
      </trkpt>
      <trkpt lat="45.67053833976388" lon="6.975444043055177">
        <ele>2395.2199999999998</ele>
        <time>2021-09-12T12:37:29Z</time>
      </trkpt>
      <trkpt lat="45.670454353094101" lon="6.975308675318956">
        <ele>2395.23</ele>
        <time>2021-09-12T12:37:43Z</time>
      </trkpt>
      <trkpt lat="45.670371791347861" lon="6.975129805505276">
        <ele>2394.9200000000001</ele>
        <time>2021-09-12T12:37:59Z</time>
      </trkpt>
      <trkpt lat="45.670278584584594" lon="6.974948421120644">
        <ele>2394.98</ele>
        <time>2021-09-12T12:38:17Z</time>
      </trkpt>
      <trkpt lat="45.670197531580925" lon="6.974796624854207">
        <ele>2394.1900000000001</ele>
        <time>2021-09-12T12:38:34Z</time>
      </trkpt>
      <trkpt lat="45.670170960947871" lon="6.974732000380755">
        <ele>2395.5799999999999</ele>
        <time>2021-09-12T12:38:46Z</time>
      </trkpt>
      <trkpt lat="45.670142294839025" lon="6.974640805274248">
        <ele>2398.0700000000002</ele>
        <time>2021-09-12T12:39:01Z</time>
      </trkpt>
      <trkpt lat="45.670104157179594" lon="6.974569391459227">
        <ele>2398.3899999999999</ele>
        <time>2021-09-12T12:39:10Z</time>
      </trkpt>
      <trkpt lat="45.670040789991617" lon="6.974452128633857">
        <ele>2397.9000000000001</ele>
        <time>2021-09-12T12:39:24Z</time>
      </trkpt>
      <trkpt lat="45.669992929324508" lon="6.974384151399136">
        <ele>2396.5700000000002</ele>
        <time>2021-09-12T12:39:33Z</time>
      </trkpt>
      <trkpt lat="45.669921264052391" lon="6.974285580217838">
        <ele>2395.25</ele>
        <time>2021-09-12T12:39:47Z</time>
      </trkpt>
      <trkpt lat="45.669833924621344" lon="6.974185332655907">
        <ele>2394.0300000000002</ele>
        <time>2021-09-12T12:40:02Z</time>
      </trkpt>
      <trkpt lat="45.669785309582949" lon="6.974062034860253">
        <ele>2393.8899999999999</ele>
        <time>2021-09-12T12:40:16Z</time>
      </trkpt>
      <trkpt lat="45.669778184965253" lon="6.974054239690304">
        <ele>2393.8899999999999</ele>
        <time>2021-09-12T12:40:17Z</time>
      </trkpt>
      <trkpt lat="45.669770892709494" lon="6.974043510854244">
        <ele>2393.71</ele>
        <time>2021-09-12T12:40:18Z</time>
      </trkpt>
      <trkpt lat="45.669763516634703" lon="6.974032614380121">
        <ele>2393.5</ele>
        <time>2021-09-12T12:40:19Z</time>
      </trkpt>
      <trkpt lat="45.669671064242721" lon="6.973907724022865">
        <ele>2392.1799999999998</ele>
        <time>2021-09-12T12:40:33Z</time>
      </trkpt>
      <trkpt lat="45.669566038995981" lon="6.973863886669278">
        <ele>2390.9499999999998</ele>
        <time>2021-09-12T12:40:47Z</time>
      </trkpt>
      <trkpt lat="45.669497307389975" lon="6.973793311044574">
        <ele>2390.9299999999998</ele>
        <time>2021-09-12T12:40:57Z</time>
      </trkpt>
      <trkpt lat="45.669398820027709" lon="6.973703540861607">
        <ele>2391.2800000000002</ele>
        <time>2021-09-12T12:41:12Z</time>
      </trkpt>
      <trkpt lat="45.669344505295157" lon="6.97365777567029">
        <ele>2391.46</ele>
        <time>2021-09-12T12:41:20Z</time>
      </trkpt>
      <trkpt lat="45.669334195554256" lon="6.97365534491837">
        <ele>2391.3400000000001</ele>
        <time>2021-09-12T12:41:21Z</time>
      </trkpt>
      <trkpt lat="45.669235624372959" lon="6.973595917224884">
        <ele>2391.25</ele>
        <time>2021-09-12T12:41:33Z</time>
      </trkpt>
      <trkpt lat="45.669161193072796" lon="6.97353363968432">
        <ele>2392.1300000000001</ele>
        <time>2021-09-12T12:41:45Z</time>
      </trkpt>
      <trkpt lat="45.669071339070797" lon="6.973458286374807">
        <ele>2392.5999999999999</ele>
        <time>2021-09-12T12:41:58Z</time>
      </trkpt>
      <trkpt lat="45.669010486453772" lon="6.973349992185831">
        <ele>2393.2800000000002</ele>
        <time>2021-09-12T12:42:12Z</time>
      </trkpt>
      <trkpt lat="45.668980563059449" lon="6.97327271103859">
        <ele>2392.7399999999998</ele>
        <time>2021-09-12T12:42:24Z</time>
      </trkpt>
      <trkpt lat="45.668920129537582" lon="6.973223509266973">
        <ele>2390.98</ele>
        <time>2021-09-12T12:42:37Z</time>
      </trkpt>
      <trkpt lat="45.668848883360624" lon="6.973145976662636">
        <ele>2390.02</ele>
        <time>2021-09-12T12:42:50Z</time>
      </trkpt>
      <trkpt lat="45.668804543092847" lon="6.97308118455112">
        <ele>2389.3099999999999</ele>
        <time>2021-09-12T12:43:02Z</time>
      </trkpt>
      <trkpt lat="45.668780654668808" lon="6.973064672201872">
        <ele>2388.5</ele>
        <time>2021-09-12T12:43:15Z</time>
      </trkpt>
      <trkpt lat="45.668754754588008" lon="6.973041454330087">
        <ele>2387.73</ele>
        <time>2021-09-12T12:43:28Z</time>
      </trkpt>
      <trkpt lat="45.668730279430747" lon="6.973026785999537">
        <ele>2385.9699999999998</ele>
        <time>2021-09-12T12:43:42Z</time>
      </trkpt>
      <trkpt lat="45.668658362701535" lon="6.972964005544782">
        <ele>2383.8499999999999</ele>
        <time>2021-09-12T12:43:55Z</time>
      </trkpt>
      <trkpt lat="45.66860580816865" lon="6.972920754924417">
        <ele>2382.3699999999999</ele>
        <time>2021-09-12T12:44:04Z</time>
      </trkpt>
      <trkpt lat="45.668567754328251" lon="6.972866607829928">
        <ele>2381.9400000000001</ele>
        <time>2021-09-12T12:44:10Z</time>
      </trkpt>
      <trkpt lat="45.668562054634094" lon="6.972855040803552">
        <ele>2381.9499999999998</ele>
        <time>2021-09-12T12:44:11Z</time>
      </trkpt>
      <trkpt lat="45.668476643040776" lon="6.972754122689366">
        <ele>2380.4099999999999</ele>
        <time>2021-09-12T12:44:27Z</time>
      </trkpt>
      <trkpt lat="45.66842501051724" lon="6.972684888169169">
        <ele>2377.9000000000001</ele>
        <time>2021-09-12T12:44:41Z</time>
      </trkpt>
      <trkpt lat="45.668386286124587" lon="6.972619006410241">
        <ele>2376.3000000000002</ele>
        <time>2021-09-12T12:44:53Z</time>
      </trkpt>
      <trkpt lat="45.668349405750632" lon="6.972545748576522">
        <ele>2374.9400000000001</ele>
        <time>2021-09-12T12:45:05Z</time>
      </trkpt>
      <trkpt lat="45.668333731591702" lon="6.972455056384206">
        <ele>2376.4899999999998</ele>
        <time>2021-09-12T12:45:17Z</time>
      </trkpt>
      <trkpt lat="45.668306658044457" lon="6.972369309514761">
        <ele>2377.1700000000001</ele>
        <time>2021-09-12T12:45:29Z</time>
      </trkpt>
      <trkpt lat="45.668240524828434" lon="6.972276102751494">
        <ele>2376.1799999999998</ele>
        <time>2021-09-12T12:45:42Z</time>
      </trkpt>
      <trkpt lat="45.668215127661824" lon="6.972182225435972">
        <ele>2374.79</ele>
        <time>2021-09-12T12:45:52Z</time>
      </trkpt>
      <trkpt lat="45.668188724666834" lon="6.972093377262354">
        <ele>2373.3400000000001</ele>
        <time>2021-09-12T12:46:03Z</time>
      </trkpt>
      <trkpt lat="45.66819149069488" lon="6.971980975940824">
        <ele>2371.8400000000001</ele>
        <time>2021-09-12T12:46:15Z</time>
      </trkpt>
      <trkpt lat="45.66818411462009" lon="6.971865640953183">
        <ele>2369.8699999999999</ele>
        <time>2021-09-12T12:46:29Z</time>
      </trkpt>
      <trkpt lat="45.668180342763662" lon="6.971754748374224">
        <ele>2368.1799999999998</ele>
        <time>2021-09-12T12:46:43Z</time>
      </trkpt>
      <trkpt lat="45.668191909790039" lon="6.971653830260038">
        <ele>2365.9400000000001</ele>
        <time>2021-09-12T12:46:57Z</time>
      </trkpt>
      <trkpt lat="45.668211942538619" lon="6.971595995128155">
        <ele>2364.27</ele>
        <time>2021-09-12T12:47:08Z</time>
      </trkpt>
      <trkpt lat="45.668224096298218" lon="6.971489293500781">
        <ele>2362.71</ele>
        <time>2021-09-12T12:47:20Z</time>
      </trkpt>
      <trkpt lat="45.668244212865829" lon="6.971407234668732">
        <ele>2360.9400000000001</ele>
        <time>2021-09-12T12:47:32Z</time>
      </trkpt>
      <trkpt lat="45.668234573677182" lon="6.971353841945529">
        <ele>2359.5500000000002</ele>
        <time>2021-09-12T12:47:44Z</time>
      </trkpt>
      <trkpt lat="45.668226862326264" lon="6.971278069540858">
        <ele>2357.1100000000001</ele>
        <time>2021-09-12T12:47:56Z</time>
      </trkpt>
      <trkpt lat="45.668232478201389" lon="6.971160722896457">
        <ele>2355.79</ele>
        <time>2021-09-12T12:48:09Z</time>
      </trkpt>
      <trkpt lat="45.668234238401055" lon="6.971055362373591">
        <ele>2354.1100000000001</ele>
        <time>2021-09-12T12:48:23Z</time>
      </trkpt>
      <trkpt lat="45.668260892853141" lon="6.970956372097135">
        <ele>2352.5999999999999</ele>
        <time>2021-09-12T12:48:37Z</time>
      </trkpt>
      <trkpt lat="45.668283021077514" lon="6.970925275236368">
        <ele>2351.0599999999999</ele>
        <time>2021-09-12T12:48:49Z</time>
      </trkpt>
      <trkpt lat="45.668291905894876" lon="6.97087649255991">
        <ele>2349.6799999999998</ele>
        <time>2021-09-12T12:49:00Z</time>
      </trkpt>
      <trkpt lat="45.668342867866158" lon="6.970885461196303">
        <ele>2348.1700000000001</ele>
        <time>2021-09-12T12:49:13Z</time>
      </trkpt>
      <trkpt lat="45.668385783210397" lon="6.970920832827687">
        <ele>2346.9299999999998</ele>
        <time>2021-09-12T12:49:24Z</time>
      </trkpt>
      <trkpt lat="45.668414700776339" lon="6.970896273851395">
        <ele>2345.0900000000001</ele>
        <time>2021-09-12T12:49:37Z</time>
      </trkpt>
      <trkpt lat="45.668405313044786" lon="6.97082712315023">
        <ele>2342.9299999999998</ele>
        <time>2021-09-12T12:49:50Z</time>
      </trkpt>
      <trkpt lat="45.668412102386355" lon="6.970780519768596">
        <ele>2341.73</ele>
        <time>2021-09-12T12:50:02Z</time>
      </trkpt>
      <trkpt lat="45.668459460139275" lon="6.970751602202654">
        <ele>2339.4099999999999</ele>
        <time>2021-09-12T12:50:15Z</time>
      </trkpt>
      <trkpt lat="45.668481839820743" lon="6.970715224742889">
        <ele>2337.6500000000001</ele>
        <time>2021-09-12T12:50:28Z</time>
      </trkpt>
      <trkpt lat="45.668498016893864" lon="6.970663173124194">
        <ele>2335.79</ele>
        <time>2021-09-12T12:50:42Z</time>
      </trkpt>
      <trkpt lat="45.668537076562643" lon="6.970640625804663">
        <ele>2333.6999999999998</ele>
        <time>2021-09-12T12:50:54Z</time>
      </trkpt>
      <trkpt lat="45.668561048805714" lon="6.970591926947236">
        <ele>2332.0799999999999</ele>
        <time>2021-09-12T12:51:07Z</time>
      </trkpt>
      <trkpt lat="45.668571861460805" lon="6.970521938055754">
        <ele>2330.3699999999999</ele>
        <time>2021-09-12T12:51:19Z</time>
      </trkpt>
      <trkpt lat="45.668594324961305" lon="6.970461755990982">
        <ele>2328.4699999999998</ele>
        <time>2021-09-12T12:51:31Z</time>
      </trkpt>
      <trkpt lat="45.668620308861136" lon="6.970415152609348">
        <ele>2327.8000000000002</ele>
        <time>2021-09-12T12:51:47Z</time>
      </trkpt>
      <trkpt lat="45.668619386851788" lon="6.97040006518364">
        <ele>2327.0700000000002</ele>
        <time>2021-09-12T12:52:06Z</time>
      </trkpt>
      <trkpt lat="45.668621147051454" lon="6.97039470076561">
        <ele>2326.6999999999998</ele>
        <time>2021-09-12T12:52:20Z</time>
      </trkpt>
      <trkpt lat="45.668615866452456" lon="6.970397299155593">
        <ele>2327.4099999999999</ele>
        <time>2021-09-12T12:52:35Z</time>
      </trkpt>
      <trkpt lat="45.66860580816865" lon="6.970394784584642">
        <ele>2327.27</ele>
        <time>2021-09-12T12:53:02Z</time>
      </trkpt>
      <trkpt lat="45.668601868674159" lon="6.970393192023039">
        <ele>2327.1999999999998</ele>
        <time>2021-09-12T12:53:25Z</time>
      </trkpt>
      <trkpt lat="45.66864344291389" lon="6.970435436815023">
        <ele>2327.75</ele>
        <time>2021-09-12T12:53:42Z</time>
      </trkpt>
      <trkpt lat="45.668664732947946" lon="6.970450608059764">
        <ele>2327.0500000000002</ele>
        <time>2021-09-12T12:53:55Z</time>
      </trkpt>
      <trkpt lat="45.668682334944606" lon="6.970473323017359">
        <ele>2326.7399999999998</ele>
        <time>2021-09-12T12:54:09Z</time>
      </trkpt>
      <trkpt lat="45.668651489540935" lon="6.970538618043065">
        <ele>2329.3499999999999</ele>
        <time>2021-09-12T12:54:21Z</time>
      </trkpt>
      <trkpt lat="45.66868401132524" lon="6.970606511458755">
        <ele>2327.8600000000001</ele>
        <time>2021-09-12T12:54:33Z</time>
      </trkpt>
      <trkpt lat="45.668653668835759" lon="6.970555298030376">
        <ele>2328.6799999999998</ele>
        <time>2021-09-12T12:54:50Z</time>
      </trkpt>
      <trkpt lat="45.66861167550087" lon="6.970421941950917">
        <ele>2328.6199999999999</ele>
        <time>2021-09-12T12:55:04Z</time>
      </trkpt>
      <trkpt lat="45.668621566146612" lon="6.970356814563274">
        <ele>2326.25</ele>
        <time>2021-09-12T12:55:16Z</time>
      </trkpt>
      <trkpt lat="45.668619219213724" lon="6.970336530357599">
        <ele>2325.6799999999998</ele>
        <time>2021-09-12T12:55:36Z</time>
      </trkpt>
      <trkpt lat="45.66862684674561" lon="6.970335021615028">
        <ele>2325.0999999999999</ele>
        <time>2021-09-12T12:55:58Z</time>
      </trkpt>
      <trkpt lat="45.668636150658131" lon="6.970328148454428">
        <ele>2324.21</ele>
        <time>2021-09-12T12:56:12Z</time>
      </trkpt>
      <trkpt lat="45.668653165921569" lon="6.97031163610518">
        <ele>2322.3499999999999</ele>
        <time>2021-09-12T12:56:23Z</time>
      </trkpt>
      <trkpt lat="45.668657189235091" lon="6.970322616398335">
        <ele>2321.9899999999998</ele>
        <time>2021-09-12T12:56:36Z</time>
      </trkpt>
      <trkpt lat="45.668691052123904" lon="6.970341643318534">
        <ele>2320.5700000000002</ele>
        <time>2021-09-12T12:56:48Z</time>
      </trkpt>
      <trkpt lat="45.668714856728911" lon="6.970345163717866">
        <ele>2319.54</ele>
        <time>2021-09-12T12:56:51Z</time>
      </trkpt>
      <trkpt lat="45.668728183954954" lon="6.970368465408683">
        <ele>2319.5500000000002</ele>
        <time>2021-09-12T12:57:01Z</time>
      </trkpt>
      <trkpt lat="45.668725585564971" lon="6.970370896160603">
        <ele>2319.4000000000001</ele>
        <time>2021-09-12T12:57:18Z</time>
      </trkpt>
      <trkpt lat="45.668738493695855" lon="6.970431329682469">
        <ele>2318.3600000000001</ele>
        <time>2021-09-12T12:57:33Z</time>
      </trkpt>
      <trkpt lat="45.668754586949944" lon="6.970490589737892">
        <ele>2316.25</ele>
        <time>2021-09-12T12:57:44Z</time>
      </trkpt>
      <trkpt lat="45.668758694082499" lon="6.970495283603668">
        <ele>2315.96</ele>
        <time>2021-09-12T12:57:57Z</time>
      </trkpt>
      <trkpt lat="45.668789455667138" lon="6.970544820651412">
        <ele>2315.29</ele>
        <time>2021-09-12T12:58:10Z</time>
      </trkpt>
      <trkpt lat="45.668801693245769" lon="6.970573738217354">
        <ele>2314.79</ele>
        <time>2021-09-12T12:58:21Z</time>
      </trkpt>
      <trkpt lat="45.668817535042763" lon="6.970578851178289">
        <ele>2313.77</ele>
        <time>2021-09-12T12:58:34Z</time>
      </trkpt>
      <trkpt lat="45.668830526992679" lon="6.970586897805333">
        <ele>2313.4099999999999</ele>
        <time>2021-09-12T12:58:47Z</time>
      </trkpt>
      <trkpt lat="45.668862964957952" lon="6.970588406547904">
        <ele>2310.77</ele>
        <time>2021-09-12T12:58:57Z</time>
      </trkpt>
      <trkpt lat="45.668903617188334" lon="6.970570804551244">
        <ele>2307.8200000000002</ele>
        <time>2021-09-12T12:59:08Z</time>
      </trkpt>
      <trkpt lat="45.668928343802691" lon="6.970505844801664">
        <ele>2305.1999999999998</ele>
        <time>2021-09-12T12:59:20Z</time>
      </trkpt>
      <trkpt lat="45.668923314660788" lon="6.970447842031717">
        <ele>2304.9200000000001</ele>
        <time>2021-09-12T12:59:31Z</time>
      </trkpt>
      <trkpt lat="45.668919878080487" lon="6.970431497320533">
        <ele>2304.6599999999999</ele>
        <time>2021-09-12T12:59:41Z</time>
      </trkpt>
      <trkpt lat="45.668915351852775" lon="6.970413308590651">
        <ele>2304.46</ele>
        <time>2021-09-12T13:00:02Z</time>
      </trkpt>
      <trkpt lat="45.668915687128901" lon="6.970413308590651">
        <ele>2304.4099999999999</ele>
        <time>2021-09-12T13:00:25Z</time>
      </trkpt>
      <trkpt lat="45.668917363509536" lon="6.97036980651319">
        <ele>2303.7399999999998</ele>
        <time>2021-09-12T13:00:34Z</time>
      </trkpt>
      <trkpt lat="45.668938150629401" lon="6.970327226445079">
        <ele>2302.9699999999998</ele>
        <time>2021-09-12T13:00:44Z</time>
      </trkpt>
      <trkpt lat="45.668945945799351" lon="6.970320269465447">
        <ele>2302.9099999999999</ele>
        <time>2021-09-12T13:01:00Z</time>
      </trkpt>
      <trkpt lat="45.668942760676146" lon="6.970313647761941">
        <ele>2302.5799999999999</ele>
        <time>2021-09-12T13:01:30Z</time>
      </trkpt>
      <trkpt lat="45.668938066810369" lon="6.970320269465447">
        <ele>2302.4400000000001</ele>
        <time>2021-09-12T13:01:47Z</time>
      </trkpt>
      <trkpt lat="45.668930523097515" lon="6.97036636993289">
        <ele>2302.9000000000001</ele>
        <time>2021-09-12T13:02:10Z</time>
      </trkpt>
      <trkpt lat="45.668937396258116" lon="6.970452954992652">
        <ele>2303.7199999999998</ele>
        <time>2021-09-12T13:02:21Z</time>
      </trkpt>
      <trkpt lat="45.668946532532573" lon="6.970486985519528">
        <ele>2303.8800000000001</ele>
        <time>2021-09-12T13:02:33Z</time>
      </trkpt>
      <trkpt lat="45.6689537409693" lon="6.970491511747241">
        <ele>2303.52</ele>
        <time>2021-09-12T13:02:52Z</time>
      </trkpt>
      <trkpt lat="45.669000595808029" lon="6.97052663192153">
        <ele>2301.8800000000001</ele>
        <time>2021-09-12T13:03:01Z</time>
      </trkpt>
      <trkpt lat="45.66905340179801" lon="6.970539372414351">
        <ele>2299.7399999999998</ele>
        <time>2021-09-12T13:03:11Z</time>
      </trkpt>
      <trkpt lat="45.669086761772633" lon="6.970557309687138">
        <ele>2297.9499999999998</ele>
        <time>2021-09-12T13:03:20Z</time>
      </trkpt>
      <trkpt lat="45.66914040595293" lon="6.970563177019358">
        <ele>2295.5100000000002</ele>
        <time>2021-09-12T13:03:30Z</time>
      </trkpt>
      <trkpt lat="45.669180136173964" lon="6.970581198111177">
        <ele>2292.6399999999999</ele>
        <time>2021-09-12T13:03:43Z</time>
      </trkpt>
      <trkpt lat="45.669202348217368" lon="6.970594692975283">
        <ele>2290.6799999999998</ele>
        <time>2021-09-12T13:03:54Z</time>
      </trkpt>
      <trkpt lat="45.669206790626049" lon="6.970579270273447">
        <ele>2289.5799999999999</ele>
        <time>2021-09-12T13:04:03Z</time>
      </trkpt>
      <trkpt lat="45.66925473511219" lon="6.970524955540896">
        <ele>2286.9899999999998</ele>
        <time>2021-09-12T13:04:14Z</time>
      </trkpt>
      <trkpt lat="45.669278791174293" lon="6.970488242805004">
        <ele>2285.2600000000002</ele>
        <time>2021-09-12T13:04:26Z</time>
      </trkpt>
      <trkpt lat="45.6692801322788" lon="6.970495702698827">
        <ele>2284.7199999999998</ele>
        <time>2021-09-12T13:04:36Z</time>
      </trkpt>
      <trkpt lat="45.669273342937231" lon="6.970484051853418">
        <ele>2284.8099999999999</ele>
        <time>2021-09-12T13:04:54Z</time>
      </trkpt>
      <trkpt lat="45.669278036803007" lon="6.97045773267746">
        <ele>2284.6700000000001</ele>
        <time>2021-09-12T13:05:15Z</time>
      </trkpt>
      <trkpt lat="45.66931240260601" lon="6.970401909202337">
        <ele>2282.52</ele>
        <time>2021-09-12T13:05:25Z</time>
      </trkpt>
      <trkpt lat="45.669337715953588" lon="6.970391264185309">
        <ele>2281.5500000000002</ele>
        <time>2021-09-12T13:05:28Z</time>
      </trkpt>
      <trkpt lat="45.669394712895155" lon="6.970302918925881">
        <ele>2278.75</ele>
        <time>2021-09-12T13:05:40Z</time>
      </trkpt>
      <trkpt lat="45.669393371790648" lon="6.970300655812025">
        <ele>2278.96</ele>
        <time>2021-09-12T13:05:56Z</time>
      </trkpt>
      <trkpt lat="45.669399406760931" lon="6.970360586419702">
        <ele>2278.9200000000001</ele>
        <time>2021-09-12T13:06:05Z</time>
      </trkpt>
      <trkpt lat="45.66940862685442" lon="6.970394281670451">
        <ele>2277.8299999999999</ele>
        <time>2021-09-12T13:06:14Z</time>
      </trkpt>
      <trkpt lat="45.669474005699158" lon="6.970406267791987">
        <ele>2274.5100000000002</ele>
        <time>2021-09-12T13:06:26Z</time>
      </trkpt>
      <trkpt lat="45.66953033208847" lon="6.970400735735893">
        <ele>2272.0900000000001</ele>
        <time>2021-09-12T13:06:37Z</time>
      </trkpt>
      <trkpt lat="45.669610379263759" lon="6.97038103826344">
        <ele>2269.79</ele>
        <time>2021-09-12T13:06:49Z</time>
      </trkpt>
      <trkpt lat="45.669634602963924" lon="6.970285316929221">
        <ele>2267.0100000000002</ele>
        <time>2021-09-12T13:07:00Z</time>
      </trkpt>
      <trkpt lat="45.669671148061752" lon="6.970214741304517">
        <ele>2264.54</ele>
        <time>2021-09-12T13:07:10Z</time>
      </trkpt>
      <trkpt lat="45.669645415619016" lon="6.970122875645757">
        <ele>2264.4400000000001</ele>
        <time>2021-09-12T13:07:22Z</time>
      </trkpt>
      <trkpt lat="45.669677937403321" lon="6.970081385225058">
        <ele>2262.5599999999999</ele>
        <time>2021-09-12T13:07:33Z</time>
      </trkpt>
      <trkpt lat="45.669656228274107" lon="6.97005313821137">
        <ele>2261.5999999999999</ele>
        <time>2021-09-12T13:07:45Z</time>
      </trkpt>
      <trkpt lat="45.669645415619016" lon="6.970017431303859">
        <ele>2261.3200000000002</ele>
        <time>2021-09-12T13:07:59Z</time>
      </trkpt>
      <trkpt lat="45.669650780037045" lon="6.970031596720219">
        <ele>2261.2800000000002</ele>
        <time>2021-09-12T13:08:23Z</time>
      </trkpt>
      <trkpt lat="45.669687492772937" lon="6.970015754923224">
        <ele>2260.6100000000001</ele>
        <time>2021-09-12T13:08:28Z</time>
      </trkpt>
      <trkpt lat="45.669748429208994" lon="6.970037631690502">
        <ele>2259.6900000000001</ele>
        <time>2021-09-12T13:08:37Z</time>
      </trkpt>
      <trkpt lat="45.669826800003648" lon="6.970025645568967">
        <ele>2257.77</ele>
        <time>2021-09-12T13:08:47Z</time>
      </trkpt>
      <trkpt lat="45.669884132221341" lon="6.9700170122087">
        <ele>2256.3800000000001</ele>
        <time>2021-09-12T13:08:59Z</time>
      </trkpt>
      <trkpt lat="45.66994515247643" lon="6.970016844570637">
        <ele>2254.6199999999999</ele>
        <time>2021-09-12T13:09:12Z</time>
      </trkpt>
      <trkpt lat="45.669988989830017" lon="6.970011815428734">
        <ele>2253.3600000000001</ele>
        <time>2021-09-12T13:09:24Z</time>
      </trkpt>
      <trkpt lat="45.670004580169916" lon="6.970007540658116">
        <ele>2251.8899999999999</ele>
        <time>2021-09-12T13:09:36Z</time>
      </trkpt>
      <trkpt lat="45.67003458738327" lon="6.970005948096514">
        <ele>2250.1900000000001</ele>
        <time>2021-09-12T13:09:50Z</time>
      </trkpt>
      <trkpt lat="45.670079262927175" lon="6.970015168190002">
        <ele>2248.0799999999999</ele>
        <time>2021-09-12T13:10:03Z</time>
      </trkpt>
      <trkpt lat="45.670096781104803" lon="6.970002762973309">
        <ele>2246.8200000000002</ele>
        <time>2021-09-12T13:10:15Z</time>
      </trkpt>
      <trkpt lat="45.670136008411646" lon="6.969994716346264">
        <ele>2244.9899999999998</ele>
        <time>2021-09-12T13:10:29Z</time>
      </trkpt>
      <trkpt lat="45.670163668692112" lon="6.969935288652778">
        <ele>2242.8200000000002</ele>
        <time>2021-09-12T13:10:42Z</time>
      </trkpt>
      <trkpt lat="45.670218905434012" lon="6.969954064115882">
        <ele>2241.1999999999998</ele>
        <time>2021-09-12T13:10:53Z</time>
      </trkpt>
      <trkpt lat="45.670287720859051" lon="6.969946185126901">
        <ele>2239.4200000000001</ele>
        <time>2021-09-12T13:11:05Z</time>
      </trkpt>
      <trkpt lat="45.67032041028142" lon="6.969921542331576">
        <ele>2237.6399999999999</ele>
        <time>2021-09-12T13:11:17Z</time>
      </trkpt>
      <trkpt lat="45.670353434979916" lon="6.969871837645769">
        <ele>2234.5900000000001</ele>
        <time>2021-09-12T13:11:31Z</time>
      </trkpt>
      <trkpt lat="45.670377239584923" lon="6.969822468236089">
        <ele>2232.4400000000001</ele>
        <time>2021-09-12T13:11:42Z</time>
      </trkpt>
      <trkpt lat="45.670382687821984" lon="6.969781732186675">
        <ele>2231.02</ele>
        <time>2021-09-12T13:11:55Z</time>
      </trkpt>
      <trkpt lat="45.670397020876408" lon="6.969688693061471">
        <ele>2228.9499999999998</ele>
        <time>2021-09-12T13:12:07Z</time>
      </trkpt>
      <trkpt lat="45.67042694427073" lon="6.969656758010387">
        <ele>2227.04</ele>
        <time>2021-09-12T13:12:19Z</time>
      </trkpt>
      <trkpt lat="45.670453514903784" lon="6.969613675028086">
        <ele>2224.73</ele>
        <time>2021-09-12T13:12:33Z</time>
      </trkpt>
      <trkpt lat="45.67047530785203" lon="6.969558773562312">
        <ele>2222.79</ele>
        <time>2021-09-12T13:12:43Z</time>
      </trkpt>
      <trkpt lat="45.670503051951528" lon="6.969522228464484">
        <ele>2220.75</ele>
        <time>2021-09-12T13:12:54Z</time>
      </trkpt>
      <trkpt lat="45.670541105791926" lon="6.969493394717574">
        <ele>2218.77</ele>
        <time>2021-09-12T13:13:05Z</time>
      </trkpt>
      <trkpt lat="45.670585529878736" lon="6.969530694186688">
        <ele>2217.3899999999999</ele>
        <time>2021-09-12T13:13:16Z</time>
      </trkpt>
      <trkpt lat="45.670628445222974" lon="6.96950831450522">
        <ele>2215.8800000000001</ele>
        <time>2021-09-12T13:13:27Z</time>
      </trkpt>
      <trkpt lat="45.670658703893423" lon="6.969533208757639">
        <ele>2214</ele>
        <time>2021-09-12T13:13:38Z</time>
      </trkpt>
      <trkpt lat="45.6706996075809" lon="6.969499010592699">
        <ele>2211.5599999999999</ele>
        <time>2021-09-12T13:13:53Z</time>
      </trkpt>
      <trkpt lat="45.670719807967544" lon="6.969449389725924">
        <ele>2209.6799999999998</ele>
        <time>2021-09-12T13:14:06Z</time>
      </trkpt>
      <trkpt lat="45.670753251761198" lon="6.969387866556644">
        <ele>2207.5500000000002</ele>
        <time>2021-09-12T13:14:21Z</time>
      </trkpt>
      <trkpt lat="45.670781079679728" lon="6.969428267329931">
        <ele>2205.79</ele>
        <time>2021-09-12T13:14:34Z</time>
      </trkpt>
      <trkpt lat="45.670843021944165" lon="6.969464812427759">
        <ele>2202.77</ele>
        <time>2021-09-12T13:14:46Z</time>
      </trkpt>
      <trkpt lat="45.670909406617284" lon="6.969509404152632">
        <ele>2200.6700000000001</ele>
        <time>2021-09-12T13:14:58Z</time>
      </trkpt>
      <trkpt lat="45.670985262840986" lon="6.969514349475503">
        <ele>2198.4400000000001</ele>
        <time>2021-09-12T13:15:11Z</time>
      </trkpt>
      <trkpt lat="45.671047624200583" lon="6.969486186280847">
        <ele>2195.9400000000001</ele>
        <time>2021-09-12T13:15:22Z</time>
      </trkpt>
      <trkpt lat="45.671119121834636" lon="6.969520384445787">
        <ele>2193.02</ele>
        <time>2021-09-12T13:15:34Z</time>
      </trkpt>
      <trkpt lat="45.671179722994566" lon="6.969506051391363">
        <ele>2190.75</ele>
        <time>2021-09-12T13:15:45Z</time>
      </trkpt>
      <trkpt lat="45.671251639723778" lon="6.969497250393033">
        <ele>2187.6399999999999</ele>
        <time>2021-09-12T13:15:57Z</time>
      </trkpt>
      <trkpt lat="45.671308804303408" lon="6.969498507678509">
        <ele>2185.5900000000001</ele>
        <time>2021-09-12T13:16:09Z</time>
      </trkpt>
      <trkpt lat="45.671369237825274" lon="6.96949121542275">
        <ele>2183.21</ele>
        <time>2021-09-12T13:16:21Z</time>
      </trkpt>
      <trkpt lat="45.671408800408244" lon="6.969466153532267">
        <ele>2181.6700000000001</ele>
        <time>2021-09-12T13:16:32Z</time>
      </trkpt>
      <trkpt lat="45.671480633318424" lon="6.96946288459003">
        <ele>2179.6399999999999</ele>
        <time>2021-09-12T13:16:44Z</time>
      </trkpt>
      <trkpt lat="45.671582808718085" lon="6.969454418867827">
        <ele>2177.5</ele>
        <time>2021-09-12T13:16:57Z</time>
      </trkpt>
      <trkpt lat="45.671655395999551" lon="6.969407731667161">
        <ele>2175.7399999999998</ele>
        <time>2021-09-12T13:17:10Z</time>
      </trkpt>
      <trkpt lat="45.671691270545125" lon="6.969395326450467">
        <ele>2174.8200000000002</ele>
        <time>2021-09-12T13:17:20Z</time>
      </trkpt>
      <trkpt lat="45.671720691025257" lon="6.969420472159982">
        <ele>2174.3899999999999</ele>
        <time>2021-09-12T13:17:29Z</time>
      </trkpt>
      <trkpt lat="45.671806605532765" lon="6.969440672546625">
        <ele>2172.8099999999999</ele>
        <time>2021-09-12T13:17:41Z</time>
      </trkpt>
      <trkpt lat="45.671858489513397" lon="6.969429943710566">
        <ele>2171.7399999999998</ele>
        <time>2021-09-12T13:17:47Z</time>
      </trkpt>
      <trkpt lat="45.671962173655629" lon="6.969399517402053">
        <ele>2169.9099999999999</ele>
        <time>2021-09-12T13:17:58Z</time>
      </trkpt>
      <trkpt lat="45.672086225822568" lon="6.969330115243793">
        <ele>2168.1100000000001</ele>
        <time>2021-09-12T13:18:11Z</time>
      </trkpt>
      <trkpt lat="45.672120926901698" lon="6.969320559874177">
        <ele>2167.8000000000002</ele>
        <time>2021-09-12T13:18:15Z</time>
      </trkpt>
      <trkpt lat="45.672129476442933" lon="6.969332294538617">
        <ele>2167.8699999999999</ele>
        <time>2021-09-12T13:18:16Z</time>
      </trkpt>
      <trkpt lat="45.67213567905128" lon="6.969345286488533">
        <ele>2167.8899999999999</ele>
        <time>2021-09-12T13:18:17Z</time>
      </trkpt>
      <trkpt lat="45.672147246077657" lon="6.969385268166661">
        <ele>2167.6900000000001</ele>
        <time>2021-09-12T13:18:28Z</time>
      </trkpt>
      <trkpt lat="45.672136098146439" lon="6.969378646463156">
        <ele>2166.6300000000001</ele>
        <time>2021-09-12T13:18:34Z</time>
      </trkpt>
      <trkpt lat="45.672159316018224" lon="6.969399349763989">
        <ele>2165.73</ele>
        <time>2021-09-12T13:19:03Z</time>
      </trkpt>
      <trkpt lat="45.67215227521956" lon="6.969396667554975">
        <ele>2166.1399999999999</ele>
        <time>2021-09-12T13:19:19Z</time>
      </trkpt>
      <trkpt lat="45.672155125066638" lon="6.969380490481854">
        <ele>2166.1300000000001</ele>
        <time>2021-09-12T13:19:45Z</time>
      </trkpt>
      <trkpt lat="45.672149928286672" lon="6.969381244853139">
        <ele>2165.0799999999999</ele>
        <time>2021-09-12T13:20:01Z</time>
      </trkpt>
      <trkpt lat="45.672150012105703" lon="6.969367414712906">
        <ele>2165.0100000000002</ele>
        <time>2021-09-12T13:20:35Z</time>
      </trkpt>
      <trkpt lat="45.6721449829638" lon="6.969350483268499">
        <ele>2164.9400000000001</ele>
        <time>2021-09-12T13:21:10Z</time>
      </trkpt>
      <trkpt lat="45.672155963256955" lon="6.96933975443244">
        <ele>2164.9299999999998</ele>
        <time>2021-09-12T13:21:51Z</time>
      </trkpt>
      <trkpt lat="45.672160238027573" lon="6.969328019768">
        <ele>2165.1700000000001</ele>
        <time>2021-09-12T13:22:26Z</time>
      </trkpt>
      <trkpt lat="45.672161327674985" lon="6.96932022459805">
        <ele>2165.1500000000001</ele>
        <time>2021-09-12T13:22:48Z</time>
      </trkpt>
      <trkpt lat="45.672149676829576" lon="6.969329779967666">
        <ele>2164.98</ele>
        <time>2021-09-12T13:23:17Z</time>
      </trkpt>
      <trkpt lat="45.672143809497356" lon="6.969353836029768">
        <ele>2164.9200000000001</ele>
        <time>2021-09-12T13:23:51Z</time>
      </trkpt>
      <trkpt lat="45.67214791662991" lon="6.969344448298216">
        <ele>2164.6700000000001</ele>
        <time>2021-09-12T13:24:27Z</time>
      </trkpt>
      <trkpt lat="45.672143558040261" lon="6.969338580965996">
        <ele>2165.27</ele>
        <time>2021-09-12T13:24:44Z</time>
      </trkpt>
      <trkpt lat="45.672142384573817" lon="6.969335563480854">
        <ele>2166.0100000000002</ele>
        <time>2021-09-12T13:24:57Z</time>
      </trkpt>
      <trkpt lat="45.672148419544101" lon="6.969330618157983">
        <ele>2166.0300000000002</ele>
        <time>2021-09-12T13:25:11Z</time>
      </trkpt>
      <trkpt lat="45.672144563868642" lon="6.96932366117835">
        <ele>2165.71</ele>
        <time>2021-09-12T13:25:28Z</time>
      </trkpt>
      <trkpt lat="45.672146491706371" lon="6.969307903200388">
        <ele>2165.77</ele>
        <time>2021-09-12T13:25:41Z</time>
      </trkpt>
      <trkpt lat="45.67214691080153" lon="6.969314776360989">
        <ele>2165.21</ele>
        <time>2021-09-12T13:26:04Z</time>
      </trkpt>
      <trkpt lat="45.672162920236588" lon="6.969313267618418">
        <ele>2164.23</ele>
        <time>2021-09-12T13:26:27Z</time>
      </trkpt>
      <trkpt lat="45.672158561646938" lon="6.969313435256481">
        <ele>2164.0799999999999</ele>
        <time>2021-09-12T13:27:01Z</time>
      </trkpt>
      <trkpt lat="45.672143809497356" lon="6.969333384186029">
        <ele>2164.3699999999999</ele>
        <time>2021-09-12T13:27:26Z</time>
      </trkpt>
      <trkpt lat="45.672137690708041" lon="6.969335144385696">
        <ele>2165.1999999999998</ele>
        <time>2021-09-12T13:27:34Z</time>
      </trkpt>
      <trkpt lat="45.672158896923065" lon="6.969352243468165">
        <ele>2165.1500000000001</ele>
        <time>2021-09-12T13:27:53Z</time>
      </trkpt>
      <trkpt lat="45.672161243855953" lon="6.969349309802055">
        <ele>2165.4699999999998</ele>
        <time>2021-09-12T13:28:18Z</time>
      </trkpt>
      <trkpt lat="45.6721674464643" lon="6.969320392236114">
        <ele>2164.9499999999998</ele>
        <time>2021-09-12T13:28:39Z</time>
      </trkpt>
      <trkpt lat="45.672207428142428" lon="6.969306813552976">
        <ele>2164.5999999999999</ele>
        <time>2021-09-12T13:28:44Z</time>
      </trkpt>
      <trkpt lat="45.672251600772142" lon="6.969291474670172">
        <ele>2164.29</ele>
        <time>2021-09-12T13:28:49Z</time>
      </trkpt>
      <trkpt lat="45.672366013750434" lon="6.969244200736284">
        <ele>2162.77</ele>
        <time>2021-09-12T13:29:01Z</time>
      </trkpt>
      <trkpt lat="45.672497525811195" lon="6.969183096662164">
        <ele>2161.73</ele>
        <time>2021-09-12T13:29:14Z</time>
      </trkpt>
      <trkpt lat="45.672564245760441" lon="6.969155771657825">
        <ele>2161.52</ele>
        <time>2021-09-12T13:29:21Z</time>
      </trkpt>
      <trkpt lat="45.672768177464604" lon="6.969186281785369">
        <ele>2160.9299999999998</ele>
        <time>2021-09-12T13:29:39Z</time>
      </trkpt>
      <trkpt lat="45.672886781394482" lon="6.969160633161664">
        <ele>2160.6999999999998</ele>
        <time>2021-09-12T13:29:50Z</time>
      </trkpt>
      <trkpt lat="45.672968253493309" lon="6.969178486615419">
        <ele>2159.9400000000001</ele>
        <time>2021-09-12T13:30:01Z</time>
      </trkpt>
      <trkpt lat="45.673066573217511" lon="6.969246715307236">
        <ele>2158.1900000000001</ele>
        <time>2021-09-12T13:30:14Z</time>
      </trkpt>
      <trkpt lat="45.673116529360414" lon="6.969250738620758">
        <ele>2157.46</ele>
        <time>2021-09-12T13:30:26Z</time>
      </trkpt>
      <trkpt lat="45.67312222905457" lon="6.969248726963997">
        <ele>2157.4299999999998</ele>
        <time>2021-09-12T13:30:37Z</time>
      </trkpt>
      <trkpt lat="45.673134215176105" lon="6.969252079725266">
        <ele>2157.2399999999998</ele>
        <time>2021-09-12T13:30:38Z</time>
      </trkpt>
      <trkpt lat="45.67314712330699" lon="6.96925425902009">
        <ele>2157.3800000000001</ele>
        <time>2021-09-12T13:30:39Z</time>
      </trkpt>
      <trkpt lat="45.673160115256906" lon="6.969254594296217">
        <ele>2157.4000000000001</ele>
        <time>2021-09-12T13:30:40Z</time>
      </trkpt>
      <trkpt lat="45.673172352835536" lon="6.969255013391376">
        <ele>2157.3099999999999</ele>
        <time>2021-09-12T13:30:41Z</time>
      </trkpt>
      <trkpt lat="45.673357928171754" lon="6.969255600124598">
        <ele>2156.0100000000002</ele>
        <time>2021-09-12T13:30:57Z</time>
      </trkpt>
      <trkpt lat="45.673367399722338" lon="6.969256103038788">
        <ele>2155.9099999999999</ele>
        <time>2021-09-12T13:30:58Z</time>
      </trkpt>
      <trkpt lat="45.673484914004803" lon="6.969255600124598">
        <ele>2154.5100000000002</ele>
        <time>2021-09-12T13:31:11Z</time>
      </trkpt>
      <trkpt lat="45.673597818240523" lon="6.969248140230775">
        <ele>2154.5900000000001</ele>
        <time>2021-09-12T13:31:23Z</time>
      </trkpt>
      <trkpt lat="45.673682894557714" lon="6.969230035319924">
        <ele>2156.04</ele>
        <time>2021-09-12T13:31:35Z</time>
      </trkpt>
      <trkpt lat="45.673730000853539" lon="6.969240428879857">
        <ele>2155.6500000000001</ele>
        <time>2021-09-12T13:31:43Z</time>
      </trkpt>
      <trkpt lat="45.673811305314302" lon="6.969266412779689">
        <ele>2155.5</ele>
        <time>2021-09-12T13:31:55Z</time>
      </trkpt>
      <trkpt lat="45.673828069120646" lon="6.969255683943629">
        <ele>2155.4000000000001</ele>
        <time>2021-09-12T13:31:57Z</time>
      </trkpt>
      <trkpt lat="45.673903506249189" lon="6.969212517142296">
        <ele>2155.98</ele>
        <time>2021-09-12T13:32:09Z</time>
      </trkpt>
      <trkpt lat="45.673908032476902" lon="6.96910229511559">
        <ele>2157.4499999999998</ele>
        <time>2021-09-12T13:32:21Z</time>
      </trkpt>
      <trkpt lat="45.673894789069891" lon="6.968992659822106">
        <ele>2158.6700000000001</ele>
        <time>2021-09-12T13:32:32Z</time>
      </trkpt>
      <trkpt lat="45.67387324757874" lon="6.968893669545651">
        <ele>2159.1599999999999</ele>
        <time>2021-09-12T13:32:43Z</time>
      </trkpt>
      <trkpt lat="45.67385665141046" lon="6.96887506172061">
        <ele>2158.9299999999998</ele>
        <time>2021-09-12T13:32:46Z</time>
      </trkpt>
      <trkpt lat="45.673848185688257" lon="6.968864165246487">
        <ele>2158.6799999999998</ele>
        <time>2021-09-12T13:32:47Z</time>
      </trkpt>
      <trkpt lat="45.673808958381414" lon="6.968816220760346">
        <ele>2159.54</ele>
        <time>2021-09-12T13:33:00Z</time>
      </trkpt>
      <trkpt lat="45.673786662518978" lon="6.968726785853505">
        <ele>2160.5500000000002</ele>
        <time>2021-09-12T13:33:18Z</time>
      </trkpt>
      <trkpt lat="45.673785572871566" lon="6.968552777543664">
        <ele>2160.4099999999999</ele>
        <time>2021-09-12T13:33:33Z</time>
      </trkpt>
      <trkpt lat="45.673783142119646" lon="6.968526626005769">
        <ele>2160.1700000000001</ele>
        <time>2021-09-12T13:33:35Z</time>
      </trkpt>
      <trkpt lat="45.673825722187757" lon="6.968392012640834">
        <ele>2158.6300000000001</ele>
        <time>2021-09-12T13:33:48Z</time>
      </trkpt>
      <trkpt lat="45.673859417438507" lon="6.968328058719635">
        <ele>2156.9200000000001</ele>
        <time>2021-09-12T13:34:00Z</time>
      </trkpt>
      <trkpt lat="45.673902165144682" lon="6.968294950202107">
        <ele>2154.8400000000001</ele>
        <time>2021-09-12T13:34:13Z</time>
      </trkpt>
      <trkpt lat="45.673948181793094" lon="6.968266535550356">
        <ele>2152.3400000000001</ele>
        <time>2021-09-12T13:34:25Z</time>
      </trkpt>
      <trkpt lat="45.673977266997099" lon="6.96826821193099">
        <ele>2151.4899999999998</ele>
        <time>2021-09-12T13:34:37Z</time>
      </trkpt>
      <trkpt lat="45.674024373292923" lon="6.968232421204448">
        <ele>2149.6100000000001</ele>
        <time>2021-09-12T13:34:47Z</time>
      </trkpt>
      <trkpt lat="45.674074832350016" lon="6.968202413991094">
        <ele>2148.5</ele>
        <time>2021-09-12T13:34:54Z</time>
      </trkpt>
      <trkpt lat="45.674128476530313" lon="6.968197133392096">
        <ele>2147.0300000000002</ele>
        <time>2021-09-12T13:35:02Z</time>
      </trkpt>
      <trkpt lat="45.674140714108944" lon="6.968198558315635">
        <ele>2146.9299999999998</ele>
        <time>2021-09-12T13:35:03Z</time>
      </trkpt>
      <trkpt lat="45.674239620566368" lon="6.968210795894265">
        <ele>2145.4699999999998</ele>
        <time>2021-09-12T13:35:14Z</time>
      </trkpt>
      <trkpt lat="45.674250265583396" lon="6.968213059008122">
        <ele>2145.2199999999998</ele>
        <time>2021-09-12T13:35:15Z</time>
      </trkpt>
      <trkpt lat="45.674289492890239" lon="6.968184309080243">
        <ele>2144.9400000000001</ele>
        <time>2021-09-12T13:35:22Z</time>
      </trkpt>
      <trkpt lat="45.674305083230138" lon="6.968124210834503">
        <ele>2144.1199999999999</ele>
        <time>2021-09-12T13:35:28Z</time>
      </trkpt>
      <trkpt lat="45.674306424334645" lon="6.968108788132668">
        <ele>2144.1799999999998</ele>
        <time>2021-09-12T13:35:29Z</time>
      </trkpt>
      <trkpt lat="45.674326624721289" lon="6.967998230829835">
        <ele>2144.1700000000001</ele>
        <time>2021-09-12T13:35:42Z</time>
      </trkpt>
      <trkpt lat="45.674325954169035" lon="6.967923380434513">
        <ele>2142.0100000000002</ele>
        <time>2021-09-12T13:35:53Z</time>
      </trkpt>
      <trkpt lat="45.674311202019453" lon="6.967792371287942">
        <ele>2140.6999999999998</ele>
        <time>2021-09-12T13:36:06Z</time>
      </trkpt>
      <trkpt lat="45.674298461526632" lon="6.967739397659898">
        <ele>2139.5900000000001</ele>
        <time>2021-09-12T13:36:21Z</time>
      </trkpt>
      <trkpt lat="45.674282368272543" lon="6.967686088755727">
        <ele>2138.8899999999999</ele>
        <time>2021-09-12T13:36:36Z</time>
      </trkpt>
      <trkpt lat="45.67425923421979" lon="6.967577124014497">
        <ele>2137.8000000000002</ele>
        <time>2021-09-12T13:36:48Z</time>
      </trkpt>
      <trkpt lat="45.674261497333646" lon="6.967500932514668">
        <ele>2136.71</ele>
        <time>2021-09-12T13:36:55Z</time>
      </trkpt>
      <trkpt lat="45.67426267080009" lon="6.967486096546054">
        <ele>2136.6799999999998</ele>
        <time>2021-09-12T13:36:56Z</time>
      </trkpt>
      <trkpt lat="45.674268119037151" lon="6.967468913644552">
        <ele>2136.3699999999999</ele>
        <time>2021-09-12T13:36:57Z</time>
      </trkpt>
      <trkpt lat="45.674281446263194" lon="6.96740822866559">
        <ele>2135.52</ele>
        <time>2021-09-12T13:37:07Z</time>
      </trkpt>
      <trkpt lat="45.674291672185063" lon="6.967362379655242">
        <ele>2135.3899999999999</ele>
        <time>2021-09-12T13:37:20Z</time>
      </trkpt>
      <trkpt lat="45.674289744347334" lon="6.967332707718015">
        <ele>2134.6199999999999</ele>
        <time>2021-09-12T13:37:22Z</time>
      </trkpt>
      <trkpt lat="45.674277590587735" lon="6.967174289748073">
        <ele>2133.3099999999999</ele>
        <time>2021-09-12T13:37:34Z</time>
      </trkpt>
      <trkpt lat="45.674310782924294" lon="6.967069515958428">
        <ele>2133.4000000000001</ele>
        <time>2021-09-12T13:37:45Z</time>
      </trkpt>
      <trkpt lat="45.674339616671205" lon="6.96695719845593">
        <ele>2132.73</ele>
        <time>2021-09-12T13:37:57Z</time>
      </trkpt>
      <trkpt lat="45.674357553943992" lon="6.966954683884978">
        <ele>2133.3000000000002</ele>
        <time>2021-09-12T13:38:08Z</time>
      </trkpt>
      <trkpt lat="45.67435109987855" lon="6.966924173757434">
        <ele>2132.3699999999999</ele>
        <time>2021-09-12T13:38:16Z</time>
      </trkpt>
      <trkpt lat="45.674364930018783" lon="6.966928699985147">
        <ele>2132.5900000000001</ele>
        <time>2021-09-12T13:38:25Z</time>
      </trkpt>
      <trkpt lat="45.674355290830135" lon="6.966922581195831">
        <ele>2132.4899999999998</ele>
        <time>2021-09-12T13:38:43Z</time>
      </trkpt>
      <trkpt lat="45.674359817057848" lon="6.96692886762321">
        <ele>2132.2600000000002</ele>
        <time>2021-09-12T13:39:08Z</time>
      </trkpt>
      <trkpt lat="45.674315476790071" lon="6.966926520690322">
        <ele>2132.0799999999999</ele>
        <time>2021-09-12T13:39:22Z</time>
      </trkpt>
      <trkpt lat="45.674341795966029" lon="6.96685946546495">
        <ele>2130.8400000000001</ele>
        <time>2021-09-12T13:39:32Z</time>
      </trkpt>
      <trkpt lat="45.674376329407096" lon="6.966828871518374">
        <ele>2129.9400000000001</ele>
        <time>2021-09-12T13:39:47Z</time>
      </trkpt>
      <trkpt lat="45.674403151497245" lon="6.966777490451932">
        <ele>2127.6399999999999</ele>
        <time>2021-09-12T13:39:57Z</time>
      </trkpt>
      <trkpt lat="45.674433493986726" lon="6.966709345579147">
        <ele>2125.46</ele>
        <time>2021-09-12T13:40:09Z</time>
      </trkpt>
      <trkpt lat="45.67446987144649" lon="6.966689899563789">
        <ele>2124.3000000000002</ele>
        <time>2021-09-12T13:40:22Z</time>
      </trkpt>
      <trkpt lat="45.674558971077204" lon="6.966693000867963">
        <ele>2122.4699999999998</ele>
        <time>2021-09-12T13:40:33Z</time>
      </trkpt>
      <trkpt lat="45.67460473626852" lon="6.96670850738883">
        <ele>2122.2600000000002</ele>
        <time>2021-09-12T13:40:45Z</time>
      </trkpt>
      <trkpt lat="45.674669444561005" lon="6.966734994202852">
        <ele>2119.77</ele>
        <time>2021-09-12T13:41:02Z</time>
      </trkpt>
      <trkpt lat="45.674688471481204" lon="6.966752177104354">
        <ele>2119.2199999999998</ele>
        <time>2021-09-12T13:41:05Z</time>
      </trkpt>
      <trkpt lat="45.674697859212756" lon="6.966761145740748">
        <ele>2118.9499999999998</ele>
        <time>2021-09-12T13:41:06Z</time>
      </trkpt>
      <trkpt lat="45.67472392693162" lon="6.966774808242917">
        <ele>2118.25</ele>
        <time>2021-09-12T13:41:19Z</time>
      </trkpt>
      <trkpt lat="45.674732811748981" lon="6.96678277105093">
        <ele>2118.1900000000001</ele>
        <time>2021-09-12T13:41:20Z</time>
      </trkpt>
      <trkpt lat="45.67479969933629" lon="6.966832224279642">
        <ele>2116.8899999999999</ele>
        <time>2021-09-12T13:41:31Z</time>
      </trkpt>
      <trkpt lat="45.674842530861497" lon="6.966849658638239">
        <ele>2115.5300000000002</ele>
        <time>2021-09-12T13:41:43Z</time>
      </trkpt>
      <trkpt lat="45.674866419285536" lon="6.966858375817537">
        <ele>2114.6700000000001</ele>
        <time>2021-09-12T13:41:55Z</time>
      </trkpt>
      <trkpt lat="45.674891648814082" lon="6.9668482337147">
        <ele>2113.5100000000002</ele>
        <time>2021-09-12T13:42:09Z</time>
      </trkpt>
      <trkpt lat="45.674941269680858" lon="6.966891484335065">
        <ele>2112.1100000000001</ele>
        <time>2021-09-12T13:42:20Z</time>
      </trkpt>
      <trkpt lat="45.674949986860156" lon="6.966902129352093">
        <ele>2111.8400000000001</ele>
        <time>2021-09-12T13:42:21Z</time>
      </trkpt>
      <trkpt lat="45.674960548058152" lon="6.966911852359772">
        <ele>2111.6799999999998</ele>
        <time>2021-09-12T13:42:22Z</time>
      </trkpt>
      <trkpt lat="45.674972366541624" lon="6.966920485720038">
        <ele>2111.3400000000001</ele>
        <time>2021-09-12T13:42:23Z</time>
      </trkpt>
      <trkpt lat="45.674983598291874" lon="6.966928616166115">
        <ele>2111.1700000000001</ele>
        <time>2021-09-12T13:42:24Z</time>
      </trkpt>
      <trkpt lat="45.674993488937616" lon="6.966935656964779">
        <ele>2110.9499999999998</ele>
        <time>2021-09-12T13:42:25Z</time>
      </trkpt>
      <trkpt lat="45.675096837803721" lon="6.967001287266612">
        <ele>2109.0100000000002</ele>
        <time>2021-09-12T13:42:37Z</time>
      </trkpt>
      <trkpt lat="45.675105219706893" lon="6.967012519016862">
        <ele>2108.8499999999999</ele>
        <time>2021-09-12T13:42:38Z</time>
      </trkpt>
      <trkpt lat="45.67521795630455" lon="6.967112012207508">
        <ele>2106.6100000000001</ele>
        <time>2021-09-12T13:42:52Z</time>
      </trkpt>
      <trkpt lat="45.675273025408387" lon="6.967126009985805">
        <ele>2105.6300000000001</ele>
        <time>2021-09-12T13:42:58Z</time>
      </trkpt>
      <trkpt lat="45.675283502787352" lon="6.967134140431881">
        <ele>2105.5100000000002</ele>
        <time>2021-09-12T13:42:59Z</time>
      </trkpt>
      <trkpt lat="45.675350725650787" lon="6.967257019132376">
        <ele>2104.6399999999999</ele>
        <time>2021-09-12T13:43:10Z</time>
      </trkpt>
      <trkpt lat="45.67536941729486" lon="6.967324996367097">
        <ele>2105.0100000000002</ele>
        <time>2021-09-12T13:43:23Z</time>
      </trkpt>
      <trkpt lat="45.675416104495525" lon="6.967381406575441">
        <ele>2106.29</ele>
        <time>2021-09-12T13:43:35Z</time>
      </trkpt>
      <trkpt lat="45.675447033718228" lon="6.967421555891633">
        <ele>2106.79</ele>
        <time>2021-09-12T13:43:40Z</time>
      </trkpt>
      <trkpt lat="45.675500677898526" lon="6.967508476227522">
        <ele>2106.3299999999999</ele>
        <time>2021-09-12T13:43:52Z</time>
      </trkpt>
      <trkpt lat="45.67551794461906" lon="6.967532532289624">
        <ele>2106.0700000000002</ele>
        <time>2021-09-12T13:43:55Z</time>
      </trkpt>
      <trkpt lat="45.67554677836597" lon="6.967584248632193">
        <ele>2105.5300000000002</ele>
        <time>2021-09-12T13:44:00Z</time>
      </trkpt>
      <trkpt lat="45.675624562427402" lon="6.967658428475261">
        <ele>2104.6999999999998</ele>
        <time>2021-09-12T13:44:14Z</time>
      </trkpt>
      <trkpt lat="45.675674686208367" lon="6.967704864218831">
        <ele>2103.1999999999998</ele>
        <time>2021-09-12T13:44:27Z</time>
      </trkpt>
      <trkpt lat="45.675712740048766" lon="6.967764459550381">
        <ele>2102.3099999999999</ele>
        <time>2021-09-12T13:44:36Z</time>
      </trkpt>
      <trkpt lat="45.675756493583322" lon="6.96780988946557">
        <ele>2101.0799999999999</ele>
        <time>2021-09-12T13:44:42Z</time>
      </trkpt>
      <trkpt lat="45.675766551867127" lon="6.967815002426505">
        <ele>2101.1100000000001</ele>
        <time>2021-09-12T13:44:43Z</time>
      </trkpt>
      <trkpt lat="45.675854813307524" lon="6.967871747910976">
        <ele>2100.7800000000002</ele>
        <time>2021-09-12T13:44:56Z</time>
      </trkpt>
      <trkpt lat="45.675885574892163" lon="6.967922374606133">
        <ele>2101.5799999999999</ele>
        <time>2021-09-12T13:45:08Z</time>
      </trkpt>
      <trkpt lat="45.675951037555933" lon="6.967997644096613">
        <ele>2101.6900000000001</ele>
        <time>2021-09-12T13:45:20Z</time>
      </trkpt>
      <trkpt lat="45.675964867696166" lon="6.968017760664225">
        <ele>2101.6100000000001</ele>
        <time>2021-09-12T13:45:22Z</time>
      </trkpt>
      <trkpt lat="45.675988923758268" lon="6.968100909143686">
        <ele>2102.2199999999998</ele>
        <time>2021-09-12T13:45:33Z</time>
      </trkpt>
      <trkpt lat="45.676003592088819" lon="6.968177352100611">
        <ele>2103.79</ele>
        <time>2021-09-12T13:45:46Z</time>
      </trkpt>
      <trkpt lat="45.676029492169619" lon="6.968301488086581">
        <ele>2104.3699999999999</ele>
        <time>2021-09-12T13:46:00Z</time>
      </trkpt>
      <trkpt lat="45.676065282896161" lon="6.968403244391084">
        <ele>2105.3099999999999</ele>
        <time>2021-09-12T13:46:14Z</time>
      </trkpt>
      <trkpt lat="45.676093865185976" lon="6.968499049544334">
        <ele>2105.4299999999998</ele>
        <time>2021-09-12T13:46:26Z</time>
      </trkpt>
      <trkpt lat="45.676119346171618" lon="6.968564512208104">
        <ele>2106.1399999999999</ele>
        <time>2021-09-12T13:46:38Z</time>
      </trkpt>
      <trkpt lat="45.676166703924537" lon="6.968673476949334">
        <ele>2107.29</ele>
        <time>2021-09-12T13:46:49Z</time>
      </trkpt>
      <trkpt lat="45.676207272335887" lon="6.96873432956636">
        <ele>2107.6100000000001</ele>
        <time>2021-09-12T13:46:58Z</time>
      </trkpt>
      <trkpt lat="45.676265778020024" lon="6.968801384791732">
        <ele>2108.48</ele>
        <time>2021-09-12T13:47:09Z</time>
      </trkpt>
      <trkpt lat="45.676305005326867" lon="6.968815885484219">
        <ele>2109.0900000000001</ele>
        <time>2021-09-12T13:47:15Z</time>
      </trkpt>
      <trkpt lat="45.676344651728868" lon="6.9688980281353">
        <ele>2109.3899999999999</ele>
        <time>2021-09-12T13:47:25Z</time>
      </trkpt>
      <trkpt lat="45.676373653113842" lon="6.968956366181374">
        <ele>2109.4000000000001</ele>
        <time>2021-09-12T13:47:39Z</time>
      </trkpt>
      <trkpt lat="45.67638773471117" lon="6.968974303454161">
        <ele>2108.9699999999998</ele>
        <time>2021-09-12T13:47:53Z</time>
      </trkpt>
      <trkpt lat="45.676418831571937" lon="6.969023589044809">
        <ele>2108.29</ele>
        <time>2021-09-12T13:48:11Z</time>
      </trkpt>
      <trkpt lat="45.676464093849063" lon="6.969043035060167">
        <ele>2107.5799999999999</ele>
        <time>2021-09-12T13:48:22Z</time>
      </trkpt>
      <trkpt lat="45.676457220688462" lon="6.968986373394728">
        <ele>2106.5500000000002</ele>
        <time>2021-09-12T13:48:35Z</time>
      </trkpt>
      <trkpt lat="45.676453281193972" lon="6.968894172459841">
        <ele>2104.4499999999998</ele>
        <time>2021-09-12T13:48:49Z</time>
      </trkpt>
      <trkpt lat="45.676499884575605" lon="6.968845305964351">
        <ele>2102.3099999999999</ele>
        <time>2021-09-12T13:49:01Z</time>
      </trkpt>
      <trkpt lat="45.676466105505824" lon="6.968763917684555">
        <ele>2100.3000000000002</ele>
        <time>2021-09-12T13:49:11Z</time>
      </trkpt>
      <trkpt lat="45.676409108564258" lon="6.968673057854176">
        <ele>2098.5799999999999</ele>
        <time>2021-09-12T13:49:23Z</time>
      </trkpt>
      <trkpt lat="45.676390081644058" lon="6.968653695657849">
        <ele>2098.1300000000001</ele>
        <time>2021-09-12T13:49:38Z</time>
      </trkpt>
      <trkpt lat="45.676379017531872" lon="6.968637770041823">
        <ele>2096.75</ele>
        <time>2021-09-12T13:49:48Z</time>
      </trkpt>
      <trkpt lat="45.676371976733208" lon="6.968595776706934">
        <ele>2095.5500000000002</ele>
        <time>2021-09-12T13:50:01Z</time>
      </trkpt>
      <trkpt lat="45.676350267603993" lon="6.968523692339659">
        <ele>2093.3299999999999</ele>
        <time>2021-09-12T13:50:13Z</time>
      </trkpt>
      <trkpt lat="45.676338030025363" lon="6.968468874692917">
        <ele>2091.4200000000001</ele>
        <time>2021-09-12T13:50:26Z</time>
      </trkpt>
      <trkpt lat="45.67634423263371" lon="6.968434927985072">
        <ele>2090.8600000000001</ele>
        <time>2021-09-12T13:50:37Z</time>
      </trkpt>
      <trkpt lat="45.6763153988868" lon="6.968363597989082">
        <ele>2088.9200000000001</ele>
        <time>2021-09-12T13:50:46Z</time>
      </trkpt>
      <trkpt lat="45.676324032247066" lon="6.968330154195428">
        <ele>2088.5900000000001</ele>
        <time>2021-09-12T13:50:58Z</time>
      </trkpt>
      <trkpt lat="45.676322188228369" lon="6.968311965465546">
        <ele>2088.3899999999999</ele>
        <time>2021-09-12T13:51:17Z</time>
      </trkpt>
      <trkpt lat="45.676289750263095" lon="6.968229822814465">
        <ele>2086.79</ele>
        <time>2021-09-12T13:51:27Z</time>
      </trkpt>
      <trkpt lat="45.676289582625031" lon="6.968169808387756">
        <ele>2084.79</ele>
        <time>2021-09-12T13:51:37Z</time>
      </trkpt>
      <trkpt lat="45.676270220428705" lon="6.968157738447189">
        <ele>2083.71</ele>
        <time>2021-09-12T13:51:48Z</time>
      </trkpt>
      <trkpt lat="45.676249098032713" lon="6.968152457848191">
        <ele>2082.9400000000001</ele>
        <time>2021-09-12T13:52:04Z</time>
      </trkpt>
      <trkpt lat="45.67622160539031" lon="6.968096299096942">
        <ele>2080.9000000000001</ele>
        <time>2021-09-12T13:52:14Z</time>
      </trkpt>
      <trkpt lat="45.676183132454753" lon="6.968025891110301">
        <ele>2078.5500000000002</ele>
        <time>2021-09-12T13:52:28Z</time>
      </trkpt>
      <trkpt lat="45.676182378083467" lon="6.967963194474578">
        <ele>2076.75</ele>
        <time>2021-09-12T13:52:39Z</time>
      </trkpt>
      <trkpt lat="45.676152119413018" lon="6.967899994924665">
        <ele>2074.98</ele>
        <time>2021-09-12T13:52:52Z</time>
      </trkpt>
      <trkpt lat="45.676157819107175" lon="6.967832604423165">
        <ele>2073.4299999999998</ele>
        <time>2021-09-12T13:53:05Z</time>
      </trkpt>
      <trkpt lat="45.676179360598326" lon="6.96779957972467">
        <ele>2072.21</ele>
        <time>2021-09-12T13:53:18Z</time>
      </trkpt>
      <trkpt lat="45.676155472174287" lon="6.967686004936695">
        <ele>2069.1700000000001</ele>
        <time>2021-09-12T13:53:31Z</time>
      </trkpt>
      <trkpt lat="45.676141222938895" lon="6.967635126784444">
        <ele>2068.3099999999999</ele>
        <time>2021-09-12T13:53:45Z</time>
      </trkpt>
      <trkpt lat="45.676146922633052" lon="6.967606041580439">
        <ele>2067.5100000000002</ele>
        <time>2021-09-12T13:53:57Z</time>
      </trkpt>
      <trkpt lat="45.676195956766605" lon="6.967643005773425">
        <ele>2065.4000000000001</ele>
        <time>2021-09-12T13:54:09Z</time>
      </trkpt>
      <trkpt lat="45.676207859069109" lon="6.967648873105645">
        <ele>2065.0100000000002</ele>
        <time>2021-09-12T13:54:10Z</time>
      </trkpt>
      <trkpt lat="45.676265610381961" lon="6.967639653012157">
        <ele>2062.04</ele>
        <time>2021-09-12T13:54:19Z</time>
      </trkpt>
      <trkpt lat="45.676250606775284" lon="6.967565976083279">
        <ele>2060.7800000000002</ele>
        <time>2021-09-12T13:54:29Z</time>
      </trkpt>
      <trkpt lat="45.676222443580627" lon="6.967499926686287">
        <ele>2058.46</ele>
        <time>2021-09-12T13:54:40Z</time>
      </trkpt>
      <trkpt lat="45.676152454689145" lon="6.967449970543385">
        <ele>2057</ele>
        <time>2021-09-12T13:54:51Z</time>
      </trkpt>
      <trkpt lat="45.676117921248078" lon="6.967414850369096">
        <ele>2055.8699999999999</ele>
        <time>2021-09-12T13:55:03Z</time>
      </trkpt>
      <trkpt lat="45.676123704761267" lon="6.967384340241551">
        <ele>2055.4299999999998</ele>
        <time>2021-09-12T13:55:11Z</time>
      </trkpt>
      <trkpt lat="45.676149018108845" lon="6.967372186481953">
        <ele>2055.3000000000002</ele>
        <time>2021-09-12T13:55:33Z</time>
      </trkpt>
      <trkpt lat="45.676157483831048" lon="6.967368917539716">
        <ele>2055.02</ele>
        <time>2021-09-12T13:56:11Z</time>
      </trkpt>
      <trkpt lat="45.676144491881132" lon="6.967325666919351">
        <ele>2054.3899999999999</ele>
        <time>2021-09-12T13:56:30Z</time>
      </trkpt>
      <trkpt lat="45.676093026995659" lon="6.967254923656583">
        <ele>2052.0700000000002</ele>
        <time>2021-09-12T13:56:40Z</time>
      </trkpt>
      <trkpt lat="45.676083723083138" lon="6.967246290296316">
        <ele>2051.8699999999999</ele>
        <time>2021-09-12T13:56:41Z</time>
      </trkpt>
      <trkpt lat="45.676038209348917" lon="6.967207649722695">
        <ele>2050.96</ele>
        <time>2021-09-12T13:56:54Z</time>
      </trkpt>
      <trkpt lat="45.676038879901171" lon="6.967124668881297">
        <ele>2048.3800000000001</ele>
        <time>2021-09-12T13:57:05Z</time>
      </trkpt>
      <trkpt lat="45.676047177985311" lon="6.967051662504673">
        <ele>2045.9300000000001</ele>
        <time>2021-09-12T13:57:17Z</time>
      </trkpt>
      <trkpt lat="45.67605203948915" lon="6.967048225924373">
        <ele>2045.23</ele>
        <time>2021-09-12T13:57:30Z</time>
      </trkpt>
      <trkpt lat="45.676056649535894" lon="6.966983517631888">
        <ele>2043.8099999999999</ele>
        <time>2021-09-12T13:57:46Z</time>
      </trkpt>
      <trkpt lat="45.676056984812021" lon="6.966947726905346">
        <ele>2042.3299999999999</ele>
        <time>2021-09-12T13:57:49Z</time>
      </trkpt>
      <trkpt lat="45.67605690099299" lon="6.966931549832225">
        <ele>2042.0599999999999</ele>
        <time>2021-09-12T13:57:50Z</time>
      </trkpt>
      <trkpt lat="45.676061175763607" lon="6.966917803511024">
        <ele>2041.72</ele>
        <time>2021-09-12T13:57:51Z</time>
      </trkpt>
      <trkpt lat="45.676092524081469" lon="6.966883186250925">
        <ele>2039.6300000000001</ele>
        <time>2021-09-12T13:57:59Z</time>
      </trkpt>
      <trkpt lat="45.676101827993989" lon="6.966862566769123">
        <ele>2038.4100000000001</ele>
        <time>2021-09-12T13:58:12Z</time>
      </trkpt>
      <trkpt lat="45.676153376698494" lon="6.966830966994166">
        <ele>2035.78</ele>
        <time>2021-09-12T13:58:23Z</time>
      </trkpt>
      <trkpt lat="45.676170894876122" lon="6.966788051649928">
        <ele>2034.51</ele>
        <time>2021-09-12T13:58:27Z</time>
      </trkpt>
      <trkpt lat="45.676164273172617" lon="6.966702556237578">
        <ele>2031.51</ele>
        <time>2021-09-12T13:58:36Z</time>
      </trkpt>
      <trkpt lat="45.676153376698494" lon="6.966666933149099">
        <ele>2030.3399999999999</ele>
        <time>2021-09-12T13:58:46Z</time>
      </trkpt>
      <trkpt lat="45.676177768036723" lon="6.966677326709032">
        <ele>2030.3399999999999</ele>
        <time>2021-09-12T13:58:57Z</time>
      </trkpt>
      <trkpt lat="45.676175421103835" lon="6.96667673997581">
        <ele>2030.5999999999999</ele>
        <time>2021-09-12T13:59:20Z</time>
      </trkpt>
      <trkpt lat="45.676176678389311" lon="6.966670537367463">
        <ele>2030.48</ele>
        <time>2021-09-12T13:59:42Z</time>
      </trkpt>
      <trkpt lat="45.676203584298491" lon="6.966674812138081">
        <ele>2030.3399999999999</ele>
        <time>2021-09-12T14:00:03Z</time>
      </trkpt>
      <trkpt lat="45.676210289821029" lon="6.966685373336077">
        <ele>2030.26</ele>
        <time>2021-09-12T14:00:04Z</time>
      </trkpt>
      <trkpt lat="45.676218587905169" lon="6.966694258153439">
        <ele>2030.3599999999999</ele>
        <time>2021-09-12T14:00:05Z</time>
      </trkpt>
      <trkpt lat="45.676228562369943" lon="6.966698532924056">
        <ele>2030.27</ele>
        <time>2021-09-12T14:00:06Z</time>
      </trkpt>
      <trkpt lat="45.676239458844066" lon="6.966700879856944">
        <ele>2030.1199999999999</ele>
        <time>2021-09-12T14:00:07Z</time>
      </trkpt>
      <trkpt lat="45.67624943330884" lon="6.966706495732069">
        <ele>2029.9300000000001</ele>
        <time>2021-09-12T14:00:08Z</time>
      </trkpt>
      <trkpt lat="45.676259575411677" lon="6.96671437472105">
        <ele>2030.03</ele>
        <time>2021-09-12T14:00:09Z</time>
      </trkpt>
      <trkpt lat="45.676270639523864" lon="6.966720493510366">
        <ele>2029.9100000000001</ele>
        <time>2021-09-12T14:00:10Z</time>
      </trkpt>
      <trkpt lat="45.676282206550241" lon="6.966723678633571">
        <ele>2029.8099999999999</ele>
        <time>2021-09-12T14:00:11Z</time>
      </trkpt>
      <trkpt lat="45.67629343830049" lon="6.966724852100015">
        <ele>2029.8800000000001</ele>
        <time>2021-09-12T14:00:12Z</time>
      </trkpt>
      <trkpt lat="45.676305172964931" lon="6.966729043051601">
        <ele>2029.75</ele>
        <time>2021-09-12T14:00:13Z</time>
      </trkpt>
      <trkpt lat="45.676313806325197" lon="6.96673926897347">
        <ele>2029.5699999999999</ele>
        <time>2021-09-12T14:00:14Z</time>
      </trkpt>
      <trkpt lat="45.676320344209671" lon="6.966752512380481">
        <ele>2029.45</ele>
        <time>2021-09-12T14:00:15Z</time>
      </trkpt>
      <trkpt lat="45.676323780789971" lon="6.966767515987158">
        <ele>2029.3800000000001</ele>
        <time>2021-09-12T14:00:16Z</time>
      </trkpt>
      <trkpt lat="45.676326127722859" lon="6.966783022508025">
        <ele>2029.3499999999999</ele>
        <time>2021-09-12T14:00:17Z</time>
      </trkpt>
      <trkpt lat="45.676363008096814" lon="6.966876480728388">
        <ele>2029.3199999999999</ele>
        <time>2021-09-12T14:00:25Z</time>
      </trkpt>
      <trkpt lat="45.676371389999986" lon="6.966887544840574">
        <ele>2029.4000000000001</ele>
        <time>2021-09-12T14:00:26Z</time>
      </trkpt>
      <trkpt lat="45.676380610093474" lon="6.966923670843244">
        <ele>2029.53</ele>
        <time>2021-09-12T14:00:29Z</time>
      </trkpt>
      <trkpt lat="45.676386225968599" lon="6.966966418549418">
        <ele>2029.75</ele>
        <time>2021-09-12T14:00:40Z</time>
      </trkpt>
      <trkpt lat="45.676391674205661" lon="6.966972453519702">
        <ele>2029.26</ele>
        <time>2021-09-12T14:01:02Z</time>
      </trkpt>
      <trkpt lat="45.676456717774272" lon="6.96703439578414">
        <ele>2027.5</ele>
        <time>2021-09-12T14:01:14Z</time>
      </trkpt>
      <trkpt lat="45.676495777443051" lon="6.967048142105341">
        <ele>2025.8399999999999</ele>
        <time>2021-09-12T14:01:25Z</time>
      </trkpt>
      <trkpt lat="45.676485970616341" lon="6.966985948383808">
        <ele>2024.5899999999999</ele>
        <time>2021-09-12T14:01:38Z</time>
      </trkpt>
      <trkpt lat="45.676462249830365" lon="6.966950912028551">
        <ele>2024.0999999999999</ele>
        <time>2021-09-12T14:01:53Z</time>
      </trkpt>
      <trkpt lat="45.67649032920599" lon="6.966934818774462">
        <ele>2022.74</ele>
        <time>2021-09-12T14:01:58Z</time>
      </trkpt>
      <trkpt lat="45.676529724150896" lon="6.966997934505343">
        <ele>2021.6400000000001</ele>
        <time>2021-09-12T14:02:05Z</time>
      </trkpt>
      <trkpt lat="45.676537351682782" lon="6.967010507360101">
        <ele>2021.3199999999999</ele>
        <time>2021-09-12T14:02:06Z</time>
      </trkpt>
      <trkpt lat="45.676607508212328" lon="6.967111928388476">
        <ele>2018.49</ele>
        <time>2021-09-12T14:02:18Z</time>
      </trkpt>
      <trkpt lat="45.676662744954228" lon="6.967147719115019">
        <ele>2016.74</ele>
        <time>2021-09-12T14:02:26Z</time>
      </trkpt>
      <trkpt lat="45.676674144342542" lon="6.967104049399495">
        <ele>2015.73</ele>
        <time>2021-09-12T14:02:33Z</time>
      </trkpt>
      <trkpt lat="45.676634078845382" lon="6.967015117406845">
        <ele>2012.75</ele>
        <time>2021-09-12T14:02:44Z</time>
      </trkpt>
      <trkpt lat="45.676634078845382" lon="6.966960299760103">
        <ele>2011.9100000000001</ele>
        <time>2021-09-12T14:02:53Z</time>
      </trkpt>
      <trkpt lat="45.676625864580274" lon="6.966869020834565">
        <ele>2009.6500000000001</ele>
        <time>2021-09-12T14:03:06Z</time>
      </trkpt>
      <trkpt lat="45.676585296168923" lon="6.966819819062948">
        <ele>2009</ele>
        <time>2021-09-12T14:03:20Z</time>
      </trkpt>
      <trkpt lat="45.676544811576605" lon="6.966731222346425">
        <ele>2007.0899999999999</ele>
        <time>2021-09-12T14:03:32Z</time>
      </trkpt>
      <trkpt lat="45.676523437723517" lon="6.966639272868633">
        <ele>2005.28</ele>
        <time>2021-09-12T14:03:42Z</time>
      </trkpt>
      <trkpt lat="45.676579931750894" lon="6.966596357524395">
        <ele>2004.0599999999999</ele>
        <time>2021-09-12T14:03:53Z</time>
      </trkpt>
      <trkpt lat="45.676623182371259" lon="6.96656140498817">
        <ele>2001.48</ele>
        <time>2021-09-12T14:04:06Z</time>
      </trkpt>
      <trkpt lat="45.676558138802648" lon="6.966492338106036">
        <ele>1999.3800000000001</ele>
        <time>2021-09-12T14:04:20Z</time>
      </trkpt>
      <trkpt lat="45.676478259265423" lon="6.966464342549443">
        <ele>1996.2</ele>
        <time>2021-09-12T14:04:33Z</time>
      </trkpt>
      <trkpt lat="45.676441378891468" lon="6.966371051967144">
        <ele>1993.03</ele>
        <time>2021-09-12T14:04:45Z</time>
      </trkpt>
      <trkpt lat="45.676404498517513" lon="6.96626870892942">
        <ele>1990.27</ele>
        <time>2021-09-12T14:04:57Z</time>
      </trkpt>
      <trkpt lat="45.676386980339885" lon="6.966231325641275">
        <ele>1988.97</ele>
        <time>2021-09-12T14:05:01Z</time>
      </trkpt>
      <trkpt lat="45.676368707790971" lon="6.966211879625917">
        <ele>1988.6099999999999</ele>
        <time>2021-09-12T14:05:03Z</time>
      </trkpt>
      <trkpt lat="45.676308274269104" lon="6.966135101392865">
        <ele>1987.47</ele>
        <time>2021-09-12T14:05:15Z</time>
      </trkpt>
      <trkpt lat="45.676295785233378" lon="6.966087324544787">
        <ele>1987.8199999999999</ele>
        <time>2021-09-12T14:05:26Z</time>
      </trkpt>
      <trkpt lat="45.676227305084467" lon="6.96600534953177">
        <ele>1987.4200000000001</ele>
        <time>2021-09-12T14:05:43Z</time>
      </trkpt>
      <trkpt lat="45.676158322021365" lon="6.965914573520422">
        <ele>1986.5999999999999</ele>
        <time>2021-09-12T14:05:54Z</time>
      </trkpt>
      <trkpt lat="45.676175588741899" lon="6.965860342606902">
        <ele>1983.8399999999999</ele>
        <time>2021-09-12T14:06:05Z</time>
      </trkpt>
      <trkpt lat="45.676223617047071" lon="6.965856570750475">
        <ele>1982.5599999999999</ele>
        <time>2021-09-12T14:06:11Z</time>
      </trkpt>
      <trkpt lat="45.676230993121862" lon="6.965811224654317">
        <ele>1980.8299999999999</ele>
        <time>2021-09-12T14:06:22Z</time>
      </trkpt>
      <trkpt lat="45.676226047798991" lon="6.965713743120432">
        <ele>1978.78</ele>
        <time>2021-09-12T14:06:34Z</time>
      </trkpt>
      <trkpt lat="45.676214229315519" lon="6.965667139738798">
        <ele>1977.53</ele>
        <time>2021-09-12T14:06:39Z</time>
      </trkpt>
      <trkpt lat="45.676160166040063" lon="6.965602682903409">
        <ele>1976.28</ele>
        <time>2021-09-12T14:06:50Z</time>
      </trkpt>
      <trkpt lat="45.676144491881132" lon="6.96552162989974">
        <ele>1974.0999999999999</ele>
        <time>2021-09-12T14:07:03Z</time>
      </trkpt>
      <trkpt lat="45.67617466673255" lon="6.965487767010927">
        <ele>1973.48</ele>
        <time>2021-09-12T14:07:20Z</time>
      </trkpt>
      <trkpt lat="45.676184054464102" lon="6.965483827516437">
        <ele>1972.9300000000001</ele>
        <time>2021-09-12T14:07:42Z</time>
      </trkpt>
      <trkpt lat="45.676208194345236" lon="6.965511403977871">
        <ele>1972.8299999999999</ele>
        <time>2021-09-12T14:08:08Z</time>
      </trkpt>
      <trkpt lat="45.676231244578958" lon="6.965528083965182">
        <ele>1972.52</ele>
        <time>2021-09-12T14:08:10Z</time>
      </trkpt>
      <trkpt lat="45.676253875717521" lon="6.965534705668688">
        <ele>1972.25</ele>
        <time>2021-09-12T14:08:12Z</time>
      </trkpt>
      <trkpt lat="45.67625773139298" lon="6.965517019852996">
        <ele>1971.8099999999999</ele>
        <time>2021-09-12T14:08:14Z</time>
      </trkpt>
      <trkpt lat="45.676243817433715" lon="6.965429428964853">
        <ele>1970.4000000000001</ele>
        <time>2021-09-12T14:08:22Z</time>
      </trkpt>
      <trkpt lat="45.676199058070779" lon="6.965350806713104">
        <ele>1968.73</ele>
        <time>2021-09-12T14:08:31Z</time>
      </trkpt>
      <trkpt lat="45.676206182688475" lon="6.965321470052004">
        <ele>1968.02</ele>
        <time>2021-09-12T14:08:34Z</time>
      </trkpt>
      <trkpt lat="45.676241302862763" lon="6.965339658781886">
        <ele>1966.6600000000001</ele>
        <time>2021-09-12T14:08:39Z</time>
      </trkpt>
      <trkpt lat="45.676259659230709" lon="6.965351477265358">
        <ele>1966.3299999999999</ele>
        <time>2021-09-12T14:08:41Z</time>
      </trkpt>
      <trkpt lat="45.676308777183294" lon="6.965394476428628">
        <ele>1964.8</ele>
        <time>2021-09-12T14:08:48Z</time>
      </trkpt>
      <trkpt lat="45.676318164914846" lon="6.965401768684387">
        <ele>1964.6199999999999</ele>
        <time>2021-09-12T14:08:49Z</time>
      </trkpt>
      <trkpt lat="45.676330989226699" lon="6.965411240234971">
        <ele>1964.45</ele>
        <time>2021-09-12T14:08:50Z</time>
      </trkpt>
      <trkpt lat="45.676375245675445" lon="6.965482151135802">
        <ele>1963.53</ele>
        <time>2021-09-12T14:08:56Z</time>
      </trkpt>
      <trkpt lat="45.676410952582955" lon="6.965555241331458">
        <ele>1961.5699999999999</ele>
        <time>2021-09-12T14:09:06Z</time>
      </trkpt>
      <trkpt lat="45.676449844613671" lon="6.965546440333128">
        <ele>1960.48</ele>
        <time>2021-09-12T14:09:18Z</time>
      </trkpt>
      <trkpt lat="45.676436433568597" lon="6.96548986248672">
        <ele>1959.1099999999999</ele>
        <time>2021-09-12T14:09:33Z</time>
      </trkpt>
      <trkpt lat="45.676443558186293" lon="6.965484246611595">
        <ele>1958.8900000000001</ele>
        <time>2021-09-12T14:09:34Z</time>
      </trkpt>
      <trkpt lat="45.676461327821016" lon="6.965477121993899">
        <ele>1958.5899999999999</ele>
        <time>2021-09-12T14:09:36Z</time>
      </trkpt>
      <trkpt lat="45.676495442166924" lon="6.965493215247989">
        <ele>1957.3499999999999</ele>
        <time>2021-09-12T14:09:40Z</time>
      </trkpt>
      <trkpt lat="45.676570208743215" lon="6.96555188857019">
        <ele>1955.4100000000001</ele>
        <time>2021-09-12T14:09:50Z</time>
      </trkpt>
      <trkpt lat="45.676604742184281" lon="6.965581057593226">
        <ele>1953.9200000000001</ele>
        <time>2021-09-12T14:09:59Z</time>
      </trkpt>
      <trkpt lat="45.676612788811326" lon="6.965609891340137">
        <ele>1953.6600000000001</ele>
        <time>2021-09-12T14:10:01Z</time>
      </trkpt>
      <trkpt lat="45.676619159057736" lon="6.965626906603575">
        <ele>1953.5799999999999</ele>
        <time>2021-09-12T14:10:02Z</time>
      </trkpt>
      <trkpt lat="45.676625445485115" lon="6.965642496943474">
        <ele>1953.3800000000001</ele>
        <time>2021-09-12T14:10:03Z</time>
      </trkpt>
      <trkpt lat="45.676647825166583" lon="6.965706283226609">
        <ele>1953.3399999999999</ele>
        <time>2021-09-12T14:10:07Z</time>
      </trkpt>
      <trkpt lat="45.676653943955898" lon="6.965750036761165">
        <ele>1953.3199999999999</ele>
        <time>2021-09-12T14:10:10Z</time>
      </trkpt>
      <trkpt lat="45.676668528467417" lon="6.965831173583865">
        <ele>1953.27</ele>
        <time>2021-09-12T14:10:15Z</time>
      </trkpt>
      <trkpt lat="45.676708510145545" lon="6.965869395062327">
        <ele>1953.02</ele>
        <time>2021-09-12T14:10:22Z</time>
      </trkpt>
      <trkpt lat="45.676722340285778" lon="6.965878028422594">
        <ele>1952.54</ele>
        <time>2021-09-12T14:10:24Z</time>
      </trkpt>
      <trkpt lat="45.676744300872087" lon="6.965915579348803">
        <ele>1951.8699999999999</ele>
        <time>2021-09-12T14:10:28Z</time>
      </trkpt>
      <trkpt lat="45.676750000566244" lon="6.96592572145164">
        <ele>1951.7</ele>
        <time>2021-09-12T14:10:29Z</time>
      </trkpt>
      <trkpt lat="45.676788305863738" lon="6.966023202985525">
        <ele>1953.72</ele>
        <time>2021-09-12T14:10:42Z</time>
      </trkpt>
      <trkpt lat="45.676795430481434" lon="6.966067878529429">
        <ele>1954.0799999999999</ele>
        <time>2021-09-12T14:10:47Z</time>
      </trkpt>
      <trkpt lat="45.676811104640365" lon="6.966092269867659">
        <ele>1953.49</ele>
        <time>2021-09-12T14:10:49Z</time>
      </trkpt>
      <trkpt lat="45.67689148709178" lon="6.966229984536767">
        <ele>1953.8399999999999</ele>
        <time>2021-09-12T14:11:00Z</time>
      </trkpt>
      <trkpt lat="45.676912274211645" lon="6.966251106932759">
        <ele>1953.51</ele>
        <time>2021-09-12T14:11:03Z</time>
      </trkpt>
      <trkpt lat="45.676971869543195" lon="6.966310115531087">
        <ele>1951.6199999999999</ele>
        <time>2021-09-12T14:11:12Z</time>
      </trkpt>
      <trkpt lat="45.676980335265398" lon="6.966316066682339">
        <ele>1951.45</ele>
        <time>2021-09-12T14:11:13Z</time>
      </trkpt>
      <trkpt lat="45.677057532593608" lon="6.966393180191517">
        <ele>1949.5</ele>
        <time>2021-09-12T14:11:23Z</time>
      </trkpt>
      <trkpt lat="45.677091395482421" lon="6.966421594843268">
        <ele>1948.8800000000001</ele>
        <time>2021-09-12T14:11:28Z</time>
      </trkpt>
      <trkpt lat="45.677098017185926" lon="6.966433078050613">
        <ele>1948.72</ele>
        <time>2021-09-12T14:11:29Z</time>
      </trkpt>
      <trkpt lat="45.677133304998279" lon="6.966497115790844">
        <ele>1948.55</ele>
        <time>2021-09-12T14:11:39Z</time>
      </trkpt>
      <trkpt lat="45.677129030227661" lon="6.966507844626904">
        <ele>1948.54</ele>
        <time>2021-09-12T14:11:48Z</time>
      </trkpt>
      <trkpt lat="45.677156103774905" lon="6.966522512957454">
        <ele>1947.8599999999999</ele>
        <time>2021-09-12T14:11:58Z</time>
      </trkpt>
      <trkpt lat="45.677171023562551" lon="6.966599710285664">
        <ele>1946.1300000000001</ele>
        <time>2021-09-12T14:12:09Z</time>
      </trkpt>
      <trkpt lat="45.677196001634002" lon="6.966715715825558">
        <ele>1944.21</ele>
        <time>2021-09-12T14:12:21Z</time>
      </trkpt>
      <trkpt lat="45.677169095724821" lon="6.966750919818878">
        <ele>1943.5999999999999</ele>
        <time>2021-09-12T14:12:41Z</time>
      </trkpt>
      <trkpt lat="45.677174041047692" lon="6.966767348349094">
        <ele>1943.5799999999999</ele>
        <time>2021-09-12T14:12:55Z</time>
      </trkpt>
      <trkpt lat="45.677214525640011" lon="6.966833733022213">
        <ele>1941.1300000000001</ele>
        <time>2021-09-12T14:13:06Z</time>
      </trkpt>
      <trkpt lat="45.677239000797272" lon="6.966870529577136">
        <ele>1939.3099999999999</ele>
        <time>2021-09-12T14:13:18Z</time>
      </trkpt>
      <trkpt lat="45.677276216447353" lon="6.966925179585815">
        <ele>1938.1199999999999</ele>
        <time>2021-09-12T14:13:30Z</time>
      </trkpt>
      <trkpt lat="45.67732147872448" lon="6.966958623379469">
        <ele>1935.97</ele>
        <time>2021-09-12T14:13:43Z</time>
      </trkpt>
      <trkpt lat="45.677379481494427" lon="6.966932471841574">
        <ele>1933.03</ele>
        <time>2021-09-12T14:13:57Z</time>
      </trkpt>
      <trkpt lat="45.677389036864042" lon="6.966868601739407">
        <ele>1931.4000000000001</ele>
        <time>2021-09-12T14:14:11Z</time>
      </trkpt>
      <trkpt lat="45.677440417930484" lon="6.966891149058938">
        <ele>1929.29</ele>
        <time>2021-09-12T14:14:25Z</time>
      </trkpt>
      <trkpt lat="45.677477465942502" lon="6.966840522363782">
        <ele>1927.74</ele>
        <time>2021-09-12T14:14:36Z</time>
      </trkpt>
      <trkpt lat="45.677496073767543" lon="6.966765420511365">
        <ele>1925.73</ele>
        <time>2021-09-12T14:14:48Z</time>
      </trkpt>
      <trkpt lat="45.67749640904367" lon="6.966696856543422">
        <ele>1924.3099999999999</ele>
        <time>2021-09-12T14:15:00Z</time>
      </trkpt>
      <trkpt lat="45.677466569468379" lon="6.966683780774474">
        <ele>1923.97</ele>
        <time>2021-09-12T14:15:20Z</time>
      </trkpt>
      <trkpt lat="45.6774568464607" lon="6.966672046110034">
        <ele>1923.9000000000001</ele>
        <time>2021-09-12T14:15:21Z</time>
      </trkpt>
      <trkpt lat="45.677445698529482" lon="6.966664334759116">
        <ele>1923.8199999999999</ele>
        <time>2021-09-12T14:15:22Z</time>
      </trkpt>
      <trkpt lat="45.677431197836995" lon="6.966658048331738">
        <ele>1923.73</ele>
        <time>2021-09-12T14:15:23Z</time>
      </trkpt>
      <trkpt lat="45.677419798448682" lon="6.966650672256947">
        <ele>1923.6600000000001</ele>
        <time>2021-09-12T14:15:24Z</time>
      </trkpt>
      <trkpt lat="45.677373195067048" lon="6.966606667265296">
        <ele>1924.9100000000001</ele>
        <time>2021-09-12T14:15:33Z</time>
      </trkpt>
      <trkpt lat="45.677360873669386" lon="6.966580264270306">
        <ele>1925.1500000000001</ele>
        <time>2021-09-12T14:15:36Z</time>
      </trkpt>
      <trkpt lat="45.677354838699102" lon="6.966566601768136">
        <ele>1925.05</ele>
        <time>2021-09-12T14:15:37Z</time>
      </trkpt>
      <trkpt lat="45.677345534786582" lon="6.966557800769806">
        <ele>1924.97</ele>
        <time>2021-09-12T14:15:38Z</time>
      </trkpt>
      <trkpt lat="45.677337236702442" lon="6.966547407209873">
        <ele>1924.72</ele>
        <time>2021-09-12T14:15:39Z</time>
      </trkpt>
      <trkpt lat="45.677334805950522" lon="6.96643777191639">
        <ele>1922.95</ele>
        <time>2021-09-12T14:15:48Z</time>
      </trkpt>
      <trkpt lat="45.677338661625981" lon="6.966423103585839">
        <ele>1922.48</ele>
        <time>2021-09-12T14:15:49Z</time>
      </trkpt>
      <trkpt lat="45.677338829264045" lon="6.966406842693687">
        <ele>1922.1199999999999</ele>
        <time>2021-09-12T14:15:50Z</time>
      </trkpt>
      <trkpt lat="45.677299937233329" lon="6.966263093054295">
        <ele>1919.0599999999999</ele>
        <time>2021-09-12T14:16:02Z</time>
      </trkpt>
      <trkpt lat="45.677267583087087" lon="6.966196289286017">
        <ele>1918.3599999999999</ele>
        <time>2021-09-12T14:16:13Z</time>
      </trkpt>
      <trkpt lat="45.677262553945184" lon="6.966181369498372">
        <ele>1918.0599999999999</ele>
        <time>2021-09-12T14:16:14Z</time>
      </trkpt>
      <trkpt lat="45.677226595580578" lon="6.966085229068995">
        <ele>1916.4100000000001</ele>
        <time>2021-09-12T14:16:23Z</time>
      </trkpt>
      <trkpt lat="45.677244365215302" lon="6.966037284582853">
        <ele>1914.3499999999999</ele>
        <time>2021-09-12T14:16:36Z</time>
      </trkpt>
      <trkpt lat="45.677271606400609" lon="6.965943155810237">
        <ele>1912.1500000000001</ele>
        <time>2021-09-12T14:16:53Z</time>
      </trkpt>
      <trkpt lat="45.677244197577238" lon="6.965935612097383">
        <ele>1911.53</ele>
        <time>2021-09-12T14:17:02Z</time>
      </trkpt>
      <trkpt lat="45.677211005240679" lon="6.965774931013584">
        <ele>1908.3399999999999</ele>
        <time>2021-09-12T14:17:15Z</time>
      </trkpt>
      <trkpt lat="45.677183931693435" lon="6.965639563277364">
        <ele>1905.8399999999999</ele>
        <time>2021-09-12T14:17:31Z</time>
      </trkpt>
      <trkpt lat="45.677154008299112" lon="6.965594971552491">
        <ele>1904.3699999999999</ele>
        <time>2021-09-12T14:17:47Z</time>
      </trkpt>
      <trkpt lat="45.677133724093437" lon="6.965496316552162">
        <ele>1903</ele>
        <time>2021-09-12T14:18:01Z</time>
      </trkpt>
      <trkpt lat="45.677157947793603" lon="6.965406462550163">
        <ele>1900.9000000000001</ele>
        <time>2021-09-12T14:18:14Z</time>
      </trkpt>
      <trkpt lat="45.677159875631332" lon="6.965319039300084">
        <ele>1898.8699999999999</ele>
        <time>2021-09-12T14:18:27Z</time>
      </trkpt>
      <trkpt lat="45.677156858146191" lon="6.965235639363527">
        <ele>1897.28</ele>
        <time>2021-09-12T14:18:38Z</time>
      </trkpt>
      <trkpt lat="45.677137076854706" lon="6.965234633535147">
        <ele>1897.04</ele>
        <time>2021-09-12T14:18:55Z</time>
      </trkpt>
      <trkpt lat="45.677122324705124" lon="6.965232705697417">
        <ele>1896.99</ele>
        <time>2021-09-12T14:19:10Z</time>
      </trkpt>
      <trkpt lat="45.677134562283754" lon="6.965192472562194">
        <ele>1896.2</ele>
        <time>2021-09-12T14:19:14Z</time>
      </trkpt>
      <trkpt lat="45.677143447101116" lon="6.965188616886735">
        <ele>1896.0599999999999</ele>
        <time>2021-09-12T14:19:15Z</time>
      </trkpt>
      <trkpt lat="45.677167167887092" lon="6.965199010446668">
        <ele>1894.96</ele>
        <time>2021-09-12T14:19:18Z</time>
      </trkpt>
      <trkpt lat="45.677208071574569" lon="6.965159196406603">
        <ele>1892.3399999999999</ele>
        <time>2021-09-12T14:19:27Z</time>
      </trkpt>
      <trkpt lat="45.677209915593266" lon="6.965145030990243">
        <ele>1892.1600000000001</ele>
        <time>2021-09-12T14:19:28Z</time>
      </trkpt>
      <trkpt lat="45.677214358001947" lon="6.965133966878057">
        <ele>1891.8900000000001</ele>
        <time>2021-09-12T14:19:29Z</time>
      </trkpt>
      <trkpt lat="45.677216621115804" lon="6.965112509205937">
        <ele>1891.3900000000001</ele>
        <time>2021-09-12T14:19:31Z</time>
      </trkpt>
      <trkpt lat="45.677212849259377" lon="6.965098679065704">
        <ele>1891.28</ele>
        <time>2021-09-12T14:19:32Z</time>
      </trkpt>
      <trkpt lat="45.677189799025655" lon="6.96503640152514">
        <ele>1890.01</ele>
        <time>2021-09-12T14:19:44Z</time>
      </trkpt>
      <trkpt lat="45.677223997190595" lon="6.96501687169075">
        <ele>1888.5</ele>
        <time>2021-09-12T14:19:53Z</time>
      </trkpt>
      <trkpt lat="45.67723355256021" lon="6.965025002136827">
        <ele>1888.1900000000001</ele>
        <time>2021-09-12T14:19:54Z</time>
      </trkpt>
      <trkpt lat="45.677275629714131" lon="6.965056266635656">
        <ele>1886.9400000000001</ele>
        <time>2021-09-12T14:20:03Z</time>
      </trkpt>
      <trkpt lat="45.677289124578238" lon="6.965076383203268">
        <ele>1886.6500000000001</ele>
        <time>2021-09-12T14:20:05Z</time>
      </trkpt>
      <trkpt lat="45.677292225882411" lon="6.965091219171882">
        <ele>1886.48</ele>
        <time>2021-09-12T14:20:06Z</time>
      </trkpt>
      <trkpt lat="45.677298177033663" lon="6.965104378759861">
        <ele>1886.1800000000001</ele>
        <time>2021-09-12T14:20:15Z</time>
      </trkpt>
      <trkpt lat="45.677292812615633" lon="6.965117286890745">
        <ele>1885.0599999999999</ele>
        <time>2021-09-12T14:20:39Z</time>
      </trkpt>
      <trkpt lat="45.677251908928156" lon="6.965117789804936">
        <ele>1886.21</ele>
        <time>2021-09-12T14:21:00Z</time>
      </trkpt>
      <trkpt lat="45.677257524803281" lon="6.965115861967206">
        <ele>1886.5599999999999</ele>
        <time>2021-09-12T14:21:15Z</time>
      </trkpt>
      <trkpt lat="45.67727361805737" lon="6.965089794248343">
        <ele>1885.8299999999999</ele>
        <time>2021-09-12T14:21:31Z</time>
      </trkpt>
      <trkpt lat="45.677292225882411" lon="6.965126087889075">
        <ele>1885.6500000000001</ele>
        <time>2021-09-12T14:21:35Z</time>
      </trkpt>
      <trkpt lat="45.677295662462711" lon="6.965141342952848">
        <ele>1885.4100000000001</ele>
        <time>2021-09-12T14:21:36Z</time>
      </trkpt>
      <trkpt lat="45.677341176196933" lon="6.965264640748501">
        <ele>1882.45</ele>
        <time>2021-09-12T14:21:48Z</time>
      </trkpt>
      <trkpt lat="45.677385097369552" lon="6.965343514457345">
        <ele>1880.23</ele>
        <time>2021-09-12T14:21:59Z</time>
      </trkpt>
      <trkpt lat="45.677407225593925" lon="6.965365810319781">
        <ele>1879.97</ele>
        <time>2021-09-12T14:22:02Z</time>
      </trkpt>
      <trkpt lat="45.677413009107113" lon="6.965379556640983">
        <ele>1879.6500000000001</ele>
        <time>2021-09-12T14:22:03Z</time>
      </trkpt>
      <trkpt lat="45.677436897531152" lon="6.965419789776206">
        <ele>1879.5599999999999</ele>
        <time>2021-09-12T14:22:07Z</time>
      </trkpt>
      <trkpt lat="45.677447291091084" lon="6.965426243841648">
        <ele>1879.24</ele>
        <time>2021-09-12T14:22:08Z</time>
      </trkpt>
      <trkpt lat="45.677466318011284" lon="6.965452646836639">
        <ele>1878.6500000000001</ele>
        <time>2021-09-12T14:22:19Z</time>
      </trkpt>
      <trkpt lat="45.677487943321466" lon="6.965457005426288">
        <ele>1878.29</ele>
        <time>2021-09-12T14:22:23Z</time>
      </trkpt>
      <trkpt lat="45.67749934270978" lon="6.965461280196905">
        <ele>1878.1900000000001</ele>
        <time>2021-09-12T14:22:24Z</time>
      </trkpt>
      <trkpt lat="45.67754628136754" lon="6.965491957962513">
        <ele>1876.8399999999999</ele>
        <time>2021-09-12T14:22:29Z</time>
      </trkpt>
      <trkpt lat="45.677557596936822" lon="6.965494975447655">
        <ele>1876.46</ele>
        <time>2021-09-12T14:22:30Z</time>
      </trkpt>
      <trkpt lat="45.677569163963199" lon="6.965501429513097">
        <ele>1876.1900000000001</ele>
        <time>2021-09-12T14:22:31Z</time>
      </trkpt>
      <trkpt lat="45.677581401541829" lon="6.9655098952353">
        <ele>1875.98</ele>
        <time>2021-09-12T14:22:32Z</time>
      </trkpt>
      <trkpt lat="45.677591627463698" lon="6.965517438948154">
        <ele>1875.5999999999999</ele>
        <time>2021-09-12T14:22:33Z</time>
      </trkpt>
      <trkpt lat="45.677589867264032" lon="6.965514672920108">
        <ele>1875.05</ele>
        <time>2021-09-12T14:22:45Z</time>
      </trkpt>
      <trkpt lat="45.677613588050008" lon="6.965477457270026">
        <ele>1873.4100000000001</ele>
        <time>2021-09-12T14:22:57Z</time>
      </trkpt>
      <trkpt lat="45.677620461210608" lon="6.965480474755168">
        <ele>1873.21</ele>
        <time>2021-09-12T14:23:14Z</time>
      </trkpt>
      <trkpt lat="45.677595483139157" lon="6.965491874143481">
        <ele>1873.3499999999999</ele>
        <time>2021-09-12T14:23:36Z</time>
      </trkpt>
      <trkpt lat="45.677596908062696" lon="6.965503105893731">
        <ele>1873.3199999999999</ele>
        <time>2021-09-12T14:23:53Z</time>
      </trkpt>
      <trkpt lat="45.677600679919124" lon="6.965489778667688">
        <ele>1872.6500000000001</ele>
        <time>2021-09-12T14:24:06Z</time>
      </trkpt>
      <trkpt lat="45.67762347869575" lon="6.965514086186886">
        <ele>1871.9400000000001</ele>
        <time>2021-09-12T14:24:12Z</time>
      </trkpt>
      <trkpt lat="45.677638733759522" lon="6.965543674305081">
        <ele>1871.46</ele>
        <time>2021-09-12T14:24:14Z</time>
      </trkpt>
      <trkpt lat="45.677647199481726" lon="6.965556917712092">
        <ele>1871.3499999999999</ele>
        <time>2021-09-12T14:24:15Z</time>
      </trkpt>
      <trkpt lat="45.677708387374878" lon="6.965606957674027">
        <ele>1870.1300000000001</ele>
        <time>2021-09-12T14:24:21Z</time>
      </trkpt>
      <trkpt lat="45.677723390981555" lon="6.965612573549151">
        <ele>1869.8900000000001</ele>
        <time>2021-09-12T14:24:22Z</time>
      </trkpt>
      <trkpt lat="45.677751805633307" lon="6.965626068413258">
        <ele>1869.27</ele>
        <time>2021-09-12T14:24:24Z</time>
      </trkpt>
      <trkpt lat="45.677763288840652" lon="6.965634115040302">
        <ele>1869.02</ele>
        <time>2021-09-12T14:24:25Z</time>
      </trkpt>
      <trkpt lat="45.677774017676711" lon="6.965643921867013">
        <ele>1868.9300000000001</ele>
        <time>2021-09-12T14:24:26Z</time>
      </trkpt>
      <trkpt lat="45.677786003798246" lon="6.965652890503407">
        <ele>1868.6099999999999</ele>
        <time>2021-09-12T14:24:27Z</time>
      </trkpt>
      <trkpt lat="45.677798828110099" lon="6.965661272406578">
        <ele>1868.46</ele>
        <time>2021-09-12T14:24:28Z</time>
      </trkpt>
      <trkpt lat="45.677811149507761" lon="6.965669319033623">
        <ele>1868.4400000000001</ele>
        <time>2021-09-12T14:24:29Z</time>
      </trkpt>
      <trkpt lat="45.677820201963186" lon="6.965680802240968">
        <ele>1868.3</ele>
        <time>2021-09-12T14:24:30Z</time>
      </trkpt>
      <trkpt lat="45.677826907485723" lon="6.965695051476359">
        <ele>1868.1700000000001</ele>
        <time>2021-09-12T14:24:31Z</time>
      </trkpt>
      <trkpt lat="45.677833864465356" lon="6.965709552168846">
        <ele>1868.02</ele>
        <time>2021-09-12T14:24:32Z</time>
      </trkpt>
      <trkpt lat="45.677842246368527" lon="6.965725142508745">
        <ele>1867.9200000000001</ele>
        <time>2021-09-12T14:24:33Z</time>
      </trkpt>
      <trkpt lat="45.677891029044986" lon="6.965828826650977">
        <ele>1868.1500000000001</ele>
        <time>2021-09-12T14:24:41Z</time>
      </trkpt>
      <trkpt lat="45.677965963259339" lon="6.965928236022592">
        <ele>1868.27</ele>
        <time>2021-09-12T14:24:50Z</time>
      </trkpt>
      <trkpt lat="45.67798457108438" lon="6.965955561026931">
        <ele>1868.21</ele>
        <time>2021-09-12T14:24:52Z</time>
      </trkpt>
      <trkpt lat="45.677993120625615" lon="6.965969810262322">
        <ele>1868.03</ele>
        <time>2021-09-12T14:24:53Z</time>
      </trkpt>
      <trkpt lat="45.677996892482042" lon="6.965983808040619">
        <ele>1868.0599999999999</ele>
        <time>2021-09-12T14:24:54Z</time>
      </trkpt>
      <trkpt lat="45.678035700693727" lon="6.966018425300717">
        <ele>1867.4000000000001</ele>
        <time>2021-09-12T14:24:58Z</time>
      </trkpt>
      <trkpt lat="45.678062690421939" lon="6.966107273474336">
        <ele>1865.78</ele>
        <time>2021-09-12T14:25:06Z</time>
      </trkpt>
      <trkpt lat="45.678060259670019" lon="6.966124959290028">
        <ele>1865.5799999999999</ele>
        <time>2021-09-12T14:25:07Z</time>
      </trkpt>
      <trkpt lat="45.678060343489051" lon="6.966154715046287">
        <ele>1865.0999999999999</ele>
        <time>2021-09-12T14:25:09Z</time>
      </trkpt>
      <trkpt lat="45.67806763574481" lon="6.96616661734879">
        <ele>1864.96</ele>
        <time>2021-09-12T14:25:10Z</time>
      </trkpt>
      <trkpt lat="45.678071239963174" lon="6.96618027985096">
        <ele>1864.76</ele>
        <time>2021-09-12T14:25:11Z</time>
      </trkpt>
      <trkpt lat="45.678077107295394" lon="6.966193774715066">
        <ele>1864.6800000000001</ele>
        <time>2021-09-12T14:25:12Z</time>
      </trkpt>
      <trkpt lat="45.678084399551153" lon="6.966206347569823">
        <ele>1864.51</ele>
        <time>2021-09-12T14:25:13Z</time>
      </trkpt>
      <trkpt lat="45.678097978234291" lon="6.966227721422911">
        <ele>1863.8099999999999</ele>
        <time>2021-09-12T14:25:15Z</time>
      </trkpt>
      <trkpt lat="45.678109293803573" lon="6.966235935688019">
        <ele>1863.6900000000001</ele>
        <time>2021-09-12T14:25:16Z</time>
      </trkpt>
      <trkpt lat="45.678128404542804" lon="6.96627214550972">
        <ele>1862.21</ele>
        <time>2021-09-12T14:25:23Z</time>
      </trkpt>
      <trkpt lat="45.678135780617595" lon="6.966314893215895">
        <ele>1861.05</ele>
        <time>2021-09-12T14:25:31Z</time>
      </trkpt>
      <trkpt lat="45.678173331543803" lon="6.966382786631584">
        <ele>1859.4300000000001</ele>
        <time>2021-09-12T14:25:42Z</time>
      </trkpt>
      <trkpt lat="45.678209541365504" lon="6.966370213776827">
        <ele>1857.04</ele>
        <time>2021-09-12T14:25:53Z</time>
      </trkpt>
      <trkpt lat="45.678219767287374" lon="6.966273235157132">
        <ele>1855.21</ele>
        <time>2021-09-12T14:26:03Z</time>
      </trkpt>
      <trkpt lat="45.678218677639961" lon="6.966238282620907">
        <ele>1854.52</ele>
        <time>2021-09-12T14:26:14Z</time>
      </trkpt>
      <trkpt lat="45.678257988765836" lon="6.966194361448288">
        <ele>1853.23</ele>
        <time>2021-09-12T14:26:22Z</time>
      </trkpt>
      <trkpt lat="45.678266705945134" lon="6.966206599026918">
        <ele>1852.9100000000001</ele>
        <time>2021-09-12T14:26:23Z</time>
      </trkpt>
      <trkpt lat="45.678274249657989" lon="6.966222105547786">
        <ele>1852.6099999999999</ele>
        <time>2021-09-12T14:26:24Z</time>
      </trkpt>
      <trkpt lat="45.678282380104065" lon="6.966234929859638">
        <ele>1852.5699999999999</ele>
        <time>2021-09-12T14:26:25Z</time>
      </trkpt>
      <trkpt lat="45.678299143910408" lon="6.966267116367817">
        <ele>1852.02</ele>
        <time>2021-09-12T14:26:28Z</time>
      </trkpt>
      <trkpt lat="45.678306519985199" lon="6.966279940679669">
        <ele>1851.98</ele>
        <time>2021-09-12T14:26:29Z</time>
      </trkpt>
      <trkpt lat="45.678363600745797" lon="6.966369291767478">
        <ele>1851.6900000000001</ele>
        <time>2021-09-12T14:26:38Z</time>
      </trkpt>
      <trkpt lat="45.678374078124762" lon="6.966375578194857">
        <ele>1851.51</ele>
        <time>2021-09-12T14:26:39Z</time>
      </trkpt>
      <trkpt lat="45.678377514705062" lon="6.966395191848278">
        <ele>1851.3099999999999</ele>
        <time>2021-09-12T14:26:49Z</time>
      </trkpt>
      <trkpt lat="45.678383968770504" lon="6.966397035866976">
        <ele>1851.0599999999999</ele>
        <time>2021-09-12T14:27:06Z</time>
      </trkpt>
      <trkpt lat="45.678382627665997" lon="6.966397957876325">
        <ele>1851.1700000000001</ele>
        <time>2021-09-12T14:27:21Z</time>
      </trkpt>
      <trkpt lat="45.678389081731439" lon="6.966399298980832">
        <ele>1850.8800000000001</ele>
        <time>2021-09-12T14:27:35Z</time>
      </trkpt>
      <trkpt lat="45.678386902436614" lon="6.966420253738761">
        <ele>1850.98</ele>
        <time>2021-09-12T14:27:49Z</time>
      </trkpt>
      <trkpt lat="45.678384304046631" lon="6.966425450518727">
        <ele>1850.9300000000001</ele>
        <time>2021-09-12T14:28:09Z</time>
      </trkpt>
      <trkpt lat="45.678350776433945" lon="6.966431066393852">
        <ele>1850.72</ele>
        <time>2021-09-12T14:28:25Z</time>
      </trkpt>
      <trkpt lat="45.678376844152808" lon="6.966424528509378">
        <ele>1851.02</ele>
        <time>2021-09-12T14:28:42Z</time>
      </trkpt>
      <trkpt lat="45.678374748677015" lon="6.966431066393852">
        <ele>1850.74</ele>
        <time>2021-09-12T14:29:04Z</time>
      </trkpt>
      <trkpt lat="45.678332420065999" lon="6.966454451903701">
        <ele>1850.8499999999999</ele>
        <time>2021-09-12T14:29:22Z</time>
      </trkpt>
      <trkpt lat="45.678348848596215" lon="6.966494182124734">
        <ele>1850.5999999999999</ele>
        <time>2021-09-12T14:29:29Z</time>
      </trkpt>
      <trkpt lat="45.678385142236948" lon="6.966517567634583">
        <ele>1850.6900000000001</ele>
        <time>2021-09-12T14:29:32Z</time>
      </trkpt>
      <trkpt lat="45.678499890491366" lon="6.966676656156778">
        <ele>1849.1700000000001</ele>
        <time>2021-09-12T14:29:47Z</time>
      </trkpt>
      <trkpt lat="45.678586391732097" lon="6.966770952567458">
        <ele>1848.5799999999999</ele>
        <time>2021-09-12T14:30:00Z</time>
      </trkpt>
      <trkpt lat="45.678711114451289" lon="6.966864746063948">
        <ele>1848.3599999999999</ele>
        <time>2021-09-12T14:30:13Z</time>
      </trkpt>
      <trkpt lat="45.678754951804876" lon="6.966937836259604">
        <ele>1848.76</ele>
        <time>2021-09-12T14:30:21Z</time>
      </trkpt>
      <trkpt lat="45.678820917382836" lon="6.967004891484976">
        <ele>1849.3099999999999</ele>
        <time>2021-09-12T14:30:33Z</time>
      </trkpt>
      <trkpt lat="45.678888894617558" lon="6.967053255066276">
        <ele>1849.97</ele>
        <time>2021-09-12T14:30:45Z</time>
      </trkpt>
      <trkpt lat="45.678917644545436" lon="6.967069264501333">
        <ele>1850.3099999999999</ele>
        <time>2021-09-12T14:30:59Z</time>
      </trkpt>
      <trkpt lat="45.678994338959455" lon="6.967079490423203">
        <ele>1851.4200000000001</ele>
        <time>2021-09-12T14:31:12Z</time>
      </trkpt>
      <trkpt lat="45.679020239040256" lon="6.967070605605841">
        <ele>1851.3399999999999</ele>
        <time>2021-09-12T14:31:22Z</time>
      </trkpt>
      <trkpt lat="45.679031051695347" lon="6.967073287814856">
        <ele>1851.4000000000001</ele>
        <time>2021-09-12T14:31:23Z</time>
      </trkpt>
      <trkpt lat="45.679051754996181" lon="6.967074545100331">
        <ele>1851.25</ele>
        <time>2021-09-12T14:31:25Z</time>
      </trkpt>
      <trkpt lat="45.679062316194177" lon="6.967079909518361">
        <ele>1851.2</ele>
        <time>2021-09-12T14:31:26Z</time>
      </trkpt>
      <trkpt lat="45.679071117192507" lon="6.967087788507342">
        <ele>1851.22</ele>
        <time>2021-09-12T14:31:27Z</time>
      </trkpt>
      <trkpt lat="45.679109757766128" lon="6.967155933380127">
        <ele>1850.9300000000001</ele>
        <time>2021-09-12T14:31:32Z</time>
      </trkpt>
      <trkpt lat="45.679122917354107" lon="6.967177810147405">
        <ele>1850.9200000000001</ele>
        <time>2021-09-12T14:31:34Z</time>
      </trkpt>
      <trkpt lat="45.679157869890332" lon="6.967191305011511">
        <ele>1851.24</ele>
        <time>2021-09-12T14:31:39Z</time>
      </trkpt>
      <trkpt lat="45.67924034781754" lon="6.967086028307676">
        <ele>1850.3099999999999</ele>
        <time>2021-09-12T14:31:50Z</time>
      </trkpt>
      <trkpt lat="45.679302038624883" lon="6.966957282274962">
        <ele>1849.5699999999999</ele>
        <time>2021-09-12T14:32:02Z</time>
      </trkpt>
      <trkpt lat="45.679381666705012" lon="6.966866422444582">
        <ele>1848.0899999999999</ele>
        <time>2021-09-12T14:32:15Z</time>
      </trkpt>
      <trkpt lat="45.6794548407197" lon="6.966796517372131">
        <ele>1845.26</ele>
        <time>2021-09-12T14:32:28Z</time>
      </trkpt>
      <trkpt lat="45.679464731365442" lon="6.966778663918376">
        <ele>1844.8099999999999</ele>
        <time>2021-09-12T14:32:29Z</time>
      </trkpt>
      <trkpt lat="45.679473280906677" lon="6.966762822121382">
        <ele>1844.3099999999999</ele>
        <time>2021-09-12T14:32:30Z</time>
      </trkpt>
      <trkpt lat="45.679475292563438" lon="6.966748991981149">
        <ele>1843.5599999999999</ele>
        <time>2021-09-12T14:32:32Z</time>
      </trkpt>
      <trkpt lat="45.679414104670286" lon="6.966721331700683">
        <ele>1842.79</ele>
        <time>2021-09-12T14:32:44Z</time>
      </trkpt>
      <trkpt lat="45.67938007414341" lon="6.96672610938549">
        <ele>1842.7</ele>
        <time>2021-09-12T14:33:02Z</time>
      </trkpt>
      <trkpt lat="45.679428856819868" lon="6.966735329478979">
        <ele>1842.54</ele>
        <time>2021-09-12T14:33:28Z</time>
      </trkpt>
      <trkpt lat="45.679441094398499" lon="6.966738849878311">
        <ele>1842.6900000000001</ele>
        <time>2021-09-12T14:33:29Z</time>
      </trkpt>
      <trkpt lat="45.679491721093655" lon="6.966723343357444">
        <ele>1843.1199999999999</ele>
        <time>2021-09-12T14:33:33Z</time>
      </trkpt>
      <trkpt lat="45.679508065804839" lon="6.966715799644589">
        <ele>1842.96</ele>
        <time>2021-09-12T14:33:34Z</time>
      </trkpt>
      <trkpt lat="45.679522482678294" lon="6.966710099950433">
        <ele>1842.71</ele>
        <time>2021-09-12T14:33:35Z</time>
      </trkpt>
      <trkpt lat="45.679640248417854" lon="6.966682858765125">
        <ele>1841.9000000000001</ele>
        <time>2021-09-12T14:33:43Z</time>
      </trkpt>
      <trkpt lat="45.679651899263263" lon="6.966689480468631">
        <ele>1841.8399999999999</ele>
        <time>2021-09-12T14:33:44Z</time>
      </trkpt>
      <trkpt lat="45.679665142670274" lon="6.966695850715041">
        <ele>1842.04</ele>
        <time>2021-09-12T14:33:45Z</time>
      </trkpt>
      <trkpt lat="45.679746195673943" lon="6.966733820736408">
        <ele>1843.1900000000001</ele>
        <time>2021-09-12T14:33:53Z</time>
      </trkpt>
      <trkpt lat="45.679760025814176" lon="6.966732563450933">
        <ele>1843.1700000000001</ele>
        <time>2021-09-12T14:33:54Z</time>
      </trkpt>
      <trkpt lat="45.679772431030869" lon="6.966727869585156">
        <ele>1843.48</ele>
        <time>2021-09-12T14:33:55Z</time>
      </trkpt>
      <trkpt lat="45.679785087704659" lon="6.966721164062619">
        <ele>1843.6199999999999</ele>
        <time>2021-09-12T14:33:56Z</time>
      </trkpt>
      <trkpt lat="45.679799001663923" lon="6.966716889292002">
        <ele>1843.51</ele>
        <time>2021-09-12T14:33:57Z</time>
      </trkpt>
      <trkpt lat="45.679810233414173" lon="6.966715548187494">
        <ele>1843.5899999999999</ele>
        <time>2021-09-12T14:33:58Z</time>
      </trkpt>
      <trkpt lat="45.679947109892964" lon="6.966688558459282">
        <ele>1844.21</ele>
        <time>2021-09-12T14:34:09Z</time>
      </trkpt>
      <trkpt lat="45.680029084905982" lon="6.966663748025894">
        <ele>1845.1700000000001</ele>
        <time>2021-09-12T14:34:19Z</time>
      </trkpt>
      <trkpt lat="45.68012522533536" lon="6.96658537723124">
        <ele>1846.6900000000001</ele>
        <time>2021-09-12T14:34:35Z</time>
      </trkpt>
      <trkpt lat="45.680180042982101" lon="6.96655654348433">
        <ele>1846.71</ele>
        <time>2021-09-12T14:34:45Z</time>
      </trkpt>
      <trkpt lat="45.680291773751378" lon="6.96651890873909">
        <ele>1846.05</ele>
        <time>2021-09-12T14:34:58Z</time>
      </trkpt>
      <trkpt lat="45.680330749601126" lon="6.966515723615885">
        <ele>1845.8499999999999</ele>
        <time>2021-09-12T14:35:05Z</time>
      </trkpt>
      <trkpt lat="45.680340807884932" lon="6.966518573462963">
        <ele>1845.9400000000001</ele>
        <time>2021-09-12T14:35:06Z</time>
      </trkpt>
      <trkpt lat="45.680352710187435" lon="6.966521088033915">
        <ele>1845.8699999999999</ele>
        <time>2021-09-12T14:35:07Z</time>
      </trkpt>
      <trkpt lat="45.68038129247725" lon="6.966529302299023">
        <ele>1845.8099999999999</ele>
        <time>2021-09-12T14:35:16Z</time>
      </trkpt>
      <trkpt lat="45.680391350761056" lon="6.966531900689006">
        <ele>1845.6099999999999</ele>
        <time>2021-09-12T14:35:17Z</time>
      </trkpt>
      <trkpt lat="45.680419597774744" lon="6.966539863497019">
        <ele>1845.6099999999999</ele>
        <time>2021-09-12T14:35:20Z</time>
      </trkpt>
      <trkpt lat="45.680478774011135" lon="6.966603985056281">
        <ele>1845.05</ele>
        <time>2021-09-12T14:35:30Z</time>
      </trkpt>
      <trkpt lat="45.680520851165056" lon="6.966638937592506">
        <ele>1843.5799999999999</ele>
        <time>2021-09-12T14:35:37Z</time>
      </trkpt>
      <trkpt lat="45.680531999096274" lon="6.966640530154109">
        <ele>1843.25</ele>
        <time>2021-09-12T14:35:38Z</time>
      </trkpt>
      <trkpt lat="45.680542392656207" lon="6.966641200706363">
        <ele>1842.79</ele>
        <time>2021-09-12T14:35:39Z</time>
      </trkpt>
      <trkpt lat="45.680553205311298" lon="6.966638183221221">
        <ele>1842.4000000000001</ele>
        <time>2021-09-12T14:35:40Z</time>
      </trkpt>
      <trkpt lat="45.680564856156707" lon="6.966637261211872">
        <ele>1842.0899999999999</ele>
        <time>2021-09-12T14:35:41Z</time>
      </trkpt>
      <trkpt lat="45.680577429011464" lon="6.966642960906029">
        <ele>1841.72</ele>
        <time>2021-09-12T14:35:42Z</time>
      </trkpt>
      <trkpt lat="45.680606346577406" lon="6.966653857380152">
        <ele>1841.6700000000001</ele>
        <time>2021-09-12T14:35:45Z</time>
      </trkpt>
      <trkpt lat="45.680617494508624" lon="6.96665620431304">
        <ele>1841.8699999999999</ele>
        <time>2021-09-12T14:35:46Z</time>
      </trkpt>
      <trkpt lat="45.680650770664215" lon="6.966650923714042">
        <ele>1841.97</ele>
        <time>2021-09-12T14:35:50Z</time>
      </trkpt>
      <trkpt lat="45.680722771212459" lon="6.966666514053941">
        <ele>1840.97</ele>
        <time>2021-09-12T14:36:01Z</time>
      </trkpt>
      <trkpt lat="45.680731488391757" lon="6.966662155464292">
        <ele>1840.8199999999999</ele>
        <time>2021-09-12T14:36:09Z</time>
      </trkpt>
      <trkpt lat="45.680743306875229" lon="6.966657964512706">
        <ele>1840.6400000000001</ele>
        <time>2021-09-12T14:36:10Z</time>
      </trkpt>
      <trkpt lat="45.68075604736805" lon="6.96665570139885">
        <ele>1840.3199999999999</ele>
        <time>2021-09-12T14:36:11Z</time>
      </trkpt>
      <trkpt lat="45.680768536403775" lon="6.966654863208532">
        <ele>1839.8900000000001</ele>
        <time>2021-09-12T14:36:12Z</time>
      </trkpt>
      <trkpt lat="45.680780522525311" lon="6.966655449941754">
        <ele>1839.6800000000001</ele>
        <time>2021-09-12T14:36:13Z</time>
      </trkpt>
      <trkpt lat="45.680807176977396" lon="6.966669363901019">
        <ele>1839.3</ele>
        <time>2021-09-12T14:36:25Z</time>
      </trkpt>
      <trkpt lat="45.680886721238494" lon="6.966677494347096">
        <ele>1837.1700000000001</ele>
        <time>2021-09-12T14:36:36Z</time>
      </trkpt>
      <trkpt lat="45.680931899696589" lon="6.966701885685325">
        <ele>1835.6300000000001</ele>
        <time>2021-09-12T14:36:42Z</time>
      </trkpt>
      <trkpt lat="45.680937264114618" lon="6.966730216518045">
        <ele>1835.8</ele>
        <time>2021-09-12T14:36:52Z</time>
      </trkpt>
      <trkpt lat="45.680996272712946" lon="6.966791320592165">
        <ele>1835.3499999999999</ele>
        <time>2021-09-12T14:37:01Z</time>
      </trkpt>
      <trkpt lat="45.681024603545666" lon="6.966789811849594">
        <ele>1835.3199999999999</ele>
        <time>2021-09-12T14:37:04Z</time>
      </trkpt>
      <trkpt lat="45.681033991277218" lon="6.966782016679645">
        <ele>1835.21</ele>
        <time>2021-09-12T14:37:05Z</time>
      </trkpt>
      <trkpt lat="45.681041618809104" lon="6.966772712767124">
        <ele>1834.9000000000001</ele>
        <time>2021-09-12T14:37:06Z</time>
      </trkpt>
      <trkpt lat="45.681048240512609" lon="6.966760475188494">
        <ele>1834.6900000000001</ele>
        <time>2021-09-12T14:37:07Z</time>
      </trkpt>
      <trkpt lat="45.681075984612107" lon="6.966695599257946">
        <ele>1833.3699999999999</ele>
        <time>2021-09-12T14:37:17Z</time>
      </trkpt>
      <trkpt lat="45.681088557466865" lon="6.966650588437915">
        <ele>1832.29</ele>
        <time>2021-09-12T14:37:29Z</time>
      </trkpt>
      <trkpt lat="45.68112887442112" lon="6.966600548475981">
        <ele>1830.79</ele>
        <time>2021-09-12T14:37:41Z</time>
      </trkpt>
      <trkpt lat="45.681168520823121" lon="6.966564422473311">
        <ele>1828.9200000000001</ele>
        <time>2021-09-12T14:37:52Z</time>
      </trkpt>
      <trkpt lat="45.681208921596408" lon="6.966537432745099">
        <ele>1827.47</ele>
        <time>2021-09-12T14:38:03Z</time>
      </trkpt>
      <trkpt lat="45.681213196367025" lon="6.966547826305032">
        <ele>1827.3199999999999</ele>
        <time>2021-09-12T14:38:20Z</time>
      </trkpt>
      <trkpt lat="45.681251501664519" lon="6.96650717407465">
        <ele>1825.6099999999999</ele>
        <time>2021-09-12T14:38:29Z</time>
      </trkpt>
      <trkpt lat="45.681234654039145" lon="6.966475071385503">
        <ele>1824.24</ele>
        <time>2021-09-12T14:38:33Z</time>
      </trkpt>
      <trkpt lat="45.681223589926958" lon="6.9664700422436">
        <ele>1823.95</ele>
        <time>2021-09-12T14:38:34Z</time>
      </trkpt>
      <trkpt lat="45.681213783100247" lon="6.966463839635253">
        <ele>1823.7</ele>
        <time>2021-09-12T14:38:35Z</time>
      </trkpt>
      <trkpt lat="45.681204311549664" lon="6.966457385569811">
        <ele>1823.3199999999999</ele>
        <time>2021-09-12T14:38:36Z</time>
      </trkpt>
      <trkpt lat="45.681129125878215" lon="6.966416565701366">
        <ele>1819.9400000000001</ele>
        <time>2021-09-12T14:38:47Z</time>
      </trkpt>
      <trkpt lat="45.681096184998751" lon="6.966394856572151">
        <ele>1818.3299999999999</ele>
        <time>2021-09-12T14:38:52Z</time>
      </trkpt>
      <trkpt lat="45.681095262989402" lon="6.96637038141489">
        <ele>1817.51</ele>
        <time>2021-09-12T14:38:55Z</time>
      </trkpt>
      <trkpt lat="45.681119821965694" lon="6.966354288160801">
        <ele>1816.8199999999999</ele>
        <time>2021-09-12T14:38:57Z</time>
      </trkpt>
      <trkpt lat="45.681147230789065" lon="6.966339368373156">
        <ele>1816.3599999999999</ele>
        <time>2021-09-12T14:39:00Z</time>
      </trkpt>
      <trkpt lat="45.68122124299407" lon="6.966332495212555">
        <ele>1814.75</ele>
        <time>2021-09-12T14:39:11Z</time>
      </trkpt>
      <trkpt lat="45.681232558563352" lon="6.966332830488682">
        <ele>1815.03</ele>
        <time>2021-09-12T14:39:27Z</time>
      </trkpt>
      <trkpt lat="45.681268684566021" lon="6.966307517141104">
        <ele>1814.25</ele>
        <time>2021-09-12T14:39:39Z</time>
      </trkpt>
      <trkpt lat="45.681287376210093" lon="6.966304332017899">
        <ele>1813.99</ele>
        <time>2021-09-12T14:39:43Z</time>
      </trkpt>
      <trkpt lat="45.681299027055502" lon="6.966305756941438">
        <ele>1813.52</ele>
        <time>2021-09-12T14:39:44Z</time>
      </trkpt>
      <trkpt lat="45.68131017498672" lon="6.96630441583693">
        <ele>1813.3900000000001</ele>
        <time>2021-09-12T14:39:45Z</time>
      </trkpt>
      <trkpt lat="45.681321071460843" lon="6.966301146894693">
        <ele>1813.3099999999999</ele>
        <time>2021-09-12T14:39:46Z</time>
      </trkpt>
      <trkpt lat="45.681342529132962" lon="6.96630148217082">
        <ele>1812.9100000000001</ele>
        <time>2021-09-12T14:39:48Z</time>
      </trkpt>
      <trkpt lat="45.681352838873863" lon="6.966306595131755">
        <ele>1812.8499999999999</ele>
        <time>2021-09-12T14:39:49Z</time>
      </trkpt>
      <trkpt lat="45.681392401456833" lon="6.966305924579501">
        <ele>1812.1600000000001</ele>
        <time>2021-09-12T14:39:53Z</time>
      </trkpt>
      <trkpt lat="45.681536821648479" lon="6.966316234320402">
        <ele>1810.29</ele>
        <time>2021-09-12T14:40:07Z</time>
      </trkpt>
      <trkpt lat="45.681547299027443" lon="6.966318497434259">
        <ele>1810.02</ele>
        <time>2021-09-12T14:40:08Z</time>
      </trkpt>
      <trkpt lat="45.681557776406407" lon="6.966322436928749">
        <ele>1809.9000000000001</ele>
        <time>2021-09-12T14:40:09Z</time>
      </trkpt>
      <trkpt lat="45.681575546041131" lon="6.966333165764809">
        <ele>1809.6300000000001</ele>
        <time>2021-09-12T14:40:21Z</time>
      </trkpt>
      <trkpt lat="45.681630363687873" lon="6.966312462463975">
        <ele>1808.53</ele>
        <time>2021-09-12T14:40:41Z</time>
      </trkpt>
      <trkpt lat="45.681640589609742" lon="6.966306092217565">
        <ele>1808.46</ele>
        <time>2021-09-12T14:40:42Z</time>
      </trkpt>
      <trkpt lat="45.681716362014413" lon="6.966259656473994">
        <ele>1806.8699999999999</ele>
        <time>2021-09-12T14:40:53Z</time>
      </trkpt>
      <trkpt lat="45.681709405034781" lon="6.966218668967485">
        <ele>1806.49</ele>
        <time>2021-09-12T14:41:07Z</time>
      </trkpt>
      <trkpt lat="45.681718457490206" lon="6.966209197416902">
        <ele>1806.05</ele>
        <time>2021-09-12T14:41:08Z</time>
      </trkpt>
      <trkpt lat="45.681727426126599" lon="6.966201653704047">
        <ele>1805.9200000000001</ele>
        <time>2021-09-12T14:41:09Z</time>
      </trkpt>
      <trkpt lat="45.681768665090203" lon="6.966109285131097">
        <ele>1803.72</ele>
        <time>2021-09-12T14:41:20Z</time>
      </trkpt>
      <trkpt lat="45.681801186874509" lon="6.966021610423923">
        <ele>1801.8499999999999</ele>
        <time>2021-09-12T14:41:30Z</time>
      </trkpt>
      <trkpt lat="45.681798169389367" lon="6.96600878611207">
        <ele>1801.3199999999999</ele>
        <time>2021-09-12T14:41:31Z</time>
      </trkpt>
      <trkpt lat="45.68182616494596" lon="6.965946592390537">
        <ele>1800.1600000000001</ele>
        <time>2021-09-12T14:41:37Z</time>
      </trkpt>
      <trkpt lat="45.681847287341952" lon="6.965919015929103">
        <ele>1799.78</ele>
        <time>2021-09-12T14:41:40Z</time>
      </trkpt>
      <trkpt lat="45.681952815502882" lon="6.965833771973848">
        <ele>1799.5</ele>
        <time>2021-09-12T14:41:52Z</time>
      </trkpt>
      <trkpt lat="45.682003358379006" lon="6.965809967368841">
        <ele>1797.3299999999999</ele>
        <time>2021-09-12T14:41:58Z</time>
      </trkpt>
      <trkpt lat="45.682061780244112" lon="6.965743834152818">
        <ele>1795.8499999999999</ele>
        <time>2021-09-12T14:42:06Z</time>
      </trkpt>
      <trkpt lat="45.682071084156632" lon="6.96571122854948">
        <ele>1795.04</ele>
        <time>2021-09-12T14:42:09Z</time>
      </trkpt>
      <trkpt lat="45.682116178795695" lon="6.965623972937465">
        <ele>1793.01</ele>
        <time>2021-09-12T14:42:19Z</time>
      </trkpt>
      <trkpt lat="45.682149957865477" lon="6.965566975995898">
        <ele>1792.3</ele>
        <time>2021-09-12T14:42:25Z</time>
      </trkpt>
      <trkpt lat="45.682158675044775" lon="6.965557839721441">
        <ele>1792.02</ele>
        <time>2021-09-12T14:42:26Z</time>
      </trkpt>
      <trkpt lat="45.682221120223403" lon="6.965455245226622">
        <ele>1790.6500000000001</ele>
        <time>2021-09-12T14:42:39Z</time>
      </trkpt>
      <trkpt lat="45.682211732491851" lon="6.965430350974202">
        <ele>1790.3599999999999</ele>
        <time>2021-09-12T14:42:43Z</time>
      </trkpt>
      <trkpt lat="45.682216929271817" lon="6.965414676815271">
        <ele>1790.02</ele>
        <time>2021-09-12T14:42:44Z</time>
      </trkpt>
      <trkpt lat="45.682223467156291" lon="6.965399254113436">
        <ele>1789.8599999999999</ele>
        <time>2021-09-12T14:42:45Z</time>
      </trkpt>
      <trkpt lat="45.682241823524237" lon="6.965358182787895">
        <ele>1789.5699999999999</ele>
        <time>2021-09-12T14:42:55Z</time>
      </trkpt>
      <trkpt lat="45.682250624522567" lon="6.96534619666636">
        <ele>1789.48</ele>
        <time>2021-09-12T14:42:56Z</time>
      </trkpt>
      <trkpt lat="45.682258335873485" lon="6.965333539992571">
        <ele>1789.3499999999999</ele>
        <time>2021-09-12T14:42:57Z</time>
      </trkpt>
      <trkpt lat="45.68226738832891" lon="6.965321050956845">
        <ele>1789.4000000000001</ele>
        <time>2021-09-12T14:42:58Z</time>
      </trkpt>
      <trkpt lat="45.682276776060462" lon="6.96530663408339">
        <ele>1789.3</ele>
        <time>2021-09-12T14:42:59Z</time>
      </trkpt>
      <trkpt lat="45.682286499068141" lon="6.96529540233314">
        <ele>1789.1400000000001</ele>
        <time>2021-09-12T14:43:00Z</time>
      </trkpt>
      <trkpt lat="45.68229571916163" lon="6.9652836676687">
        <ele>1789.1400000000001</ele>
        <time>2021-09-12T14:43:01Z</time>
      </trkpt>
      <trkpt lat="45.682348608970642" lon="6.965146036818624">
        <ele>1787.4000000000001</ele>
        <time>2021-09-12T14:43:13Z</time>
      </trkpt>
      <trkpt lat="45.682367300614715" lon="6.965072192251682">
        <ele>1786.0999999999999</ele>
        <time>2021-09-12T14:43:20Z</time>
      </trkpt>
      <trkpt lat="45.682372748851776" lon="6.965057356283069">
        <ele>1785.76</ele>
        <time>2021-09-12T14:43:21Z</time>
      </trkpt>
      <trkpt lat="45.682378951460123" lon="6.965043107047677">
        <ele>1785.6900000000001</ele>
        <time>2021-09-12T14:43:22Z</time>
      </trkpt>
      <trkpt lat="45.682386076077819" lon="6.965028019621968">
        <ele>1785.5899999999999</ele>
        <time>2021-09-12T14:43:23Z</time>
      </trkpt>
      <trkpt lat="45.682393535971642" lon="6.965013016015291">
        <ele>1785.3199999999999</ele>
        <time>2021-09-12T14:43:24Z</time>
      </trkpt>
      <trkpt lat="45.682440558448434" lon="6.964889550581574">
        <ele>1783.8</ele>
        <time>2021-09-12T14:43:36Z</time>
      </trkpt>
      <trkpt lat="45.682446006685495" lon="6.964876055717468">
        <ele>1783.5999999999999</ele>
        <time>2021-09-12T14:43:37Z</time>
      </trkpt>
      <trkpt lat="45.682468051090837" lon="6.964835906401277">
        <ele>1783.0999999999999</ele>
        <time>2021-09-12T14:43:40Z</time>
      </trkpt>
      <trkpt lat="45.682478779926896" lon="6.964824674651027">
        <ele>1782.75</ele>
        <time>2021-09-12T14:43:41Z</time>
      </trkpt>
      <trkpt lat="45.682491855695844" lon="6.964817885309458">
        <ele>1782.76</ele>
        <time>2021-09-12T14:43:42Z</time>
      </trkpt>
      <trkpt lat="45.68256544880569" lon="6.964757619425654">
        <ele>1781.97</ele>
        <time>2021-09-12T14:43:53Z</time>
      </trkpt>
      <trkpt lat="45.682569639757276" lon="6.964744962751865">
        <ele>1781.98</ele>
        <time>2021-09-12T14:43:54Z</time>
      </trkpt>
      <trkpt lat="45.682577351108193" lon="6.964729623869062">
        <ele>1781.45</ele>
        <time>2021-09-12T14:43:55Z</time>
      </trkpt>
      <trkpt lat="45.682586403563619" lon="6.964716045185924">
        <ele>1781.3900000000001</ele>
        <time>2021-09-12T14:43:56Z</time>
      </trkpt>
      <trkpt lat="45.682595623657107" lon="6.964704226702452">
        <ele>1781.47</ele>
        <time>2021-09-12T14:43:57Z</time>
      </trkpt>
      <trkpt lat="45.682605179026723" lon="6.964692156761885">
        <ele>1781.3499999999999</ele>
        <time>2021-09-12T14:43:58Z</time>
      </trkpt>
      <trkpt lat="45.682737613096833" lon="6.964546227827668">
        <ele>1780.1099999999999</ele>
        <time>2021-09-12T14:44:13Z</time>
      </trkpt>
      <trkpt lat="45.682797627523541" lon="6.964458385482431">
        <ele>1778.03</ele>
        <time>2021-09-12T14:44:25Z</time>
      </trkpt>
      <trkpt lat="45.682812379673123" lon="6.964399963617325">
        <ele>1777.26</ele>
        <time>2021-09-12T14:44:32Z</time>
      </trkpt>
      <trkpt lat="45.682833669707179" lon="6.964341206476092">
        <ele>1776.3900000000001</ele>
        <time>2021-09-12T14:44:37Z</time>
      </trkpt>
      <trkpt lat="45.682840626686811" lon="6.964330058544874">
        <ele>1776.3299999999999</ele>
        <time>2021-09-12T14:44:38Z</time>
      </trkpt>
      <trkpt lat="45.682880776003003" lon="6.964271636679769">
        <ele>1775.9300000000001</ele>
        <time>2021-09-12T14:44:48Z</time>
      </trkpt>
      <trkpt lat="45.682873399928212" lon="6.964246407151222">
        <ele>1775.6600000000001</ele>
        <time>2021-09-12T14:44:55Z</time>
      </trkpt>
      <trkpt lat="45.682875076308846" lon="6.964229140430689">
        <ele>1775.4400000000001</ele>
        <time>2021-09-12T14:44:56Z</time>
      </trkpt>
      <trkpt lat="45.682889074087143" lon="6.964140795171261">
        <ele>1774.3199999999999</ele>
        <time>2021-09-12T14:45:02Z</time>
      </trkpt>
      <trkpt lat="45.682897036895156" lon="6.964111542329192">
        <ele>1773.99</ele>
        <time>2021-09-12T14:45:11Z</time>
      </trkpt>
      <trkpt lat="45.682906173169613" lon="6.964108357205987">
        <ele>1774.3099999999999</ele>
        <time>2021-09-12T14:45:15Z</time>
      </trkpt>
      <trkpt lat="45.682910531759262" lon="6.964114140719175">
        <ele>1773.8399999999999</ele>
        <time>2021-09-12T14:45:21Z</time>
      </trkpt>
      <trkpt lat="45.682913213968277" lon="6.964069297537208">
        <ele>1773.46</ele>
        <time>2021-09-12T14:45:27Z</time>
      </trkpt>
      <trkpt lat="45.682908184826374" lon="6.964008277282119">
        <ele>1772.54</ele>
        <time>2021-09-12T14:45:31Z</time>
      </trkpt>
      <trkpt lat="45.682912459596992" lon="6.963943568989635">
        <ele>1771.97</ele>
        <time>2021-09-12T14:45:35Z</time>
      </trkpt>
      <trkpt lat="45.682918829843402" lon="6.963927643373609">
        <ele>1771.99</ele>
        <time>2021-09-12T14:45:36Z</time>
      </trkpt>
      <trkpt lat="45.682928049936891" lon="6.96391649544239">
        <ele>1772.1500000000001</ele>
        <time>2021-09-12T14:45:37Z</time>
      </trkpt>
      <trkpt lat="45.682937856763601" lon="6.963905682787299">
        <ele>1772.1500000000001</ele>
        <time>2021-09-12T14:45:38Z</time>
      </trkpt>
      <trkpt lat="45.682946238666773" lon="6.963884644210339">
        <ele>1772.05</ele>
        <time>2021-09-12T14:45:39Z</time>
      </trkpt>
      <trkpt lat="45.682954033836722" lon="6.963869137689471">
        <ele>1771.96</ele>
        <time>2021-09-12T14:45:40Z</time>
      </trkpt>
      <trkpt lat="45.682968534529209" lon="6.963841812685132">
        <ele>1771.51</ele>
        <time>2021-09-12T14:45:42Z</time>
      </trkpt>
      <trkpt lat="45.683058891445398" lon="6.963678700849414">
        <ele>1769.5899999999999</ele>
        <time>2021-09-12T14:45:56Z</time>
      </trkpt>
      <trkpt lat="45.68307364359498" lon="6.963649783283472">
        <ele>1768.8900000000001</ele>
        <time>2021-09-12T14:45:59Z</time>
      </trkpt>
      <trkpt lat="45.683102980256081" lon="6.963612483814359">
        <ele>1767.5999999999999</ele>
        <time>2021-09-12T14:46:09Z</time>
      </trkpt>
      <trkpt lat="45.683100800961256" lon="6.96356512606144">
        <ele>1766.78</ele>
        <time>2021-09-12T14:46:19Z</time>
      </trkpt>
      <trkpt lat="45.683109099045396" lon="6.963537968695164">
        <ele>1766.1600000000001</ele>
        <time>2021-09-12T14:46:21Z</time>
      </trkpt>
      <trkpt lat="45.683104153722525" lon="6.963465884327889">
        <ele>1764.72</ele>
        <time>2021-09-12T14:46:27Z</time>
      </trkpt>
      <trkpt lat="45.683097448199987" lon="6.963439816609025">
        <ele>1764.0599999999999</ele>
        <time>2021-09-12T14:46:29Z</time>
      </trkpt>
      <trkpt lat="45.683125695213675" lon="6.963352728635073">
        <ele>1761.53</ele>
        <time>2021-09-12T14:46:38Z</time>
      </trkpt>
      <trkpt lat="45.683135837316513" lon="6.96322750300169">
        <ele>1759.21</ele>
        <time>2021-09-12T14:46:50Z</time>
      </trkpt>
      <trkpt lat="45.683147236704826" lon="6.963209146633744">
        <ele>1758.9200000000001</ele>
        <time>2021-09-12T14:46:51Z</time>
      </trkpt>
      <trkpt lat="45.68316207267344" lon="6.963190203532577">
        <ele>1758.71</ele>
        <time>2021-09-12T14:46:52Z</time>
      </trkpt>
      <trkpt lat="45.683263828977942" lon="6.96312147192657">
        <ele>1756.8499999999999</ele>
        <time>2021-09-12T14:47:02Z</time>
      </trkpt>
      <trkpt lat="45.6833506654948" lon="6.963025834411383">
        <ele>1755.1600000000001</ele>
        <time>2021-09-12T14:47:12Z</time>
      </trkpt>
      <trkpt lat="45.683380169793963" lon="6.962967496365309">
        <ele>1753.97</ele>
        <time>2021-09-12T14:47:25Z</time>
      </trkpt>
      <trkpt lat="45.683395592495799" lon="6.962915696203709">
        <ele>1752.6600000000001</ele>
        <time>2021-09-12T14:47:36Z</time>
      </trkpt>
      <trkpt lat="45.683406488969922" lon="6.962835062295198">
        <ele>1750.9400000000001</ele>
        <time>2021-09-12T14:47:48Z</time>
      </trkpt>
      <trkpt lat="45.683393832296133" lon="6.962763732299209">
        <ele>1749.79</ele>
        <time>2021-09-12T14:47:56Z</time>
      </trkpt>
      <trkpt lat="45.683357371017337" lon="6.962722493335605">
        <ele>1749.52</ele>
        <time>2021-09-12T14:48:02Z</time>
      </trkpt>
      <trkpt lat="45.683332225307822" lon="6.962688798084855">
        <ele>1749.28</ele>
        <time>2021-09-12T14:48:05Z</time>
      </trkpt>
      <trkpt lat="45.68332233466208" lon="6.962674548849464">
        <ele>1749.3</ele>
        <time>2021-09-12T14:48:06Z</time>
      </trkpt>
      <trkpt lat="45.683317221701145" lon="6.962660467252135">
        <ele>1749.26</ele>
        <time>2021-09-12T14:48:07Z</time>
      </trkpt>
      <trkpt lat="45.683293081820011" lon="6.962550412863493">
        <ele>1749.9200000000001</ele>
        <time>2021-09-12T14:48:17Z</time>
      </trkpt>
      <trkpt lat="45.683289729058743" lon="6.962527865543962">
        <ele>1749.75</ele>
        <time>2021-09-12T14:48:18Z</time>
      </trkpt>
      <trkpt lat="45.683279251679778" lon="6.962340781465173">
        <ele>1748.3099999999999</ele>
        <time>2021-09-12T14:48:30Z</time>
      </trkpt>
      <trkpt lat="45.683306995779276" lon="6.962304739281535">
        <ele>1748.2</ele>
        <time>2021-09-12T14:48:40Z</time>
      </trkpt>
      <trkpt lat="45.683345217257738" lon="6.962258471176028">
        <ele>1747.75</ele>
        <time>2021-09-12T14:48:58Z</time>
      </trkpt>
      <trkpt lat="45.683358544483781" lon="6.96225511841476">
        <ele>1747.6199999999999</ele>
        <time>2021-09-12T14:49:14Z</time>
      </trkpt>
      <trkpt lat="45.683366591110826" lon="6.962254280224443">
        <ele>1747.76</ele>
        <time>2021-09-12T14:49:30Z</time>
      </trkpt>
      <trkpt lat="45.683381343260407" lon="6.962256627157331">
        <ele>1747.8</ele>
        <time>2021-09-12T14:49:51Z</time>
      </trkpt>
      <trkpt lat="45.683384025469422" lon="6.962258890271187">
        <ele>1747.6099999999999</ele>
        <time>2021-09-12T14:50:06Z</time>
      </trkpt>
      <trkpt lat="45.683419480919838" lon="6.96222092024982">
        <ele>1745.76</ele>
        <time>2021-09-12T14:50:16Z</time>
      </trkpt>
      <trkpt lat="45.683419648557901" lon="6.962194517254829">
        <ele>1744.53</ele>
        <time>2021-09-12T14:50:18Z</time>
      </trkpt>
      <trkpt lat="45.683422582224011" lon="6.962165851145983">
        <ele>1743.8699999999999</ele>
        <time>2021-09-12T14:50:20Z</time>
      </trkpt>
      <trkpt lat="45.683458456769586" lon="6.962100807577372">
        <ele>1740.98</ele>
        <time>2021-09-12T14:50:31Z</time>
      </trkpt>
      <trkpt lat="45.683502377942204" lon="6.962115475907922">
        <ele>1738.6900000000001</ele>
        <time>2021-09-12T14:50:42Z</time>
      </trkpt>
      <trkpt lat="45.683520147576928" lon="6.962089156731963">
        <ele>1737.6300000000001</ele>
        <time>2021-09-12T14:50:45Z</time>
      </trkpt>
      <trkpt lat="45.683518219739199" lon="6.96201179176569">
        <ele>1735.3599999999999</ele>
        <time>2021-09-12T14:50:55Z</time>
      </trkpt>
      <trkpt lat="45.683474550023675" lon="6.961997458711267">
        <ele>1734.0899999999999</ele>
        <time>2021-09-12T14:51:09Z</time>
      </trkpt>
      <trkpt lat="45.68343373015523" lon="6.961954291909933">
        <ele>1731.9300000000001</ele>
        <time>2021-09-12T14:51:20Z</time>
      </trkpt>
      <trkpt lat="45.683417804539204" lon="6.961842980235815">
        <ele>1729.3299999999999</ele>
        <time>2021-09-12T14:51:33Z</time>
      </trkpt>
      <trkpt lat="45.683453008532524" lon="6.961833592504263">
        <ele>1728.52</ele>
        <time>2021-09-12T14:51:37Z</time>
      </trkpt>
      <trkpt lat="45.683465413749218" lon="6.961831077933312">
        <ele>1728.4100000000001</ele>
        <time>2021-09-12T14:51:38Z</time>
      </trkpt>
      <trkpt lat="45.683552836999297" lon="6.961764274165034">
        <ele>1725.5899999999999</ele>
        <time>2021-09-12T14:51:48Z</time>
      </trkpt>
      <trkpt lat="45.683590304106474" lon="6.96174549870193">
        <ele>1724.8199999999999</ele>
        <time>2021-09-12T14:51:51Z</time>
      </trkpt>
      <trkpt lat="45.683604972437024" lon="6.961741726845503">
        <ele>1724.6199999999999</ele>
        <time>2021-09-12T14:51:52Z</time>
      </trkpt>
      <trkpt lat="45.683618215844035" lon="6.961737954989076">
        <ele>1724.4000000000001</ele>
        <time>2021-09-12T14:51:53Z</time>
      </trkpt>
      <trkpt lat="45.683630872517824" lon="6.961735021322966">
        <ele>1724.03</ele>
        <time>2021-09-12T14:51:54Z</time>
      </trkpt>
      <trkpt lat="45.683644786477089" lon="6.961732842028141">
        <ele>1723.8699999999999</ele>
        <time>2021-09-12T14:51:55Z</time>
      </trkpt>
      <trkpt lat="45.683752074837685" lon="6.961698895320296">
        <ele>1723.8</ele>
        <time>2021-09-12T14:52:05Z</time>
      </trkpt>
      <trkpt lat="45.683849975466728" lon="6.961701326072216">
        <ele>1722.8800000000001</ele>
        <time>2021-09-12T14:52:14Z</time>
      </trkpt>
      <trkpt lat="45.683966651558876" lon="6.961714150384069">
        <ele>1721.78</ele>
        <time>2021-09-12T14:52:26Z</time>
      </trkpt>
      <trkpt lat="45.684067653492093" lon="6.961755305528641">
        <ele>1722.1099999999999</ele>
        <time>2021-09-12T14:52:35Z</time>
      </trkpt>
      <trkpt lat="45.684077963232994" lon="6.961764525622129">
        <ele>1722.3299999999999</ele>
        <time>2021-09-12T14:52:36Z</time>
      </trkpt>
      <trkpt lat="45.684090536087751" lon="6.961774248629808">
        <ele>1722.48</ele>
        <time>2021-09-12T14:52:37Z</time>
      </trkpt>
      <trkpt lat="45.684101264923811" lon="6.961783468723297">
        <ele>1722.5699999999999</ele>
        <time>2021-09-12T14:52:38Z</time>
      </trkpt>
      <trkpt lat="45.684216851368546" lon="6.961810039356351">
        <ele>1723.24</ele>
        <time>2021-09-12T14:52:49Z</time>
      </trkpt>
      <trkpt lat="45.684277787804604" lon="6.961834765970707">
        <ele>1723.9300000000001</ele>
        <time>2021-09-12T14:52:55Z</time>
      </trkpt>
      <trkpt lat="45.684299832209945" lon="6.961852367967367">
        <ele>1724.1099999999999</ele>
        <time>2021-09-12T14:52:57Z</time>
      </trkpt>
      <trkpt lat="45.684320535510778" lon="6.961873658001423">
        <ele>1724.22</ele>
        <time>2021-09-12T14:52:59Z</time>
      </trkpt>
      <trkpt lat="45.684332186356187" lon="6.961886817589402">
        <ele>1724.29</ele>
        <time>2021-09-12T14:53:00Z</time>
      </trkpt>
      <trkpt lat="45.684344591572881" lon="6.961900647729635">
        <ele>1724.1300000000001</ele>
        <time>2021-09-12T14:53:01Z</time>
      </trkpt>
      <trkpt lat="45.684356577694416" lon="6.961913052946329">
        <ele>1724.1700000000001</ele>
        <time>2021-09-12T14:53:02Z</time>
      </trkpt>
      <trkpt lat="45.684370407834649" lon="6.961922189220786">
        <ele>1724.0899999999999</ele>
        <time>2021-09-12T14:53:03Z</time>
      </trkpt>
      <trkpt lat="45.68438314832747" lon="6.961932918056846">
        <ele>1724.1700000000001</ele>
        <time>2021-09-12T14:53:04Z</time>
      </trkpt>
      <trkpt lat="45.684392871335149" lon="6.961945993825793">
        <ele>1724.1500000000001</ele>
        <time>2021-09-12T14:53:05Z</time>
      </trkpt>
      <trkpt lat="45.684401085600257" lon="6.961960745975375">
        <ele>1724.1600000000001</ele>
        <time>2021-09-12T14:53:06Z</time>
      </trkpt>
      <trkpt lat="45.684408210217953" lon="6.961976084858179">
        <ele>1724.27</ele>
        <time>2021-09-12T14:53:07Z</time>
      </trkpt>
      <trkpt lat="45.684413071721792" lon="6.961989412084222">
        <ele>1724.3499999999999</ele>
        <time>2021-09-12T14:53:08Z</time>
      </trkpt>
      <trkpt lat="45.684421369805932" lon="6.962002571672201">
        <ele>1724.3499999999999</ele>
        <time>2021-09-12T14:53:09Z</time>
      </trkpt>
      <trkpt lat="45.684430338442326" lon="6.962015312165022">
        <ele>1724.4300000000001</ele>
        <time>2021-09-12T14:53:10Z</time>
      </trkpt>
      <trkpt lat="45.684437295421958" lon="6.962027298286557">
        <ele>1724.3499999999999</ele>
        <time>2021-09-12T14:53:11Z</time>
      </trkpt>
      <trkpt lat="45.684470990672708" lon="6.962050767615438">
        <ele>1724.3399999999999</ele>
        <time>2021-09-12T14:53:22Z</time>
      </trkpt>
      <trkpt lat="45.684460680931807" lon="6.96205722168088">
        <ele>1723.76</ele>
        <time>2021-09-12T14:53:36Z</time>
      </trkpt>
      <trkpt lat="45.684444168582559" lon="6.96206895634532">
        <ele>1724.1600000000001</ele>
        <time>2021-09-12T14:53:57Z</time>
      </trkpt>
      <trkpt lat="45.684441151097417" lon="6.962081780657172">
        <ele>1723.99</ele>
        <time>2021-09-12T14:54:15Z</time>
      </trkpt>
      <trkpt lat="45.684426818042994" lon="6.962122684344649">
        <ele>1723.75</ele>
        <time>2021-09-12T14:54:33Z</time>
      </trkpt>
      <trkpt lat="45.684459507465363" lon="6.962167359888554">
        <ele>1723.0899999999999</ele>
        <time>2021-09-12T14:54:38Z</time>
      </trkpt>
      <trkpt lat="45.684503428637981" lon="6.962246652692556">
        <ele>1721.3499999999999</ele>
        <time>2021-09-12T14:54:47Z</time>
      </trkpt>
      <trkpt lat="45.684522120282054" lon="6.962307170033455">
        <ele>1719.8499999999999</ele>
        <time>2021-09-12T14:54:52Z</time>
      </trkpt>
      <trkpt lat="45.684540811926126" lon="6.962407166138291">
        <ele>1717.7</ele>
        <time>2021-09-12T14:55:03Z</time>
      </trkpt>
      <trkpt lat="45.684575345367193" lon="6.962383864447475">
        <ele>1715.6300000000001</ele>
        <time>2021-09-12T14:55:12Z</time>
      </trkpt>
      <trkpt lat="45.684568388387561" lon="6.96229862049222">
        <ele>1715.01</ele>
        <time>2021-09-12T14:55:20Z</time>
      </trkpt>
      <trkpt lat="45.684569897130132" lon="6.962279761210084">
        <ele>1714.8900000000001</ele>
        <time>2021-09-12T14:55:21Z</time>
      </trkpt>
      <trkpt lat="45.684572411701083" lon="6.962261823937297">
        <ele>1714.5899999999999</ele>
        <time>2021-09-12T14:55:22Z</time>
      </trkpt>
      <trkpt lat="45.68460350856185" lon="6.962161660194397">
        <ele>1712.6800000000001</ele>
        <time>2021-09-12T14:55:33Z</time>
      </trkpt>
      <trkpt lat="45.684643825516105" lon="6.962185213342309">
        <ele>1711.0699999999999</ele>
        <time>2021-09-12T14:55:41Z</time>
      </trkpt>
      <trkpt lat="45.684691518545151" lon="6.962248496711254">
        <ele>1709.28</ele>
        <time>2021-09-12T14:55:56Z</time>
      </trkpt>
      <trkpt lat="45.684755807742476" lon="6.962309600785375">
        <ele>1707.0899999999999</ele>
        <time>2021-09-12T14:56:08Z</time>
      </trkpt>
      <trkpt lat="45.684749269858003" lon="6.962315384298563">
        <ele>1706.77</ele>
        <time>2021-09-12T14:56:19Z</time>
      </trkpt>
      <trkpt lat="45.684759579598904" lon="6.962303733453155">
        <ele>1706.9300000000001</ele>
        <time>2021-09-12T14:56:33Z</time>
      </trkpt>
      <trkpt lat="45.684777097776532" lon="6.962302727624774">
        <ele>1706.21</ele>
        <time>2021-09-12T14:56:49Z</time>
      </trkpt>
      <trkpt lat="45.684830406680703" lon="6.962361820042133">
        <ele>1703.4000000000001</ele>
        <time>2021-09-12T14:56:57Z</time>
      </trkpt>
      <trkpt lat="45.684840297326446" lon="6.962373470887542">
        <ele>1703.29</ele>
        <time>2021-09-12T14:56:58Z</time>
      </trkpt>
      <trkpt lat="45.684848763048649" lon="6.962383696809411">
        <ele>1703.01</ele>
        <time>2021-09-12T14:56:59Z</time>
      </trkpt>
      <trkpt lat="45.684857480227947" lon="6.9623963534832">
        <ele>1702.6900000000001</ele>
        <time>2021-09-12T14:57:00Z</time>
      </trkpt>
      <trkpt lat="45.684866532683372" lon="6.962406914681196">
        <ele>1702.5899999999999</ele>
        <time>2021-09-12T14:57:01Z</time>
      </trkpt>
      <trkpt lat="45.684877512976527" lon="6.962416721507907">
        <ele>1702.4000000000001</ele>
        <time>2021-09-12T14:57:02Z</time>
      </trkpt>
      <trkpt lat="45.684897713363171" lon="6.962421163916588">
        <ele>1701.97</ele>
        <time>2021-09-12T14:57:04Z</time>
      </trkpt>
      <trkpt lat="45.684908861294389" lon="6.962422085925937">
        <ele>1701.7</ele>
        <time>2021-09-12T14:57:05Z</time>
      </trkpt>
      <trkpt lat="45.684920847415924" lon="6.96242275647819">
        <ele>1701.3699999999999</ele>
        <time>2021-09-12T14:57:06Z</time>
      </trkpt>
      <trkpt lat="45.68493434228003" lon="6.962429713457823">
        <ele>1701.1099999999999</ele>
        <time>2021-09-12T14:57:07Z</time>
      </trkpt>
      <trkpt lat="45.684994105249643" lon="6.962473215535283">
        <ele>1699.49</ele>
        <time>2021-09-12T14:57:15Z</time>
      </trkpt>
      <trkpt lat="45.68500617519021" lon="6.962420158088207">
        <ele>1697.0699999999999</ele>
        <time>2021-09-12T14:57:25Z</time>
      </trkpt>
      <trkpt lat="45.684999721124768" lon="6.962409429252148">
        <ele>1696.9000000000001</ele>
        <time>2021-09-12T14:57:26Z</time>
      </trkpt>
      <trkpt lat="45.684985974803567" lon="6.962392833083868">
        <ele>1696.29</ele>
        <time>2021-09-12T14:57:28Z</time>
      </trkpt>
      <trkpt lat="45.684973569586873" lon="6.962385205551982">
        <ele>1695.8499999999999</ele>
        <time>2021-09-12T14:57:29Z</time>
      </trkpt>
      <trkpt lat="45.684961164370179" lon="6.962374811992049">
        <ele>1695.77</ele>
        <time>2021-09-12T14:57:30Z</time>
      </trkpt>
      <trkpt lat="45.684951692819595" lon="6.962368190288544">
        <ele>1695.3</ele>
        <time>2021-09-12T14:57:31Z</time>
      </trkpt>
      <trkpt lat="45.684900227934122" lon="6.96230985224247">
        <ele>1693.52</ele>
        <time>2021-09-12T14:57:39Z</time>
      </trkpt>
      <trkpt lat="45.684892851859331" lon="6.962289484217763">
        <ele>1693.3199999999999</ele>
        <time>2021-09-12T14:57:40Z</time>
      </trkpt>
      <trkpt lat="45.684882206842303" lon="6.962259225547314">
        <ele>1692.8599999999999</ele>
        <time>2021-09-12T14:57:42Z</time>
      </trkpt>
      <trkpt lat="45.684876423329115" lon="6.962241036817431">
        <ele>1692.5699999999999</ele>
        <time>2021-09-12T14:57:43Z</time>
      </trkpt>
      <trkpt lat="45.684866784140468" lon="6.962228212505579">
        <ele>1692.3699999999999</ele>
        <time>2021-09-12T14:57:44Z</time>
      </trkpt>
      <trkpt lat="45.684854546561837" lon="6.962209939956665">
        <ele>1692.2</ele>
        <time>2021-09-12T14:57:45Z</time>
      </trkpt>
      <trkpt lat="45.684845494106412" lon="6.962191248312593">
        <ele>1692.1400000000001</ele>
        <time>2021-09-12T14:57:46Z</time>
      </trkpt>
      <trkpt lat="45.684838201850653" lon="6.962172891944647">
        <ele>1691.98</ele>
        <time>2021-09-12T14:57:47Z</time>
      </trkpt>
      <trkpt lat="45.684823617339134" lon="6.962022436782718">
        <ele>1690.0599999999999</ele>
        <time>2021-09-12T14:57:56Z</time>
      </trkpt>
      <trkpt lat="45.684801824390888" lon="6.961953369900584">
        <ele>1689.21</ele>
        <time>2021-09-12T14:58:01Z</time>
      </trkpt>
      <trkpt lat="45.684764860197902" lon="6.961863432079554">
        <ele>1688.4100000000001</ele>
        <time>2021-09-12T14:58:07Z</time>
      </trkpt>
      <trkpt lat="45.684747090563178" lon="6.961736781522632">
        <ele>1685.28</ele>
        <time>2021-09-12T14:58:16Z</time>
      </trkpt>
      <trkpt lat="45.684811966493726" lon="6.961677605286241">
        <ele>1682.8399999999999</ele>
        <time>2021-09-12T14:58:26Z</time>
      </trkpt>
      <trkpt lat="45.684865023940802" lon="6.961691938340664">
        <ele>1680.71</ele>
        <time>2021-09-12T14:58:42Z</time>
      </trkpt>
      <trkpt lat="45.684882458299398" lon="6.961676850914955">
        <ele>1680.25</ele>
        <time>2021-09-12T14:58:44Z</time>
      </trkpt>
      <trkpt lat="45.684939622879028" lon="6.96163066662848">
        <ele>1677.1500000000001</ele>
        <time>2021-09-12T14:58:51Z</time>
      </trkpt>
      <trkpt lat="45.685003325343132" lon="6.961601413786411">
        <ele>1675.1800000000001</ele>
        <time>2021-09-12T14:58:59Z</time>
      </trkpt>
      <trkpt lat="45.68501346744597" lon="6.961603676900268">
        <ele>1674.8499999999999</ele>
        <time>2021-09-12T14:59:00Z</time>
      </trkpt>
      <trkpt lat="45.685024363920093" lon="6.961607448756695">
        <ele>1674.6400000000001</ele>
        <time>2021-09-12T14:59:01Z</time>
      </trkpt>
      <trkpt lat="45.685047246515751" lon="6.961583895608783">
        <ele>1673.95</ele>
        <time>2021-09-12T14:59:05Z</time>
      </trkpt>
      <trkpt lat="45.685049761086702" lon="6.961569227278233">
        <ele>1673.8299999999999</ele>
        <time>2021-09-12T14:59:06Z</time>
      </trkpt>
      <trkpt lat="45.685053281486034" lon="6.961554894223809">
        <ele>1673.5599999999999</ele>
        <time>2021-09-12T14:59:07Z</time>
      </trkpt>
      <trkpt lat="45.685074320062995" lon="6.961471661925316">
        <ele>1671.6199999999999</ele>
        <time>2021-09-12T14:59:15Z</time>
      </trkpt>
      <trkpt lat="45.685082953423262" lon="6.961459256708622">
        <ele>1671.3299999999999</ele>
        <time>2021-09-12T14:59:16Z</time>
      </trkpt>
      <trkpt lat="45.685090329498053" lon="6.961447605863214">
        <ele>1671.0899999999999</ele>
        <time>2021-09-12T14:59:17Z</time>
      </trkpt>
      <trkpt lat="45.685098124668002" lon="6.961434278637171">
        <ele>1670.9300000000001</ele>
        <time>2021-09-12T14:59:18Z</time>
      </trkpt>
      <trkpt lat="45.685098292306066" lon="6.961416341364384">
        <ele>1670.5999999999999</ele>
        <time>2021-09-12T14:59:19Z</time>
      </trkpt>
      <trkpt lat="45.685096029192209" lon="6.96139806881547">
        <ele>1670.3299999999999</ele>
        <time>2021-09-12T14:59:20Z</time>
      </trkpt>
      <trkpt lat="45.685097705572844" lon="6.961357919499278">
        <ele>1669.8099999999999</ele>
        <time>2021-09-12T14:59:23Z</time>
      </trkpt>
      <trkpt lat="45.685121929273009" lon="6.961237639188767">
        <ele>1668.8800000000001</ele>
        <time>2021-09-12T14:59:33Z</time>
      </trkpt>
      <trkpt lat="45.685142297297716" lon="6.961153652518988">
        <ele>1666.22</ele>
        <time>2021-09-12T14:59:40Z</time>
      </trkpt>
      <trkpt lat="45.685177082195878" lon="6.961071761325002">
        <ele>1663.99</ele>
        <time>2021-09-12T14:59:49Z</time>
      </trkpt>
      <trkpt lat="45.685212034732103" lon="6.960979057475925">
        <ele>1662.6500000000001</ele>
        <time>2021-09-12T14:59:58Z</time>
      </trkpt>
      <trkpt lat="45.685219159349799" lon="6.960967406630516">
        <ele>1662.3199999999999</ele>
        <time>2021-09-12T14:59:59Z</time>
      </trkpt>
      <trkpt lat="45.685229385271668" lon="6.960956761613488">
        <ele>1662.0999999999999</ele>
        <time>2021-09-12T15:00:00Z</time>
      </trkpt>
      <trkpt lat="45.685239862650633" lon="6.96094804443419">
        <ele>1661.8099999999999</ele>
        <time>2021-09-12T15:00:01Z</time>
      </trkpt>
      <trkpt lat="45.685252100229263" lon="6.96094460785389">
        <ele>1661.78</ele>
        <time>2021-09-12T15:00:02Z</time>
      </trkpt>
      <trkpt lat="45.685262912884355" lon="6.960940333083272">
        <ele>1661.3900000000001</ele>
        <time>2021-09-12T15:00:03Z</time>
      </trkpt>
      <trkpt lat="45.685285963118076" lon="6.960934130474925">
        <ele>1660.6800000000001</ele>
        <time>2021-09-12T15:00:11Z</time>
      </trkpt>
      <trkpt lat="45.685340613126755" lon="6.960963718593121">
        <ele>1659.6400000000001</ele>
        <time>2021-09-12T15:00:17Z</time>
      </trkpt>
      <trkpt lat="45.685352934524417" lon="6.960971429944038">
        <ele>1659.3900000000001</ele>
        <time>2021-09-12T15:00:18Z</time>
      </trkpt>
      <trkpt lat="45.68537506274879" lon="6.960983499884605">
        <ele>1659.21</ele>
        <time>2021-09-12T15:00:20Z</time>
      </trkpt>
      <trkpt lat="45.685445554554462" lon="6.961110904812813">
        <ele>1656.53</ele>
        <time>2021-09-12T15:00:32Z</time>
      </trkpt>
      <trkpt lat="45.685520237311721" lon="6.961221797391772">
        <ele>1655.95</ele>
        <time>2021-09-12T15:00:42Z</time>
      </trkpt>
      <trkpt lat="45.685545047745109" lon="6.961264628916979">
        <ele>1655.97</ele>
        <time>2021-09-12T15:00:46Z</time>
      </trkpt>
      <trkpt lat="45.685566924512386" lon="6.961282482370734">
        <ele>1655.8599999999999</ele>
        <time>2021-09-12T15:00:48Z</time>
      </trkpt>
      <trkpt lat="45.685640433803201" lon="6.961337802931666">
        <ele>1655.4100000000001</ele>
        <time>2021-09-12T15:00:58Z</time>
      </trkpt>
      <trkpt lat="45.685689887031913" lon="6.96138490922749">
        <ele>1653.9100000000001</ele>
        <time>2021-09-12T15:01:07Z</time>
      </trkpt>
      <trkpt lat="45.68573615513742" lon="6.961396057158709">
        <ele>1653.4100000000001</ele>
        <time>2021-09-12T15:01:12Z</time>
      </trkpt>
      <trkpt lat="45.68574889563024" lon="6.96140150539577">
        <ele>1653.1400000000001</ele>
        <time>2021-09-12T15:01:13Z</time>
      </trkpt>
      <trkpt lat="45.685764066874981" lon="6.961409132927656">
        <ele>1652.97</ele>
        <time>2021-09-12T15:01:14Z</time>
      </trkpt>
      <trkpt lat="45.685778316110373" lon="6.961413407698274">
        <ele>1652.96</ele>
        <time>2021-09-12T15:01:15Z</time>
      </trkpt>
      <trkpt lat="45.685792481526732" lon="6.961416006088257">
        <ele>1652.8800000000001</ele>
        <time>2021-09-12T15:01:16Z</time>
      </trkpt>
      <trkpt lat="45.685816956683993" lon="6.961417766287923">
        <ele>1652.8399999999999</ele>
        <time>2021-09-12T15:01:18Z</time>
      </trkpt>
      <trkpt lat="45.685828104615211" lon="6.961427070200443">
        <ele>1652.8099999999999</ele>
        <time>2021-09-12T15:01:19Z</time>
      </trkpt>
      <trkpt lat="45.685838749632239" lon="6.961435368284583">
        <ele>1652.9000000000001</ele>
        <time>2021-09-12T15:01:20Z</time>
      </trkpt>
      <trkpt lat="45.685851657763124" lon="6.961444588378072">
        <ele>1652.9200000000001</ele>
        <time>2021-09-12T15:01:21Z</time>
      </trkpt>
      <trkpt lat="45.68595458753407" lon="6.961482306942344">
        <ele>1652.3399999999999</ele>
        <time>2021-09-12T15:01:31Z</time>
      </trkpt>
      <trkpt lat="45.686135301366448" lon="6.961564868688583">
        <ele>1650.6900000000001</ele>
        <time>2021-09-12T15:01:44Z</time>
      </trkpt>
      <trkpt lat="45.686206799000502" lon="6.961632175371051">
        <ele>1648.49</ele>
        <time>2021-09-12T15:01:52Z</time>
      </trkpt>
      <trkpt lat="45.686253067106009" lon="6.96166536770761">
        <ele>1646.75</ele>
        <time>2021-09-12T15:01:58Z</time>
      </trkpt>
      <trkpt lat="45.686263209208846" lon="6.961672157049179">
        <ele>1646.46</ele>
        <time>2021-09-12T15:01:59Z</time>
      </trkpt>
      <trkpt lat="45.686310650780797" lon="6.96169026196003">
        <ele>1645.1300000000001</ele>
        <time>2021-09-12T15:02:04Z</time>
      </trkpt>
      <trkpt lat="45.686323475092649" lon="6.961692105978727">
        <ele>1644.77</ele>
        <time>2021-09-12T15:02:05Z</time>
      </trkpt>
      <trkpt lat="45.686337137594819" lon="6.96169906295836">
        <ele>1644.53</ele>
        <time>2021-09-12T15:02:06Z</time>
      </trkpt>
      <trkpt lat="45.686349039897323" lon="6.961706103757024">
        <ele>1644.1600000000001</ele>
        <time>2021-09-12T15:02:07Z</time>
      </trkpt>
      <trkpt lat="45.686360690742731" lon="6.961710629984736">
        <ele>1643.9000000000001</ele>
        <time>2021-09-12T15:02:08Z</time>
      </trkpt>
      <trkpt lat="45.686379969120026" lon="6.961722699925304">
        <ele>1643.3299999999999</ele>
        <time>2021-09-12T15:02:10Z</time>
      </trkpt>
      <trkpt lat="45.686443755403161" lon="6.961771482601762">
        <ele>1642</ele>
        <time>2021-09-12T15:02:16Z</time>
      </trkpt>
      <trkpt lat="45.686451382935047" lon="6.961784306913614">
        <ele>1641.8699999999999</ele>
        <time>2021-09-12T15:02:17Z</time>
      </trkpt>
      <trkpt lat="45.686499746516347" lon="6.961829736828804">
        <ele>1640.02</ele>
        <time>2021-09-12T15:02:22Z</time>
      </trkpt>
      <trkpt lat="45.686514917761087" lon="6.9618334248662">
        <ele>1639.3399999999999</ele>
        <time>2021-09-12T15:02:23Z</time>
      </trkpt>
      <trkpt lat="45.686533441767097" lon="6.961840549483895">
        <ele>1638.8299999999999</ele>
        <time>2021-09-12T15:02:24Z</time>
      </trkpt>
      <trkpt lat="45.686553474515676" lon="6.96185345761478">
        <ele>1638.45</ele>
        <time>2021-09-12T15:02:25Z</time>
      </trkpt>
      <trkpt lat="45.686569819226861" lon="6.961867287755013">
        <ele>1638.05</ele>
        <time>2021-09-12T15:02:26Z</time>
      </trkpt>
      <trkpt lat="45.68658297881484" lon="6.961879441514611">
        <ele>1637.49</ele>
        <time>2021-09-12T15:02:27Z</time>
      </trkpt>
      <trkpt lat="45.686594462022185" lon="6.961887069046497">
        <ele>1636.97</ele>
        <time>2021-09-12T15:02:28Z</time>
      </trkpt>
      <trkpt lat="45.686605777591467" lon="6.961888242512941">
        <ele>1636.6900000000001</ele>
        <time>2021-09-12T15:02:29Z</time>
      </trkpt>
      <trkpt lat="45.686655147001147" lon="6.961970217525959">
        <ele>1634.72</ele>
        <time>2021-09-12T15:02:38Z</time>
      </trkpt>
      <trkpt lat="45.686705522239208" lon="6.962005589157343">
        <ele>1633.45</ele>
        <time>2021-09-12T15:02:44Z</time>
      </trkpt>
      <trkpt lat="45.686716921627522" lon="6.962014390155673">
        <ele>1633.3099999999999</ele>
        <time>2021-09-12T15:02:45Z</time>
      </trkpt>
      <trkpt lat="45.686776684597135" lon="6.962090246379376">
        <ele>1631.8699999999999</ele>
        <time>2021-09-12T15:02:54Z</time>
      </trkpt>
      <trkpt lat="45.686810212209821" lon="6.962138190865517">
        <ele>1631.1300000000001</ele>
        <time>2021-09-12T15:02:59Z</time>
      </trkpt>
      <trkpt lat="45.686816498637199" lon="6.962152188643813">
        <ele>1630.8199999999999</ele>
        <time>2021-09-12T15:03:00Z</time>
      </trkpt>
      <trkpt lat="45.686820605769753" lon="6.962195103988051">
        <ele>1630.25</ele>
        <time>2021-09-12T15:03:03Z</time>
      </trkpt>
      <trkpt lat="45.686823204159737" lon="6.96221019141376">
        <ele>1630.1600000000001</ele>
        <time>2021-09-12T15:03:04Z</time>
      </trkpt>
      <trkpt lat="45.686876596882939" lon="6.962386211380363">
        <ele>1629.1900000000001</ele>
        <time>2021-09-12T15:03:16Z</time>
      </trkpt>
      <trkpt lat="45.686902496963739" lon="6.96243298240006">
        <ele>1628.1600000000001</ele>
        <time>2021-09-12T15:03:20Z</time>
      </trkpt>
      <trkpt lat="45.686909956857562" lon="6.962446980178356">
        <ele>1628.01</ele>
        <time>2021-09-12T15:03:21Z</time>
      </trkpt>
      <trkpt lat="45.686930073425174" lon="6.962483106181026">
        <ele>1627.4400000000001</ele>
        <time>2021-09-12T15:03:24Z</time>
      </trkpt>
      <trkpt lat="45.686964942142367" lon="6.962543455883861">
        <ele>1626.55</ele>
        <time>2021-09-12T15:03:29Z</time>
      </trkpt>
      <trkpt lat="45.687063848599792" lon="6.962670609354973">
        <ele>1625.21</ele>
        <time>2021-09-12T15:03:41Z</time>
      </trkpt>
      <trkpt lat="45.687073823064566" lon="6.962675470858812">
        <ele>1625.1800000000001</ele>
        <time>2021-09-12T15:03:42Z</time>
      </trkpt>
      <trkpt lat="45.687217237427831" lon="6.962749902158976">
        <ele>1624.3199999999999</ele>
        <time>2021-09-12T15:03:54Z</time>
      </trkpt>
      <trkpt lat="45.687229977920651" lon="6.962753338739276">
        <ele>1624.3399999999999</ele>
        <time>2021-09-12T15:03:55Z</time>
      </trkpt>
      <trkpt lat="45.687241042032838" lon="6.962760714814067">
        <ele>1624.0699999999999</ele>
        <time>2021-09-12T15:03:56Z</time>
      </trkpt>
      <trkpt lat="45.687333662062883" lon="6.962809581309557">
        <ele>1622.77</ele>
        <time>2021-09-12T15:04:08Z</time>
      </trkpt>
      <trkpt lat="45.687344977632165" lon="6.962822657078505">
        <ele>1622.29</ele>
        <time>2021-09-12T15:04:10Z</time>
      </trkpt>
      <trkpt lat="45.687356293201447" lon="6.962848221883178">
        <ele>1621.9300000000001</ele>
        <time>2021-09-12T15:04:12Z</time>
      </trkpt>
      <trkpt lat="45.687364423647523" lon="6.962874121963978">
        <ele>1621.8099999999999</ele>
        <time>2021-09-12T15:04:14Z</time>
      </trkpt>
      <trkpt lat="45.687395352870226" lon="6.962900357320905">
        <ele>1620.55</ele>
        <time>2021-09-12T15:04:24Z</time>
      </trkpt>
      <trkpt lat="45.687407841905951" lon="6.962906392291188">
        <ele>1620.46</ele>
        <time>2021-09-12T15:04:25Z</time>
      </trkpt>
      <trkpt lat="45.687416391447186" lon="6.962918629869819">
        <ele>1619.96</ele>
        <time>2021-09-12T15:04:26Z</time>
      </trkpt>
      <trkpt lat="45.687441704794765" lon="6.962927430868149">
        <ele>1619.3499999999999</ele>
        <time>2021-09-12T15:04:29Z</time>
      </trkpt>
      <trkpt lat="45.687451176345348" lon="6.962919887155294">
        <ele>1619.3299999999999</ele>
        <time>2021-09-12T15:04:30Z</time>
      </trkpt>
      <trkpt lat="45.687459809705615" lon="6.962917540222406">
        <ele>1619.1900000000001</ele>
        <time>2021-09-12T15:04:31Z</time>
      </trkpt>
      <trkpt lat="45.68747078999877" lon="6.962919384241104">
        <ele>1618.9300000000001</ele>
        <time>2021-09-12T15:04:32Z</time>
      </trkpt>
      <trkpt lat="45.687482189387083" lon="6.96292357519269">
        <ele>1618.7</ele>
        <time>2021-09-12T15:04:33Z</time>
      </trkpt>
      <trkpt lat="45.687616718932986" lon="6.962931202724576">
        <ele>1617.1199999999999</ele>
        <time>2021-09-12T15:04:43Z</time>
      </trkpt>
      <trkpt lat="45.687718978151679" lon="6.962917540222406">
        <ele>1615.52</ele>
        <time>2021-09-12T15:04:52Z</time>
      </trkpt>
      <trkpt lat="45.687833894044161" lon="6.962864985689521">
        <ele>1614.52</ele>
        <time>2021-09-12T15:05:03Z</time>
      </trkpt>
      <trkpt lat="45.687856273725629" lon="6.962858363986015">
        <ele>1614.01</ele>
        <time>2021-09-12T15:05:06Z</time>
      </trkpt>
      <trkpt lat="45.687867002561688" lon="6.962854927405715">
        <ele>1613.8499999999999</ele>
        <time>2021-09-12T15:05:07Z</time>
      </trkpt>
      <trkpt lat="45.68791058845818" lon="6.962864147499204">
        <ele>1613</ele>
        <time>2021-09-12T15:05:12Z</time>
      </trkpt>
      <trkpt lat="45.688002957031131" lon="6.962866494432092">
        <ele>1610.8800000000001</ele>
        <time>2021-09-12T15:05:22Z</time>
      </trkpt>
      <trkpt lat="45.688025169074535" lon="6.962810838595033">
        <ele>1609.5599999999999</ele>
        <time>2021-09-12T15:05:28Z</time>
      </trkpt>
      <trkpt lat="45.688022570684552" lon="6.962796673178673">
        <ele>1609.4400000000001</ele>
        <time>2021-09-12T15:05:29Z</time>
      </trkpt>
      <trkpt lat="45.688016032800078" lon="6.962736072018743">
        <ele>1608.3399999999999</ele>
        <time>2021-09-12T15:05:34Z</time>
      </trkpt>
      <trkpt lat="45.687992395833135" lon="6.962635572999716">
        <ele>1606.24</ele>
        <time>2021-09-12T15:05:43Z</time>
      </trkpt>
      <trkpt lat="45.687991390004754" lon="6.96261964738369">
        <ele>1606.1800000000001</ele>
        <time>2021-09-12T15:05:44Z</time>
      </trkpt>
      <trkpt lat="45.687987366691232" lon="6.962605062872171">
        <ele>1605.8399999999999</ele>
        <time>2021-09-12T15:05:45Z</time>
      </trkpt>
      <trkpt lat="45.687981331720948" lon="6.962591400370002">
        <ele>1605.6700000000001</ele>
        <time>2021-09-12T15:05:46Z</time>
      </trkpt>
      <trkpt lat="45.687974710017443" lon="6.962577737867832">
        <ele>1605.53</ele>
        <time>2021-09-12T15:05:47Z</time>
      </trkpt>
      <trkpt lat="45.687956688925624" lon="6.962421080097556">
        <ele>1605.5799999999999</ele>
        <time>2021-09-12T15:05:59Z</time>
      </trkpt>
      <trkpt lat="45.687981247901917" lon="6.962394928559661">
        <ele>1605.9000000000001</ele>
        <time>2021-09-12T15:06:02Z</time>
      </trkpt>
      <trkpt lat="45.687990467995405" lon="6.962385708466172">
        <ele>1606</ele>
        <time>2021-09-12T15:06:03Z</time>
      </trkpt>
      <trkpt lat="45.688000358641148" lon="6.96237531490624">
        <ele>1606.03</ele>
        <time>2021-09-12T15:06:04Z</time>
      </trkpt>
      <trkpt lat="45.68801024928689" lon="6.962365172803402">
        <ele>1606</ele>
        <time>2021-09-12T15:06:05Z</time>
      </trkpt>
      <trkpt lat="45.688019637018442" lon="6.962355449795723">
        <ele>1605.96</ele>
        <time>2021-09-12T15:06:06Z</time>
      </trkpt>
      <trkpt lat="45.688039921224117" lon="6.962345726788044">
        <ele>1605.6800000000001</ele>
        <time>2021-09-12T15:06:08Z</time>
      </trkpt>
      <trkpt lat="45.688051152974367" lon="6.962347403168678">
        <ele>1605.48</ele>
        <time>2021-09-12T15:06:09Z</time>
      </trkpt>
      <trkpt lat="45.688060959801078" lon="6.962351929396391">
        <ele>1605.4000000000001</ele>
        <time>2021-09-12T15:06:10Z</time>
      </trkpt>
      <trkpt lat="45.688070515170693" lon="6.962359305471182">
        <ele>1605.3299999999999</ele>
        <time>2021-09-12T15:06:11Z</time>
      </trkpt>
      <trkpt lat="45.688189286738634" lon="6.962545467540622">
        <ele>1603.6500000000001</ele>
        <time>2021-09-12T15:06:27Z</time>
      </trkpt>
      <trkpt lat="45.688313422724605" lon="6.962772281840444">
        <ele>1603.1600000000001</ele>
        <time>2021-09-12T15:06:44Z</time>
      </trkpt>
      <trkpt lat="45.68835767917335" lon="6.96281117387116">
        <ele>1603.23</ele>
        <time>2021-09-12T15:06:48Z</time>
      </trkpt>
      <trkpt lat="45.688368491828442" lon="6.962818969041109">
        <ele>1603.26</ele>
        <time>2021-09-12T15:06:49Z</time>
      </trkpt>
      <trkpt lat="45.68841434083879" lon="6.962866578251123">
        <ele>1603.74</ele>
        <time>2021-09-12T15:06:54Z</time>
      </trkpt>
      <trkpt lat="45.688424818217754" lon="6.962872361764312">
        <ele>1603.73</ele>
        <time>2021-09-12T15:06:55Z</time>
      </trkpt>
      <trkpt lat="45.688435882329941" lon="6.96287571452558">
        <ele>1603.7</ele>
        <time>2021-09-12T15:06:56Z</time>
      </trkpt>
      <trkpt lat="45.688572842627764" lon="6.962912175804377">
        <ele>1604.5</ele>
        <time>2021-09-12T15:07:08Z</time>
      </trkpt>
      <trkpt lat="45.688591785728931" lon="6.962923659011722">
        <ele>1604.3699999999999</ele>
        <time>2021-09-12T15:07:10Z</time>
      </trkpt>
      <trkpt lat="45.688673676922917" lon="6.962935896590352">
        <ele>1605.29</ele>
        <time>2021-09-12T15:07:19Z</time>
      </trkpt>
      <trkpt lat="45.688759591430426" lon="6.96293581277132">
        <ele>1606.2</ele>
        <time>2021-09-12T15:07:30Z</time>
      </trkpt>
      <trkpt lat="45.688884314149618" lon="6.962928352877498">
        <ele>1607.02</ele>
        <time>2021-09-12T15:07:43Z</time>
      </trkpt>
      <trkpt lat="45.689008114859462" lon="6.962918629869819">
        <ele>1608.9100000000001</ele>
        <time>2021-09-12T15:07:55Z</time>
      </trkpt>
      <trkpt lat="45.689119677990675" lon="6.962934220209718">
        <ele>1609.1900000000001</ele>
        <time>2021-09-12T15:08:04Z</time>
      </trkpt>
      <trkpt lat="45.689196288585663" lon="6.962927766144276">
        <ele>1609.47</ele>
        <time>2021-09-12T15:08:10Z</time>
      </trkpt>
      <trkpt lat="45.689217830076814" lon="6.962929693982005">
        <ele>1609.5999999999999</ele>
        <time>2021-09-12T15:08:12Z</time>
      </trkpt>
      <trkpt lat="45.689313635230064" lon="6.962947128340602">
        <ele>1610.6300000000001</ele>
        <time>2021-09-12T15:08:21Z</time>
      </trkpt>
      <trkpt lat="45.689402315765619" lon="6.962928604334593">
        <ele>1611.29</ele>
        <time>2021-09-12T15:08:28Z</time>
      </trkpt>
      <trkpt lat="45.68950105458498" lon="6.962809329852462">
        <ele>1612.28</ele>
        <time>2021-09-12T15:08:41Z</time>
      </trkpt>
      <trkpt lat="45.689511029049754" lon="6.962810251861811">
        <ele>1612.1800000000001</ele>
        <time>2021-09-12T15:08:42Z</time>
      </trkpt>
      <trkpt lat="45.689524272456765" lon="6.962813939899206">
        <ele>1612.1500000000001</ele>
        <time>2021-09-12T15:08:43Z</time>
      </trkpt>
      <trkpt lat="45.68953868933022" lon="6.96282047778368">
        <ele>1612.1300000000001</ele>
        <time>2021-09-12T15:08:44Z</time>
      </trkpt>
      <trkpt lat="45.689677409827709" lon="6.962889209389687">
        <ele>1611.95</ele>
        <time>2021-09-12T15:08:56Z</time>
      </trkpt>
      <trkpt lat="45.689765252172947" lon="6.962865488603711">
        <ele>1611.9000000000001</ele>
        <time>2021-09-12T15:09:04Z</time>
      </trkpt>
      <trkpt lat="45.689777070656419" lon="6.962860627099872">
        <ele>1611.8099999999999</ele>
        <time>2021-09-12T15:09:05Z</time>
      </trkpt>
      <trkpt lat="45.689918054267764" lon="6.962785022333264">
        <ele>1609.8699999999999</ele>
        <time>2021-09-12T15:09:18Z</time>
      </trkpt>
      <trkpt lat="45.689977314323187" lon="6.962781082838774">
        <ele>1608.5599999999999</ele>
        <time>2021-09-12T15:09:26Z</time>
      </trkpt>
      <trkpt lat="45.689999777823687" lon="6.962774293497205">
        <ele>1608.1300000000001</ele>
        <time>2021-09-12T15:09:28Z</time>
      </trkpt>
      <trkpt lat="45.690011763945222" lon="6.96277404204011">
        <ele>1607.9000000000001</ele>
        <time>2021-09-12T15:09:29Z</time>
      </trkpt>
      <trkpt lat="45.690024001523852" lon="6.962772281840444">
        <ele>1607.6300000000001</ele>
        <time>2021-09-12T15:09:30Z</time>
      </trkpt>
      <trkpt lat="45.690036155283451" lon="6.962769348174334">
        <ele>1607.54</ele>
        <time>2021-09-12T15:09:31Z</time>
      </trkpt>
      <trkpt lat="45.690047303214669" lon="6.962760798633099">
        <ele>1607.4100000000001</ele>
        <time>2021-09-12T15:09:32Z</time>
      </trkpt>
      <trkpt lat="45.690058702602983" lon="6.962750069797039">
        <ele>1607.1900000000001</ele>
        <time>2021-09-12T15:09:33Z</time>
      </trkpt>
      <trkpt lat="45.690071024000645" lon="6.962743028998375">
        <ele>1607.0799999999999</ele>
        <time>2021-09-12T15:09:34Z</time>
      </trkpt>
      <trkpt lat="45.690082088112831" lon="6.962732886895537">
        <ele>1606.9100000000001</ele>
        <time>2021-09-12T15:09:35Z</time>
      </trkpt>
      <trkpt lat="45.690091475844383" lon="6.962719643488526">
        <ele>1606.73</ele>
        <time>2021-09-12T15:09:36Z</time>
      </trkpt>
      <trkpt lat="45.690096169710159" lon="6.962702460587025">
        <ele>1606.5999999999999</ele>
        <time>2021-09-12T15:09:37Z</time>
      </trkpt>
      <trkpt lat="45.690099941566586" lon="6.962685193866491">
        <ele>1606.47</ele>
        <time>2021-09-12T15:09:38Z</time>
      </trkpt>
      <trkpt lat="45.690103294327855" lon="6.962667256593704">
        <ele>1606.21</ele>
        <time>2021-09-12T15:09:39Z</time>
      </trkpt>
      <trkpt lat="45.69010547362268" lon="6.962647894397378">
        <ele>1606.0999999999999</ele>
        <time>2021-09-12T15:09:40Z</time>
      </trkpt>
      <trkpt lat="45.690115951001644" lon="6.962481094524264">
        <ele>1605.52</ele>
        <time>2021-09-12T15:09:50Z</time>
      </trkpt>
      <trkpt lat="45.690078651532531" lon="6.962273726239801">
        <ele>1603.79</ele>
        <time>2021-09-12T15:10:03Z</time>
      </trkpt>
      <trkpt lat="45.690050236880779" lon="6.962088150903583">
        <ele>1601.6300000000001</ele>
        <time>2021-09-12T15:10:14Z</time>
      </trkpt>
      <trkpt lat="45.689943786710501" lon="6.961871227249503">
        <ele>1601.1099999999999</ele>
        <time>2021-09-12T15:10:29Z</time>
      </trkpt>
      <trkpt lat="45.689831050112844" lon="6.961738960817456">
        <ele>1598.02</ele>
        <time>2021-09-12T15:10:41Z</time>
      </trkpt>
      <trkpt lat="45.689752092584968" lon="6.961626140400767">
        <ele>1597.3199999999999</ele>
        <time>2021-09-12T15:10:50Z</time>
      </trkpt>
      <trkpt lat="45.689699118956923" lon="6.961507704108954">
        <ele>1595.8699999999999</ele>
        <time>2021-09-12T15:10:57Z</time>
      </trkpt>
      <trkpt lat="45.689637260511518" lon="6.96129254065454">
        <ele>1595.3399999999999</ele>
        <time>2021-09-12T15:11:08Z</time>
      </trkpt>
      <trkpt lat="45.689628040418029" lon="6.961155496537685">
        <ele>1596.3499999999999</ele>
        <time>2021-09-12T15:11:19Z</time>
      </trkpt>
      <trkpt lat="45.689638266339898" lon="6.961025409400463">
        <ele>1596.0899999999999</ele>
        <time>2021-09-12T15:11:31Z</time>
      </trkpt>
      <trkpt lat="45.689624436199665" lon="6.961008226498961">
        <ele>1595.6300000000001</ele>
        <time>2021-09-12T15:11:41Z</time>
      </trkpt>
      <trkpt lat="45.689630890265107" lon="6.960982074961066">
        <ele>1595.47</ele>
        <time>2021-09-12T15:12:00Z</time>
      </trkpt>
      <trkpt lat="45.689629213884473" lon="6.960959946736693">
        <ele>1595.4300000000001</ele>
        <time>2021-09-12T15:12:17Z</time>
      </trkpt>
      <trkpt lat="45.689643379300833" lon="6.960964808240533">
        <ele>1595.0999999999999</ele>
        <time>2021-09-12T15:12:37Z</time>
      </trkpt>
      <trkpt lat="45.689641702920198" lon="6.960975537076592">
        <ele>1595.04</ele>
        <time>2021-09-12T15:12:56Z</time>
      </trkpt>
      <trkpt lat="45.689630890265107" lon="6.960982996970415">
        <ele>1595.1400000000001</ele>
        <time>2021-09-12T15:13:15Z</time>
      </trkpt>
      <trkpt lat="45.689651006832719" lon="6.96098861284554">
        <ele>1595.03</ele>
        <time>2021-09-12T15:13:36Z</time>
      </trkpt>
      <trkpt lat="45.689648408442736" lon="6.96101794950664">
        <ele>1594.8699999999999</ele>
        <time>2021-09-12T15:13:56Z</time>
      </trkpt>
      <trkpt lat="45.68968428298831" lon="6.961027840152383">
        <ele>1594.8399999999999</ele>
        <time>2021-09-12T15:14:15Z</time>
      </trkpt>
      <trkpt lat="45.689702723175287" lon="6.96102331392467">
        <ele>1594.6099999999999</ele>
        <time>2021-09-12T15:14:37Z</time>
      </trkpt>
      <trkpt lat="45.689696604385972" lon="6.960987774655223">
        <ele>1594.46</ele>
        <time>2021-09-12T15:14:57Z</time>
      </trkpt>
      <trkpt lat="45.689668860286474" lon="6.961022643372417">
        <ele>1594.45</ele>
        <time>2021-09-12T15:15:15Z</time>
      </trkpt>
      <trkpt lat="45.689674224704504" lon="6.961003197357059">
        <ele>1594.23</ele>
        <time>2021-09-12T15:15:34Z</time>
      </trkpt>
      <trkpt lat="45.689714960753918" lon="6.96102331392467">
        <ele>1594.0999999999999</ele>
        <time>2021-09-12T15:15:51Z</time>
      </trkpt>
      <trkpt lat="45.68974245339632" lon="6.96101987734437">
        <ele>1594.24</ele>
        <time>2021-09-12T15:16:10Z</time>
      </trkpt>
      <trkpt lat="45.689733736217022" lon="6.961007472127676">
        <ele>1594.5</ele>
        <time>2021-09-12T15:16:28Z</time>
      </trkpt>
      <trkpt lat="45.689687803387642" lon="6.961009232327342">
        <ele>1594.5</ele>
        <time>2021-09-12T15:16:44Z</time>
      </trkpt>
      <trkpt lat="45.68970968015492" lon="6.960986517369747">
        <ele>1594.29</ele>
        <time>2021-09-12T15:16:57Z</time>
      </trkpt>
      <trkpt lat="45.689715798944235" lon="6.960969921201468">
        <ele>1594.1900000000001</ele>
        <time>2021-09-12T15:16:58Z</time>
      </trkpt>
      <trkpt lat="45.689797103404999" lon="6.960823489353061">
        <ele>1593.73</ele>
        <time>2021-09-12T15:17:11Z</time>
      </trkpt>
      <trkpt lat="45.689805233851075" lon="6.960815945640206">
        <ele>1593.6700000000001</ele>
        <time>2021-09-12T15:17:12Z</time>
      </trkpt>
      <trkpt lat="45.689816130325198" lon="6.960810413584113">
        <ele>1593.73</ele>
        <time>2021-09-12T15:17:13Z</time>
      </trkpt>
      <trkpt lat="45.689825937151909" lon="6.960803875699639">
        <ele>1593.7</ele>
        <time>2021-09-12T15:17:14Z</time>
      </trkpt>
      <trkpt lat="45.689834905788302" lon="6.960793901234865">
        <ele>1593.8599999999999</ele>
        <time>2021-09-12T15:17:15Z</time>
      </trkpt>
      <trkpt lat="45.689969519153237" lon="6.960707986727357">
        <ele>1594.6099999999999</ele>
        <time>2021-09-12T15:17:27Z</time>
      </trkpt>
      <trkpt lat="45.690208487212658" lon="6.960698766633868">
        <ele>1595</ele>
        <time>2021-09-12T15:17:45Z</time>
      </trkpt>
      <trkpt lat="45.690411580726504" lon="6.960768504068255">
        <ele>1596.9400000000001</ele>
        <time>2021-09-12T15:18:02Z</time>
      </trkpt>
      <trkpt lat="45.690637892112136" lon="6.960766324773431">
        <ele>1599.8199999999999</ele>
        <time>2021-09-12T15:18:21Z</time>
      </trkpt>
      <trkpt lat="45.690800920128822" lon="6.960799265652895">
        <ele>1601.5599999999999</ele>
        <time>2021-09-12T15:18:35Z</time>
      </trkpt>
      <trkpt lat="45.690934779122472" lon="6.960837319493294">
        <ele>1604.2</ele>
        <time>2021-09-12T15:18:48Z</time>
      </trkpt>
      <trkpt lat="45.691106105223298" lon="6.960827512666583">
        <ele>1606.4000000000001</ele>
        <time>2021-09-12T15:19:04Z</time>
      </trkpt>
      <trkpt lat="45.691280951723456" lon="6.96075257845223">
        <ele>1608.0799999999999</ele>
        <time>2021-09-12T15:19:20Z</time>
      </trkpt>
      <trkpt lat="45.691482117399573" lon="6.960715614259243">
        <ele>1610.5599999999999</ele>
        <time>2021-09-12T15:19:38Z</time>
      </trkpt>
      <trkpt lat="45.691653359681368" lon="6.960706394165754">
        <ele>1613.1500000000001</ele>
        <time>2021-09-12T15:19:54Z</time>
      </trkpt>
      <trkpt lat="45.691776657477021" lon="6.960737658664584">
        <ele>1615.3599999999999</ele>
        <time>2021-09-12T15:20:06Z</time>
      </trkpt>
      <trkpt lat="45.691945804283023" lon="6.960845366120338">
        <ele>1617.77</ele>
        <time>2021-09-12T15:20:22Z</time>
      </trkpt>
      <trkpt lat="45.692106485366821" lon="6.960906721651554">
        <ele>1619.8</ele>
        <time>2021-09-12T15:20:38Z</time>
      </trkpt>
      <trkpt lat="45.692231543362141" lon="6.960869673639536">
        <ele>1618.3099999999999</ele>
        <time>2021-09-12T15:20:51Z</time>
      </trkpt>
      <trkpt lat="45.692399349063635" lon="6.960798762738705">
        <ele>1616.77</ele>
        <time>2021-09-12T15:21:06Z</time>
      </trkpt>
      <trkpt lat="45.692600179463625" lon="6.960843941196799">
        <ele>1614.6700000000001</ele>
        <time>2021-09-12T15:21:22Z</time>
      </trkpt>
      <trkpt lat="45.692810984328389" lon="6.960987355560064">
        <ele>1612.6800000000001</ele>
        <time>2021-09-12T15:21:40Z</time>
      </trkpt>
      <trkpt lat="45.693036708980799" lon="6.961046867072582">
        <ele>1611.3199999999999</ele>
        <time>2021-09-12T15:21:59Z</time>
      </trkpt>
      <trkpt lat="45.69321071729064" lon="6.961075030267239">
        <ele>1609.4000000000001</ele>
        <time>2021-09-12T15:22:13Z</time>
      </trkpt>
      <trkpt lat="45.693380702286959" lon="6.961082573980093">
        <ele>1607.29</ele>
        <time>2021-09-12T15:22:27Z</time>
      </trkpt>
      <trkpt lat="45.693545322865248" lon="6.961085088551045">
        <ele>1605.8199999999999</ele>
        <time>2021-09-12T15:22:40Z</time>
      </trkpt>
      <trkpt lat="45.69359770976007" lon="6.961077796295285">
        <ele>1605.3499999999999</ele>
        <time>2021-09-12T15:22:45Z</time>
      </trkpt>
      <trkpt lat="45.69361187517643" lon="6.961084250360727">
        <ele>1605.28</ele>
        <time>2021-09-12T15:22:46Z</time>
      </trkpt>
      <trkpt lat="45.693624280393124" lon="6.96109464392066">
        <ele>1605.25</ele>
        <time>2021-09-12T15:22:47Z</time>
      </trkpt>
      <trkpt lat="45.693636182695627" lon="6.961104534566402">
        <ele>1605.03</ele>
        <time>2021-09-12T15:22:48Z</time>
      </trkpt>
      <trkpt lat="45.69364950992167" lon="6.961112832650542">
        <ele>1604.8</ele>
        <time>2021-09-12T15:22:49Z</time>
      </trkpt>
      <trkpt lat="45.693662585690618" lon="6.961116101592779">
        <ele>1604.6700000000001</ele>
        <time>2021-09-12T15:22:50Z</time>
      </trkpt>
      <trkpt lat="45.693675074726343" lon="6.961116017773747">
        <ele>1604.51</ele>
        <time>2021-09-12T15:22:51Z</time>
      </trkpt>
      <trkpt lat="45.69368714466691" lon="6.961116688326001">
        <ele>1604.4400000000001</ele>
        <time>2021-09-12T15:22:52Z</time>
      </trkpt>
      <trkpt lat="45.693710530176759" lon="6.961100092157722">
        <ele>1603.8800000000001</ele>
        <time>2021-09-12T15:22:55Z</time>
      </trkpt>
      <trkpt lat="45.693730060011148" lon="6.961040496826172">
        <ele>1602.1500000000001</ele>
        <time>2021-09-12T15:22:59Z</time>
      </trkpt>
      <trkpt lat="45.693735256791115" lon="6.961012920364738">
        <ele>1601.3</ele>
        <time>2021-09-12T15:23:01Z</time>
      </trkpt>
      <trkpt lat="45.693763503804803" lon="6.961039490997791">
        <ele>1600.2</ele>
        <time>2021-09-12T15:23:05Z</time>
      </trkpt>
      <trkpt lat="45.693834330886602" lon="6.961114760488272">
        <ele>1598.0799999999999</ele>
        <time>2021-09-12T15:23:13Z</time>
      </trkpt>
      <trkpt lat="45.693902727216482" lon="6.961076036095619">
        <ele>1595.4000000000001</ele>
        <time>2021-09-12T15:23:20Z</time>
      </trkpt>
      <trkpt lat="45.693907672539353" lon="6.961043765768409">
        <ele>1594.6600000000001</ele>
        <time>2021-09-12T15:23:22Z</time>
      </trkpt>
      <trkpt lat="45.693923179060221" lon="6.960993222892284">
        <ele>1593.51</ele>
        <time>2021-09-12T15:23:25Z</time>
      </trkpt>
      <trkpt lat="45.693915216252208" lon="6.960856262594461">
        <ele>1591.71</ele>
        <time>2021-09-12T15:23:33Z</time>
      </trkpt>
      <trkpt lat="45.694051505997777" lon="6.960805300623179">
        <ele>1589.1199999999999</ele>
        <time>2021-09-12T15:23:45Z</time>
      </trkpt>
      <trkpt lat="45.694143790751696" lon="6.960762636736035">
        <ele>1586.9100000000001</ele>
        <time>2021-09-12T15:23:53Z</time>
      </trkpt>
      <trkpt lat="45.6941919028759" lon="6.960729779675603">
        <ele>1586.1199999999999</ele>
        <time>2021-09-12T15:23:57Z</time>
      </trkpt>
      <trkpt lat="45.694294832646847" lon="6.96078191511333">
        <ele>1582.8599999999999</ele>
        <time>2021-09-12T15:24:06Z</time>
      </trkpt>
      <trkpt lat="45.694374293088913" lon="6.960769426077604">
        <ele>1581.3399999999999</ele>
        <time>2021-09-12T15:24:13Z</time>
      </trkpt>
      <trkpt lat="45.694408072158694" lon="6.960790883749723">
        <ele>1580.77</ele>
        <time>2021-09-12T15:24:17Z</time>
      </trkpt>
      <trkpt lat="45.694499853998423" lon="6.960923820734024">
        <ele>1578.4300000000001</ele>
        <time>2021-09-12T15:24:29Z</time>
      </trkpt>
      <trkpt lat="45.694521060213447" lon="6.96097101084888">
        <ele>1577.5799999999999</ele>
        <time>2021-09-12T15:24:34Z</time>
      </trkpt>
      <trkpt lat="45.69460085593164" lon="6.96101157926023">
        <ele>1575.8299999999999</ele>
        <time>2021-09-12T15:24:43Z</time>
      </trkpt>
      <trkpt lat="45.694631198421121" lon="6.960992468520999">
        <ele>1575.1099999999999</ele>
        <time>2021-09-12T15:24:46Z</time>
      </trkpt>
      <trkpt lat="45.694756591692567" lon="6.960954498499632">
        <ele>1572.45</ele>
        <time>2021-09-12T15:24:57Z</time>
      </trkpt>
      <trkpt lat="45.694907382130623" lon="6.960984589532018">
        <ele>1571.0799999999999</ele>
        <time>2021-09-12T15:25:07Z</time>
      </trkpt>
      <trkpt lat="45.695002852007747" lon="6.960953995585442">
        <ele>1569.75</ele>
        <time>2021-09-12T15:25:14Z</time>
      </trkpt>
      <trkpt lat="45.695177363231778" lon="6.960870595648885">
        <ele>1567.6700000000001</ele>
        <time>2021-09-12T15:25:27Z</time>
      </trkpt>
      <trkpt lat="45.695285070687532" lon="6.960777640342712">
        <ele>1566.6600000000001</ele>
        <time>2021-09-12T15:25:37Z</time>
      </trkpt>
      <trkpt lat="45.695365369319916" lon="6.960791973397136">
        <ele>1565.6900000000001</ele>
        <time>2021-09-12T15:25:43Z</time>
      </trkpt>
      <trkpt lat="45.695531331002712" lon="6.960871601477265">
        <ele>1564.72</ele>
        <time>2021-09-12T15:25:56Z</time>
      </trkpt>
      <trkpt lat="45.695556895807385" lon="6.960888281464577">
        <ele>1564.72</ele>
        <time>2021-09-12T15:25:58Z</time>
      </trkpt>
      <trkpt lat="45.695627722889185" lon="6.960834553465247">
        <ele>1563.8499999999999</ele>
        <time>2021-09-12T15:26:05Z</time>
      </trkpt>
      <trkpt lat="45.695623112842441" lon="6.960789458826184">
        <ele>1563.27</ele>
        <time>2021-09-12T15:26:07Z</time>
      </trkpt>
      <trkpt lat="45.695615569129586" lon="6.960764648392797">
        <ele>1563.0699999999999</ele>
        <time>2021-09-12T15:26:08Z</time>
      </trkpt>
      <trkpt lat="45.695610623806715" lon="6.960746543481946">
        <ele>1562.77</ele>
        <time>2021-09-12T15:26:09Z</time>
      </trkpt>
      <trkpt lat="45.695603499189019" lon="6.960729695856571">
        <ele>1562.5899999999999</ele>
        <time>2021-09-12T15:26:10Z</time>
      </trkpt>
      <trkpt lat="45.695595201104879" lon="6.960713183507323">
        <ele>1562.4100000000001</ele>
        <time>2021-09-12T15:26:11Z</time>
      </trkpt>
      <trkpt lat="45.69558254443109" lon="6.960568511858583">
        <ele>1560.4000000000001</ele>
        <time>2021-09-12T15:26:20Z</time>
      </trkpt>
      <trkpt lat="45.695586651563644" lon="6.960553759709001">
        <ele>1560.24</ele>
        <time>2021-09-12T15:26:21Z</time>
      </trkpt>
      <trkpt lat="45.69558790884912" lon="6.96053758263588">
        <ele>1560.0799999999999</ele>
        <time>2021-09-12T15:26:22Z</time>
      </trkpt>
      <trkpt lat="45.695585561916232" lon="6.960522830486298">
        <ele>1559.9300000000001</ele>
        <time>2021-09-12T15:26:23Z</time>
      </trkpt>
      <trkpt lat="45.69558153860271" lon="6.960505479946733">
        <ele>1559.6700000000001</ele>
        <time>2021-09-12T15:26:24Z</time>
      </trkpt>
      <trkpt lat="45.695580868050456" lon="6.960487794131041">
        <ele>1559.4200000000001</ele>
        <time>2021-09-12T15:26:25Z</time>
      </trkpt>
      <trkpt lat="45.695583717897534" lon="6.960472874343395">
        <ele>1559.23</ele>
        <time>2021-09-12T15:26:26Z</time>
      </trkpt>
      <trkpt lat="45.695589333772659" lon="6.960458038374782">
        <ele>1559.2</ele>
        <time>2021-09-12T15:26:27Z</time>
      </trkpt>
      <trkpt lat="45.695622526109219" lon="6.960382182151079">
        <ele>1557.52</ele>
        <time>2021-09-12T15:26:33Z</time>
      </trkpt>
      <trkpt lat="45.695633422583342" lon="6.960372291505337">
        <ele>1557.1400000000001</ele>
        <time>2021-09-12T15:26:34Z</time>
      </trkpt>
      <trkpt lat="45.695668878033757" lon="6.960337338969111">
        <ele>1555.9400000000001</ele>
        <time>2021-09-12T15:26:38Z</time>
      </trkpt>
      <trkpt lat="45.695675918832421" lon="6.960323760285974">
        <ele>1555.78</ele>
        <time>2021-09-12T15:26:39Z</time>
      </trkpt>
      <trkpt lat="45.695686312392354" lon="6.960314624011517">
        <ele>1555.4400000000001</ele>
        <time>2021-09-12T15:26:40Z</time>
      </trkpt>
      <trkpt lat="45.695777675136924" lon="6.960241030901671">
        <ele>1552.72</ele>
        <time>2021-09-12T15:26:50Z</time>
      </trkpt>
      <trkpt lat="45.695820758119226" lon="6.960232481360436">
        <ele>1551.8099999999999</ele>
        <time>2021-09-12T15:26:54Z</time>
      </trkpt>
      <trkpt lat="45.695833498612046" lon="6.960232565179467">
        <ele>1551.6099999999999</ele>
        <time>2021-09-12T15:26:55Z</time>
      </trkpt>
      <trkpt lat="45.695861158892512" lon="6.960216052830219">
        <ele>1550.9400000000001</ele>
        <time>2021-09-12T15:26:58Z</time>
      </trkpt>
      <trkpt lat="45.695885550230742" lon="6.96017506532371">
        <ele>1550.02</ele>
        <time>2021-09-12T15:27:01Z</time>
      </trkpt>
      <trkpt lat="45.695932153612375" lon="6.960137514397502">
        <ele>1548.73</ele>
        <time>2021-09-12T15:27:11Z</time>
      </trkpt>
      <trkpt lat="45.696010608226061" lon="6.960158720612526">
        <ele>1545.6300000000001</ele>
        <time>2021-09-12T15:27:20Z</time>
      </trkpt>
      <trkpt lat="45.696024522185326" lon="6.960167773067951">
        <ele>1545.1199999999999</ele>
        <time>2021-09-12T15:27:22Z</time>
      </trkpt>
      <trkpt lat="45.696038771420717" lon="6.960173305124044">
        <ele>1544.8699999999999</ele>
        <time>2021-09-12T15:27:23Z</time>
      </trkpt>
      <trkpt lat="45.696048578247428" lon="6.960179759189487">
        <ele>1544.3199999999999</ele>
        <time>2021-09-12T15:27:24Z</time>
      </trkpt>
      <trkpt lat="45.696060061454773" lon="6.960188811644912">
        <ele>1544</ele>
        <time>2021-09-12T15:27:25Z</time>
      </trkpt>
      <trkpt lat="45.696073472499847" lon="6.96019358932972">
        <ele>1543.6600000000001</ele>
        <time>2021-09-12T15:27:26Z</time>
      </trkpt>
      <trkpt lat="45.696085374802351" lon="6.960196439176798">
        <ele>1543.5899999999999</ele>
        <time>2021-09-12T15:27:27Z</time>
      </trkpt>
      <trkpt lat="45.696140779182315" lon="6.960225272923708">
        <ele>1541.6500000000001</ele>
        <time>2021-09-12T15:27:37Z</time>
      </trkpt>
      <trkpt lat="45.696227699518204" lon="6.960333064198494">
        <ele>1539.5699999999999</ele>
        <time>2021-09-12T15:27:48Z</time>
      </trkpt>
      <trkpt lat="45.696245804429054" lon="6.960351839661598">
        <ele>1539.4200000000001</ele>
        <time>2021-09-12T15:27:49Z</time>
      </trkpt>
      <trkpt lat="45.696255527436733" lon="6.960370698943734">
        <ele>1539.1900000000001</ele>
        <time>2021-09-12T15:27:50Z</time>
      </trkpt>
      <trkpt lat="45.696268016472459" lon="6.960387714207172">
        <ele>1538.8699999999999</ele>
        <time>2021-09-12T15:27:51Z</time>
      </trkpt>
      <trkpt lat="45.696278410032392" lon="6.960401795804501">
        <ele>1538.8299999999999</ele>
        <time>2021-09-12T15:27:52Z</time>
      </trkpt>
      <trkpt lat="45.696322079747915" lon="6.9604432862252">
        <ele>1537.9400000000001</ele>
        <time>2021-09-12T15:27:56Z</time>
      </trkpt>
      <trkpt lat="45.696335239335895" lon="6.96045451797545">
        <ele>1537.6300000000001</ele>
        <time>2021-09-12T15:27:57Z</time>
      </trkpt>
      <trkpt lat="45.696343285962939" lon="6.960465498268604">
        <ele>1537.4200000000001</ele>
        <time>2021-09-12T15:27:58Z</time>
      </trkpt>
      <trkpt lat="45.696351332589984" lon="6.960479998961091">
        <ele>1537.1600000000001</ele>
        <time>2021-09-12T15:27:59Z</time>
      </trkpt>
      <trkpt lat="45.69637069478631" lon="6.960524003952742">
        <ele>1536.74</ele>
        <time>2021-09-12T15:28:02Z</time>
      </trkpt>
      <trkpt lat="45.696378238499165" lon="6.960540181025863">
        <ele>1536.5799999999999</ele>
        <time>2021-09-12T15:28:03Z</time>
      </trkpt>
      <trkpt lat="45.696382177993655" lon="6.960559627041221">
        <ele>1536.1700000000001</ele>
        <time>2021-09-12T15:28:04Z</time>
      </trkpt>
      <trkpt lat="45.696383267641068" lon="6.960578570142388">
        <ele>1536.1500000000001</ele>
        <time>2021-09-12T15:28:05Z</time>
      </trkpt>
      <trkpt lat="45.69638972170651" lon="6.96060991846025">
        <ele>1535.7</ele>
        <time>2021-09-12T15:28:07Z</time>
      </trkpt>
      <trkpt lat="45.696410676464438" lon="6.960689127445221">
        <ele>1534.6199999999999</ele>
        <time>2021-09-12T15:28:12Z</time>
      </trkpt>
      <trkpt lat="45.696414113044739" lon="6.960708070546389">
        <ele>1534.5</ele>
        <time>2021-09-12T15:28:13Z</time>
      </trkpt>
      <trkpt lat="45.696416543796659" lon="6.960725924000144">
        <ele>1534.3399999999999</ele>
        <time>2021-09-12T15:28:14Z</time>
      </trkpt>
      <trkpt lat="45.696431212127209" lon="6.960832793265581">
        <ele>1533.5599999999999</ele>
        <time>2021-09-12T15:28:21Z</time>
      </trkpt>
      <trkpt lat="45.696439342573285" lon="6.960852239280939">
        <ele>1533.47</ele>
        <time>2021-09-12T15:28:22Z</time>
      </trkpt>
      <trkpt lat="45.696446131914854" lon="6.960870260372758">
        <ele>1533.1099999999999</ele>
        <time>2021-09-12T15:28:23Z</time>
      </trkpt>
      <trkpt lat="45.696451077237725" lon="6.960887862369418">
        <ele>1532.96</ele>
        <time>2021-09-12T15:28:24Z</time>
      </trkpt>
      <trkpt lat="45.69645275361836" lon="6.960909236222506">
        <ele>1532.6500000000001</ele>
        <time>2021-09-12T15:28:25Z</time>
      </trkpt>
      <trkpt lat="45.696455184370279" lon="6.960928179323673">
        <ele>1532.3699999999999</ele>
        <time>2021-09-12T15:28:26Z</time>
      </trkpt>
      <trkpt lat="45.696458704769611" lon="6.960947038605809">
        <ele>1532.04</ele>
        <time>2021-09-12T15:28:27Z</time>
      </trkpt>
      <trkpt lat="45.696463063359261" lon="6.960965059697628">
        <ele>1531.8499999999999</ele>
        <time>2021-09-12T15:28:28Z</time>
      </trkpt>
      <trkpt lat="45.696561802178621" lon="6.961190784350038">
        <ele>1530.3900000000001</ele>
        <time>2021-09-12T15:28:40Z</time>
      </trkpt>
      <trkpt lat="45.696573704481125" lon="6.961205620318651">
        <ele>1530.45</ele>
        <time>2021-09-12T15:28:41Z</time>
      </trkpt>
      <trkpt lat="45.696586109697819" lon="6.961239567026496">
        <ele>1530.02</ele>
        <time>2021-09-12T15:28:43Z</time>
      </trkpt>
      <trkpt lat="45.696595245972276" lon="6.961300000548363">
        <ele>1529.6900000000001</ele>
        <time>2021-09-12T15:28:47Z</time>
      </trkpt>
      <trkpt lat="45.69659935310483" lon="6.961316177621484">
        <ele>1529.3499999999999</ele>
        <time>2021-09-12T15:28:48Z</time>
      </trkpt>
      <trkpt lat="45.696620726957917" lon="6.961397565901279">
        <ele>1528.5599999999999</ele>
        <time>2021-09-12T15:28:53Z</time>
      </trkpt>
      <trkpt lat="45.696627935394645" lon="6.961415922269225">
        <ele>1528.3800000000001</ele>
        <time>2021-09-12T15:28:54Z</time>
      </trkpt>
      <trkpt lat="45.696653835475445" lon="6.961488761007786">
        <ele>1527.6700000000001</ele>
        <time>2021-09-12T15:28:58Z</time>
      </trkpt>
      <trkpt lat="45.69666339084506" lon="6.961531257256866">
        <ele>1527.23</ele>
        <time>2021-09-12T15:29:00Z</time>
      </trkpt>
      <trkpt lat="45.69668535143137" lon="6.961552882567048">
        <ele>1526.8699999999999</ele>
        <time>2021-09-12T15:29:01Z</time>
      </trkpt>
      <trkpt lat="45.696730446070433" lon="6.96161356754601">
        <ele>1525.47</ele>
        <time>2021-09-12T15:29:04Z</time>
      </trkpt>
      <trkpt lat="45.696750562638044" lon="6.961644496768713">
        <ele>1524.77</ele>
        <time>2021-09-12T15:29:06Z</time>
      </trkpt>
      <trkpt lat="45.696791466325521" lon="6.961696967482567">
        <ele>1523.79</ele>
        <time>2021-09-12T15:29:10Z</time>
      </trkpt>
      <trkpt lat="45.696822060272098" lon="6.961696883663535">
        <ele>1523.3699999999999</ele>
        <time>2021-09-12T15:29:12Z</time>
      </trkpt>
      <trkpt lat="45.696836812421679" lon="6.961687244474888">
        <ele>1523.1400000000001</ele>
        <time>2021-09-12T15:29:13Z</time>
      </trkpt>
      <trkpt lat="45.696849385276437" lon="6.961674671620131">
        <ele>1523.05</ele>
        <time>2021-09-12T15:29:14Z</time>
      </trkpt>
      <trkpt lat="45.696863131597638" lon="6.961662769317627">
        <ele>1522.76</ele>
        <time>2021-09-12T15:29:15Z</time>
      </trkpt>
      <trkpt lat="45.69687495008111" lon="6.961650028824806">
        <ele>1522.48</ele>
        <time>2021-09-12T15:29:16Z</time>
      </trkpt>
      <trkpt lat="45.696890959516168" lon="6.961642066016793">
        <ele>1522.4100000000001</ele>
        <time>2021-09-12T15:29:17Z</time>
      </trkpt>
      <trkpt lat="45.696905208751559" lon="6.961632007732987">
        <ele>1522.22</ele>
        <time>2021-09-12T15:29:18Z</time>
      </trkpt>
      <trkpt lat="45.696916943415999" lon="6.961622703820467">
        <ele>1521.8699999999999</ele>
        <time>2021-09-12T15:29:19Z</time>
      </trkpt>
      <trkpt lat="45.696931192651391" lon="6.961613651365042">
        <ele>1521.7</ele>
        <time>2021-09-12T15:29:20Z</time>
      </trkpt>
      <trkpt lat="45.697091957554221" lon="6.961507368832827">
        <ele>1519.3900000000001</ele>
        <time>2021-09-12T15:29:32Z</time>
      </trkpt>
      <trkpt lat="45.697137555107474" lon="6.9615070335567">
        <ele>1519.1900000000001</ele>
        <time>2021-09-12T15:29:35Z</time>
      </trkpt>
      <trkpt lat="45.697148954495788" lon="6.961521282792091">
        <ele>1519.02</ele>
        <time>2021-09-12T15:29:36Z</time>
      </trkpt>
      <trkpt lat="45.697158509865403" lon="6.961536202579737">
        <ele>1518.8900000000001</ele>
        <time>2021-09-12T15:29:37Z</time>
      </trkpt>
      <trkpt lat="45.697337631136179" lon="6.961761005222797">
        <ele>1519.2</ele>
        <time>2021-09-12T15:29:54Z</time>
      </trkpt>
      <trkpt lat="45.697383731603622" lon="6.961791599169374">
        <ele>1518.97</ele>
        <time>2021-09-12T15:29:58Z</time>
      </trkpt>
      <trkpt lat="45.697396723553538" lon="6.961789084598422">
        <ele>1518.96</ele>
        <time>2021-09-12T15:29:59Z</time>
      </trkpt>
      <trkpt lat="45.697568720206618" lon="6.961756981909275">
        <ele>1518.79</ele>
        <time>2021-09-12T15:30:13Z</time>
      </trkpt>
      <trkpt lat="45.697799306362867" lon="6.961616417393088">
        <ele>1519.05</ele>
        <time>2021-09-12T15:30:32Z</time>
      </trkpt>
      <trkpt lat="45.697918413206935" lon="6.961480798199773">
        <ele>1518.95</ele>
        <time>2021-09-12T15:30:45Z</time>
      </trkpt>
      <trkpt lat="45.697929812595248" lon="6.961471997201443">
        <ele>1519.0799999999999</ele>
        <time>2021-09-12T15:30:46Z</time>
      </trkpt>
      <trkpt lat="45.697993095964193" lon="6.961425058543682">
        <ele>1518.75</ele>
        <time>2021-09-12T15:30:53Z</time>
      </trkpt>
      <trkpt lat="45.698028551414609" lon="6.961410138756037">
        <ele>1519</ele>
        <time>2021-09-12T15:31:04Z</time>
      </trkpt>
    </trkseg>
  </trk>

</gpx>